<?xml version="1.0" encoding="UTF-8" standalone="no" ?>
<gpx xmlns="http://www.topografix.com/GPX/1/1" xmlns:xsi="http://www.w3.org/2001/XMLSchema-instance" xsi:schemaLocation="http://www.topografix.com/GPX/1/1 http://www.topografix.com/GPX/1/1/gpx.xsd" version="1.1" creator="VisuGPX - https://www.visugpx.com">
  <metadata>
    <name>Randonnée VTT club Faumont 15 janvier 2012</name>
    <desc><![CDATA[Randonnée de 40km circuit sans difficulté ...chemins peu de dénivelé...]]></desc>
  </metadata>
  <wpt lat="50.45789" lon="3.13734">
    <ele>41</ele>
  </wpt>
  <wpt lat="50.4578" lon="3.13687">
    <ele>39</ele>
  </wpt>
  <trk>
    <name><![CDATA[Randonnée VTT club Faumont 15 janvier 2012_1]]></name>
    <trkseg>
      <trkpt lat="50.45789" lon="3.13734">
        <ele>41</ele>
        <time>2012-01-15T07:38:37Z</time>
      </trkpt>
      <trkpt lat="50.45795" lon="3.13723">
        <ele>49</ele>
        <time>2012-01-15T07:41:39Z</time>
      </trkpt>
      <trkpt lat="50.45789" lon="3.13713">
        <ele>49</ele>
        <time>2012-01-15T07:42:28Z</time>
      </trkpt>
      <trkpt lat="50.45784" lon="3.137">
        <ele>49</ele>
        <time>2012-01-15T07:42:36Z</time>
      </trkpt>
      <trkpt lat="50.45775" lon="3.13703">
        <ele>43</ele>
        <time>2012-01-15T07:42:48Z</time>
      </trkpt>
      <trkpt lat="50.45766" lon="3.13711">
        <ele>43</ele>
        <time>2012-01-15T07:42:56Z</time>
      </trkpt>
      <trkpt lat="50.45764" lon="3.13695">
        <ele>43</ele>
        <time>2012-01-15T07:44:11Z</time>
      </trkpt>
      <trkpt lat="50.45764" lon="3.13681">
        <ele>43</ele>
        <time>2012-01-15T07:44:17Z</time>
      </trkpt>
      <trkpt lat="50.45773" lon="3.13678">
        <ele>43</ele>
        <time>2012-01-15T07:44:30Z</time>
      </trkpt>
      <trkpt lat="50.45785" lon="3.13676">
        <ele>43</ele>
        <time>2012-01-15T07:44:34Z</time>
      </trkpt>
      <trkpt lat="50.45796" lon="3.13677">
        <ele>43</ele>
        <time>2012-01-15T07:44:38Z</time>
      </trkpt>
      <trkpt lat="50.45806" lon="3.13678">
        <ele>43</ele>
        <time>2012-01-15T07:44:42Z</time>
      </trkpt>
      <trkpt lat="50.45817" lon="3.13677">
        <ele>43</ele>
        <time>2012-01-15T07:44:46Z</time>
      </trkpt>
      <trkpt lat="50.45827" lon="3.13676">
        <ele>43</ele>
        <time>2012-01-15T07:44:50Z</time>
      </trkpt>
      <trkpt lat="50.45837" lon="3.13676">
        <ele>43</ele>
        <time>2012-01-15T07:44:54Z</time>
      </trkpt>
      <trkpt lat="50.45848" lon="3.13676">
        <ele>43</ele>
        <time>2012-01-15T07:44:58Z</time>
      </trkpt>
      <trkpt lat="50.45859" lon="3.13676">
        <ele>43</ele>
        <time>2012-01-15T07:45:02Z</time>
      </trkpt>
      <trkpt lat="50.45868" lon="3.13676">
        <ele>43</ele>
        <time>2012-01-15T07:45:05Z</time>
      </trkpt>
      <trkpt lat="50.45877" lon="3.13674">
        <ele>43</ele>
        <time>2012-01-15T07:45:08Z</time>
      </trkpt>
      <trkpt lat="50.45888" lon="3.13675">
        <ele>43</ele>
        <time>2012-01-15T07:45:11Z</time>
      </trkpt>
      <trkpt lat="50.45898" lon="3.13676">
        <ele>43</ele>
        <time>2012-01-15T07:45:14Z</time>
      </trkpt>
      <trkpt lat="50.45909" lon="3.13677">
        <ele>43</ele>
        <time>2012-01-15T07:45:17Z</time>
      </trkpt>
      <trkpt lat="50.4592" lon="3.13677">
        <ele>43</ele>
        <time>2012-01-15T07:45:20Z</time>
      </trkpt>
      <trkpt lat="50.45931" lon="3.13678">
        <ele>43</ele>
        <time>2012-01-15T07:45:23Z</time>
      </trkpt>
      <trkpt lat="50.45943" lon="3.13678">
        <ele>43</ele>
        <time>2012-01-15T07:45:26Z</time>
      </trkpt>
      <trkpt lat="50.45954" lon="3.13678">
        <ele>43</ele>
        <time>2012-01-15T07:45:29Z</time>
      </trkpt>
      <trkpt lat="50.45965" lon="3.13678">
        <ele>43</ele>
        <time>2012-01-15T07:45:32Z</time>
      </trkpt>
      <trkpt lat="50.45977" lon="3.13679">
        <ele>43</ele>
        <time>2012-01-15T07:45:35Z</time>
      </trkpt>
      <trkpt lat="50.45988" lon="3.1368">
        <ele>43</ele>
        <time>2012-01-15T07:45:38Z</time>
      </trkpt>
      <trkpt lat="50.46" lon="3.1368">
        <ele>43</ele>
        <time>2012-01-15T07:45:41Z</time>
      </trkpt>
      <trkpt lat="50.46011" lon="3.13681">
        <ele>43</ele>
        <time>2012-01-15T07:45:44Z</time>
      </trkpt>
      <trkpt lat="50.46022" lon="3.13681">
        <ele>43</ele>
        <time>2012-01-15T07:45:47Z</time>
      </trkpt>
      <trkpt lat="50.46033" lon="3.13682">
        <ele>43</ele>
        <time>2012-01-15T07:45:50Z</time>
      </trkpt>
      <trkpt lat="50.46044" lon="3.13682">
        <ele>43</ele>
        <time>2012-01-15T07:45:53Z</time>
      </trkpt>
      <trkpt lat="50.46055" lon="3.13683">
        <ele>43</ele>
        <time>2012-01-15T07:45:56Z</time>
      </trkpt>
      <trkpt lat="50.46066" lon="3.13684">
        <ele>43</ele>
        <time>2012-01-15T07:45:59Z</time>
      </trkpt>
      <trkpt lat="50.46078" lon="3.13685">
        <ele>43</ele>
        <time>2012-01-15T07:46:02Z</time>
      </trkpt>
      <trkpt lat="50.4609" lon="3.13685">
        <ele>43</ele>
        <time>2012-01-15T07:46:05Z</time>
      </trkpt>
      <trkpt lat="50.46103" lon="3.13686">
        <ele>43</ele>
        <time>2012-01-15T07:46:08Z</time>
      </trkpt>
      <trkpt lat="50.46116" lon="3.13686">
        <ele>43</ele>
        <time>2012-01-15T07:46:11Z</time>
      </trkpt>
      <trkpt lat="50.46129" lon="3.13687">
        <ele>43</ele>
        <time>2012-01-15T07:46:14Z</time>
      </trkpt>
      <trkpt lat="50.46138" lon="3.13687">
        <ele>43</ele>
        <time>2012-01-15T07:46:16Z</time>
      </trkpt>
      <trkpt lat="50.46151" lon="3.13688">
        <ele>43</ele>
        <time>2012-01-15T07:46:19Z</time>
      </trkpt>
      <trkpt lat="50.46164" lon="3.13689">
        <ele>43</ele>
        <time>2012-01-15T07:46:22Z</time>
      </trkpt>
      <trkpt lat="50.46177" lon="3.1369">
        <ele>43</ele>
        <time>2012-01-15T07:46:25Z</time>
      </trkpt>
      <trkpt lat="50.4619" lon="3.13692">
        <ele>38</ele>
        <time>2012-01-15T07:46:28Z</time>
      </trkpt>
      <trkpt lat="50.46203" lon="3.13694">
        <ele>38</ele>
        <time>2012-01-15T07:46:31Z</time>
      </trkpt>
      <trkpt lat="50.46213" lon="3.13699">
        <ele>38</ele>
        <time>2012-01-15T07:46:34Z</time>
      </trkpt>
      <trkpt lat="50.46222" lon="3.13707">
        <ele>38</ele>
        <time>2012-01-15T07:46:37Z</time>
      </trkpt>
      <trkpt lat="50.46232" lon="3.13709">
        <ele>38</ele>
        <time>2012-01-15T07:46:40Z</time>
      </trkpt>
      <trkpt lat="50.46242" lon="3.13704">
        <ele>38</ele>
        <time>2012-01-15T07:46:43Z</time>
      </trkpt>
      <trkpt lat="50.46251" lon="3.13699">
        <ele>38</ele>
        <time>2012-01-15T07:46:46Z</time>
      </trkpt>
      <trkpt lat="50.46263" lon="3.13698">
        <ele>38</ele>
        <time>2012-01-15T07:46:49Z</time>
      </trkpt>
      <trkpt lat="50.46274" lon="3.137">
        <ele>38</ele>
        <time>2012-01-15T07:46:52Z</time>
      </trkpt>
      <trkpt lat="50.46284" lon="3.13701">
        <ele>38</ele>
        <time>2012-01-15T07:46:55Z</time>
      </trkpt>
      <trkpt lat="50.46293" lon="3.13706">
        <ele>38</ele>
        <time>2012-01-15T07:46:58Z</time>
      </trkpt>
      <trkpt lat="50.46298" lon="3.13717">
        <ele>38</ele>
        <time>2012-01-15T07:47:01Z</time>
      </trkpt>
      <trkpt lat="50.46298" lon="3.13734">
        <ele>38</ele>
        <time>2012-01-15T07:47:04Z</time>
      </trkpt>
      <trkpt lat="50.46297" lon="3.13753">
        <ele>38</ele>
        <time>2012-01-15T07:47:07Z</time>
      </trkpt>
      <trkpt lat="50.46296" lon="3.13773">
        <ele>38</ele>
        <time>2012-01-15T07:47:10Z</time>
      </trkpt>
      <trkpt lat="50.46294" lon="3.13794">
        <ele>38</ele>
        <time>2012-01-15T07:47:13Z</time>
      </trkpt>
      <trkpt lat="50.46293" lon="3.13813">
        <ele>38</ele>
        <time>2012-01-15T07:47:16Z</time>
      </trkpt>
      <trkpt lat="50.46291" lon="3.13832">
        <ele>38</ele>
        <time>2012-01-15T07:47:19Z</time>
      </trkpt>
      <trkpt lat="50.46291" lon="3.13846">
        <ele>38</ele>
        <time>2012-01-15T07:47:21Z</time>
      </trkpt>
      <trkpt lat="50.46291" lon="3.13867">
        <ele>38</ele>
        <time>2012-01-15T07:47:24Z</time>
      </trkpt>
      <trkpt lat="50.46291" lon="3.13881">
        <ele>38</ele>
        <time>2012-01-15T07:47:26Z</time>
      </trkpt>
      <trkpt lat="50.46291" lon="3.13896">
        <ele>38</ele>
        <time>2012-01-15T07:47:28Z</time>
      </trkpt>
      <trkpt lat="50.46292" lon="3.13915">
        <ele>38</ele>
        <time>2012-01-15T07:47:31Z</time>
      </trkpt>
      <trkpt lat="50.46292" lon="3.1393">
        <ele>38</ele>
        <time>2012-01-15T07:47:33Z</time>
      </trkpt>
      <trkpt lat="50.46293" lon="3.1395">
        <ele>38</ele>
        <time>2012-01-15T07:47:36Z</time>
      </trkpt>
      <trkpt lat="50.46294" lon="3.13965">
        <ele>38</ele>
        <time>2012-01-15T07:47:38Z</time>
      </trkpt>
      <trkpt lat="50.46294" lon="3.1398">
        <ele>38</ele>
        <time>2012-01-15T07:47:42Z</time>
      </trkpt>
      <trkpt lat="50.46294" lon="3.13994">
        <ele>38</ele>
        <time>2012-01-15T07:47:47Z</time>
      </trkpt>
      <trkpt lat="50.46295" lon="3.14013">
        <ele>38</ele>
        <time>2012-01-15T07:47:51Z</time>
      </trkpt>
      <trkpt lat="50.46295" lon="3.1403">
        <ele>38</ele>
        <time>2012-01-15T07:47:54Z</time>
      </trkpt>
      <trkpt lat="50.46294" lon="3.14048">
        <ele>38</ele>
        <time>2012-01-15T07:47:57Z</time>
      </trkpt>
      <trkpt lat="50.46296" lon="3.14068">
        <ele>38</ele>
        <time>2012-01-15T07:48:00Z</time>
      </trkpt>
      <trkpt lat="50.46298" lon="3.14089">
        <ele>38</ele>
        <time>2012-01-15T07:48:03Z</time>
      </trkpt>
      <trkpt lat="50.463" lon="3.14104">
        <ele>38</ele>
        <time>2012-01-15T07:48:05Z</time>
      </trkpt>
      <trkpt lat="50.463" lon="3.1412">
        <ele>38</ele>
        <time>2012-01-15T07:48:07Z</time>
      </trkpt>
      <trkpt lat="50.46299" lon="3.14136">
        <ele>38</ele>
        <time>2012-01-15T07:48:09Z</time>
      </trkpt>
      <trkpt lat="50.46298" lon="3.14153">
        <ele>38</ele>
        <time>2012-01-15T07:48:11Z</time>
      </trkpt>
      <trkpt lat="50.46299" lon="3.14169">
        <ele>38</ele>
        <time>2012-01-15T07:48:13Z</time>
      </trkpt>
      <trkpt lat="50.463" lon="3.14185">
        <ele>38</ele>
        <time>2012-01-15T07:48:15Z</time>
      </trkpt>
      <trkpt lat="50.46301" lon="3.14201">
        <ele>38</ele>
        <time>2012-01-15T07:48:17Z</time>
      </trkpt>
      <trkpt lat="50.46303" lon="3.14218">
        <ele>38</ele>
        <time>2012-01-15T07:48:19Z</time>
      </trkpt>
      <trkpt lat="50.46305" lon="3.14235">
        <ele>38</ele>
        <time>2012-01-15T07:48:21Z</time>
      </trkpt>
      <trkpt lat="50.46307" lon="3.14251">
        <ele>38</ele>
        <time>2012-01-15T07:48:23Z</time>
      </trkpt>
      <trkpt lat="50.4631" lon="3.14268">
        <ele>38</ele>
        <time>2012-01-15T07:48:25Z</time>
      </trkpt>
      <trkpt lat="50.46314" lon="3.14283">
        <ele>38</ele>
        <time>2012-01-15T07:48:27Z</time>
      </trkpt>
      <trkpt lat="50.46319" lon="3.14298">
        <ele>38</ele>
        <time>2012-01-15T07:48:29Z</time>
      </trkpt>
      <trkpt lat="50.46324" lon="3.14313">
        <ele>38</ele>
        <time>2012-01-15T07:48:31Z</time>
      </trkpt>
      <trkpt lat="50.46329" lon="3.14329">
        <ele>38</ele>
        <time>2012-01-15T07:48:33Z</time>
      </trkpt>
      <trkpt lat="50.46334" lon="3.14343">
        <ele>38</ele>
        <time>2012-01-15T07:48:35Z</time>
      </trkpt>
      <trkpt lat="50.46341" lon="3.14357">
        <ele>38</ele>
        <time>2012-01-15T07:48:37Z</time>
      </trkpt>
      <trkpt lat="50.46347" lon="3.14371">
        <ele>38</ele>
        <time>2012-01-15T07:48:39Z</time>
      </trkpt>
      <trkpt lat="50.46355" lon="3.14384">
        <ele>38</ele>
        <time>2012-01-15T07:48:41Z</time>
      </trkpt>
      <trkpt lat="50.46362" lon="3.14397">
        <ele>38</ele>
        <time>2012-01-15T07:48:43Z</time>
      </trkpt>
      <trkpt lat="50.46371" lon="3.14409">
        <ele>38</ele>
        <time>2012-01-15T07:48:45Z</time>
      </trkpt>
      <trkpt lat="50.46379" lon="3.14421">
        <ele>38</ele>
        <time>2012-01-15T07:48:47Z</time>
      </trkpt>
      <trkpt lat="50.46388" lon="3.14432">
        <ele>38</ele>
        <time>2012-01-15T07:48:49Z</time>
      </trkpt>
      <trkpt lat="50.46397" lon="3.14444">
        <ele>33</ele>
        <time>2012-01-15T07:48:51Z</time>
      </trkpt>
      <trkpt lat="50.46406" lon="3.14454">
        <ele>33</ele>
        <time>2012-01-15T07:48:53Z</time>
      </trkpt>
      <trkpt lat="50.46416" lon="3.14463">
        <ele>33</ele>
        <time>2012-01-15T07:48:55Z</time>
      </trkpt>
      <trkpt lat="50.46427" lon="3.14471">
        <ele>33</ele>
        <time>2012-01-15T07:48:57Z</time>
      </trkpt>
      <trkpt lat="50.46437" lon="3.14478">
        <ele>33</ele>
        <time>2012-01-15T07:48:59Z</time>
      </trkpt>
      <trkpt lat="50.46448" lon="3.14485">
        <ele>33</ele>
        <time>2012-01-15T07:49:01Z</time>
      </trkpt>
      <trkpt lat="50.46459" lon="3.1449">
        <ele>33</ele>
        <time>2012-01-15T07:49:03Z</time>
      </trkpt>
      <trkpt lat="50.4647" lon="3.14494">
        <ele>33</ele>
        <time>2012-01-15T07:49:05Z</time>
      </trkpt>
      <trkpt lat="50.46481" lon="3.14498">
        <ele>33</ele>
        <time>2012-01-15T07:49:07Z</time>
      </trkpt>
      <trkpt lat="50.46492" lon="3.14501">
        <ele>33</ele>
        <time>2012-01-15T07:49:09Z</time>
      </trkpt>
      <trkpt lat="50.46503" lon="3.14503">
        <ele>33</ele>
        <time>2012-01-15T07:49:11Z</time>
      </trkpt>
      <trkpt lat="50.46514" lon="3.14504">
        <ele>33</ele>
        <time>2012-01-15T07:49:13Z</time>
      </trkpt>
      <trkpt lat="50.46525" lon="3.14505">
        <ele>33</ele>
        <time>2012-01-15T07:49:15Z</time>
      </trkpt>
      <trkpt lat="50.46536" lon="3.14505">
        <ele>33</ele>
        <time>2012-01-15T07:49:17Z</time>
      </trkpt>
      <trkpt lat="50.46546" lon="3.14506">
        <ele>33</ele>
        <time>2012-01-15T07:49:19Z</time>
      </trkpt>
      <trkpt lat="50.46556" lon="3.14506">
        <ele>33</ele>
        <time>2012-01-15T07:49:21Z</time>
      </trkpt>
      <trkpt lat="50.46566" lon="3.14507">
        <ele>33</ele>
        <time>2012-01-15T07:49:23Z</time>
      </trkpt>
      <trkpt lat="50.46575" lon="3.14507">
        <ele>33</ele>
        <time>2012-01-15T07:49:25Z</time>
      </trkpt>
      <trkpt lat="50.46588" lon="3.14508">
        <ele>33</ele>
        <time>2012-01-15T07:49:28Z</time>
      </trkpt>
      <trkpt lat="50.46601" lon="3.14509">
        <ele>33</ele>
        <time>2012-01-15T07:49:31Z</time>
      </trkpt>
      <trkpt lat="50.4661" lon="3.1451">
        <ele>33</ele>
        <time>2012-01-15T07:49:33Z</time>
      </trkpt>
      <trkpt lat="50.46619" lon="3.14511">
        <ele>33</ele>
        <time>2012-01-15T07:49:35Z</time>
      </trkpt>
      <trkpt lat="50.46629" lon="3.14511">
        <ele>33</ele>
        <time>2012-01-15T07:49:37Z</time>
      </trkpt>
      <trkpt lat="50.46639" lon="3.14512">
        <ele>33</ele>
        <time>2012-01-15T07:49:39Z</time>
      </trkpt>
      <trkpt lat="50.46649" lon="3.14513">
        <ele>33</ele>
        <time>2012-01-15T07:49:41Z</time>
      </trkpt>
      <trkpt lat="50.4666" lon="3.14513">
        <ele>33</ele>
        <time>2012-01-15T07:49:43Z</time>
      </trkpt>
      <trkpt lat="50.4667" lon="3.14513">
        <ele>33</ele>
        <time>2012-01-15T07:49:45Z</time>
      </trkpt>
      <trkpt lat="50.4668" lon="3.14514">
        <ele>33</ele>
        <time>2012-01-15T07:49:47Z</time>
      </trkpt>
      <trkpt lat="50.46692" lon="3.14516">
        <ele>33</ele>
        <time>2012-01-15T07:49:50Z</time>
      </trkpt>
      <trkpt lat="50.46701" lon="3.14516">
        <ele>33</ele>
        <time>2012-01-15T07:49:52Z</time>
      </trkpt>
      <trkpt lat="50.46715" lon="3.14517">
        <ele>33</ele>
        <time>2012-01-15T07:49:55Z</time>
      </trkpt>
      <trkpt lat="50.46724" lon="3.14518">
        <ele>33</ele>
        <time>2012-01-15T07:49:57Z</time>
      </trkpt>
      <trkpt lat="50.46733" lon="3.14519">
        <ele>33</ele>
        <time>2012-01-15T07:49:59Z</time>
      </trkpt>
      <trkpt lat="50.46742" lon="3.1452">
        <ele>33</ele>
        <time>2012-01-15T07:50:01Z</time>
      </trkpt>
      <trkpt lat="50.46755" lon="3.14521">
        <ele>33</ele>
        <time>2012-01-15T07:50:04Z</time>
      </trkpt>
      <trkpt lat="50.46769" lon="3.14522">
        <ele>33</ele>
        <time>2012-01-15T07:50:07Z</time>
      </trkpt>
      <trkpt lat="50.46781" lon="3.14523">
        <ele>33</ele>
        <time>2012-01-15T07:50:10Z</time>
      </trkpt>
      <trkpt lat="50.46793" lon="3.14524">
        <ele>33</ele>
        <time>2012-01-15T07:50:13Z</time>
      </trkpt>
      <trkpt lat="50.46803" lon="3.14524">
        <ele>33</ele>
        <time>2012-01-15T07:50:16Z</time>
      </trkpt>
      <trkpt lat="50.46813" lon="3.14527">
        <ele>33</ele>
        <time>2012-01-15T07:50:19Z</time>
      </trkpt>
      <trkpt lat="50.46822" lon="3.14527">
        <ele>33</ele>
        <time>2012-01-15T07:50:22Z</time>
      </trkpt>
      <trkpt lat="50.46834" lon="3.14528">
        <ele>33</ele>
        <time>2012-01-15T07:50:25Z</time>
      </trkpt>
      <trkpt lat="50.46847" lon="3.14529">
        <ele>33</ele>
        <time>2012-01-15T07:50:28Z</time>
      </trkpt>
      <trkpt lat="50.46859" lon="3.1453">
        <ele>33</ele>
        <time>2012-01-15T07:50:31Z</time>
      </trkpt>
      <trkpt lat="50.46869" lon="3.14531">
        <ele>33</ele>
        <time>2012-01-15T07:50:34Z</time>
      </trkpt>
      <trkpt lat="50.4688" lon="3.14532">
        <ele>33</ele>
        <time>2012-01-15T07:50:38Z</time>
      </trkpt>
      <trkpt lat="50.46892" lon="3.14533">
        <ele>33</ele>
        <time>2012-01-15T07:50:42Z</time>
      </trkpt>
      <trkpt lat="50.46904" lon="3.14534">
        <ele>33</ele>
        <time>2012-01-15T07:50:45Z</time>
      </trkpt>
      <trkpt lat="50.46914" lon="3.14534">
        <ele>33</ele>
        <time>2012-01-15T07:50:47Z</time>
      </trkpt>
      <trkpt lat="50.46923" lon="3.14534">
        <ele>33</ele>
        <time>2012-01-15T07:50:49Z</time>
      </trkpt>
      <trkpt lat="50.46933" lon="3.14534">
        <ele>33</ele>
        <time>2012-01-15T07:50:51Z</time>
      </trkpt>
      <trkpt lat="50.46943" lon="3.14534">
        <ele>33</ele>
        <time>2012-01-15T07:50:53Z</time>
      </trkpt>
      <trkpt lat="50.46953" lon="3.14533">
        <ele>33</ele>
        <time>2012-01-15T07:50:55Z</time>
      </trkpt>
      <trkpt lat="50.46963" lon="3.14529">
        <ele>33</ele>
        <time>2012-01-15T07:50:57Z</time>
      </trkpt>
      <trkpt lat="50.46973" lon="3.14527">
        <ele>33</ele>
        <time>2012-01-15T07:50:59Z</time>
      </trkpt>
      <trkpt lat="50.46984" lon="3.14526">
        <ele>33</ele>
        <time>2012-01-15T07:51:01Z</time>
      </trkpt>
      <trkpt lat="50.46994" lon="3.14525">
        <ele>33</ele>
        <time>2012-01-15T07:51:03Z</time>
      </trkpt>
      <trkpt lat="50.47004" lon="3.14524">
        <ele>33</ele>
        <time>2012-01-15T07:51:05Z</time>
      </trkpt>
      <trkpt lat="50.47015" lon="3.14522">
        <ele>33</ele>
        <time>2012-01-15T07:51:07Z</time>
      </trkpt>
      <trkpt lat="50.47026" lon="3.14519">
        <ele>33</ele>
        <time>2012-01-15T07:51:09Z</time>
      </trkpt>
      <trkpt lat="50.47037" lon="3.14517">
        <ele>33</ele>
        <time>2012-01-15T07:51:11Z</time>
      </trkpt>
      <trkpt lat="50.47048" lon="3.14516">
        <ele>33</ele>
        <time>2012-01-15T07:51:13Z</time>
      </trkpt>
      <trkpt lat="50.47059" lon="3.14515">
        <ele>38</ele>
        <time>2012-01-15T07:51:15Z</time>
      </trkpt>
      <trkpt lat="50.47069" lon="3.14513">
        <ele>38</ele>
        <time>2012-01-15T07:51:17Z</time>
      </trkpt>
      <trkpt lat="50.4708" lon="3.14511">
        <ele>38</ele>
        <time>2012-01-15T07:51:19Z</time>
      </trkpt>
      <trkpt lat="50.47091" lon="3.14508">
        <ele>38</ele>
        <time>2012-01-15T07:51:21Z</time>
      </trkpt>
      <trkpt lat="50.47103" lon="3.14507">
        <ele>38</ele>
        <time>2012-01-15T07:51:23Z</time>
      </trkpt>
      <trkpt lat="50.47114" lon="3.14505">
        <ele>38</ele>
        <time>2012-01-15T07:51:25Z</time>
      </trkpt>
      <trkpt lat="50.47125" lon="3.14503">
        <ele>38</ele>
        <time>2012-01-15T07:51:27Z</time>
      </trkpt>
      <trkpt lat="50.47136" lon="3.145">
        <ele>38</ele>
        <time>2012-01-15T07:51:29Z</time>
      </trkpt>
      <trkpt lat="50.47148" lon="3.14498">
        <ele>38</ele>
        <time>2012-01-15T07:51:31Z</time>
      </trkpt>
      <trkpt lat="50.47158" lon="3.14496">
        <ele>38</ele>
        <time>2012-01-15T07:51:33Z</time>
      </trkpt>
      <trkpt lat="50.47169" lon="3.14493">
        <ele>38</ele>
        <time>2012-01-15T07:51:35Z</time>
      </trkpt>
      <trkpt lat="50.47179" lon="3.14491">
        <ele>38</ele>
        <time>2012-01-15T07:51:37Z</time>
      </trkpt>
      <trkpt lat="50.47189" lon="3.14489">
        <ele>38</ele>
        <time>2012-01-15T07:51:39Z</time>
      </trkpt>
      <trkpt lat="50.47198" lon="3.14488">
        <ele>38</ele>
        <time>2012-01-15T07:51:41Z</time>
      </trkpt>
      <trkpt lat="50.47212" lon="3.14484">
        <ele>38</ele>
        <time>2012-01-15T07:51:44Z</time>
      </trkpt>
      <trkpt lat="50.47222" lon="3.14479">
        <ele>38</ele>
        <time>2012-01-15T07:51:46Z</time>
      </trkpt>
      <trkpt lat="50.47232" lon="3.14474">
        <ele>38</ele>
        <time>2012-01-15T07:51:48Z</time>
      </trkpt>
      <trkpt lat="50.47241" lon="3.14469">
        <ele>38</ele>
        <time>2012-01-15T07:51:50Z</time>
      </trkpt>
      <trkpt lat="50.4725" lon="3.14463">
        <ele>38</ele>
        <time>2012-01-15T07:51:52Z</time>
      </trkpt>
      <trkpt lat="50.47259" lon="3.14458">
        <ele>38</ele>
        <time>2012-01-15T07:51:54Z</time>
      </trkpt>
      <trkpt lat="50.47268" lon="3.14453">
        <ele>38</ele>
        <time>2012-01-15T07:51:56Z</time>
      </trkpt>
      <trkpt lat="50.47277" lon="3.14447">
        <ele>38</ele>
        <time>2012-01-15T07:51:58Z</time>
      </trkpt>
      <trkpt lat="50.47286" lon="3.14441">
        <ele>38</ele>
        <time>2012-01-15T07:52:00Z</time>
      </trkpt>
      <trkpt lat="50.47295" lon="3.14435">
        <ele>38</ele>
        <time>2012-01-15T07:52:02Z</time>
      </trkpt>
      <trkpt lat="50.47305" lon="3.14428">
        <ele>38</ele>
        <time>2012-01-15T07:52:04Z</time>
      </trkpt>
      <trkpt lat="50.47314" lon="3.14421">
        <ele>38</ele>
        <time>2012-01-15T07:52:06Z</time>
      </trkpt>
      <trkpt lat="50.47325" lon="3.14414">
        <ele>38</ele>
        <time>2012-01-15T07:52:08Z</time>
      </trkpt>
      <trkpt lat="50.47335" lon="3.14406">
        <ele>38</ele>
        <time>2012-01-15T07:52:10Z</time>
      </trkpt>
      <trkpt lat="50.47345" lon="3.14397">
        <ele>38</ele>
        <time>2012-01-15T07:52:12Z</time>
      </trkpt>
      <trkpt lat="50.47355" lon="3.14389">
        <ele>38</ele>
        <time>2012-01-15T07:52:14Z</time>
      </trkpt>
      <trkpt lat="50.47366" lon="3.14382">
        <ele>38</ele>
        <time>2012-01-15T07:52:16Z</time>
      </trkpt>
      <trkpt lat="50.47376" lon="3.14374">
        <ele>38</ele>
        <time>2012-01-15T07:52:18Z</time>
      </trkpt>
      <trkpt lat="50.47387" lon="3.14365">
        <ele>43</ele>
        <time>2012-01-15T07:52:20Z</time>
      </trkpt>
      <trkpt lat="50.47397" lon="3.14358">
        <ele>43</ele>
        <time>2012-01-15T07:52:22Z</time>
      </trkpt>
      <trkpt lat="50.47407" lon="3.1435">
        <ele>43</ele>
        <time>2012-01-15T07:52:24Z</time>
      </trkpt>
      <trkpt lat="50.47417" lon="3.14344">
        <ele>43</ele>
        <time>2012-01-15T07:52:26Z</time>
      </trkpt>
      <trkpt lat="50.47427" lon="3.14338">
        <ele>43</ele>
        <time>2012-01-15T07:52:28Z</time>
      </trkpt>
      <trkpt lat="50.47438" lon="3.1433">
        <ele>43</ele>
        <time>2012-01-15T07:52:30Z</time>
      </trkpt>
      <trkpt lat="50.47448" lon="3.14324">
        <ele>43</ele>
        <time>2012-01-15T07:52:32Z</time>
      </trkpt>
      <trkpt lat="50.47458" lon="3.14317">
        <ele>43</ele>
        <time>2012-01-15T07:52:34Z</time>
      </trkpt>
      <trkpt lat="50.47468" lon="3.14311">
        <ele>43</ele>
        <time>2012-01-15T07:52:36Z</time>
      </trkpt>
      <trkpt lat="50.47477" lon="3.14304">
        <ele>43</ele>
        <time>2012-01-15T07:52:38Z</time>
      </trkpt>
      <trkpt lat="50.47486" lon="3.14298">
        <ele>43</ele>
        <time>2012-01-15T07:52:40Z</time>
      </trkpt>
      <trkpt lat="50.47495" lon="3.14292">
        <ele>43</ele>
        <time>2012-01-15T07:52:42Z</time>
      </trkpt>
      <trkpt lat="50.47504" lon="3.14285">
        <ele>43</ele>
        <time>2012-01-15T07:52:44Z</time>
      </trkpt>
      <trkpt lat="50.47512" lon="3.14278">
        <ele>43</ele>
        <time>2012-01-15T07:52:46Z</time>
      </trkpt>
      <trkpt lat="50.47521" lon="3.14272">
        <ele>43</ele>
        <time>2012-01-15T07:52:48Z</time>
      </trkpt>
      <trkpt lat="50.47529" lon="3.14267">
        <ele>43</ele>
        <time>2012-01-15T07:52:50Z</time>
      </trkpt>
      <trkpt lat="50.47537" lon="3.1426">
        <ele>43</ele>
        <time>2012-01-15T07:52:52Z</time>
      </trkpt>
      <trkpt lat="50.47547" lon="3.14253">
        <ele>48</ele>
        <time>2012-01-15T07:52:54Z</time>
      </trkpt>
      <trkpt lat="50.47557" lon="3.14247">
        <ele>48</ele>
        <time>2012-01-15T07:52:56Z</time>
      </trkpt>
      <trkpt lat="50.47568" lon="3.14241">
        <ele>48</ele>
        <time>2012-01-15T07:52:58Z</time>
      </trkpt>
      <trkpt lat="50.47579" lon="3.14235">
        <ele>48</ele>
        <time>2012-01-15T07:53:00Z</time>
      </trkpt>
      <trkpt lat="50.47589" lon="3.14231">
        <ele>48</ele>
        <time>2012-01-15T07:53:02Z</time>
      </trkpt>
      <trkpt lat="50.47599" lon="3.14227">
        <ele>48</ele>
        <time>2012-01-15T07:53:04Z</time>
      </trkpt>
      <trkpt lat="50.4761" lon="3.14224">
        <ele>48</ele>
        <time>2012-01-15T07:53:06Z</time>
      </trkpt>
      <trkpt lat="50.4762" lon="3.14224">
        <ele>48</ele>
        <time>2012-01-15T07:53:08Z</time>
      </trkpt>
      <trkpt lat="50.47631" lon="3.14223">
        <ele>48</ele>
        <time>2012-01-15T07:53:10Z</time>
      </trkpt>
      <trkpt lat="50.47641" lon="3.14223">
        <ele>48</ele>
        <time>2012-01-15T07:53:12Z</time>
      </trkpt>
      <trkpt lat="50.47651" lon="3.14224">
        <ele>48</ele>
        <time>2012-01-15T07:53:14Z</time>
      </trkpt>
      <trkpt lat="50.47661" lon="3.14224">
        <ele>48</ele>
        <time>2012-01-15T07:53:16Z</time>
      </trkpt>
      <trkpt lat="50.47672" lon="3.14224">
        <ele>48</ele>
        <time>2012-01-15T07:53:18Z</time>
      </trkpt>
      <trkpt lat="50.47684" lon="3.14226">
        <ele>48</ele>
        <time>2012-01-15T07:53:20Z</time>
      </trkpt>
      <trkpt lat="50.47696" lon="3.14228">
        <ele>48</ele>
        <time>2012-01-15T07:53:22Z</time>
      </trkpt>
      <trkpt lat="50.47707" lon="3.1423">
        <ele>48</ele>
        <time>2012-01-15T07:53:24Z</time>
      </trkpt>
      <trkpt lat="50.47719" lon="3.14232">
        <ele>48</ele>
        <time>2012-01-15T07:53:26Z</time>
      </trkpt>
      <trkpt lat="50.47731" lon="3.14233">
        <ele>48</ele>
        <time>2012-01-15T07:53:28Z</time>
      </trkpt>
      <trkpt lat="50.47742" lon="3.14236">
        <ele>48</ele>
        <time>2012-01-15T07:53:30Z</time>
      </trkpt>
      <trkpt lat="50.47753" lon="3.14237">
        <ele>48</ele>
        <time>2012-01-15T07:53:32Z</time>
      </trkpt>
      <trkpt lat="50.47764" lon="3.14236">
        <ele>48</ele>
        <time>2012-01-15T07:53:34Z</time>
      </trkpt>
      <trkpt lat="50.47775" lon="3.14233">
        <ele>48</ele>
        <time>2012-01-15T07:53:36Z</time>
      </trkpt>
      <trkpt lat="50.47786" lon="3.14232">
        <ele>53</ele>
        <time>2012-01-15T07:53:38Z</time>
      </trkpt>
      <trkpt lat="50.47796" lon="3.14228">
        <ele>53</ele>
        <time>2012-01-15T07:53:40Z</time>
      </trkpt>
      <trkpt lat="50.47806" lon="3.14224">
        <ele>53</ele>
        <time>2012-01-15T07:53:42Z</time>
      </trkpt>
      <trkpt lat="50.47815" lon="3.1422">
        <ele>53</ele>
        <time>2012-01-15T07:53:44Z</time>
      </trkpt>
      <trkpt lat="50.47825" lon="3.14215">
        <ele>53</ele>
        <time>2012-01-15T07:53:46Z</time>
      </trkpt>
      <trkpt lat="50.47834" lon="3.14211">
        <ele>53</ele>
        <time>2012-01-15T07:53:48Z</time>
      </trkpt>
      <trkpt lat="50.47843" lon="3.14206">
        <ele>53</ele>
        <time>2012-01-15T07:53:50Z</time>
      </trkpt>
      <trkpt lat="50.47851" lon="3.14198">
        <ele>53</ele>
        <time>2012-01-15T07:53:52Z</time>
      </trkpt>
      <trkpt lat="50.4786" lon="3.14192">
        <ele>53</ele>
        <time>2012-01-15T07:53:54Z</time>
      </trkpt>
      <trkpt lat="50.47871" lon="3.14182">
        <ele>53</ele>
        <time>2012-01-15T07:53:57Z</time>
      </trkpt>
      <trkpt lat="50.4788" lon="3.14172">
        <ele>53</ele>
        <time>2012-01-15T07:54:00Z</time>
      </trkpt>
      <trkpt lat="50.47889" lon="3.14162">
        <ele>53</ele>
        <time>2012-01-15T07:54:04Z</time>
      </trkpt>
      <trkpt lat="50.479" lon="3.14151">
        <ele>53</ele>
        <time>2012-01-15T07:54:07Z</time>
      </trkpt>
      <trkpt lat="50.47907" lon="3.14141">
        <ele>53</ele>
        <time>2012-01-15T07:54:09Z</time>
      </trkpt>
      <trkpt lat="50.47915" lon="3.14131">
        <ele>53</ele>
        <time>2012-01-15T07:54:11Z</time>
      </trkpt>
      <trkpt lat="50.47923" lon="3.1412">
        <ele>53</ele>
        <time>2012-01-15T07:54:13Z</time>
      </trkpt>
      <trkpt lat="50.47931" lon="3.14109">
        <ele>53</ele>
        <time>2012-01-15T07:54:15Z</time>
      </trkpt>
      <trkpt lat="50.4794" lon="3.14098">
        <ele>53</ele>
        <time>2012-01-15T07:54:17Z</time>
      </trkpt>
      <trkpt lat="50.47948" lon="3.14086">
        <ele>53</ele>
        <time>2012-01-15T07:54:19Z</time>
      </trkpt>
      <trkpt lat="50.47955" lon="3.14074">
        <ele>53</ele>
        <time>2012-01-15T07:54:21Z</time>
      </trkpt>
      <trkpt lat="50.47964" lon="3.14064">
        <ele>53</ele>
        <time>2012-01-15T07:54:23Z</time>
      </trkpt>
      <trkpt lat="50.47972" lon="3.14053">
        <ele>53</ele>
        <time>2012-01-15T07:54:25Z</time>
      </trkpt>
      <trkpt lat="50.4798" lon="3.14042">
        <ele>53</ele>
        <time>2012-01-15T07:54:27Z</time>
      </trkpt>
      <trkpt lat="50.47988" lon="3.14031">
        <ele>53</ele>
        <time>2012-01-15T07:54:29Z</time>
      </trkpt>
      <trkpt lat="50.47996" lon="3.14019">
        <ele>53</ele>
        <time>2012-01-15T07:54:31Z</time>
      </trkpt>
      <trkpt lat="50.48005" lon="3.14007">
        <ele>53</ele>
        <time>2012-01-15T07:54:33Z</time>
      </trkpt>
      <trkpt lat="50.48015" lon="3.13995">
        <ele>53</ele>
        <time>2012-01-15T07:54:35Z</time>
      </trkpt>
      <trkpt lat="50.48024" lon="3.13985">
        <ele>53</ele>
        <time>2012-01-15T07:54:37Z</time>
      </trkpt>
      <trkpt lat="50.48034" lon="3.13975">
        <ele>53</ele>
        <time>2012-01-15T07:54:39Z</time>
      </trkpt>
      <trkpt lat="50.48042" lon="3.13966">
        <ele>53</ele>
        <time>2012-01-15T07:54:41Z</time>
      </trkpt>
      <trkpt lat="50.48053" lon="3.13958">
        <ele>53</ele>
        <time>2012-01-15T07:54:44Z</time>
      </trkpt>
      <trkpt lat="50.48061" lon="3.13952">
        <ele>53</ele>
        <time>2012-01-15T07:54:48Z</time>
      </trkpt>
      <trkpt lat="50.4807" lon="3.13943">
        <ele>53</ele>
        <time>2012-01-15T07:54:51Z</time>
      </trkpt>
      <trkpt lat="50.48079" lon="3.13937">
        <ele>53</ele>
        <time>2012-01-15T07:54:53Z</time>
      </trkpt>
      <trkpt lat="50.48087" lon="3.13931">
        <ele>53</ele>
        <time>2012-01-15T07:54:55Z</time>
      </trkpt>
      <trkpt lat="50.48096" lon="3.13924">
        <ele>53</ele>
        <time>2012-01-15T07:54:57Z</time>
      </trkpt>
      <trkpt lat="50.48105" lon="3.13918">
        <ele>53</ele>
        <time>2012-01-15T07:54:59Z</time>
      </trkpt>
      <trkpt lat="50.48115" lon="3.13911">
        <ele>53</ele>
        <time>2012-01-15T07:55:01Z</time>
      </trkpt>
      <trkpt lat="50.48125" lon="3.13904">
        <ele>53</ele>
        <time>2012-01-15T07:55:03Z</time>
      </trkpt>
      <trkpt lat="50.48135" lon="3.13897">
        <ele>53</ele>
        <time>2012-01-15T07:55:05Z</time>
      </trkpt>
      <trkpt lat="50.48146" lon="3.13889">
        <ele>53</ele>
        <time>2012-01-15T07:55:07Z</time>
      </trkpt>
      <trkpt lat="50.48155" lon="3.13881">
        <ele>53</ele>
        <time>2012-01-15T07:55:09Z</time>
      </trkpt>
      <trkpt lat="50.48166" lon="3.13875">
        <ele>53</ele>
        <time>2012-01-15T07:55:11Z</time>
      </trkpt>
      <trkpt lat="50.48175" lon="3.13868">
        <ele>53</ele>
        <time>2012-01-15T07:55:13Z</time>
      </trkpt>
      <trkpt lat="50.48186" lon="3.13861">
        <ele>53</ele>
        <time>2012-01-15T07:55:15Z</time>
      </trkpt>
      <trkpt lat="50.48195" lon="3.13853">
        <ele>53</ele>
        <time>2012-01-15T07:55:17Z</time>
      </trkpt>
      <trkpt lat="50.48205" lon="3.13846">
        <ele>53</ele>
        <time>2012-01-15T07:55:19Z</time>
      </trkpt>
      <trkpt lat="50.48213" lon="3.13838">
        <ele>53</ele>
        <time>2012-01-15T07:55:21Z</time>
      </trkpt>
      <trkpt lat="50.48222" lon="3.1383">
        <ele>53</ele>
        <time>2012-01-15T07:55:23Z</time>
      </trkpt>
      <trkpt lat="50.4823" lon="3.13822">
        <ele>53</ele>
        <time>2012-01-15T07:55:25Z</time>
      </trkpt>
      <trkpt lat="50.48238" lon="3.13814">
        <ele>53</ele>
        <time>2012-01-15T07:55:27Z</time>
      </trkpt>
      <trkpt lat="50.48245" lon="3.13804">
        <ele>53</ele>
        <time>2012-01-15T07:55:29Z</time>
      </trkpt>
      <trkpt lat="50.48253" lon="3.13795">
        <ele>53</ele>
        <time>2012-01-15T07:55:31Z</time>
      </trkpt>
      <trkpt lat="50.48261" lon="3.13786">
        <ele>53</ele>
        <time>2012-01-15T07:55:33Z</time>
      </trkpt>
      <trkpt lat="50.48268" lon="3.13776">
        <ele>53</ele>
        <time>2012-01-15T07:55:35Z</time>
      </trkpt>
      <trkpt lat="50.48276" lon="3.13767">
        <ele>53</ele>
        <time>2012-01-15T07:55:37Z</time>
      </trkpt>
      <trkpt lat="50.48284" lon="3.13758">
        <ele>53</ele>
        <time>2012-01-15T07:55:39Z</time>
      </trkpt>
      <trkpt lat="50.48293" lon="3.13748">
        <ele>53</ele>
        <time>2012-01-15T07:55:41Z</time>
      </trkpt>
      <trkpt lat="50.48301" lon="3.13739">
        <ele>53</ele>
        <time>2012-01-15T07:55:43Z</time>
      </trkpt>
      <trkpt lat="50.48309" lon="3.1373">
        <ele>53</ele>
        <time>2012-01-15T07:55:45Z</time>
      </trkpt>
      <trkpt lat="50.48317" lon="3.1372">
        <ele>53</ele>
        <time>2012-01-15T07:55:47Z</time>
      </trkpt>
      <trkpt lat="50.48325" lon="3.13711">
        <ele>53</ele>
        <time>2012-01-15T07:55:49Z</time>
      </trkpt>
      <trkpt lat="50.48333" lon="3.13702">
        <ele>53</ele>
        <time>2012-01-15T07:55:51Z</time>
      </trkpt>
      <trkpt lat="50.48341" lon="3.13689">
        <ele>53</ele>
        <time>2012-01-15T07:55:54Z</time>
      </trkpt>
      <trkpt lat="50.48348" lon="3.13681">
        <ele>53</ele>
        <time>2012-01-15T07:55:58Z</time>
      </trkpt>
      <trkpt lat="50.48357" lon="3.13671">
        <ele>53</ele>
        <time>2012-01-15T07:56:03Z</time>
      </trkpt>
      <trkpt lat="50.48367" lon="3.1366">
        <ele>53</ele>
        <time>2012-01-15T07:56:06Z</time>
      </trkpt>
      <trkpt lat="50.48375" lon="3.13652">
        <ele>53</ele>
        <time>2012-01-15T07:56:08Z</time>
      </trkpt>
      <trkpt lat="50.48384" lon="3.13644">
        <ele>53</ele>
        <time>2012-01-15T07:56:10Z</time>
      </trkpt>
      <trkpt lat="50.48393" lon="3.13635">
        <ele>59</ele>
        <time>2012-01-15T07:56:12Z</time>
      </trkpt>
      <trkpt lat="50.48402" lon="3.13627">
        <ele>59</ele>
        <time>2012-01-15T07:56:14Z</time>
      </trkpt>
      <trkpt lat="50.48411" lon="3.13619">
        <ele>59</ele>
        <time>2012-01-15T07:56:16Z</time>
      </trkpt>
      <trkpt lat="50.48421" lon="3.13612">
        <ele>59</ele>
        <time>2012-01-15T07:56:18Z</time>
      </trkpt>
      <trkpt lat="50.4843" lon="3.13606">
        <ele>59</ele>
        <time>2012-01-15T07:56:20Z</time>
      </trkpt>
      <trkpt lat="50.4844" lon="3.13599">
        <ele>59</ele>
        <time>2012-01-15T07:56:22Z</time>
      </trkpt>
      <trkpt lat="50.48449" lon="3.13594">
        <ele>59</ele>
        <time>2012-01-15T07:56:24Z</time>
      </trkpt>
      <trkpt lat="50.48458" lon="3.13586">
        <ele>59</ele>
        <time>2012-01-15T07:56:26Z</time>
      </trkpt>
      <trkpt lat="50.48467" lon="3.13579">
        <ele>59</ele>
        <time>2012-01-15T07:56:28Z</time>
      </trkpt>
      <trkpt lat="50.48477" lon="3.13575">
        <ele>59</ele>
        <time>2012-01-15T07:56:30Z</time>
      </trkpt>
      <trkpt lat="50.48486" lon="3.13569">
        <ele>59</ele>
        <time>2012-01-15T07:56:32Z</time>
      </trkpt>
      <trkpt lat="50.48496" lon="3.13563">
        <ele>59</ele>
        <time>2012-01-15T07:56:34Z</time>
      </trkpt>
      <trkpt lat="50.48506" lon="3.13558">
        <ele>59</ele>
        <time>2012-01-15T07:56:36Z</time>
      </trkpt>
      <trkpt lat="50.48516" lon="3.13551">
        <ele>59</ele>
        <time>2012-01-15T07:56:38Z</time>
      </trkpt>
      <trkpt lat="50.48527" lon="3.13544">
        <ele>59</ele>
        <time>2012-01-15T07:56:40Z</time>
      </trkpt>
      <trkpt lat="50.48537" lon="3.13538">
        <ele>59</ele>
        <time>2012-01-15T07:56:42Z</time>
      </trkpt>
      <trkpt lat="50.48546" lon="3.13532">
        <ele>59</ele>
        <time>2012-01-15T07:56:44Z</time>
      </trkpt>
      <trkpt lat="50.48555" lon="3.13526">
        <ele>59</ele>
        <time>2012-01-15T07:56:46Z</time>
      </trkpt>
      <trkpt lat="50.48562" lon="3.13517">
        <ele>59</ele>
        <time>2012-01-15T07:56:48Z</time>
      </trkpt>
      <trkpt lat="50.48571" lon="3.13504">
        <ele>59</ele>
        <time>2012-01-15T07:56:51Z</time>
      </trkpt>
      <trkpt lat="50.48583" lon="3.13497">
        <ele>59</ele>
        <time>2012-01-15T07:56:54Z</time>
      </trkpt>
      <trkpt lat="50.48594" lon="3.13487">
        <ele>59</ele>
        <time>2012-01-15T07:56:57Z</time>
      </trkpt>
      <trkpt lat="50.48602" lon="3.13479">
        <ele>59</ele>
        <time>2012-01-15T07:56:59Z</time>
      </trkpt>
      <trkpt lat="50.48609" lon="3.13468">
        <ele>59</ele>
        <time>2012-01-15T07:57:01Z</time>
      </trkpt>
      <trkpt lat="50.48618" lon="3.13453">
        <ele>59</ele>
        <time>2012-01-15T07:57:04Z</time>
      </trkpt>
      <trkpt lat="50.48625" lon="3.13442">
        <ele>59</ele>
        <time>2012-01-15T07:57:06Z</time>
      </trkpt>
      <trkpt lat="50.48633" lon="3.13429">
        <ele>59</ele>
        <time>2012-01-15T07:57:08Z</time>
      </trkpt>
      <trkpt lat="50.48642" lon="3.13416">
        <ele>59</ele>
        <time>2012-01-15T07:57:10Z</time>
      </trkpt>
      <trkpt lat="50.48651" lon="3.13402">
        <ele>59</ele>
        <time>2012-01-15T07:57:12Z</time>
      </trkpt>
      <trkpt lat="50.48661" lon="3.13388">
        <ele>59</ele>
        <time>2012-01-15T07:57:14Z</time>
      </trkpt>
      <trkpt lat="50.48669" lon="3.13373">
        <ele>59</ele>
        <time>2012-01-15T07:57:16Z</time>
      </trkpt>
      <trkpt lat="50.48678" lon="3.13358">
        <ele>59</ele>
        <time>2012-01-15T07:57:18Z</time>
      </trkpt>
      <trkpt lat="50.48687" lon="3.13344">
        <ele>59</ele>
        <time>2012-01-15T07:57:20Z</time>
      </trkpt>
      <trkpt lat="50.48696" lon="3.1333">
        <ele>59</ele>
        <time>2012-01-15T07:57:22Z</time>
      </trkpt>
      <trkpt lat="50.48705" lon="3.13314">
        <ele>59</ele>
        <time>2012-01-15T07:57:24Z</time>
      </trkpt>
      <trkpt lat="50.48715" lon="3.133">
        <ele>59</ele>
        <time>2012-01-15T07:57:26Z</time>
      </trkpt>
      <trkpt lat="50.48724" lon="3.13287">
        <ele>59</ele>
        <time>2012-01-15T07:57:28Z</time>
      </trkpt>
      <trkpt lat="50.48732" lon="3.13275">
        <ele>59</ele>
        <time>2012-01-15T07:57:30Z</time>
      </trkpt>
      <trkpt lat="50.48739" lon="3.13266">
        <ele>59</ele>
        <time>2012-01-15T07:57:32Z</time>
      </trkpt>
      <trkpt lat="50.48748" lon="3.13252">
        <ele>59</ele>
        <time>2012-01-15T07:57:35Z</time>
      </trkpt>
      <trkpt lat="50.48754" lon="3.13239">
        <ele>59</ele>
        <time>2012-01-15T07:57:37Z</time>
      </trkpt>
      <trkpt lat="50.48761" lon="3.13227">
        <ele>59</ele>
        <time>2012-01-15T07:57:39Z</time>
      </trkpt>
      <trkpt lat="50.48768" lon="3.13216">
        <ele>59</ele>
        <time>2012-01-15T07:57:41Z</time>
      </trkpt>
      <trkpt lat="50.48776" lon="3.13204">
        <ele>59</ele>
        <time>2012-01-15T07:57:43Z</time>
      </trkpt>
      <trkpt lat="50.48785" lon="3.13194">
        <ele>59</ele>
        <time>2012-01-15T07:57:45Z</time>
      </trkpt>
      <trkpt lat="50.48793" lon="3.13183">
        <ele>59</ele>
        <time>2012-01-15T07:57:47Z</time>
      </trkpt>
      <trkpt lat="50.48803" lon="3.13173">
        <ele>59</ele>
        <time>2012-01-15T07:57:49Z</time>
      </trkpt>
      <trkpt lat="50.48813" lon="3.13162">
        <ele>59</ele>
        <time>2012-01-15T07:57:51Z</time>
      </trkpt>
      <trkpt lat="50.48822" lon="3.13152">
        <ele>59</ele>
        <time>2012-01-15T07:57:53Z</time>
      </trkpt>
      <trkpt lat="50.48832" lon="3.13142">
        <ele>59</ele>
        <time>2012-01-15T07:57:55Z</time>
      </trkpt>
      <trkpt lat="50.48842" lon="3.13133">
        <ele>59</ele>
        <time>2012-01-15T07:57:57Z</time>
      </trkpt>
      <trkpt lat="50.48853" lon="3.13124">
        <ele>59</ele>
        <time>2012-01-15T07:57:59Z</time>
      </trkpt>
      <trkpt lat="50.48864" lon="3.13114">
        <ele>59</ele>
        <time>2012-01-15T07:58:01Z</time>
      </trkpt>
      <trkpt lat="50.48875" lon="3.13105">
        <ele>59</ele>
        <time>2012-01-15T07:58:03Z</time>
      </trkpt>
      <trkpt lat="50.48885" lon="3.13095">
        <ele>59</ele>
        <time>2012-01-15T07:58:05Z</time>
      </trkpt>
      <trkpt lat="50.48897" lon="3.13086">
        <ele>59</ele>
        <time>2012-01-15T07:58:07Z</time>
      </trkpt>
      <trkpt lat="50.48909" lon="3.13077">
        <ele>59</ele>
        <time>2012-01-15T07:58:09Z</time>
      </trkpt>
      <trkpt lat="50.48921" lon="3.13068">
        <ele>59</ele>
        <time>2012-01-15T07:58:11Z</time>
      </trkpt>
      <trkpt lat="50.48932" lon="3.13059">
        <ele>59</ele>
        <time>2012-01-15T07:58:13Z</time>
      </trkpt>
      <trkpt lat="50.48944" lon="3.13049">
        <ele>59</ele>
        <time>2012-01-15T07:58:15Z</time>
      </trkpt>
      <trkpt lat="50.48955" lon="3.1304">
        <ele>59</ele>
        <time>2012-01-15T07:58:17Z</time>
      </trkpt>
      <trkpt lat="50.48966" lon="3.13031">
        <ele>59</ele>
        <time>2012-01-15T07:58:19Z</time>
      </trkpt>
      <trkpt lat="50.48977" lon="3.1302">
        <ele>59</ele>
        <time>2012-01-15T07:58:21Z</time>
      </trkpt>
      <trkpt lat="50.48987" lon="3.13008">
        <ele>59</ele>
        <time>2012-01-15T07:58:23Z</time>
      </trkpt>
      <trkpt lat="50.48997" lon="3.12995">
        <ele>59</ele>
        <time>2012-01-15T07:58:25Z</time>
      </trkpt>
      <trkpt lat="50.49007" lon="3.12982">
        <ele>59</ele>
        <time>2012-01-15T07:58:27Z</time>
      </trkpt>
      <trkpt lat="50.49016" lon="3.1297">
        <ele>59</ele>
        <time>2012-01-15T07:58:29Z</time>
      </trkpt>
      <trkpt lat="50.49026" lon="3.12957">
        <ele>59</ele>
        <time>2012-01-15T07:58:31Z</time>
      </trkpt>
      <trkpt lat="50.49035" lon="3.12943">
        <ele>59</ele>
        <time>2012-01-15T07:58:33Z</time>
      </trkpt>
      <trkpt lat="50.49045" lon="3.1293">
        <ele>59</ele>
        <time>2012-01-15T07:58:35Z</time>
      </trkpt>
      <trkpt lat="50.49055" lon="3.12917">
        <ele>59</ele>
        <time>2012-01-15T07:58:37Z</time>
      </trkpt>
      <trkpt lat="50.49064" lon="3.12903">
        <ele>53</ele>
        <time>2012-01-15T07:58:39Z</time>
      </trkpt>
      <trkpt lat="50.49074" lon="3.12889">
        <ele>53</ele>
        <time>2012-01-15T07:58:41Z</time>
      </trkpt>
      <trkpt lat="50.49083" lon="3.12874">
        <ele>53</ele>
        <time>2012-01-15T07:58:43Z</time>
      </trkpt>
      <trkpt lat="50.49093" lon="3.12859">
        <ele>53</ele>
        <time>2012-01-15T07:58:45Z</time>
      </trkpt>
      <trkpt lat="50.49103" lon="3.12846">
        <ele>53</ele>
        <time>2012-01-15T07:58:47Z</time>
      </trkpt>
      <trkpt lat="50.49113" lon="3.12834">
        <ele>53</ele>
        <time>2012-01-15T07:58:49Z</time>
      </trkpt>
      <trkpt lat="50.49122" lon="3.12821">
        <ele>53</ele>
        <time>2012-01-15T07:58:51Z</time>
      </trkpt>
      <trkpt lat="50.49131" lon="3.12808">
        <ele>53</ele>
        <time>2012-01-15T07:58:53Z</time>
      </trkpt>
      <trkpt lat="50.4914" lon="3.12795">
        <ele>53</ele>
        <time>2012-01-15T07:58:55Z</time>
      </trkpt>
      <trkpt lat="50.49149" lon="3.12783">
        <ele>53</ele>
        <time>2012-01-15T07:58:57Z</time>
      </trkpt>
      <trkpt lat="50.49157" lon="3.1277">
        <ele>53</ele>
        <time>2012-01-15T07:58:59Z</time>
      </trkpt>
      <trkpt lat="50.49165" lon="3.12758">
        <ele>53</ele>
        <time>2012-01-15T07:59:01Z</time>
      </trkpt>
      <trkpt lat="50.49172" lon="3.12747">
        <ele>53</ele>
        <time>2012-01-15T07:59:03Z</time>
      </trkpt>
      <trkpt lat="50.49181" lon="3.12735">
        <ele>53</ele>
        <time>2012-01-15T07:59:05Z</time>
      </trkpt>
      <trkpt lat="50.4919" lon="3.12722">
        <ele>53</ele>
        <time>2012-01-15T07:59:07Z</time>
      </trkpt>
      <trkpt lat="50.492" lon="3.12708">
        <ele>53</ele>
        <time>2012-01-15T07:59:09Z</time>
      </trkpt>
      <trkpt lat="50.4921" lon="3.12694">
        <ele>53</ele>
        <time>2012-01-15T07:59:11Z</time>
      </trkpt>
      <trkpt lat="50.4922" lon="3.1268">
        <ele>53</ele>
        <time>2012-01-15T07:59:13Z</time>
      </trkpt>
      <trkpt lat="50.49229" lon="3.12666">
        <ele>53</ele>
        <time>2012-01-15T07:59:15Z</time>
      </trkpt>
      <trkpt lat="50.4924" lon="3.12651">
        <ele>53</ele>
        <time>2012-01-15T07:59:17Z</time>
      </trkpt>
      <trkpt lat="50.4925" lon="3.12635">
        <ele>53</ele>
        <time>2012-01-15T07:59:19Z</time>
      </trkpt>
      <trkpt lat="50.4926" lon="3.1262">
        <ele>53</ele>
        <time>2012-01-15T07:59:21Z</time>
      </trkpt>
      <trkpt lat="50.4927" lon="3.12605">
        <ele>53</ele>
        <time>2012-01-15T07:59:23Z</time>
      </trkpt>
      <trkpt lat="50.4928" lon="3.1259">
        <ele>53</ele>
        <time>2012-01-15T07:59:25Z</time>
      </trkpt>
      <trkpt lat="50.4929" lon="3.12574">
        <ele>53</ele>
        <time>2012-01-15T07:59:27Z</time>
      </trkpt>
      <trkpt lat="50.493" lon="3.12559">
        <ele>53</ele>
        <time>2012-01-15T07:59:29Z</time>
      </trkpt>
      <trkpt lat="50.49311" lon="3.12544">
        <ele>53</ele>
        <time>2012-01-15T07:59:31Z</time>
      </trkpt>
      <trkpt lat="50.4932" lon="3.12527">
        <ele>53</ele>
        <time>2012-01-15T07:59:33Z</time>
      </trkpt>
      <trkpt lat="50.4933" lon="3.1251">
        <ele>53</ele>
        <time>2012-01-15T07:59:35Z</time>
      </trkpt>
      <trkpt lat="50.49339" lon="3.12492">
        <ele>53</ele>
        <time>2012-01-15T07:59:37Z</time>
      </trkpt>
      <trkpt lat="50.49347" lon="3.12474">
        <ele>53</ele>
        <time>2012-01-15T07:59:39Z</time>
      </trkpt>
      <trkpt lat="50.49355" lon="3.12457">
        <ele>53</ele>
        <time>2012-01-15T07:59:41Z</time>
      </trkpt>
      <trkpt lat="50.49365" lon="3.12441">
        <ele>53</ele>
        <time>2012-01-15T07:59:43Z</time>
      </trkpt>
      <trkpt lat="50.49373" lon="3.12424">
        <ele>53</ele>
        <time>2012-01-15T07:59:45Z</time>
      </trkpt>
      <trkpt lat="50.49382" lon="3.12408">
        <ele>53</ele>
        <time>2012-01-15T07:59:47Z</time>
      </trkpt>
      <trkpt lat="50.4939" lon="3.12393">
        <ele>53</ele>
        <time>2012-01-15T07:59:49Z</time>
      </trkpt>
      <trkpt lat="50.49399" lon="3.12377">
        <ele>53</ele>
        <time>2012-01-15T07:59:51Z</time>
      </trkpt>
      <trkpt lat="50.49408" lon="3.1236">
        <ele>53</ele>
        <time>2012-01-15T07:59:53Z</time>
      </trkpt>
      <trkpt lat="50.49416" lon="3.12346">
        <ele>53</ele>
        <time>2012-01-15T07:59:55Z</time>
      </trkpt>
      <trkpt lat="50.49424" lon="3.12332">
        <ele>53</ele>
        <time>2012-01-15T07:59:57Z</time>
      </trkpt>
      <trkpt lat="50.49433" lon="3.12319">
        <ele>53</ele>
        <time>2012-01-15T07:59:59Z</time>
      </trkpt>
      <trkpt lat="50.4944" lon="3.12307">
        <ele>53</ele>
        <time>2012-01-15T08:00:01Z</time>
      </trkpt>
      <trkpt lat="50.49447" lon="3.12293">
        <ele>53</ele>
        <time>2012-01-15T08:00:03Z</time>
      </trkpt>
      <trkpt lat="50.49454" lon="3.12278">
        <ele>53</ele>
        <time>2012-01-15T08:00:05Z</time>
      </trkpt>
      <trkpt lat="50.49463" lon="3.12263">
        <ele>53</ele>
        <time>2012-01-15T08:00:07Z</time>
      </trkpt>
      <trkpt lat="50.49471" lon="3.12248">
        <ele>53</ele>
        <time>2012-01-15T08:00:09Z</time>
      </trkpt>
      <trkpt lat="50.49479" lon="3.12234">
        <ele>53</ele>
        <time>2012-01-15T08:00:11Z</time>
      </trkpt>
      <trkpt lat="50.49485" lon="3.12219">
        <ele>53</ele>
        <time>2012-01-15T08:00:13Z</time>
      </trkpt>
      <trkpt lat="50.49492" lon="3.12207">
        <ele>53</ele>
        <time>2012-01-15T08:00:15Z</time>
      </trkpt>
      <trkpt lat="50.49498" lon="3.12196">
        <ele>53</ele>
        <time>2012-01-15T08:00:17Z</time>
      </trkpt>
      <trkpt lat="50.49504" lon="3.12186">
        <ele>48</ele>
        <time>2012-01-15T08:00:19Z</time>
      </trkpt>
      <trkpt lat="50.49511" lon="3.1217">
        <ele>48</ele>
        <time>2012-01-15T08:00:22Z</time>
      </trkpt>
      <trkpt lat="50.49505" lon="3.12157">
        <ele>48</ele>
        <time>2012-01-15T08:00:25Z</time>
      </trkpt>
      <trkpt lat="50.49496" lon="3.12145">
        <ele>48</ele>
        <time>2012-01-15T08:00:28Z</time>
      </trkpt>
      <trkpt lat="50.49488" lon="3.12135">
        <ele>48</ele>
        <time>2012-01-15T08:00:30Z</time>
      </trkpt>
      <trkpt lat="50.49481" lon="3.12124">
        <ele>48</ele>
        <time>2012-01-15T08:00:32Z</time>
      </trkpt>
      <trkpt lat="50.49473" lon="3.12113">
        <ele>48</ele>
        <time>2012-01-15T08:00:34Z</time>
      </trkpt>
      <trkpt lat="50.49465" lon="3.121">
        <ele>48</ele>
        <time>2012-01-15T08:00:36Z</time>
      </trkpt>
      <trkpt lat="50.49456" lon="3.12088">
        <ele>48</ele>
        <time>2012-01-15T08:00:38Z</time>
      </trkpt>
      <trkpt lat="50.49448" lon="3.12076">
        <ele>48</ele>
        <time>2012-01-15T08:00:40Z</time>
      </trkpt>
      <trkpt lat="50.49439" lon="3.12064">
        <ele>48</ele>
        <time>2012-01-15T08:00:42Z</time>
      </trkpt>
      <trkpt lat="50.49431" lon="3.12051">
        <ele>48</ele>
        <time>2012-01-15T08:00:44Z</time>
      </trkpt>
      <trkpt lat="50.49423" lon="3.12039">
        <ele>48</ele>
        <time>2012-01-15T08:00:46Z</time>
      </trkpt>
      <trkpt lat="50.49416" lon="3.12025">
        <ele>48</ele>
        <time>2012-01-15T08:00:48Z</time>
      </trkpt>
      <trkpt lat="50.49408" lon="3.12011">
        <ele>48</ele>
        <time>2012-01-15T08:00:50Z</time>
      </trkpt>
      <trkpt lat="50.494" lon="3.11997">
        <ele>48</ele>
        <time>2012-01-15T08:00:52Z</time>
      </trkpt>
      <trkpt lat="50.49392" lon="3.11983">
        <ele>48</ele>
        <time>2012-01-15T08:00:54Z</time>
      </trkpt>
      <trkpt lat="50.49384" lon="3.11969">
        <ele>48</ele>
        <time>2012-01-15T08:00:56Z</time>
      </trkpt>
      <trkpt lat="50.49376" lon="3.11954">
        <ele>48</ele>
        <time>2012-01-15T08:00:58Z</time>
      </trkpt>
      <trkpt lat="50.49367" lon="3.1194">
        <ele>48</ele>
        <time>2012-01-15T08:01:00Z</time>
      </trkpt>
      <trkpt lat="50.49359" lon="3.11927">
        <ele>48</ele>
        <time>2012-01-15T08:01:02Z</time>
      </trkpt>
      <trkpt lat="50.49351" lon="3.11912">
        <ele>48</ele>
        <time>2012-01-15T08:01:04Z</time>
      </trkpt>
      <trkpt lat="50.49343" lon="3.11898">
        <ele>48</ele>
        <time>2012-01-15T08:01:06Z</time>
      </trkpt>
      <trkpt lat="50.49335" lon="3.11884">
        <ele>48</ele>
        <time>2012-01-15T08:01:08Z</time>
      </trkpt>
      <trkpt lat="50.49327" lon="3.1187">
        <ele>48</ele>
        <time>2012-01-15T08:01:10Z</time>
      </trkpt>
      <trkpt lat="50.4932" lon="3.11857">
        <ele>48</ele>
        <time>2012-01-15T08:01:12Z</time>
      </trkpt>
      <trkpt lat="50.49312" lon="3.11844">
        <ele>48</ele>
        <time>2012-01-15T08:01:14Z</time>
      </trkpt>
      <trkpt lat="50.49304" lon="3.1183">
        <ele>48</ele>
        <time>2012-01-15T08:01:16Z</time>
      </trkpt>
      <trkpt lat="50.49296" lon="3.11816">
        <ele>48</ele>
        <time>2012-01-15T08:01:18Z</time>
      </trkpt>
      <trkpt lat="50.49288" lon="3.11802">
        <ele>48</ele>
        <time>2012-01-15T08:01:20Z</time>
      </trkpt>
      <trkpt lat="50.4928" lon="3.11787">
        <ele>48</ele>
        <time>2012-01-15T08:01:22Z</time>
      </trkpt>
      <trkpt lat="50.49273" lon="3.11772">
        <ele>48</ele>
        <time>2012-01-15T08:01:24Z</time>
      </trkpt>
      <trkpt lat="50.49267" lon="3.11757">
        <ele>48</ele>
        <time>2012-01-15T08:01:26Z</time>
      </trkpt>
      <trkpt lat="50.49261" lon="3.11742">
        <ele>48</ele>
        <time>2012-01-15T08:01:28Z</time>
      </trkpt>
      <trkpt lat="50.49256" lon="3.11727">
        <ele>48</ele>
        <time>2012-01-15T08:01:30Z</time>
      </trkpt>
      <trkpt lat="50.4925" lon="3.11715">
        <ele>48</ele>
        <time>2012-01-15T08:01:32Z</time>
      </trkpt>
      <trkpt lat="50.49245" lon="3.11704">
        <ele>48</ele>
        <time>2012-01-15T08:01:34Z</time>
      </trkpt>
      <trkpt lat="50.49232" lon="3.11704">
        <ele>48</ele>
        <time>2012-01-15T08:01:37Z</time>
      </trkpt>
      <trkpt lat="50.4922" lon="3.11712">
        <ele>48</ele>
        <time>2012-01-15T08:01:40Z</time>
      </trkpt>
      <trkpt lat="50.49212" lon="3.11718">
        <ele>48</ele>
        <time>2012-01-15T08:01:42Z</time>
      </trkpt>
      <trkpt lat="50.49203" lon="3.11723">
        <ele>48</ele>
        <time>2012-01-15T08:01:44Z</time>
      </trkpt>
      <trkpt lat="50.49194" lon="3.11729">
        <ele>48</ele>
        <time>2012-01-15T08:01:46Z</time>
      </trkpt>
      <trkpt lat="50.49186" lon="3.11734">
        <ele>48</ele>
        <time>2012-01-15T08:01:48Z</time>
      </trkpt>
      <trkpt lat="50.49176" lon="3.11741">
        <ele>48</ele>
        <time>2012-01-15T08:01:50Z</time>
      </trkpt>
      <trkpt lat="50.49167" lon="3.11746">
        <ele>48</ele>
        <time>2012-01-15T08:01:52Z</time>
      </trkpt>
      <trkpt lat="50.49157" lon="3.11752">
        <ele>48</ele>
        <time>2012-01-15T08:01:54Z</time>
      </trkpt>
      <trkpt lat="50.49147" lon="3.11759">
        <ele>48</ele>
        <time>2012-01-15T08:01:56Z</time>
      </trkpt>
      <trkpt lat="50.49136" lon="3.11764">
        <ele>48</ele>
        <time>2012-01-15T08:01:58Z</time>
      </trkpt>
      <trkpt lat="50.49127" lon="3.1177">
        <ele>48</ele>
        <time>2012-01-15T08:02:00Z</time>
      </trkpt>
      <trkpt lat="50.49116" lon="3.11775">
        <ele>48</ele>
        <time>2012-01-15T08:02:02Z</time>
      </trkpt>
      <trkpt lat="50.49106" lon="3.11779">
        <ele>48</ele>
        <time>2012-01-15T08:02:04Z</time>
      </trkpt>
      <trkpt lat="50.49095" lon="3.11783">
        <ele>48</ele>
        <time>2012-01-15T08:02:06Z</time>
      </trkpt>
      <trkpt lat="50.49084" lon="3.11787">
        <ele>48</ele>
        <time>2012-01-15T08:02:08Z</time>
      </trkpt>
      <trkpt lat="50.49074" lon="3.11793">
        <ele>53</ele>
        <time>2012-01-15T08:02:10Z</time>
      </trkpt>
      <trkpt lat="50.49065" lon="3.118">
        <ele>53</ele>
        <time>2012-01-15T08:02:12Z</time>
      </trkpt>
      <trkpt lat="50.49056" lon="3.1181">
        <ele>53</ele>
        <time>2012-01-15T08:02:14Z</time>
      </trkpt>
      <trkpt lat="50.49048" lon="3.11821">
        <ele>53</ele>
        <time>2012-01-15T08:02:16Z</time>
      </trkpt>
      <trkpt lat="50.4904" lon="3.11832">
        <ele>53</ele>
        <time>2012-01-15T08:02:18Z</time>
      </trkpt>
      <trkpt lat="50.49032" lon="3.11845">
        <ele>53</ele>
        <time>2012-01-15T08:02:20Z</time>
      </trkpt>
      <trkpt lat="50.49024" lon="3.11858">
        <ele>53</ele>
        <time>2012-01-15T08:02:22Z</time>
      </trkpt>
      <trkpt lat="50.49016" lon="3.11873">
        <ele>53</ele>
        <time>2012-01-15T08:02:24Z</time>
      </trkpt>
      <trkpt lat="50.49009" lon="3.11887">
        <ele>53</ele>
        <time>2012-01-15T08:02:26Z</time>
      </trkpt>
      <trkpt lat="50.49001" lon="3.11901">
        <ele>53</ele>
        <time>2012-01-15T08:02:28Z</time>
      </trkpt>
      <trkpt lat="50.48993" lon="3.11915">
        <ele>53</ele>
        <time>2012-01-15T08:02:30Z</time>
      </trkpt>
      <trkpt lat="50.48983" lon="3.11927">
        <ele>53</ele>
        <time>2012-01-15T08:02:32Z</time>
      </trkpt>
      <trkpt lat="50.48974" lon="3.11941">
        <ele>53</ele>
        <time>2012-01-15T08:02:34Z</time>
      </trkpt>
      <trkpt lat="50.48965" lon="3.11953">
        <ele>53</ele>
        <time>2012-01-15T08:02:36Z</time>
      </trkpt>
      <trkpt lat="50.48955" lon="3.11965">
        <ele>53</ele>
        <time>2012-01-15T08:02:38Z</time>
      </trkpt>
      <trkpt lat="50.48946" lon="3.11978">
        <ele>53</ele>
        <time>2012-01-15T08:02:40Z</time>
      </trkpt>
      <trkpt lat="50.48936" lon="3.1199">
        <ele>53</ele>
        <time>2012-01-15T08:02:42Z</time>
      </trkpt>
      <trkpt lat="50.48927" lon="3.12003">
        <ele>53</ele>
        <time>2012-01-15T08:02:44Z</time>
      </trkpt>
      <trkpt lat="50.48918" lon="3.12015">
        <ele>53</ele>
        <time>2012-01-15T08:02:46Z</time>
      </trkpt>
      <trkpt lat="50.48909" lon="3.12027">
        <ele>53</ele>
        <time>2012-01-15T08:02:48Z</time>
      </trkpt>
      <trkpt lat="50.489" lon="3.1204">
        <ele>53</ele>
        <time>2012-01-15T08:02:50Z</time>
      </trkpt>
      <trkpt lat="50.48891" lon="3.12052">
        <ele>53</ele>
        <time>2012-01-15T08:02:52Z</time>
      </trkpt>
      <trkpt lat="50.48883" lon="3.12064">
        <ele>53</ele>
        <time>2012-01-15T08:02:54Z</time>
      </trkpt>
      <trkpt lat="50.48874" lon="3.12076">
        <ele>53</ele>
        <time>2012-01-15T08:02:56Z</time>
      </trkpt>
      <trkpt lat="50.48865" lon="3.12087">
        <ele>53</ele>
        <time>2012-01-15T08:02:58Z</time>
      </trkpt>
      <trkpt lat="50.48856" lon="3.12097">
        <ele>53</ele>
        <time>2012-01-15T08:03:00Z</time>
      </trkpt>
      <trkpt lat="50.48846" lon="3.12104">
        <ele>53</ele>
        <time>2012-01-15T08:03:02Z</time>
      </trkpt>
      <trkpt lat="50.48836" lon="3.12111">
        <ele>53</ele>
        <time>2012-01-15T08:03:04Z</time>
      </trkpt>
      <trkpt lat="50.48825" lon="3.12114">
        <ele>53</ele>
        <time>2012-01-15T08:03:06Z</time>
      </trkpt>
      <trkpt lat="50.48814" lon="3.12116">
        <ele>53</ele>
        <time>2012-01-15T08:03:08Z</time>
      </trkpt>
      <trkpt lat="50.48803" lon="3.12118">
        <ele>53</ele>
        <time>2012-01-15T08:03:10Z</time>
      </trkpt>
      <trkpt lat="50.48793" lon="3.12118">
        <ele>53</ele>
        <time>2012-01-15T08:03:12Z</time>
      </trkpt>
      <trkpt lat="50.48781" lon="3.12116">
        <ele>53</ele>
        <time>2012-01-15T08:03:14Z</time>
      </trkpt>
      <trkpt lat="50.4877" lon="3.12115">
        <ele>53</ele>
        <time>2012-01-15T08:03:16Z</time>
      </trkpt>
      <trkpt lat="50.48759" lon="3.12113">
        <ele>53</ele>
        <time>2012-01-15T08:03:18Z</time>
      </trkpt>
      <trkpt lat="50.48748" lon="3.12113">
        <ele>53</ele>
        <time>2012-01-15T08:03:20Z</time>
      </trkpt>
      <trkpt lat="50.48737" lon="3.12111">
        <ele>53</ele>
        <time>2012-01-15T08:03:22Z</time>
      </trkpt>
      <trkpt lat="50.48726" lon="3.12109">
        <ele>53</ele>
        <time>2012-01-15T08:03:24Z</time>
      </trkpt>
      <trkpt lat="50.48714" lon="3.12108">
        <ele>53</ele>
        <time>2012-01-15T08:03:26Z</time>
      </trkpt>
      <trkpt lat="50.48703" lon="3.12107">
        <ele>53</ele>
        <time>2012-01-15T08:03:28Z</time>
      </trkpt>
      <trkpt lat="50.48692" lon="3.12109">
        <ele>53</ele>
        <time>2012-01-15T08:03:30Z</time>
      </trkpt>
      <trkpt lat="50.48681" lon="3.12111">
        <ele>53</ele>
        <time>2012-01-15T08:03:32Z</time>
      </trkpt>
      <trkpt lat="50.48671" lon="3.12113">
        <ele>53</ele>
        <time>2012-01-15T08:03:34Z</time>
      </trkpt>
      <trkpt lat="50.4866" lon="3.12115">
        <ele>53</ele>
        <time>2012-01-15T08:03:36Z</time>
      </trkpt>
      <trkpt lat="50.48649" lon="3.12118">
        <ele>53</ele>
        <time>2012-01-15T08:03:38Z</time>
      </trkpt>
      <trkpt lat="50.48639" lon="3.1212">
        <ele>53</ele>
        <time>2012-01-15T08:03:40Z</time>
      </trkpt>
      <trkpt lat="50.4863" lon="3.12121">
        <ele>53</ele>
        <time>2012-01-15T08:03:42Z</time>
      </trkpt>
      <trkpt lat="50.4862" lon="3.12123">
        <ele>53</ele>
        <time>2012-01-15T08:03:44Z</time>
      </trkpt>
      <trkpt lat="50.48611" lon="3.12124">
        <ele>53</ele>
        <time>2012-01-15T08:03:46Z</time>
      </trkpt>
      <trkpt lat="50.48598" lon="3.12121">
        <ele>53</ele>
        <time>2012-01-15T08:03:49Z</time>
      </trkpt>
      <trkpt lat="50.48591" lon="3.12112">
        <ele>53</ele>
        <time>2012-01-15T08:03:51Z</time>
      </trkpt>
      <trkpt lat="50.48586" lon="3.121">
        <ele>53</ele>
        <time>2012-01-15T08:03:53Z</time>
      </trkpt>
      <trkpt lat="50.48581" lon="3.12086">
        <ele>53</ele>
        <time>2012-01-15T08:03:55Z</time>
      </trkpt>
      <trkpt lat="50.48575" lon="3.12073">
        <ele>53</ele>
        <time>2012-01-15T08:03:57Z</time>
      </trkpt>
      <trkpt lat="50.4857" lon="3.1206">
        <ele>53</ele>
        <time>2012-01-15T08:03:59Z</time>
      </trkpt>
      <trkpt lat="50.48564" lon="3.12046">
        <ele>53</ele>
        <time>2012-01-15T08:04:01Z</time>
      </trkpt>
      <trkpt lat="50.48559" lon="3.12032">
        <ele>53</ele>
        <time>2012-01-15T08:04:03Z</time>
      </trkpt>
      <trkpt lat="50.48553" lon="3.12016">
        <ele>53</ele>
        <time>2012-01-15T08:04:05Z</time>
      </trkpt>
      <trkpt lat="50.48547" lon="3.12002">
        <ele>53</ele>
        <time>2012-01-15T08:04:07Z</time>
      </trkpt>
      <trkpt lat="50.48541" lon="3.11988">
        <ele>53</ele>
        <time>2012-01-15T08:04:09Z</time>
      </trkpt>
      <trkpt lat="50.48535" lon="3.11974">
        <ele>53</ele>
        <time>2012-01-15T08:04:11Z</time>
      </trkpt>
      <trkpt lat="50.48528" lon="3.1196">
        <ele>53</ele>
        <time>2012-01-15T08:04:13Z</time>
      </trkpt>
      <trkpt lat="50.48523" lon="3.11947">
        <ele>53</ele>
        <time>2012-01-15T08:04:15Z</time>
      </trkpt>
      <trkpt lat="50.48517" lon="3.11934">
        <ele>53</ele>
        <time>2012-01-15T08:04:17Z</time>
      </trkpt>
      <trkpt lat="50.48511" lon="3.1192">
        <ele>53</ele>
        <time>2012-01-15T08:04:19Z</time>
      </trkpt>
      <trkpt lat="50.48504" lon="3.11907">
        <ele>53</ele>
        <time>2012-01-15T08:04:21Z</time>
      </trkpt>
      <trkpt lat="50.48499" lon="3.11893">
        <ele>53</ele>
        <time>2012-01-15T08:04:23Z</time>
      </trkpt>
      <trkpt lat="50.48492" lon="3.11878">
        <ele>53</ele>
        <time>2012-01-15T08:04:25Z</time>
      </trkpt>
      <trkpt lat="50.48487" lon="3.11864">
        <ele>53</ele>
        <time>2012-01-15T08:04:27Z</time>
      </trkpt>
      <trkpt lat="50.48481" lon="3.11849">
        <ele>53</ele>
        <time>2012-01-15T08:04:29Z</time>
      </trkpt>
      <trkpt lat="50.48476" lon="3.11835">
        <ele>53</ele>
        <time>2012-01-15T08:04:31Z</time>
      </trkpt>
      <trkpt lat="50.48471" lon="3.1182">
        <ele>53</ele>
        <time>2012-01-15T08:04:33Z</time>
      </trkpt>
      <trkpt lat="50.48467" lon="3.11803">
        <ele>53</ele>
        <time>2012-01-15T08:04:35Z</time>
      </trkpt>
      <trkpt lat="50.48464" lon="3.11787">
        <ele>53</ele>
        <time>2012-01-15T08:04:37Z</time>
      </trkpt>
      <trkpt lat="50.4846" lon="3.1177">
        <ele>53</ele>
        <time>2012-01-15T08:04:39Z</time>
      </trkpt>
      <trkpt lat="50.48457" lon="3.11754">
        <ele>53</ele>
        <time>2012-01-15T08:04:41Z</time>
      </trkpt>
      <trkpt lat="50.48452" lon="3.11738">
        <ele>53</ele>
        <time>2012-01-15T08:04:43Z</time>
      </trkpt>
      <trkpt lat="50.48446" lon="3.11722">
        <ele>53</ele>
        <time>2012-01-15T08:04:45Z</time>
      </trkpt>
      <trkpt lat="50.4844" lon="3.11707">
        <ele>59</ele>
        <time>2012-01-15T08:04:47Z</time>
      </trkpt>
      <trkpt lat="50.48433" lon="3.11693">
        <ele>59</ele>
        <time>2012-01-15T08:04:49Z</time>
      </trkpt>
      <trkpt lat="50.48425" lon="3.1168">
        <ele>59</ele>
        <time>2012-01-15T08:04:51Z</time>
      </trkpt>
      <trkpt lat="50.48418" lon="3.11667">
        <ele>59</ele>
        <time>2012-01-15T08:04:53Z</time>
      </trkpt>
      <trkpt lat="50.4841" lon="3.11655">
        <ele>59</ele>
        <time>2012-01-15T08:04:55Z</time>
      </trkpt>
      <trkpt lat="50.48403" lon="3.11643">
        <ele>59</ele>
        <time>2012-01-15T08:04:57Z</time>
      </trkpt>
      <trkpt lat="50.48395" lon="3.11632">
        <ele>59</ele>
        <time>2012-01-15T08:04:59Z</time>
      </trkpt>
      <trkpt lat="50.48388" lon="3.11621">
        <ele>59</ele>
        <time>2012-01-15T08:05:01Z</time>
      </trkpt>
      <trkpt lat="50.4838" lon="3.11611">
        <ele>59</ele>
        <time>2012-01-15T08:05:03Z</time>
      </trkpt>
      <trkpt lat="50.48372" lon="3.11601">
        <ele>59</ele>
        <time>2012-01-15T08:05:05Z</time>
      </trkpt>
      <trkpt lat="50.48364" lon="3.11591">
        <ele>59</ele>
        <time>2012-01-15T08:05:07Z</time>
      </trkpt>
      <trkpt lat="50.48356" lon="3.11582">
        <ele>59</ele>
        <time>2012-01-15T08:05:09Z</time>
      </trkpt>
      <trkpt lat="50.48349" lon="3.11573">
        <ele>59</ele>
        <time>2012-01-15T08:05:11Z</time>
      </trkpt>
      <trkpt lat="50.48342" lon="3.11564">
        <ele>59</ele>
        <time>2012-01-15T08:05:13Z</time>
      </trkpt>
      <trkpt lat="50.48332" lon="3.11555">
        <ele>59</ele>
        <time>2012-01-15T08:05:16Z</time>
      </trkpt>
      <trkpt lat="50.48321" lon="3.11558">
        <ele>59</ele>
        <time>2012-01-15T08:05:19Z</time>
      </trkpt>
      <trkpt lat="50.48312" lon="3.11565">
        <ele>59</ele>
        <time>2012-01-15T08:05:22Z</time>
      </trkpt>
      <trkpt lat="50.48303" lon="3.11573">
        <ele>59</ele>
        <time>2012-01-15T08:05:25Z</time>
      </trkpt>
      <trkpt lat="50.48294" lon="3.11579">
        <ele>59</ele>
        <time>2012-01-15T08:05:28Z</time>
      </trkpt>
      <trkpt lat="50.48284" lon="3.11585">
        <ele>59</ele>
        <time>2012-01-15T08:05:31Z</time>
      </trkpt>
      <trkpt lat="50.48273" lon="3.11592">
        <ele>59</ele>
        <time>2012-01-15T08:05:34Z</time>
      </trkpt>
      <trkpt lat="50.48262" lon="3.11599">
        <ele>64</ele>
        <time>2012-01-15T08:05:37Z</time>
      </trkpt>
      <trkpt lat="50.48251" lon="3.11603">
        <ele>64</ele>
        <time>2012-01-15T08:05:40Z</time>
      </trkpt>
      <trkpt lat="50.4824" lon="3.11609">
        <ele>64</ele>
        <time>2012-01-15T08:05:43Z</time>
      </trkpt>
      <trkpt lat="50.48229" lon="3.11614">
        <ele>64</ele>
        <time>2012-01-15T08:05:46Z</time>
      </trkpt>
      <trkpt lat="50.48217" lon="3.11619">
        <ele>64</ele>
        <time>2012-01-15T08:05:49Z</time>
      </trkpt>
      <trkpt lat="50.48205" lon="3.11625">
        <ele>64</ele>
        <time>2012-01-15T08:05:52Z</time>
      </trkpt>
      <trkpt lat="50.48193" lon="3.1163">
        <ele>64</ele>
        <time>2012-01-15T08:05:55Z</time>
      </trkpt>
      <trkpt lat="50.48181" lon="3.11634">
        <ele>64</ele>
        <time>2012-01-15T08:05:58Z</time>
      </trkpt>
      <trkpt lat="50.48171" lon="3.11637">
        <ele>64</ele>
        <time>2012-01-15T08:06:01Z</time>
      </trkpt>
      <trkpt lat="50.48162" lon="3.1164">
        <ele>64</ele>
        <time>2012-01-15T08:06:04Z</time>
      </trkpt>
      <trkpt lat="50.48151" lon="3.11642">
        <ele>64</ele>
        <time>2012-01-15T08:06:07Z</time>
      </trkpt>
      <trkpt lat="50.4814" lon="3.11644">
        <ele>64</ele>
        <time>2012-01-15T08:06:10Z</time>
      </trkpt>
      <trkpt lat="50.48129" lon="3.11644">
        <ele>64</ele>
        <time>2012-01-15T08:06:13Z</time>
      </trkpt>
      <trkpt lat="50.4812" lon="3.11644">
        <ele>64</ele>
        <time>2012-01-15T08:06:16Z</time>
      </trkpt>
      <trkpt lat="50.48111" lon="3.11644">
        <ele>64</ele>
        <time>2012-01-15T08:06:19Z</time>
      </trkpt>
      <trkpt lat="50.48101" lon="3.11643">
        <ele>64</ele>
        <time>2012-01-15T08:06:23Z</time>
      </trkpt>
      <trkpt lat="50.48089" lon="3.11643">
        <ele>69</ele>
        <time>2012-01-15T08:06:27Z</time>
      </trkpt>
      <trkpt lat="50.48078" lon="3.11643">
        <ele>69</ele>
        <time>2012-01-15T08:06:31Z</time>
      </trkpt>
      <trkpt lat="50.48068" lon="3.11643">
        <ele>69</ele>
        <time>2012-01-15T08:06:35Z</time>
      </trkpt>
      <trkpt lat="50.48056" lon="3.11643">
        <ele>69</ele>
        <time>2012-01-15T08:06:39Z</time>
      </trkpt>
      <trkpt lat="50.48045" lon="3.11644">
        <ele>69</ele>
        <time>2012-01-15T08:06:43Z</time>
      </trkpt>
      <trkpt lat="50.48035" lon="3.11645">
        <ele>69</ele>
        <time>2012-01-15T08:06:47Z</time>
      </trkpt>
      <trkpt lat="50.48027" lon="3.11636">
        <ele>69</ele>
        <time>2012-01-15T08:06:52Z</time>
      </trkpt>
      <trkpt lat="50.48022" lon="3.11625">
        <ele>69</ele>
        <time>2012-01-15T08:06:55Z</time>
      </trkpt>
      <trkpt lat="50.48017" lon="3.11612">
        <ele>69</ele>
        <time>2012-01-15T08:06:58Z</time>
      </trkpt>
      <trkpt lat="50.48011" lon="3.11596">
        <ele>69</ele>
        <time>2012-01-15T08:07:02Z</time>
      </trkpt>
      <trkpt lat="50.48005" lon="3.1158">
        <ele>69</ele>
        <time>2012-01-15T08:07:06Z</time>
      </trkpt>
      <trkpt lat="50.48" lon="3.11565">
        <ele>69</ele>
        <time>2012-01-15T08:07:10Z</time>
      </trkpt>
      <trkpt lat="50.47995" lon="3.11552">
        <ele>69</ele>
        <time>2012-01-15T08:07:13Z</time>
      </trkpt>
      <trkpt lat="50.47991" lon="3.11535">
        <ele>69</ele>
        <time>2012-01-15T08:07:17Z</time>
      </trkpt>
      <trkpt lat="50.47988" lon="3.11521">
        <ele>69</ele>
        <time>2012-01-15T08:07:20Z</time>
      </trkpt>
      <trkpt lat="50.47988" lon="3.11503">
        <ele>69</ele>
        <time>2012-01-15T08:07:24Z</time>
      </trkpt>
      <trkpt lat="50.47991" lon="3.11488">
        <ele>69</ele>
        <time>2012-01-15T08:07:27Z</time>
      </trkpt>
      <trkpt lat="50.47992" lon="3.11474">
        <ele>69</ele>
        <time>2012-01-15T08:07:30Z</time>
      </trkpt>
      <trkpt lat="50.47994" lon="3.11456">
        <ele>69</ele>
        <time>2012-01-15T08:07:34Z</time>
      </trkpt>
      <trkpt lat="50.47995" lon="3.11438">
        <ele>69</ele>
        <time>2012-01-15T08:07:38Z</time>
      </trkpt>
      <trkpt lat="50.47996" lon="3.11422">
        <ele>69</ele>
        <time>2012-01-15T08:07:42Z</time>
      </trkpt>
      <trkpt lat="50.47997" lon="3.11405">
        <ele>69</ele>
        <time>2012-01-15T08:07:46Z</time>
      </trkpt>
      <trkpt lat="50.47996" lon="3.11389">
        <ele>69</ele>
        <time>2012-01-15T08:07:50Z</time>
      </trkpt>
      <trkpt lat="50.47995" lon="3.11375">
        <ele>69</ele>
        <time>2012-01-15T08:07:54Z</time>
      </trkpt>
      <trkpt lat="50.47993" lon="3.11359">
        <ele>69</ele>
        <time>2012-01-15T08:08:00Z</time>
      </trkpt>
      <trkpt lat="50.47991" lon="3.11344">
        <ele>69</ele>
        <time>2012-01-15T08:08:04Z</time>
      </trkpt>
      <trkpt lat="50.4799" lon="3.11328">
        <ele>69</ele>
        <time>2012-01-15T08:08:08Z</time>
      </trkpt>
      <trkpt lat="50.47988" lon="3.1131">
        <ele>69</ele>
        <time>2012-01-15T08:08:12Z</time>
      </trkpt>
      <trkpt lat="50.47986" lon="3.11293">
        <ele>69</ele>
        <time>2012-01-15T08:08:16Z</time>
      </trkpt>
      <trkpt lat="50.47984" lon="3.11279">
        <ele>69</ele>
        <time>2012-01-15T08:08:19Z</time>
      </trkpt>
      <trkpt lat="50.47983" lon="3.11263">
        <ele>69</ele>
        <time>2012-01-15T08:08:22Z</time>
      </trkpt>
      <trkpt lat="50.47983" lon="3.11247">
        <ele>69</ele>
        <time>2012-01-15T08:08:25Z</time>
      </trkpt>
      <trkpt lat="50.47983" lon="3.11233">
        <ele>69</ele>
        <time>2012-01-15T08:08:28Z</time>
      </trkpt>
      <trkpt lat="50.47984" lon="3.11217">
        <ele>69</ele>
        <time>2012-01-15T08:08:31Z</time>
      </trkpt>
      <trkpt lat="50.47985" lon="3.112">
        <ele>69</ele>
        <time>2012-01-15T08:08:34Z</time>
      </trkpt>
      <trkpt lat="50.47986" lon="3.11185">
        <ele>69</ele>
        <time>2012-01-15T08:08:37Z</time>
      </trkpt>
      <trkpt lat="50.47985" lon="3.1117">
        <ele>69</ele>
        <time>2012-01-15T08:08:40Z</time>
      </trkpt>
      <trkpt lat="50.47986" lon="3.11153">
        <ele>69</ele>
        <time>2012-01-15T08:08:44Z</time>
      </trkpt>
      <trkpt lat="50.47986" lon="3.11137">
        <ele>69</ele>
        <time>2012-01-15T08:08:48Z</time>
      </trkpt>
      <trkpt lat="50.47986" lon="3.11122">
        <ele>69</ele>
        <time>2012-01-15T08:08:52Z</time>
      </trkpt>
      <trkpt lat="50.47986" lon="3.11106">
        <ele>69</ele>
        <time>2012-01-15T08:08:56Z</time>
      </trkpt>
      <trkpt lat="50.47986" lon="3.1109">
        <ele>69</ele>
        <time>2012-01-15T08:09:00Z</time>
      </trkpt>
      <trkpt lat="50.47985" lon="3.11072">
        <ele>74</ele>
        <time>2012-01-15T08:09:04Z</time>
      </trkpt>
      <trkpt lat="50.47983" lon="3.11057">
        <ele>74</ele>
        <time>2012-01-15T08:09:08Z</time>
      </trkpt>
      <trkpt lat="50.47974" lon="3.11045">
        <ele>74</ele>
        <time>2012-01-15T08:09:12Z</time>
      </trkpt>
      <trkpt lat="50.47968" lon="3.11035">
        <ele>74</ele>
        <time>2012-01-15T08:09:15Z</time>
      </trkpt>
      <trkpt lat="50.47962" lon="3.11024">
        <ele>74</ele>
        <time>2012-01-15T08:09:18Z</time>
      </trkpt>
      <trkpt lat="50.47956" lon="3.11012">
        <ele>74</ele>
        <time>2012-01-15T08:09:21Z</time>
      </trkpt>
      <trkpt lat="50.47951" lon="3.11">
        <ele>74</ele>
        <time>2012-01-15T08:09:24Z</time>
      </trkpt>
      <trkpt lat="50.47944" lon="3.10987">
        <ele>74</ele>
        <time>2012-01-15T08:09:27Z</time>
      </trkpt>
      <trkpt lat="50.47937" lon="3.10974">
        <ele>74</ele>
        <time>2012-01-15T08:09:30Z</time>
      </trkpt>
      <trkpt lat="50.4793" lon="3.10961">
        <ele>74</ele>
        <time>2012-01-15T08:09:33Z</time>
      </trkpt>
      <trkpt lat="50.47922" lon="3.10947">
        <ele>74</ele>
        <time>2012-01-15T08:09:36Z</time>
      </trkpt>
      <trkpt lat="50.47914" lon="3.10933">
        <ele>74</ele>
        <time>2012-01-15T08:09:39Z</time>
      </trkpt>
      <trkpt lat="50.47906" lon="3.10919">
        <ele>74</ele>
        <time>2012-01-15T08:09:42Z</time>
      </trkpt>
      <trkpt lat="50.47898" lon="3.10904">
        <ele>74</ele>
        <time>2012-01-15T08:09:45Z</time>
      </trkpt>
      <trkpt lat="50.47889" lon="3.1089">
        <ele>74</ele>
        <time>2012-01-15T08:09:48Z</time>
      </trkpt>
      <trkpt lat="50.47881" lon="3.10876">
        <ele>74</ele>
        <time>2012-01-15T08:09:51Z</time>
      </trkpt>
      <trkpt lat="50.47875" lon="3.10865">
        <ele>74</ele>
        <time>2012-01-15T08:09:53Z</time>
      </trkpt>
      <trkpt lat="50.47869" lon="3.10855">
        <ele>74</ele>
        <time>2012-01-15T08:09:55Z</time>
      </trkpt>
      <trkpt lat="50.47862" lon="3.10845">
        <ele>74</ele>
        <time>2012-01-15T08:09:57Z</time>
      </trkpt>
      <trkpt lat="50.47853" lon="3.10832">
        <ele>74</ele>
        <time>2012-01-15T08:10:00Z</time>
      </trkpt>
      <trkpt lat="50.47843" lon="3.10817">
        <ele>74</ele>
        <time>2012-01-15T08:10:03Z</time>
      </trkpt>
      <trkpt lat="50.47834" lon="3.10804">
        <ele>74</ele>
        <time>2012-01-15T08:10:06Z</time>
      </trkpt>
      <trkpt lat="50.47829" lon="3.10788">
        <ele>74</ele>
        <time>2012-01-15T08:10:09Z</time>
      </trkpt>
      <trkpt lat="50.47831" lon="3.10772">
        <ele>74</ele>
        <time>2012-01-15T08:10:12Z</time>
      </trkpt>
      <trkpt lat="50.47836" lon="3.10755">
        <ele>74</ele>
        <time>2012-01-15T08:10:15Z</time>
      </trkpt>
      <trkpt lat="50.47842" lon="3.10737">
        <ele>74</ele>
        <time>2012-01-15T08:10:18Z</time>
      </trkpt>
      <trkpt lat="50.47847" lon="3.1072">
        <ele>74</ele>
        <time>2012-01-15T08:10:21Z</time>
      </trkpt>
      <trkpt lat="50.47845" lon="3.10705">
        <ele>74</ele>
        <time>2012-01-15T08:10:24Z</time>
      </trkpt>
      <trkpt lat="50.47835" lon="3.10692">
        <ele>74</ele>
        <time>2012-01-15T08:10:27Z</time>
      </trkpt>
      <trkpt lat="50.47827" lon="3.10681">
        <ele>74</ele>
        <time>2012-01-15T08:10:29Z</time>
      </trkpt>
      <trkpt lat="50.4782" lon="3.10671">
        <ele>74</ele>
        <time>2012-01-15T08:10:31Z</time>
      </trkpt>
      <trkpt lat="50.47812" lon="3.1066">
        <ele>74</ele>
        <time>2012-01-15T08:10:33Z</time>
      </trkpt>
      <trkpt lat="50.47803" lon="3.10648">
        <ele>74</ele>
        <time>2012-01-15T08:10:35Z</time>
      </trkpt>
      <trkpt lat="50.47795" lon="3.10637">
        <ele>74</ele>
        <time>2012-01-15T08:10:37Z</time>
      </trkpt>
      <trkpt lat="50.47786" lon="3.10625">
        <ele>74</ele>
        <time>2012-01-15T08:10:39Z</time>
      </trkpt>
      <trkpt lat="50.47776" lon="3.10612">
        <ele>74</ele>
        <time>2012-01-15T08:10:41Z</time>
      </trkpt>
      <trkpt lat="50.47767" lon="3.10599">
        <ele>74</ele>
        <time>2012-01-15T08:10:43Z</time>
      </trkpt>
      <trkpt lat="50.47757" lon="3.10586">
        <ele>74</ele>
        <time>2012-01-15T08:10:45Z</time>
      </trkpt>
      <trkpt lat="50.47747" lon="3.10573">
        <ele>74</ele>
        <time>2012-01-15T08:10:47Z</time>
      </trkpt>
      <trkpt lat="50.47738" lon="3.1056">
        <ele>74</ele>
        <time>2012-01-15T08:10:49Z</time>
      </trkpt>
      <trkpt lat="50.4773" lon="3.10548">
        <ele>74</ele>
        <time>2012-01-15T08:10:51Z</time>
      </trkpt>
      <trkpt lat="50.47723" lon="3.10536">
        <ele>74</ele>
        <time>2012-01-15T08:10:53Z</time>
      </trkpt>
      <trkpt lat="50.47715" lon="3.10523">
        <ele>74</ele>
        <time>2012-01-15T08:10:55Z</time>
      </trkpt>
      <trkpt lat="50.47709" lon="3.1051">
        <ele>74</ele>
        <time>2012-01-15T08:10:57Z</time>
      </trkpt>
      <trkpt lat="50.47703" lon="3.10497">
        <ele>74</ele>
        <time>2012-01-15T08:10:59Z</time>
      </trkpt>
      <trkpt lat="50.47698" lon="3.10486">
        <ele>74</ele>
        <time>2012-01-15T08:11:01Z</time>
      </trkpt>
      <trkpt lat="50.47692" lon="3.10468">
        <ele>74</ele>
        <time>2012-01-15T08:11:04Z</time>
      </trkpt>
      <trkpt lat="50.47686" lon="3.10452">
        <ele>74</ele>
        <time>2012-01-15T08:11:07Z</time>
      </trkpt>
      <trkpt lat="50.47679" lon="3.10443">
        <ele>74</ele>
        <time>2012-01-15T08:11:10Z</time>
      </trkpt>
      <trkpt lat="50.47669" lon="3.10453">
        <ele>74</ele>
        <time>2012-01-15T08:11:13Z</time>
      </trkpt>
      <trkpt lat="50.47661" lon="3.10462">
        <ele>69</ele>
        <time>2012-01-15T08:11:15Z</time>
      </trkpt>
      <trkpt lat="50.47651" lon="3.10474">
        <ele>69</ele>
        <time>2012-01-15T08:11:17Z</time>
      </trkpt>
      <trkpt lat="50.47643" lon="3.10487">
        <ele>69</ele>
        <time>2012-01-15T08:11:19Z</time>
      </trkpt>
      <trkpt lat="50.47634" lon="3.10502">
        <ele>69</ele>
        <time>2012-01-15T08:11:21Z</time>
      </trkpt>
      <trkpt lat="50.47624" lon="3.10518">
        <ele>69</ele>
        <time>2012-01-15T08:11:23Z</time>
      </trkpt>
      <trkpt lat="50.47615" lon="3.10536">
        <ele>69</ele>
        <time>2012-01-15T08:11:25Z</time>
      </trkpt>
      <trkpt lat="50.47608" lon="3.10558">
        <ele>63</ele>
        <time>2012-01-15T08:11:27Z</time>
      </trkpt>
      <trkpt lat="50.47601" lon="3.10579">
        <ele>63</ele>
        <time>2012-01-15T08:11:29Z</time>
      </trkpt>
      <trkpt lat="50.47594" lon="3.106">
        <ele>63</ele>
        <time>2012-01-15T08:11:31Z</time>
      </trkpt>
      <trkpt lat="50.47586" lon="3.10617">
        <ele>63</ele>
        <time>2012-01-15T08:11:33Z</time>
      </trkpt>
      <trkpt lat="50.47576" lon="3.10627">
        <ele>63</ele>
        <time>2012-01-15T08:11:35Z</time>
      </trkpt>
      <trkpt lat="50.47566" lon="3.10629">
        <ele>63</ele>
        <time>2012-01-15T08:11:37Z</time>
      </trkpt>
      <trkpt lat="50.47558" lon="3.10616">
        <ele>63</ele>
        <time>2012-01-15T08:11:40Z</time>
      </trkpt>
      <trkpt lat="50.47559" lon="3.10596">
        <ele>63</ele>
        <time>2012-01-15T08:11:43Z</time>
      </trkpt>
      <trkpt lat="50.47561" lon="3.10582">
        <ele>63</ele>
        <time>2012-01-15T08:11:45Z</time>
      </trkpt>
      <trkpt lat="50.47562" lon="3.10567">
        <ele>63</ele>
        <time>2012-01-15T08:11:47Z</time>
      </trkpt>
      <trkpt lat="50.47562" lon="3.10552">
        <ele>63</ele>
        <time>2012-01-15T08:11:49Z</time>
      </trkpt>
      <trkpt lat="50.47562" lon="3.10537">
        <ele>63</ele>
        <time>2012-01-15T08:11:51Z</time>
      </trkpt>
      <trkpt lat="50.47561" lon="3.10521">
        <ele>63</ele>
        <time>2012-01-15T08:11:53Z</time>
      </trkpt>
      <trkpt lat="50.4756" lon="3.10505">
        <ele>63</ele>
        <time>2012-01-15T08:11:55Z</time>
      </trkpt>
      <trkpt lat="50.47559" lon="3.10487">
        <ele>63</ele>
        <time>2012-01-15T08:11:57Z</time>
      </trkpt>
      <trkpt lat="50.47557" lon="3.10471">
        <ele>63</ele>
        <time>2012-01-15T08:11:59Z</time>
      </trkpt>
      <trkpt lat="50.47555" lon="3.10455">
        <ele>63</ele>
        <time>2012-01-15T08:12:01Z</time>
      </trkpt>
      <trkpt lat="50.47552" lon="3.10439">
        <ele>63</ele>
        <time>2012-01-15T08:12:03Z</time>
      </trkpt>
      <trkpt lat="50.47549" lon="3.10422">
        <ele>63</ele>
        <time>2012-01-15T08:12:05Z</time>
      </trkpt>
      <trkpt lat="50.47546" lon="3.10407">
        <ele>63</ele>
        <time>2012-01-15T08:12:07Z</time>
      </trkpt>
      <trkpt lat="50.47543" lon="3.10391">
        <ele>63</ele>
        <time>2012-01-15T08:12:09Z</time>
      </trkpt>
      <trkpt lat="50.4754" lon="3.10376">
        <ele>63</ele>
        <time>2012-01-15T08:12:11Z</time>
      </trkpt>
      <trkpt lat="50.47537" lon="3.10362">
        <ele>63</ele>
        <time>2012-01-15T08:12:13Z</time>
      </trkpt>
      <trkpt lat="50.47534" lon="3.10348">
        <ele>63</ele>
        <time>2012-01-15T08:12:15Z</time>
      </trkpt>
      <trkpt lat="50.47531" lon="3.10331">
        <ele>63</ele>
        <time>2012-01-15T08:12:18Z</time>
      </trkpt>
      <trkpt lat="50.47529" lon="3.10315">
        <ele>63</ele>
        <time>2012-01-15T08:12:21Z</time>
      </trkpt>
      <trkpt lat="50.47525" lon="3.10298">
        <ele>63</ele>
        <time>2012-01-15T08:12:24Z</time>
      </trkpt>
      <trkpt lat="50.47521" lon="3.10279">
        <ele>63</ele>
        <time>2012-01-15T08:12:27Z</time>
      </trkpt>
      <trkpt lat="50.47518" lon="3.10265">
        <ele>63</ele>
        <time>2012-01-15T08:12:29Z</time>
      </trkpt>
      <trkpt lat="50.47516" lon="3.1025">
        <ele>63</ele>
        <time>2012-01-15T08:12:31Z</time>
      </trkpt>
      <trkpt lat="50.47513" lon="3.10235">
        <ele>63</ele>
        <time>2012-01-15T08:12:33Z</time>
      </trkpt>
      <trkpt lat="50.4751" lon="3.1022">
        <ele>63</ele>
        <time>2012-01-15T08:12:35Z</time>
      </trkpt>
      <trkpt lat="50.47507" lon="3.10204">
        <ele>63</ele>
        <time>2012-01-15T08:12:37Z</time>
      </trkpt>
      <trkpt lat="50.47504" lon="3.10188">
        <ele>63</ele>
        <time>2012-01-15T08:12:39Z</time>
      </trkpt>
      <trkpt lat="50.47501" lon="3.10172">
        <ele>63</ele>
        <time>2012-01-15T08:12:41Z</time>
      </trkpt>
      <trkpt lat="50.47498" lon="3.10156">
        <ele>63</ele>
        <time>2012-01-15T08:12:43Z</time>
      </trkpt>
      <trkpt lat="50.47495" lon="3.1014">
        <ele>63</ele>
        <time>2012-01-15T08:12:45Z</time>
      </trkpt>
      <trkpt lat="50.47493" lon="3.10123">
        <ele>63</ele>
        <time>2012-01-15T08:12:47Z</time>
      </trkpt>
      <trkpt lat="50.47489" lon="3.10107">
        <ele>63</ele>
        <time>2012-01-15T08:12:49Z</time>
      </trkpt>
      <trkpt lat="50.47486" lon="3.1009">
        <ele>63</ele>
        <time>2012-01-15T08:12:51Z</time>
      </trkpt>
      <trkpt lat="50.47483" lon="3.10073">
        <ele>63</ele>
        <time>2012-01-15T08:12:53Z</time>
      </trkpt>
      <trkpt lat="50.4748" lon="3.10057">
        <ele>63</ele>
        <time>2012-01-15T08:12:55Z</time>
      </trkpt>
      <trkpt lat="50.47478" lon="3.10041">
        <ele>63</ele>
        <time>2012-01-15T08:12:57Z</time>
      </trkpt>
      <trkpt lat="50.47474" lon="3.10025">
        <ele>63</ele>
        <time>2012-01-15T08:12:59Z</time>
      </trkpt>
      <trkpt lat="50.47471" lon="3.10008">
        <ele>63</ele>
        <time>2012-01-15T08:13:01Z</time>
      </trkpt>
      <trkpt lat="50.47468" lon="3.09992">
        <ele>63</ele>
        <time>2012-01-15T08:13:03Z</time>
      </trkpt>
      <trkpt lat="50.47465" lon="3.09975">
        <ele>63</ele>
        <time>2012-01-15T08:13:05Z</time>
      </trkpt>
      <trkpt lat="50.47459" lon="3.09963">
        <ele>63</ele>
        <time>2012-01-15T08:13:07Z</time>
      </trkpt>
      <trkpt lat="50.4745" lon="3.09958">
        <ele>63</ele>
        <time>2012-01-15T08:13:09Z</time>
      </trkpt>
      <trkpt lat="50.47439" lon="3.09959">
        <ele>63</ele>
        <time>2012-01-15T08:13:11Z</time>
      </trkpt>
      <trkpt lat="50.47426" lon="3.0996">
        <ele>63</ele>
        <time>2012-01-15T08:13:13Z</time>
      </trkpt>
      <trkpt lat="50.47413" lon="3.0996">
        <ele>63</ele>
        <time>2012-01-15T08:13:15Z</time>
      </trkpt>
      <trkpt lat="50.47399" lon="3.0996">
        <ele>63</ele>
        <time>2012-01-15T08:13:17Z</time>
      </trkpt>
      <trkpt lat="50.47384" lon="3.09961">
        <ele>63</ele>
        <time>2012-01-15T08:13:19Z</time>
      </trkpt>
      <trkpt lat="50.47368" lon="3.09961">
        <ele>63</ele>
        <time>2012-01-15T08:13:21Z</time>
      </trkpt>
      <trkpt lat="50.47352" lon="3.09961">
        <ele>63</ele>
        <time>2012-01-15T08:13:23Z</time>
      </trkpt>
      <trkpt lat="50.47336" lon="3.0996">
        <ele>63</ele>
        <time>2012-01-15T08:13:25Z</time>
      </trkpt>
      <trkpt lat="50.4732" lon="3.0996">
        <ele>63</ele>
        <time>2012-01-15T08:13:27Z</time>
      </trkpt>
      <trkpt lat="50.47303" lon="3.09957">
        <ele>63</ele>
        <time>2012-01-15T08:13:29Z</time>
      </trkpt>
      <trkpt lat="50.47288" lon="3.09951">
        <ele>63</ele>
        <time>2012-01-15T08:13:31Z</time>
      </trkpt>
      <trkpt lat="50.47274" lon="3.09942">
        <ele>63</ele>
        <time>2012-01-15T08:13:33Z</time>
      </trkpt>
      <trkpt lat="50.47259" lon="3.09931">
        <ele>58</ele>
        <time>2012-01-15T08:13:35Z</time>
      </trkpt>
      <trkpt lat="50.47244" lon="3.09921">
        <ele>58</ele>
        <time>2012-01-15T08:13:37Z</time>
      </trkpt>
      <trkpt lat="50.47229" lon="3.09909">
        <ele>58</ele>
        <time>2012-01-15T08:13:39Z</time>
      </trkpt>
      <trkpt lat="50.47216" lon="3.09896">
        <ele>58</ele>
        <time>2012-01-15T08:13:41Z</time>
      </trkpt>
      <trkpt lat="50.47202" lon="3.09884">
        <ele>58</ele>
        <time>2012-01-15T08:13:43Z</time>
      </trkpt>
      <trkpt lat="50.47188" lon="3.09871">
        <ele>58</ele>
        <time>2012-01-15T08:13:45Z</time>
      </trkpt>
      <trkpt lat="50.47173" lon="3.09859">
        <ele>58</ele>
        <time>2012-01-15T08:13:47Z</time>
      </trkpt>
      <trkpt lat="50.47159" lon="3.09846">
        <ele>58</ele>
        <time>2012-01-15T08:13:49Z</time>
      </trkpt>
      <trkpt lat="50.47145" lon="3.09834">
        <ele>58</ele>
        <time>2012-01-15T08:13:51Z</time>
      </trkpt>
      <trkpt lat="50.47131" lon="3.09822">
        <ele>58</ele>
        <time>2012-01-15T08:13:53Z</time>
      </trkpt>
      <trkpt lat="50.47118" lon="3.09809">
        <ele>58</ele>
        <time>2012-01-15T08:13:55Z</time>
      </trkpt>
      <trkpt lat="50.47105" lon="3.09798">
        <ele>58</ele>
        <time>2012-01-15T08:13:57Z</time>
      </trkpt>
      <trkpt lat="50.47091" lon="3.09787">
        <ele>53</ele>
        <time>2012-01-15T08:13:59Z</time>
      </trkpt>
      <trkpt lat="50.47078" lon="3.09776">
        <ele>53</ele>
        <time>2012-01-15T08:14:01Z</time>
      </trkpt>
      <trkpt lat="50.47064" lon="3.09766">
        <ele>53</ele>
        <time>2012-01-15T08:14:03Z</time>
      </trkpt>
      <trkpt lat="50.4705" lon="3.09756">
        <ele>53</ele>
        <time>2012-01-15T08:14:05Z</time>
      </trkpt>
      <trkpt lat="50.47036" lon="3.09746">
        <ele>53</ele>
        <time>2012-01-15T08:14:07Z</time>
      </trkpt>
      <trkpt lat="50.47021" lon="3.09736">
        <ele>53</ele>
        <time>2012-01-15T08:14:09Z</time>
      </trkpt>
      <trkpt lat="50.47005" lon="3.09728">
        <ele>53</ele>
        <time>2012-01-15T08:14:11Z</time>
      </trkpt>
      <trkpt lat="50.4699" lon="3.0972">
        <ele>53</ele>
        <time>2012-01-15T08:14:13Z</time>
      </trkpt>
      <trkpt lat="50.46976" lon="3.09716">
        <ele>53</ele>
        <time>2012-01-15T08:14:15Z</time>
      </trkpt>
      <trkpt lat="50.46961" lon="3.09713">
        <ele>47</ele>
        <time>2012-01-15T08:14:17Z</time>
      </trkpt>
      <trkpt lat="50.46948" lon="3.09711">
        <ele>47</ele>
        <time>2012-01-15T08:14:19Z</time>
      </trkpt>
      <trkpt lat="50.46938" lon="3.09706">
        <ele>47</ele>
        <time>2012-01-15T08:14:21Z</time>
      </trkpt>
      <trkpt lat="50.46938" lon="3.09689">
        <ele>47</ele>
        <time>2012-01-15T08:14:24Z</time>
      </trkpt>
      <trkpt lat="50.46943" lon="3.09669">
        <ele>47</ele>
        <time>2012-01-15T08:14:27Z</time>
      </trkpt>
      <trkpt lat="50.46947" lon="3.09655">
        <ele>47</ele>
        <time>2012-01-15T08:14:29Z</time>
      </trkpt>
      <trkpt lat="50.4695" lon="3.09639">
        <ele>47</ele>
        <time>2012-01-15T08:14:31Z</time>
      </trkpt>
      <trkpt lat="50.46953" lon="3.09622">
        <ele>47</ele>
        <time>2012-01-15T08:14:33Z</time>
      </trkpt>
      <trkpt lat="50.46956" lon="3.09605">
        <ele>47</ele>
        <time>2012-01-15T08:14:35Z</time>
      </trkpt>
      <trkpt lat="50.46958" lon="3.09587">
        <ele>47</ele>
        <time>2012-01-15T08:14:37Z</time>
      </trkpt>
      <trkpt lat="50.46959" lon="3.0957">
        <ele>47</ele>
        <time>2012-01-15T08:14:39Z</time>
      </trkpt>
      <trkpt lat="50.46961" lon="3.09553">
        <ele>47</ele>
        <time>2012-01-15T08:14:41Z</time>
      </trkpt>
      <trkpt lat="50.46962" lon="3.09534">
        <ele>47</ele>
        <time>2012-01-15T08:14:43Z</time>
      </trkpt>
      <trkpt lat="50.46962" lon="3.09515">
        <ele>47</ele>
        <time>2012-01-15T08:14:45Z</time>
      </trkpt>
      <trkpt lat="50.46962" lon="3.09497">
        <ele>47</ele>
        <time>2012-01-15T08:14:47Z</time>
      </trkpt>
      <trkpt lat="50.46963" lon="3.09478">
        <ele>47</ele>
        <time>2012-01-15T08:14:49Z</time>
      </trkpt>
      <trkpt lat="50.46963" lon="3.0946">
        <ele>47</ele>
        <time>2012-01-15T08:14:51Z</time>
      </trkpt>
      <trkpt lat="50.46963" lon="3.09441">
        <ele>47</ele>
        <time>2012-01-15T08:14:53Z</time>
      </trkpt>
      <trkpt lat="50.46964" lon="3.09423">
        <ele>47</ele>
        <time>2012-01-15T08:14:55Z</time>
      </trkpt>
      <trkpt lat="50.46967" lon="3.09404">
        <ele>47</ele>
        <time>2012-01-15T08:14:57Z</time>
      </trkpt>
      <trkpt lat="50.4697" lon="3.09386">
        <ele>47</ele>
        <time>2012-01-15T08:14:59Z</time>
      </trkpt>
      <trkpt lat="50.46974" lon="3.09367">
        <ele>47</ele>
        <time>2012-01-15T08:15:01Z</time>
      </trkpt>
      <trkpt lat="50.46978" lon="3.09349">
        <ele>47</ele>
        <time>2012-01-15T08:15:03Z</time>
      </trkpt>
      <trkpt lat="50.46981" lon="3.09331">
        <ele>47</ele>
        <time>2012-01-15T08:15:05Z</time>
      </trkpt>
      <trkpt lat="50.46985" lon="3.09314">
        <ele>47</ele>
        <time>2012-01-15T08:15:07Z</time>
      </trkpt>
      <trkpt lat="50.46987" lon="3.09296">
        <ele>47</ele>
        <time>2012-01-15T08:15:09Z</time>
      </trkpt>
      <trkpt lat="50.46987" lon="3.09279">
        <ele>47</ele>
        <time>2012-01-15T08:15:11Z</time>
      </trkpt>
      <trkpt lat="50.46986" lon="3.09261">
        <ele>47</ele>
        <time>2012-01-15T08:15:13Z</time>
      </trkpt>
      <trkpt lat="50.46985" lon="3.09242">
        <ele>47</ele>
        <time>2012-01-15T08:15:15Z</time>
      </trkpt>
      <trkpt lat="50.46984" lon="3.09224">
        <ele>47</ele>
        <time>2012-01-15T08:15:17Z</time>
      </trkpt>
      <trkpt lat="50.46979" lon="3.09206">
        <ele>47</ele>
        <time>2012-01-15T08:15:19Z</time>
      </trkpt>
      <trkpt lat="50.46973" lon="3.09189">
        <ele>47</ele>
        <time>2012-01-15T08:15:21Z</time>
      </trkpt>
      <trkpt lat="50.46966" lon="3.09174">
        <ele>47</ele>
        <time>2012-01-15T08:15:23Z</time>
      </trkpt>
      <trkpt lat="50.46957" lon="3.09162">
        <ele>47</ele>
        <time>2012-01-15T08:15:25Z</time>
      </trkpt>
      <trkpt lat="50.46946" lon="3.09161">
        <ele>47</ele>
        <time>2012-01-15T08:15:27Z</time>
      </trkpt>
      <trkpt lat="50.46935" lon="3.09161">
        <ele>47</ele>
        <time>2012-01-15T08:15:29Z</time>
      </trkpt>
      <trkpt lat="50.46924" lon="3.09163">
        <ele>47</ele>
        <time>2012-01-15T08:15:31Z</time>
      </trkpt>
      <trkpt lat="50.46914" lon="3.09165">
        <ele>47</ele>
        <time>2012-01-15T08:15:33Z</time>
      </trkpt>
      <trkpt lat="50.46903" lon="3.09168">
        <ele>47</ele>
        <time>2012-01-15T08:15:36Z</time>
      </trkpt>
      <trkpt lat="50.46894" lon="3.09169">
        <ele>47</ele>
        <time>2012-01-15T08:15:41Z</time>
      </trkpt>
      <trkpt lat="50.46883" lon="3.09172">
        <ele>47</ele>
        <time>2012-01-15T08:15:45Z</time>
      </trkpt>
      <trkpt lat="50.46872" lon="3.09176">
        <ele>47</ele>
        <time>2012-01-15T08:15:48Z</time>
      </trkpt>
      <trkpt lat="50.4686" lon="3.0918">
        <ele>47</ele>
        <time>2012-01-15T08:15:51Z</time>
      </trkpt>
      <trkpt lat="50.46847" lon="3.09183">
        <ele>47</ele>
        <time>2012-01-15T08:15:54Z</time>
      </trkpt>
      <trkpt lat="50.46834" lon="3.09187">
        <ele>47</ele>
        <time>2012-01-15T08:15:57Z</time>
      </trkpt>
      <trkpt lat="50.46824" lon="3.09188">
        <ele>47</ele>
        <time>2012-01-15T08:15:59Z</time>
      </trkpt>
      <trkpt lat="50.46815" lon="3.09191">
        <ele>47</ele>
        <time>2012-01-15T08:16:01Z</time>
      </trkpt>
      <trkpt lat="50.46805" lon="3.09193">
        <ele>47</ele>
        <time>2012-01-15T08:16:03Z</time>
      </trkpt>
      <trkpt lat="50.46795" lon="3.09194">
        <ele>47</ele>
        <time>2012-01-15T08:16:05Z</time>
      </trkpt>
      <trkpt lat="50.46786" lon="3.09196">
        <ele>47</ele>
        <time>2012-01-15T08:16:07Z</time>
      </trkpt>
      <trkpt lat="50.46777" lon="3.09197">
        <ele>47</ele>
        <time>2012-01-15T08:16:09Z</time>
      </trkpt>
      <trkpt lat="50.46768" lon="3.09197">
        <ele>47</ele>
        <time>2012-01-15T08:16:11Z</time>
      </trkpt>
      <trkpt lat="50.46759" lon="3.09196">
        <ele>47</ele>
        <time>2012-01-15T08:16:13Z</time>
      </trkpt>
      <trkpt lat="50.4675" lon="3.09191">
        <ele>47</ele>
        <time>2012-01-15T08:16:15Z</time>
      </trkpt>
      <trkpt lat="50.46739" lon="3.09182">
        <ele>47</ele>
        <time>2012-01-15T08:16:18Z</time>
      </trkpt>
      <trkpt lat="50.46732" lon="3.09173">
        <ele>47</ele>
        <time>2012-01-15T08:16:20Z</time>
      </trkpt>
      <trkpt lat="50.46725" lon="3.09164">
        <ele>47</ele>
        <time>2012-01-15T08:16:22Z</time>
      </trkpt>
      <trkpt lat="50.46718" lon="3.09155">
        <ele>47</ele>
        <time>2012-01-15T08:16:24Z</time>
      </trkpt>
      <trkpt lat="50.46711" lon="3.09146">
        <ele>47</ele>
        <time>2012-01-15T08:16:26Z</time>
      </trkpt>
      <trkpt lat="50.46703" lon="3.09137">
        <ele>47</ele>
        <time>2012-01-15T08:16:28Z</time>
      </trkpt>
      <trkpt lat="50.46696" lon="3.09129">
        <ele>47</ele>
        <time>2012-01-15T08:16:30Z</time>
      </trkpt>
      <trkpt lat="50.46685" lon="3.09117">
        <ele>47</ele>
        <time>2012-01-15T08:16:33Z</time>
      </trkpt>
      <trkpt lat="50.46679" lon="3.09108">
        <ele>52</ele>
        <time>2012-01-15T08:16:35Z</time>
      </trkpt>
      <trkpt lat="50.46669" lon="3.09094">
        <ele>52</ele>
        <time>2012-01-15T08:16:38Z</time>
      </trkpt>
      <trkpt lat="50.4666" lon="3.09082">
        <ele>52</ele>
        <time>2012-01-15T08:16:41Z</time>
      </trkpt>
      <trkpt lat="50.46652" lon="3.09069">
        <ele>52</ele>
        <time>2012-01-15T08:16:44Z</time>
      </trkpt>
      <trkpt lat="50.46644" lon="3.09054">
        <ele>52</ele>
        <time>2012-01-15T08:16:47Z</time>
      </trkpt>
      <trkpt lat="50.46638" lon="3.09037">
        <ele>52</ele>
        <time>2012-01-15T08:16:50Z</time>
      </trkpt>
      <trkpt lat="50.46631" lon="3.09021">
        <ele>52</ele>
        <time>2012-01-15T08:16:53Z</time>
      </trkpt>
      <trkpt lat="50.46626" lon="3.09009">
        <ele>52</ele>
        <time>2012-01-15T08:16:55Z</time>
      </trkpt>
      <trkpt lat="50.4662" lon="3.08998">
        <ele>52</ele>
        <time>2012-01-15T08:16:57Z</time>
      </trkpt>
      <trkpt lat="50.46614" lon="3.08986">
        <ele>52</ele>
        <time>2012-01-15T08:16:59Z</time>
      </trkpt>
      <trkpt lat="50.46607" lon="3.08976">
        <ele>52</ele>
        <time>2012-01-15T08:17:01Z</time>
      </trkpt>
      <trkpt lat="50.46601" lon="3.08966">
        <ele>52</ele>
        <time>2012-01-15T08:17:03Z</time>
      </trkpt>
      <trkpt lat="50.46594" lon="3.08956">
        <ele>52</ele>
        <time>2012-01-15T08:17:05Z</time>
      </trkpt>
      <trkpt lat="50.46588" lon="3.08946">
        <ele>52</ele>
        <time>2012-01-15T08:17:07Z</time>
      </trkpt>
      <trkpt lat="50.46582" lon="3.08936">
        <ele>52</ele>
        <time>2012-01-15T08:17:09Z</time>
      </trkpt>
      <trkpt lat="50.46575" lon="3.08926">
        <ele>52</ele>
        <time>2012-01-15T08:17:11Z</time>
      </trkpt>
      <trkpt lat="50.46566" lon="3.08912">
        <ele>52</ele>
        <time>2012-01-15T08:17:14Z</time>
      </trkpt>
      <trkpt lat="50.46558" lon="3.08899">
        <ele>52</ele>
        <time>2012-01-15T08:17:17Z</time>
      </trkpt>
      <trkpt lat="50.46551" lon="3.08888">
        <ele>52</ele>
        <time>2012-01-15T08:17:20Z</time>
      </trkpt>
      <trkpt lat="50.46544" lon="3.08878">
        <ele>52</ele>
        <time>2012-01-15T08:17:23Z</time>
      </trkpt>
      <trkpt lat="50.46536" lon="3.08867">
        <ele>52</ele>
        <time>2012-01-15T08:17:26Z</time>
      </trkpt>
      <trkpt lat="50.46528" lon="3.08856">
        <ele>52</ele>
        <time>2012-01-15T08:17:29Z</time>
      </trkpt>
      <trkpt lat="50.46521" lon="3.08845">
        <ele>52</ele>
        <time>2012-01-15T08:17:32Z</time>
      </trkpt>
      <trkpt lat="50.46513" lon="3.08835">
        <ele>52</ele>
        <time>2012-01-15T08:17:35Z</time>
      </trkpt>
      <trkpt lat="50.46504" lon="3.08824">
        <ele>52</ele>
        <time>2012-01-15T08:17:38Z</time>
      </trkpt>
      <trkpt lat="50.46494" lon="3.08813">
        <ele>52</ele>
        <time>2012-01-15T08:17:41Z</time>
      </trkpt>
      <trkpt lat="50.46486" lon="3.08805">
        <ele>52</ele>
        <time>2012-01-15T08:17:43Z</time>
      </trkpt>
      <trkpt lat="50.46476" lon="3.08795">
        <ele>52</ele>
        <time>2012-01-15T08:17:46Z</time>
      </trkpt>
      <trkpt lat="50.46466" lon="3.08784">
        <ele>57</ele>
        <time>2012-01-15T08:17:49Z</time>
      </trkpt>
      <trkpt lat="50.46457" lon="3.08772">
        <ele>57</ele>
        <time>2012-01-15T08:17:52Z</time>
      </trkpt>
      <trkpt lat="50.46448" lon="3.08761">
        <ele>57</ele>
        <time>2012-01-15T08:17:55Z</time>
      </trkpt>
      <trkpt lat="50.4644" lon="3.0875">
        <ele>57</ele>
        <time>2012-01-15T08:17:58Z</time>
      </trkpt>
      <trkpt lat="50.46431" lon="3.08739">
        <ele>57</ele>
        <time>2012-01-15T08:18:01Z</time>
      </trkpt>
      <trkpt lat="50.46421" lon="3.08731">
        <ele>57</ele>
        <time>2012-01-15T08:18:04Z</time>
      </trkpt>
      <trkpt lat="50.46411" lon="3.08721">
        <ele>57</ele>
        <time>2012-01-15T08:18:07Z</time>
      </trkpt>
      <trkpt lat="50.46399" lon="3.08713">
        <ele>57</ele>
        <time>2012-01-15T08:18:10Z</time>
      </trkpt>
      <trkpt lat="50.46391" lon="3.08708">
        <ele>57</ele>
        <time>2012-01-15T08:18:12Z</time>
      </trkpt>
      <trkpt lat="50.46382" lon="3.08703">
        <ele>57</ele>
        <time>2012-01-15T08:18:14Z</time>
      </trkpt>
      <trkpt lat="50.46373" lon="3.08697">
        <ele>57</ele>
        <time>2012-01-15T08:18:16Z</time>
      </trkpt>
      <trkpt lat="50.46365" lon="3.0869">
        <ele>57</ele>
        <time>2012-01-15T08:18:18Z</time>
      </trkpt>
      <trkpt lat="50.46357" lon="3.08683">
        <ele>57</ele>
        <time>2012-01-15T08:18:20Z</time>
      </trkpt>
      <trkpt lat="50.46345" lon="3.08672">
        <ele>57</ele>
        <time>2012-01-15T08:18:23Z</time>
      </trkpt>
      <trkpt lat="50.46334" lon="3.08661">
        <ele>57</ele>
        <time>2012-01-15T08:18:26Z</time>
      </trkpt>
      <trkpt lat="50.46326" lon="3.08653">
        <ele>57</ele>
        <time>2012-01-15T08:18:28Z</time>
      </trkpt>
      <trkpt lat="50.46316" lon="3.08641">
        <ele>57</ele>
        <time>2012-01-15T08:18:31Z</time>
      </trkpt>
      <trkpt lat="50.46305" lon="3.0863">
        <ele>57</ele>
        <time>2012-01-15T08:18:34Z</time>
      </trkpt>
      <trkpt lat="50.46294" lon="3.08618">
        <ele>57</ele>
        <time>2012-01-15T08:18:37Z</time>
      </trkpt>
      <trkpt lat="50.46287" lon="3.08609">
        <ele>57</ele>
        <time>2012-01-15T08:18:39Z</time>
      </trkpt>
      <trkpt lat="50.46277" lon="3.08597">
        <ele>57</ele>
        <time>2012-01-15T08:18:42Z</time>
      </trkpt>
      <trkpt lat="50.46266" lon="3.08587">
        <ele>57</ele>
        <time>2012-01-15T08:18:45Z</time>
      </trkpt>
      <trkpt lat="50.46258" lon="3.08579">
        <ele>57</ele>
        <time>2012-01-15T08:18:47Z</time>
      </trkpt>
      <trkpt lat="50.4625" lon="3.08571">
        <ele>57</ele>
        <time>2012-01-15T08:18:49Z</time>
      </trkpt>
      <trkpt lat="50.46242" lon="3.08562">
        <ele>57</ele>
        <time>2012-01-15T08:18:51Z</time>
      </trkpt>
      <trkpt lat="50.46234" lon="3.08554">
        <ele>57</ele>
        <time>2012-01-15T08:18:53Z</time>
      </trkpt>
      <trkpt lat="50.46227" lon="3.08545">
        <ele>57</ele>
        <time>2012-01-15T08:18:55Z</time>
      </trkpt>
      <trkpt lat="50.4622" lon="3.08535">
        <ele>57</ele>
        <time>2012-01-15T08:18:57Z</time>
      </trkpt>
      <trkpt lat="50.46213" lon="3.08521">
        <ele>57</ele>
        <time>2012-01-15T08:19:00Z</time>
      </trkpt>
      <trkpt lat="50.46205" lon="3.08508">
        <ele>57</ele>
        <time>2012-01-15T08:19:03Z</time>
      </trkpt>
      <trkpt lat="50.46197" lon="3.08494">
        <ele>57</ele>
        <time>2012-01-15T08:19:06Z</time>
      </trkpt>
      <trkpt lat="50.46188" lon="3.0848">
        <ele>57</ele>
        <time>2012-01-15T08:19:09Z</time>
      </trkpt>
      <trkpt lat="50.46179" lon="3.08465">
        <ele>57</ele>
        <time>2012-01-15T08:19:12Z</time>
      </trkpt>
      <trkpt lat="50.46173" lon="3.08455">
        <ele>57</ele>
        <time>2012-01-15T08:19:14Z</time>
      </trkpt>
      <trkpt lat="50.46167" lon="3.08443">
        <ele>57</ele>
        <time>2012-01-15T08:19:16Z</time>
      </trkpt>
      <trkpt lat="50.46157" lon="3.08429">
        <ele>57</ele>
        <time>2012-01-15T08:19:19Z</time>
      </trkpt>
      <trkpt lat="50.46151" lon="3.08418">
        <ele>57</ele>
        <time>2012-01-15T08:19:21Z</time>
      </trkpt>
      <trkpt lat="50.46145" lon="3.08408">
        <ele>57</ele>
        <time>2012-01-15T08:19:23Z</time>
      </trkpt>
      <trkpt lat="50.46138" lon="3.08398">
        <ele>57</ele>
        <time>2012-01-15T08:19:25Z</time>
      </trkpt>
      <trkpt lat="50.4613" lon="3.08389">
        <ele>57</ele>
        <time>2012-01-15T08:19:27Z</time>
      </trkpt>
      <trkpt lat="50.46123" lon="3.08378">
        <ele>57</ele>
        <time>2012-01-15T08:19:29Z</time>
      </trkpt>
      <trkpt lat="50.46116" lon="3.08368">
        <ele>62</ele>
        <time>2012-01-15T08:19:31Z</time>
      </trkpt>
      <trkpt lat="50.46109" lon="3.08358">
        <ele>62</ele>
        <time>2012-01-15T08:19:33Z</time>
      </trkpt>
      <trkpt lat="50.46102" lon="3.08347">
        <ele>62</ele>
        <time>2012-01-15T08:19:35Z</time>
      </trkpt>
      <trkpt lat="50.46095" lon="3.08337">
        <ele>62</ele>
        <time>2012-01-15T08:19:37Z</time>
      </trkpt>
      <trkpt lat="50.46088" lon="3.08325">
        <ele>62</ele>
        <time>2012-01-15T08:19:39Z</time>
      </trkpt>
      <trkpt lat="50.46082" lon="3.08314">
        <ele>62</ele>
        <time>2012-01-15T08:19:41Z</time>
      </trkpt>
      <trkpt lat="50.46075" lon="3.08303">
        <ele>62</ele>
        <time>2012-01-15T08:19:43Z</time>
      </trkpt>
      <trkpt lat="50.4607" lon="3.0829">
        <ele>62</ele>
        <time>2012-01-15T08:19:45Z</time>
      </trkpt>
      <trkpt lat="50.46063" lon="3.08278">
        <ele>62</ele>
        <time>2012-01-15T08:19:47Z</time>
      </trkpt>
      <trkpt lat="50.46058" lon="3.08264">
        <ele>62</ele>
        <time>2012-01-15T08:19:49Z</time>
      </trkpt>
      <trkpt lat="50.46052" lon="3.08252">
        <ele>62</ele>
        <time>2012-01-15T08:19:51Z</time>
      </trkpt>
      <trkpt lat="50.46047" lon="3.08237">
        <ele>62</ele>
        <time>2012-01-15T08:19:53Z</time>
      </trkpt>
      <trkpt lat="50.46041" lon="3.08224">
        <ele>62</ele>
        <time>2012-01-15T08:19:55Z</time>
      </trkpt>
      <trkpt lat="50.46035" lon="3.08211">
        <ele>62</ele>
        <time>2012-01-15T08:19:57Z</time>
      </trkpt>
      <trkpt lat="50.46028" lon="3.08199">
        <ele>62</ele>
        <time>2012-01-15T08:19:59Z</time>
      </trkpt>
      <trkpt lat="50.46024" lon="3.08185">
        <ele>62</ele>
        <time>2012-01-15T08:20:01Z</time>
      </trkpt>
      <trkpt lat="50.46019" lon="3.08171">
        <ele>62</ele>
        <time>2012-01-15T08:20:03Z</time>
      </trkpt>
      <trkpt lat="50.46013" lon="3.08157">
        <ele>62</ele>
        <time>2012-01-15T08:20:05Z</time>
      </trkpt>
      <trkpt lat="50.46006" lon="3.08145">
        <ele>62</ele>
        <time>2012-01-15T08:20:07Z</time>
      </trkpt>
      <trkpt lat="50.45998" lon="3.08137">
        <ele>62</ele>
        <time>2012-01-15T08:20:09Z</time>
      </trkpt>
      <trkpt lat="50.45988" lon="3.08137">
        <ele>62</ele>
        <time>2012-01-15T08:20:11Z</time>
      </trkpt>
      <trkpt lat="50.45978" lon="3.08137">
        <ele>62</ele>
        <time>2012-01-15T08:20:13Z</time>
      </trkpt>
      <trkpt lat="50.45968" lon="3.08137">
        <ele>62</ele>
        <time>2012-01-15T08:20:15Z</time>
      </trkpt>
      <trkpt lat="50.45958" lon="3.08137">
        <ele>62</ele>
        <time>2012-01-15T08:20:17Z</time>
      </trkpt>
      <trkpt lat="50.45948" lon="3.08137">
        <ele>62</ele>
        <time>2012-01-15T08:20:19Z</time>
      </trkpt>
      <trkpt lat="50.45938" lon="3.08137">
        <ele>67</ele>
        <time>2012-01-15T08:20:21Z</time>
      </trkpt>
      <trkpt lat="50.45929" lon="3.08137">
        <ele>67</ele>
        <time>2012-01-15T08:20:23Z</time>
      </trkpt>
      <trkpt lat="50.45919" lon="3.08137">
        <ele>67</ele>
        <time>2012-01-15T08:20:25Z</time>
      </trkpt>
      <trkpt lat="50.45907" lon="3.08134">
        <ele>67</ele>
        <time>2012-01-15T08:20:28Z</time>
      </trkpt>
      <trkpt lat="50.45897" lon="3.08128">
        <ele>67</ele>
        <time>2012-01-15T08:20:31Z</time>
      </trkpt>
      <trkpt lat="50.45887" lon="3.08114">
        <ele>67</ele>
        <time>2012-01-15T08:20:34Z</time>
      </trkpt>
      <trkpt lat="50.45881" lon="3.08101">
        <ele>67</ele>
        <time>2012-01-15T08:20:36Z</time>
      </trkpt>
      <trkpt lat="50.45874" lon="3.08088">
        <ele>67</ele>
        <time>2012-01-15T08:20:38Z</time>
      </trkpt>
      <trkpt lat="50.45865" lon="3.08078">
        <ele>67</ele>
        <time>2012-01-15T08:20:40Z</time>
      </trkpt>
      <trkpt lat="50.45856" lon="3.08069">
        <ele>67</ele>
        <time>2012-01-15T08:20:42Z</time>
      </trkpt>
      <trkpt lat="50.45846" lon="3.08061">
        <ele>67</ele>
        <time>2012-01-15T08:20:44Z</time>
      </trkpt>
      <trkpt lat="50.45836" lon="3.08053">
        <ele>67</ele>
        <time>2012-01-15T08:20:46Z</time>
      </trkpt>
      <trkpt lat="50.45826" lon="3.08045">
        <ele>67</ele>
        <time>2012-01-15T08:20:48Z</time>
      </trkpt>
      <trkpt lat="50.45818" lon="3.08036">
        <ele>67</ele>
        <time>2012-01-15T08:20:50Z</time>
      </trkpt>
      <trkpt lat="50.45809" lon="3.08026">
        <ele>67</ele>
        <time>2012-01-15T08:20:52Z</time>
      </trkpt>
      <trkpt lat="50.45801" lon="3.08015">
        <ele>67</ele>
        <time>2012-01-15T08:20:54Z</time>
      </trkpt>
      <trkpt lat="50.45792" lon="3.08006">
        <ele>67</ele>
        <time>2012-01-15T08:20:56Z</time>
      </trkpt>
      <trkpt lat="50.45784" lon="3.07996">
        <ele>67</ele>
        <time>2012-01-15T08:20:58Z</time>
      </trkpt>
      <trkpt lat="50.45776" lon="3.07985">
        <ele>67</ele>
        <time>2012-01-15T08:21:00Z</time>
      </trkpt>
      <trkpt lat="50.45767" lon="3.07974">
        <ele>67</ele>
        <time>2012-01-15T08:21:02Z</time>
      </trkpt>
      <trkpt lat="50.45758" lon="3.07963">
        <ele>67</ele>
        <time>2012-01-15T08:21:04Z</time>
      </trkpt>
      <trkpt lat="50.45748" lon="3.07952">
        <ele>67</ele>
        <time>2012-01-15T08:21:06Z</time>
      </trkpt>
      <trkpt lat="50.4574" lon="3.07941">
        <ele>67</ele>
        <time>2012-01-15T08:21:08Z</time>
      </trkpt>
      <trkpt lat="50.45731" lon="3.07929">
        <ele>67</ele>
        <time>2012-01-15T08:21:10Z</time>
      </trkpt>
      <trkpt lat="50.45721" lon="3.07917">
        <ele>67</ele>
        <time>2012-01-15T08:21:12Z</time>
      </trkpt>
      <trkpt lat="50.45713" lon="3.07906">
        <ele>67</ele>
        <time>2012-01-15T08:21:14Z</time>
      </trkpt>
      <trkpt lat="50.45704" lon="3.07895">
        <ele>67</ele>
        <time>2012-01-15T08:21:16Z</time>
      </trkpt>
      <trkpt lat="50.45695" lon="3.07885">
        <ele>67</ele>
        <time>2012-01-15T08:21:18Z</time>
      </trkpt>
      <trkpt lat="50.45686" lon="3.07873">
        <ele>67</ele>
        <time>2012-01-15T08:21:20Z</time>
      </trkpt>
      <trkpt lat="50.45677" lon="3.07862">
        <ele>67</ele>
        <time>2012-01-15T08:21:22Z</time>
      </trkpt>
      <trkpt lat="50.45668" lon="3.0785">
        <ele>67</ele>
        <time>2012-01-15T08:21:24Z</time>
      </trkpt>
      <trkpt lat="50.4566" lon="3.07838">
        <ele>67</ele>
        <time>2012-01-15T08:21:26Z</time>
      </trkpt>
      <trkpt lat="50.45651" lon="3.07828">
        <ele>67</ele>
        <time>2012-01-15T08:21:28Z</time>
      </trkpt>
      <trkpt lat="50.45642" lon="3.07817">
        <ele>67</ele>
        <time>2012-01-15T08:21:30Z</time>
      </trkpt>
      <trkpt lat="50.45633" lon="3.07808">
        <ele>67</ele>
        <time>2012-01-15T08:21:32Z</time>
      </trkpt>
      <trkpt lat="50.45623" lon="3.07801">
        <ele>67</ele>
        <time>2012-01-15T08:21:34Z</time>
      </trkpt>
      <trkpt lat="50.45616" lon="3.0779">
        <ele>67</ele>
        <time>2012-01-15T08:21:36Z</time>
      </trkpt>
      <trkpt lat="50.45622" lon="3.07773">
        <ele>67</ele>
        <time>2012-01-15T08:21:39Z</time>
      </trkpt>
      <trkpt lat="50.45632" lon="3.07767">
        <ele>67</ele>
        <time>2012-01-15T08:21:41Z</time>
      </trkpt>
      <trkpt lat="50.45643" lon="3.07762">
        <ele>67</ele>
        <time>2012-01-15T08:21:43Z</time>
      </trkpt>
      <trkpt lat="50.45654" lon="3.07757">
        <ele>67</ele>
        <time>2012-01-15T08:21:45Z</time>
      </trkpt>
      <trkpt lat="50.45664" lon="3.07748">
        <ele>67</ele>
        <time>2012-01-15T08:21:47Z</time>
      </trkpt>
      <trkpt lat="50.45669" lon="3.07733">
        <ele>67</ele>
        <time>2012-01-15T08:21:49Z</time>
      </trkpt>
      <trkpt lat="50.45668" lon="3.07716">
        <ele>67</ele>
        <time>2012-01-15T08:21:51Z</time>
      </trkpt>
      <trkpt lat="50.45667" lon="3.07698">
        <ele>67</ele>
        <time>2012-01-15T08:21:53Z</time>
      </trkpt>
      <trkpt lat="50.45664" lon="3.07679">
        <ele>67</ele>
        <time>2012-01-15T08:21:55Z</time>
      </trkpt>
      <trkpt lat="50.4566" lon="3.07661">
        <ele>67</ele>
        <time>2012-01-15T08:21:57Z</time>
      </trkpt>
      <trkpt lat="50.45656" lon="3.07643">
        <ele>67</ele>
        <time>2012-01-15T08:21:59Z</time>
      </trkpt>
      <trkpt lat="50.45653" lon="3.07625">
        <ele>67</ele>
        <time>2012-01-15T08:22:01Z</time>
      </trkpt>
      <trkpt lat="50.45649" lon="3.07607">
        <ele>67</ele>
        <time>2012-01-15T08:22:03Z</time>
      </trkpt>
      <trkpt lat="50.45643" lon="3.07591">
        <ele>67</ele>
        <time>2012-01-15T08:22:05Z</time>
      </trkpt>
      <trkpt lat="50.45639" lon="3.07575">
        <ele>67</ele>
        <time>2012-01-15T08:22:07Z</time>
      </trkpt>
      <trkpt lat="50.45633" lon="3.07561">
        <ele>67</ele>
        <time>2012-01-15T08:22:09Z</time>
      </trkpt>
      <trkpt lat="50.45625" lon="3.07553">
        <ele>67</ele>
        <time>2012-01-15T08:22:11Z</time>
      </trkpt>
      <trkpt lat="50.45614" lon="3.07553">
        <ele>67</ele>
        <time>2012-01-15T08:22:14Z</time>
      </trkpt>
      <trkpt lat="50.45603" lon="3.07555">
        <ele>67</ele>
        <time>2012-01-15T08:22:17Z</time>
      </trkpt>
      <trkpt lat="50.45595" lon="3.07544">
        <ele>67</ele>
        <time>2012-01-15T08:22:20Z</time>
      </trkpt>
      <trkpt lat="50.45591" lon="3.07531">
        <ele>67</ele>
        <time>2012-01-15T08:22:22Z</time>
      </trkpt>
      <trkpt lat="50.45587" lon="3.07518">
        <ele>67</ele>
        <time>2012-01-15T08:22:24Z</time>
      </trkpt>
      <trkpt lat="50.45584" lon="3.07503">
        <ele>67</ele>
        <time>2012-01-15T08:22:26Z</time>
      </trkpt>
      <trkpt lat="50.45581" lon="3.0749">
        <ele>67</ele>
        <time>2012-01-15T08:22:28Z</time>
      </trkpt>
      <trkpt lat="50.45577" lon="3.07476">
        <ele>67</ele>
        <time>2012-01-15T08:22:30Z</time>
      </trkpt>
      <trkpt lat="50.45573" lon="3.07462">
        <ele>67</ele>
        <time>2012-01-15T08:22:32Z</time>
      </trkpt>
      <trkpt lat="50.4557" lon="3.07448">
        <ele>67</ele>
        <time>2012-01-15T08:22:34Z</time>
      </trkpt>
      <trkpt lat="50.45565" lon="3.07433">
        <ele>67</ele>
        <time>2012-01-15T08:22:36Z</time>
      </trkpt>
      <trkpt lat="50.45562" lon="3.07418">
        <ele>67</ele>
        <time>2012-01-15T08:22:38Z</time>
      </trkpt>
      <trkpt lat="50.45558" lon="3.07403">
        <ele>67</ele>
        <time>2012-01-15T08:22:40Z</time>
      </trkpt>
      <trkpt lat="50.45553" lon="3.07388">
        <ele>67</ele>
        <time>2012-01-15T08:22:42Z</time>
      </trkpt>
      <trkpt lat="50.45549" lon="3.07373">
        <ele>67</ele>
        <time>2012-01-15T08:22:44Z</time>
      </trkpt>
      <trkpt lat="50.45545" lon="3.07357">
        <ele>67</ele>
        <time>2012-01-15T08:22:46Z</time>
      </trkpt>
      <trkpt lat="50.45541" lon="3.07341">
        <ele>67</ele>
        <time>2012-01-15T08:22:48Z</time>
      </trkpt>
      <trkpt lat="50.45536" lon="3.07324">
        <ele>67</ele>
        <time>2012-01-15T08:22:50Z</time>
      </trkpt>
      <trkpt lat="50.45531" lon="3.07308">
        <ele>67</ele>
        <time>2012-01-15T08:22:52Z</time>
      </trkpt>
      <trkpt lat="50.45524" lon="3.07295">
        <ele>67</ele>
        <time>2012-01-15T08:22:54Z</time>
      </trkpt>
      <trkpt lat="50.45518" lon="3.07281">
        <ele>67</ele>
        <time>2012-01-15T08:22:56Z</time>
      </trkpt>
      <trkpt lat="50.45512" lon="3.07266">
        <ele>67</ele>
        <time>2012-01-15T08:22:58Z</time>
      </trkpt>
      <trkpt lat="50.45505" lon="3.07251">
        <ele>67</ele>
        <time>2012-01-15T08:23:00Z</time>
      </trkpt>
      <trkpt lat="50.45499" lon="3.07235">
        <ele>67</ele>
        <time>2012-01-15T08:23:02Z</time>
      </trkpt>
      <trkpt lat="50.45493" lon="3.0722">
        <ele>67</ele>
        <time>2012-01-15T08:23:04Z</time>
      </trkpt>
      <trkpt lat="50.45487" lon="3.07207">
        <ele>67</ele>
        <time>2012-01-15T08:23:06Z</time>
      </trkpt>
      <trkpt lat="50.45481" lon="3.07193">
        <ele>67</ele>
        <time>2012-01-15T08:23:08Z</time>
      </trkpt>
      <trkpt lat="50.45477" lon="3.07175">
        <ele>67</ele>
        <time>2012-01-15T08:23:11Z</time>
      </trkpt>
      <trkpt lat="50.45483" lon="3.0716">
        <ele>67</ele>
        <time>2012-01-15T08:23:14Z</time>
      </trkpt>
      <trkpt lat="50.45492" lon="3.07153">
        <ele>67</ele>
        <time>2012-01-15T08:23:16Z</time>
      </trkpt>
      <trkpt lat="50.45501" lon="3.07145">
        <ele>67</ele>
        <time>2012-01-15T08:23:18Z</time>
      </trkpt>
      <trkpt lat="50.45511" lon="3.07136">
        <ele>67</ele>
        <time>2012-01-15T08:23:20Z</time>
      </trkpt>
      <trkpt lat="50.45521" lon="3.07127">
        <ele>67</ele>
        <time>2012-01-15T08:23:22Z</time>
      </trkpt>
      <trkpt lat="50.45532" lon="3.0712">
        <ele>67</ele>
        <time>2012-01-15T08:23:24Z</time>
      </trkpt>
      <trkpt lat="50.45543" lon="3.07113">
        <ele>67</ele>
        <time>2012-01-15T08:23:26Z</time>
      </trkpt>
      <trkpt lat="50.45554" lon="3.07107">
        <ele>67</ele>
        <time>2012-01-15T08:23:28Z</time>
      </trkpt>
      <trkpt lat="50.45565" lon="3.07102">
        <ele>67</ele>
        <time>2012-01-15T08:23:30Z</time>
      </trkpt>
      <trkpt lat="50.45576" lon="3.07096">
        <ele>67</ele>
        <time>2012-01-15T08:23:32Z</time>
      </trkpt>
      <trkpt lat="50.45587" lon="3.07092">
        <ele>67</ele>
        <time>2012-01-15T08:23:34Z</time>
      </trkpt>
      <trkpt lat="50.45599" lon="3.07086">
        <ele>67</ele>
        <time>2012-01-15T08:23:36Z</time>
      </trkpt>
      <trkpt lat="50.45611" lon="3.07081">
        <ele>67</ele>
        <time>2012-01-15T08:23:38Z</time>
      </trkpt>
      <trkpt lat="50.45622" lon="3.07077">
        <ele>67</ele>
        <time>2012-01-15T08:23:40Z</time>
      </trkpt>
      <trkpt lat="50.45632" lon="3.0707">
        <ele>67</ele>
        <time>2012-01-15T08:23:42Z</time>
      </trkpt>
      <trkpt lat="50.45636" lon="3.07056">
        <ele>67</ele>
        <time>2012-01-15T08:23:44Z</time>
      </trkpt>
      <trkpt lat="50.45633" lon="3.07039">
        <ele>67</ele>
        <time>2012-01-15T08:23:46Z</time>
      </trkpt>
      <trkpt lat="50.45627" lon="3.07018">
        <ele>67</ele>
        <time>2012-01-15T08:23:48Z</time>
      </trkpt>
      <trkpt lat="50.45623" lon="3.06998">
        <ele>67</ele>
        <time>2012-01-15T08:23:50Z</time>
      </trkpt>
      <trkpt lat="50.45618" lon="3.06977">
        <ele>67</ele>
        <time>2012-01-15T08:23:52Z</time>
      </trkpt>
      <trkpt lat="50.45613" lon="3.06956">
        <ele>67</ele>
        <time>2012-01-15T08:23:54Z</time>
      </trkpt>
      <trkpt lat="50.45606" lon="3.0694">
        <ele>67</ele>
        <time>2012-01-15T08:23:56Z</time>
      </trkpt>
      <trkpt lat="50.45596" lon="3.06933">
        <ele>67</ele>
        <time>2012-01-15T08:23:58Z</time>
      </trkpt>
      <trkpt lat="50.45587" lon="3.06924">
        <ele>67</ele>
        <time>2012-01-15T08:24:00Z</time>
      </trkpt>
      <trkpt lat="50.45579" lon="3.06913">
        <ele>67</ele>
        <time>2012-01-15T08:24:02Z</time>
      </trkpt>
      <trkpt lat="50.45569" lon="3.06909">
        <ele>67</ele>
        <time>2012-01-15T08:24:04Z</time>
      </trkpt>
      <trkpt lat="50.45557" lon="3.06905">
        <ele>67</ele>
        <time>2012-01-15T08:24:06Z</time>
      </trkpt>
      <trkpt lat="50.45546" lon="3.069">
        <ele>67</ele>
        <time>2012-01-15T08:24:08Z</time>
      </trkpt>
      <trkpt lat="50.45534" lon="3.06893">
        <ele>67</ele>
        <time>2012-01-15T08:24:10Z</time>
      </trkpt>
      <trkpt lat="50.45522" lon="3.06884">
        <ele>67</ele>
        <time>2012-01-15T08:24:12Z</time>
      </trkpt>
      <trkpt lat="50.45512" lon="3.06877">
        <ele>67</ele>
        <time>2012-01-15T08:24:14Z</time>
      </trkpt>
      <trkpt lat="50.45501" lon="3.0687">
        <ele>67</ele>
        <time>2012-01-15T08:24:16Z</time>
      </trkpt>
      <trkpt lat="50.45492" lon="3.06865">
        <ele>67</ele>
        <time>2012-01-15T08:24:18Z</time>
      </trkpt>
      <trkpt lat="50.45488" lon="3.06851">
        <ele>67</ele>
        <time>2012-01-15T08:24:22Z</time>
      </trkpt>
      <trkpt lat="50.45494" lon="3.06841">
        <ele>67</ele>
        <time>2012-01-15T08:24:25Z</time>
      </trkpt>
      <trkpt lat="50.45504" lon="3.06829">
        <ele>67</ele>
        <time>2012-01-15T08:24:28Z</time>
      </trkpt>
      <trkpt lat="50.45512" lon="3.0682">
        <ele>67</ele>
        <time>2012-01-15T08:24:30Z</time>
      </trkpt>
      <trkpt lat="50.45522" lon="3.06812">
        <ele>67</ele>
        <time>2012-01-15T08:24:32Z</time>
      </trkpt>
      <trkpt lat="50.45532" lon="3.06803">
        <ele>67</ele>
        <time>2012-01-15T08:24:34Z</time>
      </trkpt>
      <trkpt lat="50.45543" lon="3.06794">
        <ele>67</ele>
        <time>2012-01-15T08:24:36Z</time>
      </trkpt>
      <trkpt lat="50.45553" lon="3.06785">
        <ele>67</ele>
        <time>2012-01-15T08:24:38Z</time>
      </trkpt>
      <trkpt lat="50.45564" lon="3.06776">
        <ele>67</ele>
        <time>2012-01-15T08:24:40Z</time>
      </trkpt>
      <trkpt lat="50.45576" lon="3.06766">
        <ele>67</ele>
        <time>2012-01-15T08:24:42Z</time>
      </trkpt>
      <trkpt lat="50.45588" lon="3.06756">
        <ele>67</ele>
        <time>2012-01-15T08:24:44Z</time>
      </trkpt>
      <trkpt lat="50.456" lon="3.06746">
        <ele>62</ele>
        <time>2012-01-15T08:24:46Z</time>
      </trkpt>
      <trkpt lat="50.45612" lon="3.06736">
        <ele>62</ele>
        <time>2012-01-15T08:24:48Z</time>
      </trkpt>
      <trkpt lat="50.45623" lon="3.06725">
        <ele>62</ele>
        <time>2012-01-15T08:24:50Z</time>
      </trkpt>
      <trkpt lat="50.45633" lon="3.06715">
        <ele>62</ele>
        <time>2012-01-15T08:24:52Z</time>
      </trkpt>
      <trkpt lat="50.45639" lon="3.067">
        <ele>62</ele>
        <time>2012-01-15T08:24:54Z</time>
      </trkpt>
      <trkpt lat="50.45636" lon="3.06681">
        <ele>62</ele>
        <time>2012-01-15T08:24:56Z</time>
      </trkpt>
      <trkpt lat="50.4563" lon="3.06665">
        <ele>62</ele>
        <time>2012-01-15T08:24:58Z</time>
      </trkpt>
      <trkpt lat="50.45622" lon="3.06649">
        <ele>62</ele>
        <time>2012-01-15T08:25:00Z</time>
      </trkpt>
      <trkpt lat="50.45615" lon="3.0663">
        <ele>62</ele>
        <time>2012-01-15T08:25:02Z</time>
      </trkpt>
      <trkpt lat="50.45608" lon="3.0661">
        <ele>62</ele>
        <time>2012-01-15T08:25:04Z</time>
      </trkpt>
      <trkpt lat="50.456" lon="3.06589">
        <ele>62</ele>
        <time>2012-01-15T08:25:06Z</time>
      </trkpt>
      <trkpt lat="50.45591" lon="3.06568">
        <ele>62</ele>
        <time>2012-01-15T08:25:08Z</time>
      </trkpt>
      <trkpt lat="50.45583" lon="3.06546">
        <ele>62</ele>
        <time>2012-01-15T08:25:10Z</time>
      </trkpt>
      <trkpt lat="50.45575" lon="3.06523">
        <ele>62</ele>
        <time>2012-01-15T08:25:12Z</time>
      </trkpt>
      <trkpt lat="50.45567" lon="3.06502">
        <ele>62</ele>
        <time>2012-01-15T08:25:14Z</time>
      </trkpt>
      <trkpt lat="50.45557" lon="3.0648">
        <ele>62</ele>
        <time>2012-01-15T08:25:16Z</time>
      </trkpt>
      <trkpt lat="50.45548" lon="3.06459">
        <ele>62</ele>
        <time>2012-01-15T08:25:18Z</time>
      </trkpt>
      <trkpt lat="50.45541" lon="3.06436">
        <ele>62</ele>
        <time>2012-01-15T08:25:20Z</time>
      </trkpt>
      <trkpt lat="50.45533" lon="3.06417">
        <ele>62</ele>
        <time>2012-01-15T08:25:22Z</time>
      </trkpt>
      <trkpt lat="50.45526" lon="3.06397">
        <ele>62</ele>
        <time>2012-01-15T08:25:24Z</time>
      </trkpt>
      <trkpt lat="50.45518" lon="3.06378">
        <ele>62</ele>
        <time>2012-01-15T08:25:26Z</time>
      </trkpt>
      <trkpt lat="50.4551" lon="3.06358">
        <ele>62</ele>
        <time>2012-01-15T08:25:28Z</time>
      </trkpt>
      <trkpt lat="50.45504" lon="3.06341">
        <ele>62</ele>
        <time>2012-01-15T08:25:30Z</time>
      </trkpt>
      <trkpt lat="50.45498" lon="3.06326">
        <ele>62</ele>
        <time>2012-01-15T08:25:32Z</time>
      </trkpt>
      <trkpt lat="50.45492" lon="3.06309">
        <ele>62</ele>
        <time>2012-01-15T08:25:35Z</time>
      </trkpt>
      <trkpt lat="50.45485" lon="3.06292">
        <ele>62</ele>
        <time>2012-01-15T08:25:38Z</time>
      </trkpt>
      <trkpt lat="50.4548" lon="3.06281">
        <ele>62</ele>
        <time>2012-01-15T08:25:40Z</time>
      </trkpt>
      <trkpt lat="50.45475" lon="3.06267">
        <ele>62</ele>
        <time>2012-01-15T08:25:42Z</time>
      </trkpt>
      <trkpt lat="50.4547" lon="3.06255">
        <ele>62</ele>
        <time>2012-01-15T08:25:44Z</time>
      </trkpt>
      <trkpt lat="50.45464" lon="3.06239">
        <ele>57</ele>
        <time>2012-01-15T08:25:47Z</time>
      </trkpt>
      <trkpt lat="50.45459" lon="3.06227">
        <ele>57</ele>
        <time>2012-01-15T08:25:50Z</time>
      </trkpt>
      <trkpt lat="50.45455" lon="3.06214">
        <ele>57</ele>
        <time>2012-01-15T08:25:53Z</time>
      </trkpt>
      <trkpt lat="50.4545" lon="3.062">
        <ele>57</ele>
        <time>2012-01-15T08:25:56Z</time>
      </trkpt>
      <trkpt lat="50.45445" lon="3.06188">
        <ele>57</ele>
        <time>2012-01-15T08:25:59Z</time>
      </trkpt>
      <trkpt lat="50.45441" lon="3.06176">
        <ele>57</ele>
        <time>2012-01-15T08:26:02Z</time>
      </trkpt>
      <trkpt lat="50.45435" lon="3.06164">
        <ele>57</ele>
        <time>2012-01-15T08:26:05Z</time>
      </trkpt>
      <trkpt lat="50.45427" lon="3.06151">
        <ele>57</ele>
        <time>2012-01-15T08:26:08Z</time>
      </trkpt>
      <trkpt lat="50.45421" lon="3.06137">
        <ele>57</ele>
        <time>2012-01-15T08:26:12Z</time>
      </trkpt>
      <trkpt lat="50.45415" lon="3.06123">
        <ele>57</ele>
        <time>2012-01-15T08:26:17Z</time>
      </trkpt>
      <trkpt lat="50.45411" lon="3.0611">
        <ele>57</ele>
        <time>2012-01-15T08:26:20Z</time>
      </trkpt>
      <trkpt lat="50.45408" lon="3.06096">
        <ele>57</ele>
        <time>2012-01-15T08:26:23Z</time>
      </trkpt>
      <trkpt lat="50.45404" lon="3.06078">
        <ele>57</ele>
        <time>2012-01-15T08:26:26Z</time>
      </trkpt>
      <trkpt lat="50.45396" lon="3.06061">
        <ele>57</ele>
        <time>2012-01-15T08:26:29Z</time>
      </trkpt>
      <trkpt lat="50.45391" lon="3.06044">
        <ele>57</ele>
        <time>2012-01-15T08:26:32Z</time>
      </trkpt>
      <trkpt lat="50.45387" lon="3.06031">
        <ele>57</ele>
        <time>2012-01-15T08:26:35Z</time>
      </trkpt>
      <trkpt lat="50.4538" lon="3.06016">
        <ele>57</ele>
        <time>2012-01-15T08:26:38Z</time>
      </trkpt>
      <trkpt lat="50.45375" lon="3.06004">
        <ele>57</ele>
        <time>2012-01-15T08:26:40Z</time>
      </trkpt>
      <trkpt lat="50.4537" lon="3.0599">
        <ele>57</ele>
        <time>2012-01-15T08:26:42Z</time>
      </trkpt>
      <trkpt lat="50.45364" lon="3.05977">
        <ele>57</ele>
        <time>2012-01-15T08:26:44Z</time>
      </trkpt>
      <trkpt lat="50.45358" lon="3.05962">
        <ele>57</ele>
        <time>2012-01-15T08:26:46Z</time>
      </trkpt>
      <trkpt lat="50.45353" lon="3.05946">
        <ele>52</ele>
        <time>2012-01-15T08:26:48Z</time>
      </trkpt>
      <trkpt lat="50.45347" lon="3.05929">
        <ele>52</ele>
        <time>2012-01-15T08:26:50Z</time>
      </trkpt>
      <trkpt lat="50.4534" lon="3.05913">
        <ele>52</ele>
        <time>2012-01-15T08:26:52Z</time>
      </trkpt>
      <trkpt lat="50.45334" lon="3.05896">
        <ele>52</ele>
        <time>2012-01-15T08:26:54Z</time>
      </trkpt>
      <trkpt lat="50.45327" lon="3.0588">
        <ele>52</ele>
        <time>2012-01-15T08:26:56Z</time>
      </trkpt>
      <trkpt lat="50.4532" lon="3.05861">
        <ele>52</ele>
        <time>2012-01-15T08:26:58Z</time>
      </trkpt>
      <trkpt lat="50.45313" lon="3.05842">
        <ele>52</ele>
        <time>2012-01-15T08:27:00Z</time>
      </trkpt>
      <trkpt lat="50.45306" lon="3.05824">
        <ele>52</ele>
        <time>2012-01-15T08:27:02Z</time>
      </trkpt>
      <trkpt lat="50.45299" lon="3.05805">
        <ele>52</ele>
        <time>2012-01-15T08:27:04Z</time>
      </trkpt>
      <trkpt lat="50.45291" lon="3.05787">
        <ele>52</ele>
        <time>2012-01-15T08:27:06Z</time>
      </trkpt>
      <trkpt lat="50.45284" lon="3.05769">
        <ele>52</ele>
        <time>2012-01-15T08:27:08Z</time>
      </trkpt>
      <trkpt lat="50.45277" lon="3.05751">
        <ele>52</ele>
        <time>2012-01-15T08:27:10Z</time>
      </trkpt>
      <trkpt lat="50.45271" lon="3.05734">
        <ele>52</ele>
        <time>2012-01-15T08:27:12Z</time>
      </trkpt>
      <trkpt lat="50.45265" lon="3.05717">
        <ele>52</ele>
        <time>2012-01-15T08:27:14Z</time>
      </trkpt>
      <trkpt lat="50.45259" lon="3.057">
        <ele>52</ele>
        <time>2012-01-15T08:27:16Z</time>
      </trkpt>
      <trkpt lat="50.45252" lon="3.05683">
        <ele>46</ele>
        <time>2012-01-15T08:27:18Z</time>
      </trkpt>
      <trkpt lat="50.45246" lon="3.05666">
        <ele>46</ele>
        <time>2012-01-15T08:27:20Z</time>
      </trkpt>
      <trkpt lat="50.45239" lon="3.0565">
        <ele>46</ele>
        <time>2012-01-15T08:27:22Z</time>
      </trkpt>
      <trkpt lat="50.45233" lon="3.05633">
        <ele>46</ele>
        <time>2012-01-15T08:27:24Z</time>
      </trkpt>
      <trkpt lat="50.45227" lon="3.05618">
        <ele>46</ele>
        <time>2012-01-15T08:27:26Z</time>
      </trkpt>
      <trkpt lat="50.4522" lon="3.05602">
        <ele>46</ele>
        <time>2012-01-15T08:27:28Z</time>
      </trkpt>
      <trkpt lat="50.45215" lon="3.05587">
        <ele>46</ele>
        <time>2012-01-15T08:27:30Z</time>
      </trkpt>
      <trkpt lat="50.45208" lon="3.05572">
        <ele>46</ele>
        <time>2012-01-15T08:27:32Z</time>
      </trkpt>
      <trkpt lat="50.45202" lon="3.05554">
        <ele>46</ele>
        <time>2012-01-15T08:27:34Z</time>
      </trkpt>
      <trkpt lat="50.45195" lon="3.05541">
        <ele>46</ele>
        <time>2012-01-15T08:27:36Z</time>
      </trkpt>
      <trkpt lat="50.45184" lon="3.05538">
        <ele>46</ele>
        <time>2012-01-15T08:27:39Z</time>
      </trkpt>
      <trkpt lat="50.45172" lon="3.05549">
        <ele>41</ele>
        <time>2012-01-15T08:27:42Z</time>
      </trkpt>
      <trkpt lat="50.45162" lon="3.0556">
        <ele>41</ele>
        <time>2012-01-15T08:27:44Z</time>
      </trkpt>
      <trkpt lat="50.4515" lon="3.05573">
        <ele>41</ele>
        <time>2012-01-15T08:27:46Z</time>
      </trkpt>
      <trkpt lat="50.45137" lon="3.05587">
        <ele>41</ele>
        <time>2012-01-15T08:27:48Z</time>
      </trkpt>
      <trkpt lat="50.45122" lon="3.056">
        <ele>36</ele>
        <time>2012-01-15T08:27:50Z</time>
      </trkpt>
      <trkpt lat="50.45108" lon="3.05611">
        <ele>36</ele>
        <time>2012-01-15T08:27:52Z</time>
      </trkpt>
      <trkpt lat="50.45095" lon="3.05624">
        <ele>36</ele>
        <time>2012-01-15T08:27:54Z</time>
      </trkpt>
      <trkpt lat="50.45081" lon="3.05636">
        <ele>36</ele>
        <time>2012-01-15T08:27:56Z</time>
      </trkpt>
      <trkpt lat="50.45069" lon="3.05648">
        <ele>36</ele>
        <time>2012-01-15T08:27:58Z</time>
      </trkpt>
      <trkpt lat="50.45056" lon="3.05659">
        <ele>36</ele>
        <time>2012-01-15T08:28:00Z</time>
      </trkpt>
      <trkpt lat="50.45044" lon="3.05671">
        <ele>36</ele>
        <time>2012-01-15T08:28:02Z</time>
      </trkpt>
      <trkpt lat="50.45031" lon="3.05683">
        <ele>36</ele>
        <time>2012-01-15T08:28:04Z</time>
      </trkpt>
      <trkpt lat="50.45019" lon="3.05695">
        <ele>36</ele>
        <time>2012-01-15T08:28:06Z</time>
      </trkpt>
      <trkpt lat="50.45007" lon="3.05706">
        <ele>36</ele>
        <time>2012-01-15T08:28:08Z</time>
      </trkpt>
      <trkpt lat="50.44996" lon="3.05716">
        <ele>36</ele>
        <time>2012-01-15T08:28:10Z</time>
      </trkpt>
      <trkpt lat="50.44985" lon="3.05725">
        <ele>36</ele>
        <time>2012-01-15T08:28:12Z</time>
      </trkpt>
      <trkpt lat="50.44975" lon="3.05734">
        <ele>36</ele>
        <time>2012-01-15T08:28:14Z</time>
      </trkpt>
      <trkpt lat="50.44965" lon="3.05743">
        <ele>36</ele>
        <time>2012-01-15T08:28:16Z</time>
      </trkpt>
      <trkpt lat="50.44956" lon="3.05754">
        <ele>36</ele>
        <time>2012-01-15T08:28:18Z</time>
      </trkpt>
      <trkpt lat="50.44944" lon="3.05764">
        <ele>36</ele>
        <time>2012-01-15T08:28:20Z</time>
      </trkpt>
      <trkpt lat="50.44933" lon="3.05772">
        <ele>36</ele>
        <time>2012-01-15T08:28:22Z</time>
      </trkpt>
      <trkpt lat="50.44923" lon="3.05784">
        <ele>36</ele>
        <time>2012-01-15T08:28:24Z</time>
      </trkpt>
      <trkpt lat="50.44913" lon="3.05796">
        <ele>36</ele>
        <time>2012-01-15T08:28:26Z</time>
      </trkpt>
      <trkpt lat="50.44901" lon="3.05807">
        <ele>36</ele>
        <time>2012-01-15T08:28:28Z</time>
      </trkpt>
      <trkpt lat="50.4489" lon="3.05816">
        <ele>36</ele>
        <time>2012-01-15T08:28:30Z</time>
      </trkpt>
      <trkpt lat="50.44878" lon="3.05829">
        <ele>36</ele>
        <time>2012-01-15T08:28:32Z</time>
      </trkpt>
      <trkpt lat="50.44866" lon="3.0584">
        <ele>36</ele>
        <time>2012-01-15T08:28:34Z</time>
      </trkpt>
      <trkpt lat="50.44853" lon="3.05853">
        <ele>36</ele>
        <time>2012-01-15T08:28:36Z</time>
      </trkpt>
      <trkpt lat="50.44842" lon="3.05865">
        <ele>36</ele>
        <time>2012-01-15T08:28:38Z</time>
      </trkpt>
      <trkpt lat="50.44831" lon="3.05876">
        <ele>36</ele>
        <time>2012-01-15T08:28:40Z</time>
      </trkpt>
      <trkpt lat="50.4482" lon="3.05886">
        <ele>36</ele>
        <time>2012-01-15T08:28:42Z</time>
      </trkpt>
      <trkpt lat="50.44811" lon="3.05895">
        <ele>36</ele>
        <time>2012-01-15T08:28:44Z</time>
      </trkpt>
      <trkpt lat="50.44804" lon="3.05907">
        <ele>36</ele>
        <time>2012-01-15T08:28:46Z</time>
      </trkpt>
      <trkpt lat="50.44799" lon="3.05921">
        <ele>36</ele>
        <time>2012-01-15T08:28:48Z</time>
      </trkpt>
      <trkpt lat="50.44794" lon="3.05936">
        <ele>36</ele>
        <time>2012-01-15T08:28:50Z</time>
      </trkpt>
      <trkpt lat="50.44788" lon="3.05951">
        <ele>36</ele>
        <time>2012-01-15T08:28:52Z</time>
      </trkpt>
      <trkpt lat="50.44782" lon="3.05967">
        <ele>36</ele>
        <time>2012-01-15T08:28:54Z</time>
      </trkpt>
      <trkpt lat="50.44776" lon="3.05983">
        <ele>36</ele>
        <time>2012-01-15T08:28:56Z</time>
      </trkpt>
      <trkpt lat="50.44774" lon="3.06">
        <ele>36</ele>
        <time>2012-01-15T08:28:58Z</time>
      </trkpt>
      <trkpt lat="50.44776" lon="3.06017">
        <ele>36</ele>
        <time>2012-01-15T08:29:00Z</time>
      </trkpt>
      <trkpt lat="50.44777" lon="3.06034">
        <ele>36</ele>
        <time>2012-01-15T08:29:02Z</time>
      </trkpt>
      <trkpt lat="50.44778" lon="3.0605">
        <ele>36</ele>
        <time>2012-01-15T08:29:04Z</time>
      </trkpt>
      <trkpt lat="50.4478" lon="3.06065">
        <ele>36</ele>
        <time>2012-01-15T08:29:06Z</time>
      </trkpt>
      <trkpt lat="50.44783" lon="3.06079">
        <ele>36</ele>
        <time>2012-01-15T08:29:08Z</time>
      </trkpt>
      <trkpt lat="50.44789" lon="3.06098">
        <ele>36</ele>
        <time>2012-01-15T08:29:11Z</time>
      </trkpt>
      <trkpt lat="50.44795" lon="3.06117">
        <ele>36</ele>
        <time>2012-01-15T08:29:14Z</time>
      </trkpt>
      <trkpt lat="50.44803" lon="3.06126">
        <ele>36</ele>
        <time>2012-01-15T08:29:16Z</time>
      </trkpt>
      <trkpt lat="50.44811" lon="3.06132">
        <ele>36</ele>
        <time>2012-01-15T08:29:18Z</time>
      </trkpt>
      <trkpt lat="50.44818" lon="3.06142">
        <ele>36</ele>
        <time>2012-01-15T08:29:20Z</time>
      </trkpt>
      <trkpt lat="50.44823" lon="3.06157">
        <ele>36</ele>
        <time>2012-01-15T08:29:23Z</time>
      </trkpt>
      <trkpt lat="50.44826" lon="3.06171">
        <ele>36</ele>
        <time>2012-01-15T08:29:28Z</time>
      </trkpt>
      <trkpt lat="50.44827" lon="3.06187">
        <ele>36</ele>
        <time>2012-01-15T08:29:32Z</time>
      </trkpt>
      <trkpt lat="50.44827" lon="3.06204">
        <ele>36</ele>
        <time>2012-01-15T08:29:36Z</time>
      </trkpt>
      <trkpt lat="50.44826" lon="3.06219">
        <ele>36</ele>
        <time>2012-01-15T08:29:40Z</time>
      </trkpt>
      <trkpt lat="50.44824" lon="3.06235">
        <ele>36</ele>
        <time>2012-01-15T08:29:44Z</time>
      </trkpt>
      <trkpt lat="50.44828" lon="3.06247">
        <ele>36</ele>
        <time>2012-01-15T08:29:50Z</time>
      </trkpt>
      <trkpt lat="50.44834" lon="3.0626">
        <ele>36</ele>
        <time>2012-01-15T08:29:57Z</time>
      </trkpt>
      <trkpt lat="50.44842" lon="3.06268">
        <ele>36</ele>
        <time>2012-01-15T08:30:06Z</time>
      </trkpt>
      <trkpt lat="50.44849" lon="3.06276">
        <ele>47</ele>
        <time>2012-01-15T08:30:21Z</time>
      </trkpt>
      <trkpt lat="50.44858" lon="3.06282">
        <ele>47</ele>
        <time>2012-01-15T08:30:32Z</time>
      </trkpt>
      <trkpt lat="50.44868" lon="3.06281">
        <ele>47</ele>
        <time>2012-01-15T08:30:39Z</time>
      </trkpt>
      <trkpt lat="50.44877" lon="3.06275">
        <ele>47</ele>
        <time>2012-01-15T08:30:44Z</time>
      </trkpt>
      <trkpt lat="50.44887" lon="3.06273">
        <ele>47</ele>
        <time>2012-01-15T08:30:51Z</time>
      </trkpt>
      <trkpt lat="50.44898" lon="3.06268">
        <ele>47</ele>
        <time>2012-01-15T08:30:55Z</time>
      </trkpt>
      <trkpt lat="50.44911" lon="3.06264">
        <ele>47</ele>
        <time>2012-01-15T08:30:58Z</time>
      </trkpt>
      <trkpt lat="50.4492" lon="3.06265">
        <ele>47</ele>
        <time>2012-01-15T08:31:00Z</time>
      </trkpt>
      <trkpt lat="50.44932" lon="3.06271">
        <ele>47</ele>
        <time>2012-01-15T08:31:03Z</time>
      </trkpt>
      <trkpt lat="50.4494" lon="3.06275">
        <ele>47</ele>
        <time>2012-01-15T08:31:05Z</time>
      </trkpt>
      <trkpt lat="50.44952" lon="3.06283">
        <ele>47</ele>
        <time>2012-01-15T08:31:08Z</time>
      </trkpt>
      <trkpt lat="50.44962" lon="3.06293">
        <ele>47</ele>
        <time>2012-01-15T08:31:11Z</time>
      </trkpt>
      <trkpt lat="50.44972" lon="3.06303">
        <ele>47</ele>
        <time>2012-01-15T08:31:14Z</time>
      </trkpt>
      <trkpt lat="50.44981" lon="3.06316">
        <ele>47</ele>
        <time>2012-01-15T08:31:17Z</time>
      </trkpt>
      <trkpt lat="50.4499" lon="3.06327">
        <ele>47</ele>
        <time>2012-01-15T08:31:20Z</time>
      </trkpt>
      <trkpt lat="50.44995" lon="3.06344">
        <ele>47</ele>
        <time>2012-01-15T08:31:23Z</time>
      </trkpt>
      <trkpt lat="50.44999" lon="3.0636">
        <ele>47</ele>
        <time>2012-01-15T08:31:26Z</time>
      </trkpt>
      <trkpt lat="50.45003" lon="3.06375">
        <ele>47</ele>
        <time>2012-01-15T08:31:29Z</time>
      </trkpt>
      <trkpt lat="50.45005" lon="3.06389">
        <ele>47</ele>
        <time>2012-01-15T08:31:32Z</time>
      </trkpt>
      <trkpt lat="50.45005" lon="3.06405">
        <ele>47</ele>
        <time>2012-01-15T08:31:35Z</time>
      </trkpt>
      <trkpt lat="50.45004" lon="3.06419">
        <ele>47</ele>
        <time>2012-01-15T08:31:38Z</time>
      </trkpt>
      <trkpt lat="50.45001" lon="3.06432">
        <ele>47</ele>
        <time>2012-01-15T08:31:41Z</time>
      </trkpt>
      <trkpt lat="50.44997" lon="3.06448">
        <ele>47</ele>
        <time>2012-01-15T08:31:44Z</time>
      </trkpt>
      <trkpt lat="50.44992" lon="3.06464">
        <ele>47</ele>
        <time>2012-01-15T08:31:47Z</time>
      </trkpt>
      <trkpt lat="50.44985" lon="3.0648">
        <ele>47</ele>
        <time>2012-01-15T08:31:50Z</time>
      </trkpt>
      <trkpt lat="50.44976" lon="3.06495">
        <ele>47</ele>
        <time>2012-01-15T08:31:53Z</time>
      </trkpt>
      <trkpt lat="50.44967" lon="3.06505">
        <ele>47</ele>
        <time>2012-01-15T08:31:56Z</time>
      </trkpt>
      <trkpt lat="50.44959" lon="3.06516">
        <ele>47</ele>
        <time>2012-01-15T08:31:59Z</time>
      </trkpt>
      <trkpt lat="50.44948" lon="3.06524">
        <ele>47</ele>
        <time>2012-01-15T08:32:02Z</time>
      </trkpt>
      <trkpt lat="50.44937" lon="3.06529">
        <ele>47</ele>
        <time>2012-01-15T08:32:05Z</time>
      </trkpt>
      <trkpt lat="50.44925" lon="3.0653">
        <ele>47</ele>
        <time>2012-01-15T08:32:08Z</time>
      </trkpt>
      <trkpt lat="50.44914" lon="3.06531">
        <ele>47</ele>
        <time>2012-01-15T08:32:11Z</time>
      </trkpt>
      <trkpt lat="50.44903" lon="3.06532">
        <ele>47</ele>
        <time>2012-01-15T08:32:14Z</time>
      </trkpt>
      <trkpt lat="50.44892" lon="3.06528">
        <ele>47</ele>
        <time>2012-01-15T08:32:17Z</time>
      </trkpt>
      <trkpt lat="50.44881" lon="3.0652">
        <ele>47</ele>
        <time>2012-01-15T08:32:20Z</time>
      </trkpt>
      <trkpt lat="50.44874" lon="3.0651">
        <ele>47</ele>
        <time>2012-01-15T08:32:22Z</time>
      </trkpt>
      <trkpt lat="50.44867" lon="3.065">
        <ele>47</ele>
        <time>2012-01-15T08:32:24Z</time>
      </trkpt>
      <trkpt lat="50.44859" lon="3.06488">
        <ele>42</ele>
        <time>2012-01-15T08:32:27Z</time>
      </trkpt>
      <trkpt lat="50.44855" lon="3.06471">
        <ele>42</ele>
        <time>2012-01-15T08:32:30Z</time>
      </trkpt>
      <trkpt lat="50.4485" lon="3.06457">
        <ele>42</ele>
        <time>2012-01-15T08:32:33Z</time>
      </trkpt>
      <trkpt lat="50.44846" lon="3.06441">
        <ele>42</ele>
        <time>2012-01-15T08:32:36Z</time>
      </trkpt>
      <trkpt lat="50.44843" lon="3.06423">
        <ele>42</ele>
        <time>2012-01-15T08:32:39Z</time>
      </trkpt>
      <trkpt lat="50.44843" lon="3.06406">
        <ele>42</ele>
        <time>2012-01-15T08:32:42Z</time>
      </trkpt>
      <trkpt lat="50.4484" lon="3.06388">
        <ele>42</ele>
        <time>2012-01-15T08:32:46Z</time>
      </trkpt>
      <trkpt lat="50.44839" lon="3.06372">
        <ele>42</ele>
        <time>2012-01-15T08:32:48Z</time>
      </trkpt>
      <trkpt lat="50.44842" lon="3.06359">
        <ele>42</ele>
        <time>2012-01-15T08:32:50Z</time>
      </trkpt>
      <trkpt lat="50.44842" lon="3.06344">
        <ele>42</ele>
        <time>2012-01-15T08:32:52Z</time>
      </trkpt>
      <trkpt lat="50.44841" lon="3.06326">
        <ele>42</ele>
        <time>2012-01-15T08:32:54Z</time>
      </trkpt>
      <trkpt lat="50.44837" lon="3.06309">
        <ele>42</ele>
        <time>2012-01-15T08:32:56Z</time>
      </trkpt>
      <trkpt lat="50.4483" lon="3.06297">
        <ele>42</ele>
        <time>2012-01-15T08:32:58Z</time>
      </trkpt>
      <trkpt lat="50.44822" lon="3.06282">
        <ele>42</ele>
        <time>2012-01-15T08:33:00Z</time>
      </trkpt>
      <trkpt lat="50.44812" lon="3.06265">
        <ele>42</ele>
        <time>2012-01-15T08:33:02Z</time>
      </trkpt>
      <trkpt lat="50.44804" lon="3.06248">
        <ele>42</ele>
        <time>2012-01-15T08:33:04Z</time>
      </trkpt>
      <trkpt lat="50.44796" lon="3.06234">
        <ele>42</ele>
        <time>2012-01-15T08:33:06Z</time>
      </trkpt>
      <trkpt lat="50.44786" lon="3.0622">
        <ele>42</ele>
        <time>2012-01-15T08:33:08Z</time>
      </trkpt>
      <trkpt lat="50.44777" lon="3.06206">
        <ele>37</ele>
        <time>2012-01-15T08:33:10Z</time>
      </trkpt>
      <trkpt lat="50.44772" lon="3.06186">
        <ele>37</ele>
        <time>2012-01-15T08:33:12Z</time>
      </trkpt>
      <trkpt lat="50.44773" lon="3.06165">
        <ele>37</ele>
        <time>2012-01-15T08:33:14Z</time>
      </trkpt>
      <trkpt lat="50.44776" lon="3.06142">
        <ele>37</ele>
        <time>2012-01-15T08:33:16Z</time>
      </trkpt>
      <trkpt lat="50.44779" lon="3.06121">
        <ele>37</ele>
        <time>2012-01-15T08:33:18Z</time>
      </trkpt>
      <trkpt lat="50.44779" lon="3.061">
        <ele>37</ele>
        <time>2012-01-15T08:33:20Z</time>
      </trkpt>
      <trkpt lat="50.44776" lon="3.06081">
        <ele>37</ele>
        <time>2012-01-15T08:33:22Z</time>
      </trkpt>
      <trkpt lat="50.44769" lon="3.06069">
        <ele>37</ele>
        <time>2012-01-15T08:33:24Z</time>
      </trkpt>
      <trkpt lat="50.44757" lon="3.06061">
        <ele>37</ele>
        <time>2012-01-15T08:33:26Z</time>
      </trkpt>
      <trkpt lat="50.44744" lon="3.06061">
        <ele>37</ele>
        <time>2012-01-15T08:33:28Z</time>
      </trkpt>
      <trkpt lat="50.44731" lon="3.06067">
        <ele>37</ele>
        <time>2012-01-15T08:33:30Z</time>
      </trkpt>
      <trkpt lat="50.44719" lon="3.06076">
        <ele>37</ele>
        <time>2012-01-15T08:33:32Z</time>
      </trkpt>
      <trkpt lat="50.44708" lon="3.06085">
        <ele>37</ele>
        <time>2012-01-15T08:33:34Z</time>
      </trkpt>
      <trkpt lat="50.44695" lon="3.06094">
        <ele>37</ele>
        <time>2012-01-15T08:33:36Z</time>
      </trkpt>
      <trkpt lat="50.44682" lon="3.06097">
        <ele>31</ele>
        <time>2012-01-15T08:33:38Z</time>
      </trkpt>
      <trkpt lat="50.44669" lon="3.06098">
        <ele>31</ele>
        <time>2012-01-15T08:33:40Z</time>
      </trkpt>
      <trkpt lat="50.44659" lon="3.06094">
        <ele>31</ele>
        <time>2012-01-15T08:33:42Z</time>
      </trkpt>
      <trkpt lat="50.4465" lon="3.06083">
        <ele>31</ele>
        <time>2012-01-15T08:33:45Z</time>
      </trkpt>
      <trkpt lat="50.4464" lon="3.06081">
        <ele>31</ele>
        <time>2012-01-15T08:33:48Z</time>
      </trkpt>
      <trkpt lat="50.44628" lon="3.06078">
        <ele>31</ele>
        <time>2012-01-15T08:33:51Z</time>
      </trkpt>
      <trkpt lat="50.44615" lon="3.06069">
        <ele>31</ele>
        <time>2012-01-15T08:33:54Z</time>
      </trkpt>
      <trkpt lat="50.44605" lon="3.06061">
        <ele>31</ele>
        <time>2012-01-15T08:33:56Z</time>
      </trkpt>
      <trkpt lat="50.44594" lon="3.0605">
        <ele>31</ele>
        <time>2012-01-15T08:33:58Z</time>
      </trkpt>
      <trkpt lat="50.44584" lon="3.06035">
        <ele>31</ele>
        <time>2012-01-15T08:34:00Z</time>
      </trkpt>
      <trkpt lat="50.44573" lon="3.06019">
        <ele>31</ele>
        <time>2012-01-15T08:34:02Z</time>
      </trkpt>
      <trkpt lat="50.44561" lon="3.06004">
        <ele>31</ele>
        <time>2012-01-15T08:34:04Z</time>
      </trkpt>
      <trkpt lat="50.44548" lon="3.0599">
        <ele>31</ele>
        <time>2012-01-15T08:34:06Z</time>
      </trkpt>
      <trkpt lat="50.44535" lon="3.05975">
        <ele>31</ele>
        <time>2012-01-15T08:34:08Z</time>
      </trkpt>
      <trkpt lat="50.44523" lon="3.0596">
        <ele>31</ele>
        <time>2012-01-15T08:34:10Z</time>
      </trkpt>
      <trkpt lat="50.4451" lon="3.05946">
        <ele>31</ele>
        <time>2012-01-15T08:34:12Z</time>
      </trkpt>
      <trkpt lat="50.44496" lon="3.05936">
        <ele>31</ele>
        <time>2012-01-15T08:34:14Z</time>
      </trkpt>
      <trkpt lat="50.44485" lon="3.05927">
        <ele>31</ele>
        <time>2012-01-15T08:34:16Z</time>
      </trkpt>
      <trkpt lat="50.44475" lon="3.0592">
        <ele>31</ele>
        <time>2012-01-15T08:34:18Z</time>
      </trkpt>
      <trkpt lat="50.44467" lon="3.05912">
        <ele>31</ele>
        <time>2012-01-15T08:34:20Z</time>
      </trkpt>
      <trkpt lat="50.44456" lon="3.05916">
        <ele>31</ele>
        <time>2012-01-15T08:34:23Z</time>
      </trkpt>
      <trkpt lat="50.44452" lon="3.05935">
        <ele>31</ele>
        <time>2012-01-15T08:34:26Z</time>
      </trkpt>
      <trkpt lat="50.44446" lon="3.0595">
        <ele>31</ele>
        <time>2012-01-15T08:34:28Z</time>
      </trkpt>
      <trkpt lat="50.4444" lon="3.05966">
        <ele>31</ele>
        <time>2012-01-15T08:34:30Z</time>
      </trkpt>
      <trkpt lat="50.44434" lon="3.05983">
        <ele>31</ele>
        <time>2012-01-15T08:34:32Z</time>
      </trkpt>
      <trkpt lat="50.44433" lon="3.05999">
        <ele>31</ele>
        <time>2012-01-15T08:34:34Z</time>
      </trkpt>
      <trkpt lat="50.44434" lon="3.06015">
        <ele>31</ele>
        <time>2012-01-15T08:34:37Z</time>
      </trkpt>
      <trkpt lat="50.44429" lon="3.06027">
        <ele>31</ele>
        <time>2012-01-15T08:34:39Z</time>
      </trkpt>
      <trkpt lat="50.44422" lon="3.06042">
        <ele>31</ele>
        <time>2012-01-15T08:34:41Z</time>
      </trkpt>
      <trkpt lat="50.44414" lon="3.06058">
        <ele>31</ele>
        <time>2012-01-15T08:34:43Z</time>
      </trkpt>
      <trkpt lat="50.44407" lon="3.06076">
        <ele>31</ele>
        <time>2012-01-15T08:34:45Z</time>
      </trkpt>
      <trkpt lat="50.44399" lon="3.06093">
        <ele>31</ele>
        <time>2012-01-15T08:34:47Z</time>
      </trkpt>
      <trkpt lat="50.44392" lon="3.0611">
        <ele>31</ele>
        <time>2012-01-15T08:34:49Z</time>
      </trkpt>
      <trkpt lat="50.44385" lon="3.06128">
        <ele>31</ele>
        <time>2012-01-15T08:34:51Z</time>
      </trkpt>
      <trkpt lat="50.44377" lon="3.06146">
        <ele>31</ele>
        <time>2012-01-15T08:34:53Z</time>
      </trkpt>
      <trkpt lat="50.4437" lon="3.06164">
        <ele>31</ele>
        <time>2012-01-15T08:34:55Z</time>
      </trkpt>
      <trkpt lat="50.44363" lon="3.06181">
        <ele>31</ele>
        <time>2012-01-15T08:34:57Z</time>
      </trkpt>
      <trkpt lat="50.44355" lon="3.06197">
        <ele>31</ele>
        <time>2012-01-15T08:34:59Z</time>
      </trkpt>
      <trkpt lat="50.44348" lon="3.06215">
        <ele>31</ele>
        <time>2012-01-15T08:35:01Z</time>
      </trkpt>
      <trkpt lat="50.44341" lon="3.06232">
        <ele>31</ele>
        <time>2012-01-15T08:35:03Z</time>
      </trkpt>
      <trkpt lat="50.44335" lon="3.06249">
        <ele>31</ele>
        <time>2012-01-15T08:35:05Z</time>
      </trkpt>
      <trkpt lat="50.44331" lon="3.06265">
        <ele>31</ele>
        <time>2012-01-15T08:35:07Z</time>
      </trkpt>
      <trkpt lat="50.44328" lon="3.06281">
        <ele>31</ele>
        <time>2012-01-15T08:35:09Z</time>
      </trkpt>
      <trkpt lat="50.44324" lon="3.06295">
        <ele>31</ele>
        <time>2012-01-15T08:35:11Z</time>
      </trkpt>
      <trkpt lat="50.4432" lon="3.06309">
        <ele>31</ele>
        <time>2012-01-15T08:35:13Z</time>
      </trkpt>
      <trkpt lat="50.44315" lon="3.06324">
        <ele>31</ele>
        <time>2012-01-15T08:35:15Z</time>
      </trkpt>
      <trkpt lat="50.44309" lon="3.06336">
        <ele>31</ele>
        <time>2012-01-15T08:35:17Z</time>
      </trkpt>
      <trkpt lat="50.44312" lon="3.06353">
        <ele>31</ele>
        <time>2012-01-15T08:35:21Z</time>
      </trkpt>
      <trkpt lat="50.4432" lon="3.06367">
        <ele>31</ele>
        <time>2012-01-15T08:35:24Z</time>
      </trkpt>
      <trkpt lat="50.44327" lon="3.06378">
        <ele>31</ele>
        <time>2012-01-15T08:35:26Z</time>
      </trkpt>
      <trkpt lat="50.44335" lon="3.06389">
        <ele>31</ele>
        <time>2012-01-15T08:35:28Z</time>
      </trkpt>
      <trkpt lat="50.44344" lon="3.06401">
        <ele>31</ele>
        <time>2012-01-15T08:35:30Z</time>
      </trkpt>
      <trkpt lat="50.44353" lon="3.06413">
        <ele>31</ele>
        <time>2012-01-15T08:35:32Z</time>
      </trkpt>
      <trkpt lat="50.44362" lon="3.06425">
        <ele>31</ele>
        <time>2012-01-15T08:35:34Z</time>
      </trkpt>
      <trkpt lat="50.44372" lon="3.06437">
        <ele>31</ele>
        <time>2012-01-15T08:35:36Z</time>
      </trkpt>
      <trkpt lat="50.44381" lon="3.0645">
        <ele>31</ele>
        <time>2012-01-15T08:35:38Z</time>
      </trkpt>
      <trkpt lat="50.4439" lon="3.06461">
        <ele>31</ele>
        <time>2012-01-15T08:35:40Z</time>
      </trkpt>
      <trkpt lat="50.44399" lon="3.06474">
        <ele>31</ele>
        <time>2012-01-15T08:35:42Z</time>
      </trkpt>
      <trkpt lat="50.44408" lon="3.06485">
        <ele>31</ele>
        <time>2012-01-15T08:35:44Z</time>
      </trkpt>
      <trkpt lat="50.44417" lon="3.06496">
        <ele>31</ele>
        <time>2012-01-15T08:35:46Z</time>
      </trkpt>
      <trkpt lat="50.44425" lon="3.06507">
        <ele>31</ele>
        <time>2012-01-15T08:35:48Z</time>
      </trkpt>
      <trkpt lat="50.44434" lon="3.06519">
        <ele>31</ele>
        <time>2012-01-15T08:35:50Z</time>
      </trkpt>
      <trkpt lat="50.44442" lon="3.06529">
        <ele>31</ele>
        <time>2012-01-15T08:35:52Z</time>
      </trkpt>
      <trkpt lat="50.4445" lon="3.06541">
        <ele>31</ele>
        <time>2012-01-15T08:35:54Z</time>
      </trkpt>
      <trkpt lat="50.44459" lon="3.06552">
        <ele>31</ele>
        <time>2012-01-15T08:35:56Z</time>
      </trkpt>
      <trkpt lat="50.44467" lon="3.06563">
        <ele>31</ele>
        <time>2012-01-15T08:35:58Z</time>
      </trkpt>
      <trkpt lat="50.44475" lon="3.06573">
        <ele>31</ele>
        <time>2012-01-15T08:36:00Z</time>
      </trkpt>
      <trkpt lat="50.44483" lon="3.06584">
        <ele>31</ele>
        <time>2012-01-15T08:36:02Z</time>
      </trkpt>
      <trkpt lat="50.44491" lon="3.06596">
        <ele>31</ele>
        <time>2012-01-15T08:36:04Z</time>
      </trkpt>
      <trkpt lat="50.44499" lon="3.06607">
        <ele>31</ele>
        <time>2012-01-15T08:36:06Z</time>
      </trkpt>
      <trkpt lat="50.44507" lon="3.06618">
        <ele>31</ele>
        <time>2012-01-15T08:36:08Z</time>
      </trkpt>
      <trkpt lat="50.44515" lon="3.06627">
        <ele>31</ele>
        <time>2012-01-15T08:36:10Z</time>
      </trkpt>
      <trkpt lat="50.44522" lon="3.06638">
        <ele>31</ele>
        <time>2012-01-15T08:36:12Z</time>
      </trkpt>
      <trkpt lat="50.4453" lon="3.06649">
        <ele>37</ele>
        <time>2012-01-15T08:36:14Z</time>
      </trkpt>
      <trkpt lat="50.44536" lon="3.0666">
        <ele>37</ele>
        <time>2012-01-15T08:36:16Z</time>
      </trkpt>
      <trkpt lat="50.44541" lon="3.06671">
        <ele>37</ele>
        <time>2012-01-15T08:36:18Z</time>
      </trkpt>
      <trkpt lat="50.44549" lon="3.06688">
        <ele>37</ele>
        <time>2012-01-15T08:36:21Z</time>
      </trkpt>
      <trkpt lat="50.44555" lon="3.06704">
        <ele>37</ele>
        <time>2012-01-15T08:36:24Z</time>
      </trkpt>
      <trkpt lat="50.44562" lon="3.0672">
        <ele>37</ele>
        <time>2012-01-15T08:36:27Z</time>
      </trkpt>
      <trkpt lat="50.44568" lon="3.06737">
        <ele>37</ele>
        <time>2012-01-15T08:36:30Z</time>
      </trkpt>
      <trkpt lat="50.44575" lon="3.06754">
        <ele>37</ele>
        <time>2012-01-15T08:36:33Z</time>
      </trkpt>
      <trkpt lat="50.44581" lon="3.0677">
        <ele>37</ele>
        <time>2012-01-15T08:36:36Z</time>
      </trkpt>
      <trkpt lat="50.44588" lon="3.06786">
        <ele>37</ele>
        <time>2012-01-15T08:36:39Z</time>
      </trkpt>
      <trkpt lat="50.44594" lon="3.06803">
        <ele>37</ele>
        <time>2012-01-15T08:36:42Z</time>
      </trkpt>
      <trkpt lat="50.44599" lon="3.0682">
        <ele>37</ele>
        <time>2012-01-15T08:36:45Z</time>
      </trkpt>
      <trkpt lat="50.44605" lon="3.06835">
        <ele>42</ele>
        <time>2012-01-15T08:36:48Z</time>
      </trkpt>
      <trkpt lat="50.44611" lon="3.0685">
        <ele>42</ele>
        <time>2012-01-15T08:36:51Z</time>
      </trkpt>
      <trkpt lat="50.44617" lon="3.06865">
        <ele>42</ele>
        <time>2012-01-15T08:36:54Z</time>
      </trkpt>
      <trkpt lat="50.44623" lon="3.06883">
        <ele>42</ele>
        <time>2012-01-15T08:36:57Z</time>
      </trkpt>
      <trkpt lat="50.44628" lon="3.06898">
        <ele>42</ele>
        <time>2012-01-15T08:37:00Z</time>
      </trkpt>
      <trkpt lat="50.44635" lon="3.06912">
        <ele>42</ele>
        <time>2012-01-15T08:37:03Z</time>
      </trkpt>
      <trkpt lat="50.44641" lon="3.06927">
        <ele>42</ele>
        <time>2012-01-15T08:37:06Z</time>
      </trkpt>
      <trkpt lat="50.44643" lon="3.06942">
        <ele>42</ele>
        <time>2012-01-15T08:37:09Z</time>
      </trkpt>
      <trkpt lat="50.44636" lon="3.06956">
        <ele>42</ele>
        <time>2012-01-15T08:37:12Z</time>
      </trkpt>
      <trkpt lat="50.44628" lon="3.06971">
        <ele>42</ele>
        <time>2012-01-15T08:37:15Z</time>
      </trkpt>
      <trkpt lat="50.44622" lon="3.06983">
        <ele>42</ele>
        <time>2012-01-15T08:37:17Z</time>
      </trkpt>
      <trkpt lat="50.44616" lon="3.06995">
        <ele>42</ele>
        <time>2012-01-15T08:37:19Z</time>
      </trkpt>
      <trkpt lat="50.4461" lon="3.07006">
        <ele>42</ele>
        <time>2012-01-15T08:37:21Z</time>
      </trkpt>
      <trkpt lat="50.44604" lon="3.07019">
        <ele>42</ele>
        <time>2012-01-15T08:37:23Z</time>
      </trkpt>
      <trkpt lat="50.44598" lon="3.07033">
        <ele>42</ele>
        <time>2012-01-15T08:37:25Z</time>
      </trkpt>
      <trkpt lat="50.44593" lon="3.07046">
        <ele>42</ele>
        <time>2012-01-15T08:37:27Z</time>
      </trkpt>
      <trkpt lat="50.44587" lon="3.07059">
        <ele>42</ele>
        <time>2012-01-15T08:37:29Z</time>
      </trkpt>
      <trkpt lat="50.44582" lon="3.07074">
        <ele>42</ele>
        <time>2012-01-15T08:37:31Z</time>
      </trkpt>
      <trkpt lat="50.44577" lon="3.07089">
        <ele>42</ele>
        <time>2012-01-15T08:37:33Z</time>
      </trkpt>
      <trkpt lat="50.44572" lon="3.07104">
        <ele>42</ele>
        <time>2012-01-15T08:37:35Z</time>
      </trkpt>
      <trkpt lat="50.44568" lon="3.07118">
        <ele>42</ele>
        <time>2012-01-15T08:37:37Z</time>
      </trkpt>
      <trkpt lat="50.44563" lon="3.07133">
        <ele>42</ele>
        <time>2012-01-15T08:37:39Z</time>
      </trkpt>
      <trkpt lat="50.44562" lon="3.07148">
        <ele>42</ele>
        <time>2012-01-15T08:37:41Z</time>
      </trkpt>
      <trkpt lat="50.44564" lon="3.07163">
        <ele>42</ele>
        <time>2012-01-15T08:37:43Z</time>
      </trkpt>
      <trkpt lat="50.44565" lon="3.07183">
        <ele>42</ele>
        <time>2012-01-15T08:37:46Z</time>
      </trkpt>
      <trkpt lat="50.44565" lon="3.07198">
        <ele>42</ele>
        <time>2012-01-15T08:37:48Z</time>
      </trkpt>
      <trkpt lat="50.44564" lon="3.07212">
        <ele>42</ele>
        <time>2012-01-15T08:37:50Z</time>
      </trkpt>
      <trkpt lat="50.44563" lon="3.07227">
        <ele>42</ele>
        <time>2012-01-15T08:37:52Z</time>
      </trkpt>
      <trkpt lat="50.44561" lon="3.07241">
        <ele>42</ele>
        <time>2012-01-15T08:37:54Z</time>
      </trkpt>
      <trkpt lat="50.44559" lon="3.07255">
        <ele>42</ele>
        <time>2012-01-15T08:37:56Z</time>
      </trkpt>
      <trkpt lat="50.44557" lon="3.07269">
        <ele>42</ele>
        <time>2012-01-15T08:37:58Z</time>
      </trkpt>
      <trkpt lat="50.44554" lon="3.07283">
        <ele>42</ele>
        <time>2012-01-15T08:38:00Z</time>
      </trkpt>
      <trkpt lat="50.4455" lon="3.07297">
        <ele>42</ele>
        <time>2012-01-15T08:38:02Z</time>
      </trkpt>
      <trkpt lat="50.44545" lon="3.07309">
        <ele>42</ele>
        <time>2012-01-15T08:38:04Z</time>
      </trkpt>
      <trkpt lat="50.4454" lon="3.07322">
        <ele>42</ele>
        <time>2012-01-15T08:38:06Z</time>
      </trkpt>
      <trkpt lat="50.44535" lon="3.07335">
        <ele>42</ele>
        <time>2012-01-15T08:38:08Z</time>
      </trkpt>
      <trkpt lat="50.44531" lon="3.07348">
        <ele>42</ele>
        <time>2012-01-15T08:38:10Z</time>
      </trkpt>
      <trkpt lat="50.44525" lon="3.0736">
        <ele>42</ele>
        <time>2012-01-15T08:38:12Z</time>
      </trkpt>
      <trkpt lat="50.4452" lon="3.07374">
        <ele>42</ele>
        <time>2012-01-15T08:38:14Z</time>
      </trkpt>
      <trkpt lat="50.44514" lon="3.07386">
        <ele>42</ele>
        <time>2012-01-15T08:38:16Z</time>
      </trkpt>
      <trkpt lat="50.44509" lon="3.07399">
        <ele>42</ele>
        <time>2012-01-15T08:38:18Z</time>
      </trkpt>
      <trkpt lat="50.44504" lon="3.07412">
        <ele>42</ele>
        <time>2012-01-15T08:38:20Z</time>
      </trkpt>
      <trkpt lat="50.44499" lon="3.07424">
        <ele>42</ele>
        <time>2012-01-15T08:38:22Z</time>
      </trkpt>
      <trkpt lat="50.44493" lon="3.07437">
        <ele>42</ele>
        <time>2012-01-15T08:38:24Z</time>
      </trkpt>
      <trkpt lat="50.44488" lon="3.07449">
        <ele>42</ele>
        <time>2012-01-15T08:38:26Z</time>
      </trkpt>
      <trkpt lat="50.44483" lon="3.07462">
        <ele>47</ele>
        <time>2012-01-15T08:38:28Z</time>
      </trkpt>
      <trkpt lat="50.44478" lon="3.07474">
        <ele>47</ele>
        <time>2012-01-15T08:38:30Z</time>
      </trkpt>
      <trkpt lat="50.44472" lon="3.07489">
        <ele>47</ele>
        <time>2012-01-15T08:38:33Z</time>
      </trkpt>
      <trkpt lat="50.44465" lon="3.07504">
        <ele>47</ele>
        <time>2012-01-15T08:38:36Z</time>
      </trkpt>
      <trkpt lat="50.44459" lon="3.07521">
        <ele>47</ele>
        <time>2012-01-15T08:38:39Z</time>
      </trkpt>
      <trkpt lat="50.44452" lon="3.07537">
        <ele>47</ele>
        <time>2012-01-15T08:38:42Z</time>
      </trkpt>
      <trkpt lat="50.44446" lon="3.07549">
        <ele>47</ele>
        <time>2012-01-15T08:38:44Z</time>
      </trkpt>
      <trkpt lat="50.4444" lon="3.07566">
        <ele>47</ele>
        <time>2012-01-15T08:38:47Z</time>
      </trkpt>
      <trkpt lat="50.44432" lon="3.07583">
        <ele>47</ele>
        <time>2012-01-15T08:38:50Z</time>
      </trkpt>
      <trkpt lat="50.44427" lon="3.07596">
        <ele>47</ele>
        <time>2012-01-15T08:38:52Z</time>
      </trkpt>
      <trkpt lat="50.4442" lon="3.07613">
        <ele>47</ele>
        <time>2012-01-15T08:38:55Z</time>
      </trkpt>
      <trkpt lat="50.44417" lon="3.0763">
        <ele>47</ele>
        <time>2012-01-15T08:38:58Z</time>
      </trkpt>
      <trkpt lat="50.44426" lon="3.07637">
        <ele>47</ele>
        <time>2012-01-15T08:39:01Z</time>
      </trkpt>
      <trkpt lat="50.44437" lon="3.07644">
        <ele>47</ele>
        <time>2012-01-15T08:39:04Z</time>
      </trkpt>
      <trkpt lat="50.44449" lon="3.07652">
        <ele>47</ele>
        <time>2012-01-15T08:39:07Z</time>
      </trkpt>
      <trkpt lat="50.44461" lon="3.0766">
        <ele>47</ele>
        <time>2012-01-15T08:39:10Z</time>
      </trkpt>
      <trkpt lat="50.44472" lon="3.0767">
        <ele>47</ele>
        <time>2012-01-15T08:39:13Z</time>
      </trkpt>
      <trkpt lat="50.44483" lon="3.0768">
        <ele>47</ele>
        <time>2012-01-15T08:39:16Z</time>
      </trkpt>
      <trkpt lat="50.44491" lon="3.07687">
        <ele>47</ele>
        <time>2012-01-15T08:39:18Z</time>
      </trkpt>
      <trkpt lat="50.44502" lon="3.07697">
        <ele>47</ele>
        <time>2012-01-15T08:39:21Z</time>
      </trkpt>
      <trkpt lat="50.4451" lon="3.07704">
        <ele>47</ele>
        <time>2012-01-15T08:39:23Z</time>
      </trkpt>
      <trkpt lat="50.4452" lon="3.07715">
        <ele>47</ele>
        <time>2012-01-15T08:39:26Z</time>
      </trkpt>
      <trkpt lat="50.44528" lon="3.07723">
        <ele>47</ele>
        <time>2012-01-15T08:39:28Z</time>
      </trkpt>
      <trkpt lat="50.44538" lon="3.07734">
        <ele>47</ele>
        <time>2012-01-15T08:39:31Z</time>
      </trkpt>
      <trkpt lat="50.44549" lon="3.07742">
        <ele>47</ele>
        <time>2012-01-15T08:39:34Z</time>
      </trkpt>
      <trkpt lat="50.4456" lon="3.07748">
        <ele>47</ele>
        <time>2012-01-15T08:39:37Z</time>
      </trkpt>
      <trkpt lat="50.44573" lon="3.07751">
        <ele>47</ele>
        <time>2012-01-15T08:39:40Z</time>
      </trkpt>
      <trkpt lat="50.44585" lon="3.07754">
        <ele>47</ele>
        <time>2012-01-15T08:39:43Z</time>
      </trkpt>
      <trkpt lat="50.44596" lon="3.07756">
        <ele>47</ele>
        <time>2012-01-15T08:39:46Z</time>
      </trkpt>
      <trkpt lat="50.44608" lon="3.07757">
        <ele>47</ele>
        <time>2012-01-15T08:39:49Z</time>
      </trkpt>
      <trkpt lat="50.44619" lon="3.07759">
        <ele>52</ele>
        <time>2012-01-15T08:39:52Z</time>
      </trkpt>
      <trkpt lat="50.44629" lon="3.07761">
        <ele>52</ele>
        <time>2012-01-15T08:39:55Z</time>
      </trkpt>
      <trkpt lat="50.4464" lon="3.07761">
        <ele>52</ele>
        <time>2012-01-15T08:39:58Z</time>
      </trkpt>
      <trkpt lat="50.44652" lon="3.07762">
        <ele>52</ele>
        <time>2012-01-15T08:40:01Z</time>
      </trkpt>
      <trkpt lat="50.44663" lon="3.07764">
        <ele>52</ele>
        <time>2012-01-15T08:40:04Z</time>
      </trkpt>
      <trkpt lat="50.44674" lon="3.07766">
        <ele>52</ele>
        <time>2012-01-15T08:40:07Z</time>
      </trkpt>
      <trkpt lat="50.44686" lon="3.07766">
        <ele>52</ele>
        <time>2012-01-15T08:40:10Z</time>
      </trkpt>
      <trkpt lat="50.44697" lon="3.07768">
        <ele>52</ele>
        <time>2012-01-15T08:40:13Z</time>
      </trkpt>
      <trkpt lat="50.44708" lon="3.07769">
        <ele>52</ele>
        <time>2012-01-15T08:40:16Z</time>
      </trkpt>
      <trkpt lat="50.4472" lon="3.07771">
        <ele>52</ele>
        <time>2012-01-15T08:40:19Z</time>
      </trkpt>
      <trkpt lat="50.44731" lon="3.07772">
        <ele>52</ele>
        <time>2012-01-15T08:40:22Z</time>
      </trkpt>
      <trkpt lat="50.44741" lon="3.07774">
        <ele>52</ele>
        <time>2012-01-15T08:40:25Z</time>
      </trkpt>
      <trkpt lat="50.44751" lon="3.07775">
        <ele>52</ele>
        <time>2012-01-15T08:40:28Z</time>
      </trkpt>
      <trkpt lat="50.44761" lon="3.07775">
        <ele>52</ele>
        <time>2012-01-15T08:40:31Z</time>
      </trkpt>
      <trkpt lat="50.4477" lon="3.07779">
        <ele>58</ele>
        <time>2012-01-15T08:40:35Z</time>
      </trkpt>
      <trkpt lat="50.44766" lon="3.07793">
        <ele>58</ele>
        <time>2012-01-15T08:41:01Z</time>
      </trkpt>
      <trkpt lat="50.44761" lon="3.07804">
        <ele>58</ele>
        <time>2012-01-15T08:41:11Z</time>
      </trkpt>
      <trkpt lat="50.44754" lon="3.07813">
        <ele>58</ele>
        <time>2012-01-15T08:41:18Z</time>
      </trkpt>
      <trkpt lat="50.44759" lon="3.07801">
        <ele>58</ele>
        <time>2012-01-15T08:42:15Z</time>
      </trkpt>
      <trkpt lat="50.44755" lon="3.07814">
        <ele>58</ele>
        <time>2012-01-15T08:48:34Z</time>
      </trkpt>
      <trkpt lat="50.44759" lon="3.07801">
        <ele>58</ele>
        <time>2012-01-15T08:49:00Z</time>
      </trkpt>
      <trkpt lat="50.44765" lon="3.07792">
        <ele>58</ele>
        <time>2012-01-15T08:49:10Z</time>
      </trkpt>
      <trkpt lat="50.44759" lon="3.07801">
        <ele>58</ele>
        <time>2012-01-15T08:49:58Z</time>
      </trkpt>
      <trkpt lat="50.44765" lon="3.07792">
        <ele>58</ele>
        <time>2012-01-15T08:50:30Z</time>
      </trkpt>
      <trkpt lat="50.44759" lon="3.07801">
        <ele>58</ele>
        <time>2012-01-15T08:50:46Z</time>
      </trkpt>
      <trkpt lat="50.44752" lon="3.07812">
        <ele>58</ele>
        <time>2012-01-15T08:51:00Z</time>
      </trkpt>
      <trkpt lat="50.44744" lon="3.07821">
        <ele>58</ele>
        <time>2012-01-15T08:51:56Z</time>
      </trkpt>
      <trkpt lat="50.44737" lon="3.0783">
        <ele>58</ele>
        <time>2012-01-15T08:51:59Z</time>
      </trkpt>
      <trkpt lat="50.44729" lon="3.07838">
        <ele>58</ele>
        <time>2012-01-15T08:52:02Z</time>
      </trkpt>
      <trkpt lat="50.44721" lon="3.07846">
        <ele>58</ele>
        <time>2012-01-15T08:52:05Z</time>
      </trkpt>
      <trkpt lat="50.4471" lon="3.07855">
        <ele>58</ele>
        <time>2012-01-15T08:52:08Z</time>
      </trkpt>
      <trkpt lat="50.44702" lon="3.07863">
        <ele>58</ele>
        <time>2012-01-15T08:52:10Z</time>
      </trkpt>
      <trkpt lat="50.44694" lon="3.07872">
        <ele>58</ele>
        <time>2012-01-15T08:52:12Z</time>
      </trkpt>
      <trkpt lat="50.44687" lon="3.07883">
        <ele>58</ele>
        <time>2012-01-15T08:52:14Z</time>
      </trkpt>
      <trkpt lat="50.44679" lon="3.07894">
        <ele>58</ele>
        <time>2012-01-15T08:52:16Z</time>
      </trkpt>
      <trkpt lat="50.44671" lon="3.07905">
        <ele>58</ele>
        <time>2012-01-15T08:52:18Z</time>
      </trkpt>
      <trkpt lat="50.44662" lon="3.07916">
        <ele>58</ele>
        <time>2012-01-15T08:52:20Z</time>
      </trkpt>
      <trkpt lat="50.44654" lon="3.07927">
        <ele>58</ele>
        <time>2012-01-15T08:52:22Z</time>
      </trkpt>
      <trkpt lat="50.44646" lon="3.0794">
        <ele>58</ele>
        <time>2012-01-15T08:52:24Z</time>
      </trkpt>
      <trkpt lat="50.44637" lon="3.07952">
        <ele>58</ele>
        <time>2012-01-15T08:52:26Z</time>
      </trkpt>
      <trkpt lat="50.44629" lon="3.07965">
        <ele>58</ele>
        <time>2012-01-15T08:52:28Z</time>
      </trkpt>
      <trkpt lat="50.44621" lon="3.07978">
        <ele>58</ele>
        <time>2012-01-15T08:52:30Z</time>
      </trkpt>
      <trkpt lat="50.44614" lon="3.07993">
        <ele>58</ele>
        <time>2012-01-15T08:52:32Z</time>
      </trkpt>
      <trkpt lat="50.44607" lon="3.08006">
        <ele>58</ele>
        <time>2012-01-15T08:52:34Z</time>
      </trkpt>
      <trkpt lat="50.44601" lon="3.08021">
        <ele>58</ele>
        <time>2012-01-15T08:52:36Z</time>
      </trkpt>
      <trkpt lat="50.44594" lon="3.08035">
        <ele>58</ele>
        <time>2012-01-15T08:52:38Z</time>
      </trkpt>
      <trkpt lat="50.44588" lon="3.08049">
        <ele>58</ele>
        <time>2012-01-15T08:52:40Z</time>
      </trkpt>
      <trkpt lat="50.44582" lon="3.08063">
        <ele>53</ele>
        <time>2012-01-15T08:52:42Z</time>
      </trkpt>
      <trkpt lat="50.44576" lon="3.08076">
        <ele>53</ele>
        <time>2012-01-15T08:52:44Z</time>
      </trkpt>
      <trkpt lat="50.4457" lon="3.0809">
        <ele>53</ele>
        <time>2012-01-15T08:52:46Z</time>
      </trkpt>
      <trkpt lat="50.44563" lon="3.08103">
        <ele>53</ele>
        <time>2012-01-15T08:52:48Z</time>
      </trkpt>
      <trkpt lat="50.44557" lon="3.08117">
        <ele>53</ele>
        <time>2012-01-15T08:52:50Z</time>
      </trkpt>
      <trkpt lat="50.4455" lon="3.0813">
        <ele>53</ele>
        <time>2012-01-15T08:52:52Z</time>
      </trkpt>
      <trkpt lat="50.44543" lon="3.08144">
        <ele>53</ele>
        <time>2012-01-15T08:52:54Z</time>
      </trkpt>
      <trkpt lat="50.44537" lon="3.08158">
        <ele>53</ele>
        <time>2012-01-15T08:52:56Z</time>
      </trkpt>
      <trkpt lat="50.44531" lon="3.08172">
        <ele>53</ele>
        <time>2012-01-15T08:52:58Z</time>
      </trkpt>
      <trkpt lat="50.44524" lon="3.08188">
        <ele>53</ele>
        <time>2012-01-15T08:53:00Z</time>
      </trkpt>
      <trkpt lat="50.44519" lon="3.08203">
        <ele>53</ele>
        <time>2012-01-15T08:53:02Z</time>
      </trkpt>
      <trkpt lat="50.44512" lon="3.08219">
        <ele>53</ele>
        <time>2012-01-15T08:53:04Z</time>
      </trkpt>
      <trkpt lat="50.44507" lon="3.08234">
        <ele>53</ele>
        <time>2012-01-15T08:53:06Z</time>
      </trkpt>
      <trkpt lat="50.44504" lon="3.08251">
        <ele>53</ele>
        <time>2012-01-15T08:53:08Z</time>
      </trkpt>
      <trkpt lat="50.44506" lon="3.08267">
        <ele>53</ele>
        <time>2012-01-15T08:53:10Z</time>
      </trkpt>
      <trkpt lat="50.44512" lon="3.08278">
        <ele>53</ele>
        <time>2012-01-15T08:53:12Z</time>
      </trkpt>
      <trkpt lat="50.44519" lon="3.08287">
        <ele>53</ele>
        <time>2012-01-15T08:53:14Z</time>
      </trkpt>
      <trkpt lat="50.44527" lon="3.08294">
        <ele>53</ele>
        <time>2012-01-15T08:53:16Z</time>
      </trkpt>
      <trkpt lat="50.44535" lon="3.08303">
        <ele>53</ele>
        <time>2012-01-15T08:53:18Z</time>
      </trkpt>
      <trkpt lat="50.44543" lon="3.08313">
        <ele>53</ele>
        <time>2012-01-15T08:53:20Z</time>
      </trkpt>
      <trkpt lat="50.4455" lon="3.08322">
        <ele>53</ele>
        <time>2012-01-15T08:53:22Z</time>
      </trkpt>
      <trkpt lat="50.44557" lon="3.08338">
        <ele>53</ele>
        <time>2012-01-15T08:53:25Z</time>
      </trkpt>
      <trkpt lat="50.44551" lon="3.08354">
        <ele>53</ele>
        <time>2012-01-15T08:53:28Z</time>
      </trkpt>
      <trkpt lat="50.44546" lon="3.08366">
        <ele>53</ele>
        <time>2012-01-15T08:53:30Z</time>
      </trkpt>
      <trkpt lat="50.4454" lon="3.08377">
        <ele>53</ele>
        <time>2012-01-15T08:53:32Z</time>
      </trkpt>
      <trkpt lat="50.44534" lon="3.0839">
        <ele>53</ele>
        <time>2012-01-15T08:53:34Z</time>
      </trkpt>
      <trkpt lat="50.44527" lon="3.08402">
        <ele>53</ele>
        <time>2012-01-15T08:53:36Z</time>
      </trkpt>
      <trkpt lat="50.44521" lon="3.08416">
        <ele>53</ele>
        <time>2012-01-15T08:53:38Z</time>
      </trkpt>
      <trkpt lat="50.44515" lon="3.0843">
        <ele>53</ele>
        <time>2012-01-15T08:53:40Z</time>
      </trkpt>
      <trkpt lat="50.44508" lon="3.08445">
        <ele>53</ele>
        <time>2012-01-15T08:53:42Z</time>
      </trkpt>
      <trkpt lat="50.44502" lon="3.08459">
        <ele>53</ele>
        <time>2012-01-15T08:53:44Z</time>
      </trkpt>
      <trkpt lat="50.44495" lon="3.08473">
        <ele>53</ele>
        <time>2012-01-15T08:53:46Z</time>
      </trkpt>
      <trkpt lat="50.44488" lon="3.08489">
        <ele>53</ele>
        <time>2012-01-15T08:53:48Z</time>
      </trkpt>
      <trkpt lat="50.44482" lon="3.08504">
        <ele>53</ele>
        <time>2012-01-15T08:53:50Z</time>
      </trkpt>
      <trkpt lat="50.44475" lon="3.0852">
        <ele>53</ele>
        <time>2012-01-15T08:53:52Z</time>
      </trkpt>
      <trkpt lat="50.44469" lon="3.08536">
        <ele>53</ele>
        <time>2012-01-15T08:53:54Z</time>
      </trkpt>
      <trkpt lat="50.44463" lon="3.08553">
        <ele>53</ele>
        <time>2012-01-15T08:53:56Z</time>
      </trkpt>
      <trkpt lat="50.44456" lon="3.0857">
        <ele>53</ele>
        <time>2012-01-15T08:53:58Z</time>
      </trkpt>
      <trkpt lat="50.4445" lon="3.08587">
        <ele>53</ele>
        <time>2012-01-15T08:54:00Z</time>
      </trkpt>
      <trkpt lat="50.44443" lon="3.08604">
        <ele>53</ele>
        <time>2012-01-15T08:54:02Z</time>
      </trkpt>
      <trkpt lat="50.44436" lon="3.0862">
        <ele>48</ele>
        <time>2012-01-15T08:54:04Z</time>
      </trkpt>
      <trkpt lat="50.4443" lon="3.08636">
        <ele>48</ele>
        <time>2012-01-15T08:54:06Z</time>
      </trkpt>
      <trkpt lat="50.44424" lon="3.08653">
        <ele>48</ele>
        <time>2012-01-15T08:54:08Z</time>
      </trkpt>
      <trkpt lat="50.44417" lon="3.08669">
        <ele>48</ele>
        <time>2012-01-15T08:54:10Z</time>
      </trkpt>
      <trkpt lat="50.44411" lon="3.08685">
        <ele>48</ele>
        <time>2012-01-15T08:54:12Z</time>
      </trkpt>
      <trkpt lat="50.44404" lon="3.08703">
        <ele>48</ele>
        <time>2012-01-15T08:54:14Z</time>
      </trkpt>
      <trkpt lat="50.44398" lon="3.0872">
        <ele>48</ele>
        <time>2012-01-15T08:54:16Z</time>
      </trkpt>
      <trkpt lat="50.44391" lon="3.08737">
        <ele>48</ele>
        <time>2012-01-15T08:54:18Z</time>
      </trkpt>
      <trkpt lat="50.44383" lon="3.08753">
        <ele>48</ele>
        <time>2012-01-15T08:54:20Z</time>
      </trkpt>
      <trkpt lat="50.44375" lon="3.08768">
        <ele>48</ele>
        <time>2012-01-15T08:54:22Z</time>
      </trkpt>
      <trkpt lat="50.44366" lon="3.08782">
        <ele>48</ele>
        <time>2012-01-15T08:54:24Z</time>
      </trkpt>
      <trkpt lat="50.44358" lon="3.08797">
        <ele>48</ele>
        <time>2012-01-15T08:54:26Z</time>
      </trkpt>
      <trkpt lat="50.44348" lon="3.08809">
        <ele>48</ele>
        <time>2012-01-15T08:54:28Z</time>
      </trkpt>
      <trkpt lat="50.44337" lon="3.08821">
        <ele>48</ele>
        <time>2012-01-15T08:54:30Z</time>
      </trkpt>
      <trkpt lat="50.44326" lon="3.08833">
        <ele>48</ele>
        <time>2012-01-15T08:54:32Z</time>
      </trkpt>
      <trkpt lat="50.44315" lon="3.08844">
        <ele>48</ele>
        <time>2012-01-15T08:54:34Z</time>
      </trkpt>
      <trkpt lat="50.44303" lon="3.08853">
        <ele>48</ele>
        <time>2012-01-15T08:54:36Z</time>
      </trkpt>
      <trkpt lat="50.44291" lon="3.08862">
        <ele>48</ele>
        <time>2012-01-15T08:54:38Z</time>
      </trkpt>
      <trkpt lat="50.44278" lon="3.08869">
        <ele>48</ele>
        <time>2012-01-15T08:54:40Z</time>
      </trkpt>
      <trkpt lat="50.44266" lon="3.08876">
        <ele>43</ele>
        <time>2012-01-15T08:54:42Z</time>
      </trkpt>
      <trkpt lat="50.44252" lon="3.0888">
        <ele>43</ele>
        <time>2012-01-15T08:54:44Z</time>
      </trkpt>
      <trkpt lat="50.44238" lon="3.08885">
        <ele>43</ele>
        <time>2012-01-15T08:54:46Z</time>
      </trkpt>
      <trkpt lat="50.44224" lon="3.08889">
        <ele>43</ele>
        <time>2012-01-15T08:54:48Z</time>
      </trkpt>
      <trkpt lat="50.44211" lon="3.08893">
        <ele>43</ele>
        <time>2012-01-15T08:54:50Z</time>
      </trkpt>
      <trkpt lat="50.44198" lon="3.08897">
        <ele>43</ele>
        <time>2012-01-15T08:54:52Z</time>
      </trkpt>
      <trkpt lat="50.44186" lon="3.08899">
        <ele>43</ele>
        <time>2012-01-15T08:54:54Z</time>
      </trkpt>
      <trkpt lat="50.44173" lon="3.08903">
        <ele>43</ele>
        <time>2012-01-15T08:54:56Z</time>
      </trkpt>
      <trkpt lat="50.44161" lon="3.08909">
        <ele>43</ele>
        <time>2012-01-15T08:54:58Z</time>
      </trkpt>
      <trkpt lat="50.44148" lon="3.08915">
        <ele>43</ele>
        <time>2012-01-15T08:55:00Z</time>
      </trkpt>
      <trkpt lat="50.44134" lon="3.08922">
        <ele>43</ele>
        <time>2012-01-15T08:55:02Z</time>
      </trkpt>
      <trkpt lat="50.44121" lon="3.08931">
        <ele>43</ele>
        <time>2012-01-15T08:55:04Z</time>
      </trkpt>
      <trkpt lat="50.44109" lon="3.08941">
        <ele>43</ele>
        <time>2012-01-15T08:55:06Z</time>
      </trkpt>
      <trkpt lat="50.44097" lon="3.08952">
        <ele>43</ele>
        <time>2012-01-15T08:55:08Z</time>
      </trkpt>
      <trkpt lat="50.44084" lon="3.08965">
        <ele>43</ele>
        <time>2012-01-15T08:55:10Z</time>
      </trkpt>
      <trkpt lat="50.44074" lon="3.08979">
        <ele>43</ele>
        <time>2012-01-15T08:55:12Z</time>
      </trkpt>
      <trkpt lat="50.44063" lon="3.08994">
        <ele>43</ele>
        <time>2012-01-15T08:55:14Z</time>
      </trkpt>
      <trkpt lat="50.44052" lon="3.09011">
        <ele>43</ele>
        <time>2012-01-15T08:55:16Z</time>
      </trkpt>
      <trkpt lat="50.44043" lon="3.09028">
        <ele>37</ele>
        <time>2012-01-15T08:55:18Z</time>
      </trkpt>
      <trkpt lat="50.44035" lon="3.09046">
        <ele>37</ele>
        <time>2012-01-15T08:55:20Z</time>
      </trkpt>
      <trkpt lat="50.44027" lon="3.09065">
        <ele>37</ele>
        <time>2012-01-15T08:55:22Z</time>
      </trkpt>
      <trkpt lat="50.4402" lon="3.09085">
        <ele>37</ele>
        <time>2012-01-15T08:55:24Z</time>
      </trkpt>
      <trkpt lat="50.44013" lon="3.09105">
        <ele>37</ele>
        <time>2012-01-15T08:55:26Z</time>
      </trkpt>
      <trkpt lat="50.44006" lon="3.09126">
        <ele>37</ele>
        <time>2012-01-15T08:55:28Z</time>
      </trkpt>
      <trkpt lat="50.43999" lon="3.09146">
        <ele>37</ele>
        <time>2012-01-15T08:55:30Z</time>
      </trkpt>
      <trkpt lat="50.43992" lon="3.09167">
        <ele>37</ele>
        <time>2012-01-15T08:55:32Z</time>
      </trkpt>
      <trkpt lat="50.43985" lon="3.09188">
        <ele>37</ele>
        <time>2012-01-15T08:55:34Z</time>
      </trkpt>
      <trkpt lat="50.43979" lon="3.09209">
        <ele>37</ele>
        <time>2012-01-15T08:55:36Z</time>
      </trkpt>
      <trkpt lat="50.43971" lon="3.09229">
        <ele>37</ele>
        <time>2012-01-15T08:55:38Z</time>
      </trkpt>
      <trkpt lat="50.43965" lon="3.0925">
        <ele>37</ele>
        <time>2012-01-15T08:55:40Z</time>
      </trkpt>
      <trkpt lat="50.43958" lon="3.0927">
        <ele>37</ele>
        <time>2012-01-15T08:55:42Z</time>
      </trkpt>
      <trkpt lat="50.43952" lon="3.0929">
        <ele>37</ele>
        <time>2012-01-15T08:55:44Z</time>
      </trkpt>
      <trkpt lat="50.43945" lon="3.09309">
        <ele>37</ele>
        <time>2012-01-15T08:55:46Z</time>
      </trkpt>
      <trkpt lat="50.43938" lon="3.09328">
        <ele>37</ele>
        <time>2012-01-15T08:55:48Z</time>
      </trkpt>
      <trkpt lat="50.43931" lon="3.09346">
        <ele>37</ele>
        <time>2012-01-15T08:55:50Z</time>
      </trkpt>
      <trkpt lat="50.43925" lon="3.0936">
        <ele>37</ele>
        <time>2012-01-15T08:55:52Z</time>
      </trkpt>
      <trkpt lat="50.43919" lon="3.09373">
        <ele>32</ele>
        <time>2012-01-15T08:55:54Z</time>
      </trkpt>
      <trkpt lat="50.43914" lon="3.09385">
        <ele>32</ele>
        <time>2012-01-15T08:55:56Z</time>
      </trkpt>
      <trkpt lat="50.4391" lon="3.09399">
        <ele>32</ele>
        <time>2012-01-15T08:55:58Z</time>
      </trkpt>
      <trkpt lat="50.4391" lon="3.09413">
        <ele>32</ele>
        <time>2012-01-15T08:56:00Z</time>
      </trkpt>
      <trkpt lat="50.43912" lon="3.09432">
        <ele>32</ele>
        <time>2012-01-15T08:56:03Z</time>
      </trkpt>
      <trkpt lat="50.43915" lon="3.09452">
        <ele>32</ele>
        <time>2012-01-15T08:56:06Z</time>
      </trkpt>
      <trkpt lat="50.43918" lon="3.09471">
        <ele>32</ele>
        <time>2012-01-15T08:56:09Z</time>
      </trkpt>
      <trkpt lat="50.4392" lon="3.0949">
        <ele>32</ele>
        <time>2012-01-15T08:56:12Z</time>
      </trkpt>
      <trkpt lat="50.43922" lon="3.09511">
        <ele>32</ele>
        <time>2012-01-15T08:56:15Z</time>
      </trkpt>
      <trkpt lat="50.43922" lon="3.09532">
        <ele>32</ele>
        <time>2012-01-15T08:56:18Z</time>
      </trkpt>
      <trkpt lat="50.43922" lon="3.09546">
        <ele>32</ele>
        <time>2012-01-15T08:56:20Z</time>
      </trkpt>
      <trkpt lat="50.43922" lon="3.0956">
        <ele>32</ele>
        <time>2012-01-15T08:56:22Z</time>
      </trkpt>
      <trkpt lat="50.43921" lon="3.09575">
        <ele>32</ele>
        <time>2012-01-15T08:56:24Z</time>
      </trkpt>
      <trkpt lat="50.4392" lon="3.09589">
        <ele>32</ele>
        <time>2012-01-15T08:56:26Z</time>
      </trkpt>
      <trkpt lat="50.43919" lon="3.09604">
        <ele>32</ele>
        <time>2012-01-15T08:56:28Z</time>
      </trkpt>
      <trkpt lat="50.43919" lon="3.09619">
        <ele>32</ele>
        <time>2012-01-15T08:56:30Z</time>
      </trkpt>
      <trkpt lat="50.43919" lon="3.09634">
        <ele>32</ele>
        <time>2012-01-15T08:56:32Z</time>
      </trkpt>
      <trkpt lat="50.43919" lon="3.09649">
        <ele>32</ele>
        <time>2012-01-15T08:56:34Z</time>
      </trkpt>
      <trkpt lat="50.43918" lon="3.09665">
        <ele>32</ele>
        <time>2012-01-15T08:56:36Z</time>
      </trkpt>
      <trkpt lat="50.43917" lon="3.0968">
        <ele>32</ele>
        <time>2012-01-15T08:56:38Z</time>
      </trkpt>
      <trkpt lat="50.43914" lon="3.09694">
        <ele>32</ele>
        <time>2012-01-15T08:56:40Z</time>
      </trkpt>
      <trkpt lat="50.43908" lon="3.09707">
        <ele>32</ele>
        <time>2012-01-15T08:56:42Z</time>
      </trkpt>
      <trkpt lat="50.43902" lon="3.09718">
        <ele>32</ele>
        <time>2012-01-15T08:56:44Z</time>
      </trkpt>
      <trkpt lat="50.43892" lon="3.09727">
        <ele>32</ele>
        <time>2012-01-15T08:56:47Z</time>
      </trkpt>
      <trkpt lat="50.43883" lon="3.09713">
        <ele>32</ele>
        <time>2012-01-15T08:56:51Z</time>
      </trkpt>
      <trkpt lat="50.43876" lon="3.09703">
        <ele>32</ele>
        <time>2012-01-15T08:56:53Z</time>
      </trkpt>
      <trkpt lat="50.43869" lon="3.09692">
        <ele>32</ele>
        <time>2012-01-15T08:56:55Z</time>
      </trkpt>
      <trkpt lat="50.4386" lon="3.0968">
        <ele>32</ele>
        <time>2012-01-15T08:56:57Z</time>
      </trkpt>
      <trkpt lat="50.43852" lon="3.09667">
        <ele>32</ele>
        <time>2012-01-15T08:56:59Z</time>
      </trkpt>
      <trkpt lat="50.43843" lon="3.09654">
        <ele>32</ele>
        <time>2012-01-15T08:57:01Z</time>
      </trkpt>
      <trkpt lat="50.43834" lon="3.09639">
        <ele>32</ele>
        <time>2012-01-15T08:57:03Z</time>
      </trkpt>
      <trkpt lat="50.43825" lon="3.09626">
        <ele>32</ele>
        <time>2012-01-15T08:57:05Z</time>
      </trkpt>
      <trkpt lat="50.43815" lon="3.09612">
        <ele>32</ele>
        <time>2012-01-15T08:57:07Z</time>
      </trkpt>
      <trkpt lat="50.43807" lon="3.096">
        <ele>32</ele>
        <time>2012-01-15T08:57:09Z</time>
      </trkpt>
      <trkpt lat="50.43799" lon="3.09588">
        <ele>32</ele>
        <time>2012-01-15T08:57:11Z</time>
      </trkpt>
      <trkpt lat="50.4379" lon="3.09575">
        <ele>32</ele>
        <time>2012-01-15T08:57:13Z</time>
      </trkpt>
      <trkpt lat="50.43782" lon="3.09562">
        <ele>32</ele>
        <time>2012-01-15T08:57:15Z</time>
      </trkpt>
      <trkpt lat="50.43774" lon="3.09551">
        <ele>32</ele>
        <time>2012-01-15T08:57:17Z</time>
      </trkpt>
      <trkpt lat="50.43765" lon="3.09539">
        <ele>27</ele>
        <time>2012-01-15T08:57:19Z</time>
      </trkpt>
      <trkpt lat="50.43757" lon="3.09527">
        <ele>27</ele>
        <time>2012-01-15T08:57:21Z</time>
      </trkpt>
      <trkpt lat="50.43747" lon="3.09514">
        <ele>27</ele>
        <time>2012-01-15T08:57:24Z</time>
      </trkpt>
      <trkpt lat="50.4374" lon="3.09504">
        <ele>27</ele>
        <time>2012-01-15T08:57:26Z</time>
      </trkpt>
      <trkpt lat="50.43733" lon="3.09493">
        <ele>27</ele>
        <time>2012-01-15T08:57:28Z</time>
      </trkpt>
      <trkpt lat="50.43728" lon="3.09482">
        <ele>27</ele>
        <time>2012-01-15T08:57:30Z</time>
      </trkpt>
      <trkpt lat="50.43722" lon="3.09471">
        <ele>27</ele>
        <time>2012-01-15T08:57:32Z</time>
      </trkpt>
      <trkpt lat="50.43718" lon="3.09456">
        <ele>27</ele>
        <time>2012-01-15T08:57:34Z</time>
      </trkpt>
      <trkpt lat="50.43716" lon="3.09442">
        <ele>27</ele>
        <time>2012-01-15T08:57:36Z</time>
      </trkpt>
      <trkpt lat="50.43715" lon="3.09427">
        <ele>27</ele>
        <time>2012-01-15T08:57:38Z</time>
      </trkpt>
      <trkpt lat="50.43715" lon="3.09413">
        <ele>27</ele>
        <time>2012-01-15T08:57:40Z</time>
      </trkpt>
      <trkpt lat="50.43715" lon="3.09398">
        <ele>27</ele>
        <time>2012-01-15T08:57:42Z</time>
      </trkpt>
      <trkpt lat="50.43715" lon="3.09383">
        <ele>27</ele>
        <time>2012-01-15T08:57:44Z</time>
      </trkpt>
      <trkpt lat="50.43715" lon="3.09367">
        <ele>27</ele>
        <time>2012-01-15T08:57:46Z</time>
      </trkpt>
      <trkpt lat="50.43714" lon="3.09351">
        <ele>27</ele>
        <time>2012-01-15T08:57:48Z</time>
      </trkpt>
      <trkpt lat="50.43714" lon="3.09334">
        <ele>27</ele>
        <time>2012-01-15T08:57:50Z</time>
      </trkpt>
      <trkpt lat="50.43714" lon="3.09317">
        <ele>27</ele>
        <time>2012-01-15T08:57:52Z</time>
      </trkpt>
      <trkpt lat="50.43713" lon="3.09301">
        <ele>27</ele>
        <time>2012-01-15T08:57:54Z</time>
      </trkpt>
      <trkpt lat="50.4371" lon="3.09284">
        <ele>27</ele>
        <time>2012-01-15T08:57:56Z</time>
      </trkpt>
      <trkpt lat="50.43706" lon="3.09268">
        <ele>27</ele>
        <time>2012-01-15T08:57:58Z</time>
      </trkpt>
      <trkpt lat="50.43701" lon="3.09254">
        <ele>27</ele>
        <time>2012-01-15T08:58:00Z</time>
      </trkpt>
      <trkpt lat="50.43696" lon="3.09239">
        <ele>27</ele>
        <time>2012-01-15T08:58:02Z</time>
      </trkpt>
      <trkpt lat="50.4369" lon="3.09225">
        <ele>27</ele>
        <time>2012-01-15T08:58:04Z</time>
      </trkpt>
      <trkpt lat="50.43686" lon="3.09212">
        <ele>27</ele>
        <time>2012-01-15T08:58:06Z</time>
      </trkpt>
      <trkpt lat="50.43681" lon="3.09198">
        <ele>27</ele>
        <time>2012-01-15T08:58:08Z</time>
      </trkpt>
      <trkpt lat="50.43676" lon="3.09184">
        <ele>27</ele>
        <time>2012-01-15T08:58:10Z</time>
      </trkpt>
      <trkpt lat="50.4367" lon="3.09169">
        <ele>27</ele>
        <time>2012-01-15T08:58:12Z</time>
      </trkpt>
      <trkpt lat="50.43665" lon="3.09153">
        <ele>27</ele>
        <time>2012-01-15T08:58:14Z</time>
      </trkpt>
      <trkpt lat="50.43659" lon="3.09138">
        <ele>27</ele>
        <time>2012-01-15T08:58:16Z</time>
      </trkpt>
      <trkpt lat="50.43654" lon="3.09123">
        <ele>27</ele>
        <time>2012-01-15T08:58:18Z</time>
      </trkpt>
      <trkpt lat="50.43648" lon="3.09108">
        <ele>27</ele>
        <time>2012-01-15T08:58:20Z</time>
      </trkpt>
      <trkpt lat="50.43642" lon="3.09092">
        <ele>27</ele>
        <time>2012-01-15T08:58:22Z</time>
      </trkpt>
      <trkpt lat="50.43636" lon="3.09076">
        <ele>27</ele>
        <time>2012-01-15T08:58:24Z</time>
      </trkpt>
      <trkpt lat="50.43631" lon="3.0906">
        <ele>27</ele>
        <time>2012-01-15T08:58:26Z</time>
      </trkpt>
      <trkpt lat="50.43625" lon="3.09044">
        <ele>27</ele>
        <time>2012-01-15T08:58:28Z</time>
      </trkpt>
      <trkpt lat="50.4362" lon="3.09027">
        <ele>27</ele>
        <time>2012-01-15T08:58:30Z</time>
      </trkpt>
      <trkpt lat="50.43616" lon="3.0901">
        <ele>27</ele>
        <time>2012-01-15T08:58:32Z</time>
      </trkpt>
      <trkpt lat="50.43611" lon="3.08994">
        <ele>27</ele>
        <time>2012-01-15T08:58:34Z</time>
      </trkpt>
      <trkpt lat="50.43605" lon="3.08977">
        <ele>27</ele>
        <time>2012-01-15T08:58:36Z</time>
      </trkpt>
      <trkpt lat="50.43601" lon="3.08962">
        <ele>27</ele>
        <time>2012-01-15T08:58:38Z</time>
      </trkpt>
      <trkpt lat="50.43596" lon="3.08948">
        <ele>27</ele>
        <time>2012-01-15T08:58:40Z</time>
      </trkpt>
      <trkpt lat="50.43592" lon="3.08934">
        <ele>27</ele>
        <time>2012-01-15T08:58:42Z</time>
      </trkpt>
      <trkpt lat="50.43588" lon="3.08921">
        <ele>27</ele>
        <time>2012-01-15T08:58:44Z</time>
      </trkpt>
      <trkpt lat="50.43582" lon="3.08903">
        <ele>27</ele>
        <time>2012-01-15T08:58:47Z</time>
      </trkpt>
      <trkpt lat="50.43577" lon="3.08885">
        <ele>27</ele>
        <time>2012-01-15T08:58:50Z</time>
      </trkpt>
      <trkpt lat="50.43573" lon="3.08872">
        <ele>27</ele>
        <time>2012-01-15T08:58:52Z</time>
      </trkpt>
      <trkpt lat="50.43569" lon="3.08859">
        <ele>27</ele>
        <time>2012-01-15T08:58:54Z</time>
      </trkpt>
      <trkpt lat="50.43565" lon="3.08845">
        <ele>27</ele>
        <time>2012-01-15T08:58:56Z</time>
      </trkpt>
      <trkpt lat="50.43562" lon="3.08832">
        <ele>27</ele>
        <time>2012-01-15T08:58:58Z</time>
      </trkpt>
      <trkpt lat="50.43558" lon="3.08818">
        <ele>27</ele>
        <time>2012-01-15T08:59:00Z</time>
      </trkpt>
      <trkpt lat="50.43554" lon="3.08805">
        <ele>27</ele>
        <time>2012-01-15T08:59:02Z</time>
      </trkpt>
      <trkpt lat="50.43551" lon="3.08791">
        <ele>27</ele>
        <time>2012-01-15T08:59:04Z</time>
      </trkpt>
      <trkpt lat="50.43548" lon="3.08778">
        <ele>27</ele>
        <time>2012-01-15T08:59:06Z</time>
      </trkpt>
      <trkpt lat="50.43543" lon="3.08765">
        <ele>27</ele>
        <time>2012-01-15T08:59:08Z</time>
      </trkpt>
      <trkpt lat="50.43538" lon="3.08747">
        <ele>27</ele>
        <time>2012-01-15T08:59:11Z</time>
      </trkpt>
      <trkpt lat="50.43534" lon="3.08733">
        <ele>27</ele>
        <time>2012-01-15T08:59:13Z</time>
      </trkpt>
      <trkpt lat="50.43531" lon="3.0872">
        <ele>27</ele>
        <time>2012-01-15T08:59:15Z</time>
      </trkpt>
      <trkpt lat="50.43527" lon="3.08706">
        <ele>27</ele>
        <time>2012-01-15T08:59:17Z</time>
      </trkpt>
      <trkpt lat="50.43523" lon="3.08693">
        <ele>27</ele>
        <time>2012-01-15T08:59:19Z</time>
      </trkpt>
      <trkpt lat="50.43519" lon="3.08679">
        <ele>27</ele>
        <time>2012-01-15T08:59:21Z</time>
      </trkpt>
      <trkpt lat="50.43516" lon="3.08666">
        <ele>27</ele>
        <time>2012-01-15T08:59:23Z</time>
      </trkpt>
      <trkpt lat="50.43511" lon="3.08647">
        <ele>27</ele>
        <time>2012-01-15T08:59:26Z</time>
      </trkpt>
      <trkpt lat="50.43507" lon="3.08632">
        <ele>27</ele>
        <time>2012-01-15T08:59:28Z</time>
      </trkpt>
      <trkpt lat="50.43504" lon="3.08619">
        <ele>27</ele>
        <time>2012-01-15T08:59:30Z</time>
      </trkpt>
      <trkpt lat="50.43499" lon="3.08606">
        <ele>27</ele>
        <time>2012-01-15T08:59:32Z</time>
      </trkpt>
      <trkpt lat="50.4349" lon="3.08598">
        <ele>27</ele>
        <time>2012-01-15T08:59:35Z</time>
      </trkpt>
      <trkpt lat="50.43481" lon="3.08605">
        <ele>27</ele>
        <time>2012-01-15T08:59:37Z</time>
      </trkpt>
      <trkpt lat="50.43472" lon="3.08615">
        <ele>27</ele>
        <time>2012-01-15T08:59:39Z</time>
      </trkpt>
      <trkpt lat="50.43461" lon="3.08627">
        <ele>27</ele>
        <time>2012-01-15T08:59:41Z</time>
      </trkpt>
      <trkpt lat="50.4345" lon="3.08638">
        <ele>27</ele>
        <time>2012-01-15T08:59:43Z</time>
      </trkpt>
      <trkpt lat="50.4344" lon="3.08649">
        <ele>27</ele>
        <time>2012-01-15T08:59:45Z</time>
      </trkpt>
      <trkpt lat="50.43429" lon="3.08659">
        <ele>27</ele>
        <time>2012-01-15T08:59:47Z</time>
      </trkpt>
      <trkpt lat="50.43419" lon="3.08671">
        <ele>27</ele>
        <time>2012-01-15T08:59:49Z</time>
      </trkpt>
      <trkpt lat="50.43409" lon="3.08681">
        <ele>27</ele>
        <time>2012-01-15T08:59:51Z</time>
      </trkpt>
      <trkpt lat="50.43401" lon="3.08692">
        <ele>27</ele>
        <time>2012-01-15T08:59:53Z</time>
      </trkpt>
      <trkpt lat="50.43397" lon="3.08708">
        <ele>22</ele>
        <time>2012-01-15T08:59:56Z</time>
      </trkpt>
      <trkpt lat="50.43404" lon="3.08724">
        <ele>22</ele>
        <time>2012-01-15T08:59:59Z</time>
      </trkpt>
      <trkpt lat="50.43412" lon="3.08732">
        <ele>22</ele>
        <time>2012-01-15T09:00:01Z</time>
      </trkpt>
      <trkpt lat="50.4342" lon="3.0874">
        <ele>22</ele>
        <time>2012-01-15T09:00:03Z</time>
      </trkpt>
      <trkpt lat="50.43429" lon="3.08747">
        <ele>22</ele>
        <time>2012-01-15T09:00:05Z</time>
      </trkpt>
      <trkpt lat="50.43439" lon="3.08754">
        <ele>22</ele>
        <time>2012-01-15T09:00:07Z</time>
      </trkpt>
      <trkpt lat="50.43449" lon="3.0876">
        <ele>22</ele>
        <time>2012-01-15T09:00:09Z</time>
      </trkpt>
      <trkpt lat="50.43458" lon="3.0877">
        <ele>22</ele>
        <time>2012-01-15T09:00:11Z</time>
      </trkpt>
      <trkpt lat="50.43465" lon="3.08783">
        <ele>22</ele>
        <time>2012-01-15T09:00:13Z</time>
      </trkpt>
      <trkpt lat="50.43469" lon="3.08799">
        <ele>22</ele>
        <time>2012-01-15T09:00:15Z</time>
      </trkpt>
      <trkpt lat="50.43473" lon="3.08816">
        <ele>22</ele>
        <time>2012-01-15T09:00:17Z</time>
      </trkpt>
      <trkpt lat="50.43476" lon="3.08833">
        <ele>22</ele>
        <time>2012-01-15T09:00:19Z</time>
      </trkpt>
      <trkpt lat="50.4348" lon="3.0885">
        <ele>22</ele>
        <time>2012-01-15T09:00:21Z</time>
      </trkpt>
      <trkpt lat="50.43483" lon="3.08867">
        <ele>22</ele>
        <time>2012-01-15T09:00:23Z</time>
      </trkpt>
      <trkpt lat="50.43486" lon="3.08884">
        <ele>22</ele>
        <time>2012-01-15T09:00:25Z</time>
      </trkpt>
      <trkpt lat="50.4349" lon="3.08901">
        <ele>22</ele>
        <time>2012-01-15T09:00:27Z</time>
      </trkpt>
      <trkpt lat="50.43494" lon="3.08918">
        <ele>22</ele>
        <time>2012-01-15T09:00:29Z</time>
      </trkpt>
      <trkpt lat="50.43497" lon="3.08936">
        <ele>22</ele>
        <time>2012-01-15T09:00:31Z</time>
      </trkpt>
      <trkpt lat="50.43502" lon="3.08953">
        <ele>22</ele>
        <time>2012-01-15T09:00:33Z</time>
      </trkpt>
      <trkpt lat="50.43507" lon="3.08971">
        <ele>22</ele>
        <time>2012-01-15T09:00:35Z</time>
      </trkpt>
      <trkpt lat="50.43513" lon="3.08988">
        <ele>22</ele>
        <time>2012-01-15T09:00:37Z</time>
      </trkpt>
      <trkpt lat="50.43518" lon="3.09005">
        <ele>22</ele>
        <time>2012-01-15T09:00:39Z</time>
      </trkpt>
      <trkpt lat="50.43523" lon="3.09024">
        <ele>22</ele>
        <time>2012-01-15T09:00:41Z</time>
      </trkpt>
      <trkpt lat="50.43529" lon="3.09042">
        <ele>22</ele>
        <time>2012-01-15T09:00:43Z</time>
      </trkpt>
      <trkpt lat="50.43534" lon="3.0906">
        <ele>22</ele>
        <time>2012-01-15T09:00:45Z</time>
      </trkpt>
      <trkpt lat="50.43539" lon="3.09078">
        <ele>22</ele>
        <time>2012-01-15T09:00:47Z</time>
      </trkpt>
      <trkpt lat="50.43543" lon="3.09098">
        <ele>22</ele>
        <time>2012-01-15T09:00:49Z</time>
      </trkpt>
      <trkpt lat="50.43546" lon="3.09118">
        <ele>22</ele>
        <time>2012-01-15T09:00:51Z</time>
      </trkpt>
      <trkpt lat="50.43548" lon="3.09137">
        <ele>22</ele>
        <time>2012-01-15T09:00:53Z</time>
      </trkpt>
      <trkpt lat="50.4355" lon="3.09158">
        <ele>22</ele>
        <time>2012-01-15T09:00:55Z</time>
      </trkpt>
      <trkpt lat="50.43552" lon="3.09179">
        <ele>22</ele>
        <time>2012-01-15T09:00:57Z</time>
      </trkpt>
      <trkpt lat="50.43554" lon="3.09199">
        <ele>22</ele>
        <time>2012-01-15T09:00:59Z</time>
      </trkpt>
      <trkpt lat="50.43556" lon="3.0922">
        <ele>22</ele>
        <time>2012-01-15T09:01:01Z</time>
      </trkpt>
      <trkpt lat="50.43559" lon="3.09241">
        <ele>22</ele>
        <time>2012-01-15T09:01:03Z</time>
      </trkpt>
      <trkpt lat="50.43563" lon="3.0926">
        <ele>22</ele>
        <time>2012-01-15T09:01:05Z</time>
      </trkpt>
      <trkpt lat="50.43567" lon="3.0928">
        <ele>22</ele>
        <time>2012-01-15T09:01:07Z</time>
      </trkpt>
      <trkpt lat="50.43572" lon="3.09299">
        <ele>22</ele>
        <time>2012-01-15T09:01:09Z</time>
      </trkpt>
      <trkpt lat="50.43576" lon="3.09317">
        <ele>22</ele>
        <time>2012-01-15T09:01:11Z</time>
      </trkpt>
      <trkpt lat="50.43582" lon="3.09334">
        <ele>22</ele>
        <time>2012-01-15T09:01:13Z</time>
      </trkpt>
      <trkpt lat="50.43588" lon="3.0935">
        <ele>22</ele>
        <time>2012-01-15T09:01:15Z</time>
      </trkpt>
      <trkpt lat="50.43593" lon="3.09366">
        <ele>22</ele>
        <time>2012-01-15T09:01:17Z</time>
      </trkpt>
      <trkpt lat="50.43599" lon="3.09382">
        <ele>22</ele>
        <time>2012-01-15T09:01:19Z</time>
      </trkpt>
      <trkpt lat="50.43605" lon="3.09396">
        <ele>22</ele>
        <time>2012-01-15T09:01:21Z</time>
      </trkpt>
      <trkpt lat="50.4361" lon="3.09409">
        <ele>22</ele>
        <time>2012-01-15T09:01:23Z</time>
      </trkpt>
      <trkpt lat="50.43617" lon="3.09427">
        <ele>22</ele>
        <time>2012-01-15T09:01:26Z</time>
      </trkpt>
      <trkpt lat="50.43623" lon="3.09441">
        <ele>22</ele>
        <time>2012-01-15T09:01:29Z</time>
      </trkpt>
      <trkpt lat="50.43628" lon="3.09455">
        <ele>22</ele>
        <time>2012-01-15T09:01:33Z</time>
      </trkpt>
      <trkpt lat="50.43624" lon="3.09471">
        <ele>22</ele>
        <time>2012-01-15T09:01:37Z</time>
      </trkpt>
      <trkpt lat="50.43617" lon="3.09486">
        <ele>22</ele>
        <time>2012-01-15T09:01:40Z</time>
      </trkpt>
      <trkpt lat="50.4361" lon="3.09498">
        <ele>22</ele>
        <time>2012-01-15T09:01:42Z</time>
      </trkpt>
      <trkpt lat="50.43603" lon="3.0951">
        <ele>22</ele>
        <time>2012-01-15T09:01:44Z</time>
      </trkpt>
      <trkpt lat="50.43595" lon="3.09524">
        <ele>22</ele>
        <time>2012-01-15T09:01:46Z</time>
      </trkpt>
      <trkpt lat="50.43588" lon="3.09538">
        <ele>22</ele>
        <time>2012-01-15T09:01:48Z</time>
      </trkpt>
      <trkpt lat="50.4358" lon="3.09553">
        <ele>22</ele>
        <time>2012-01-15T09:01:50Z</time>
      </trkpt>
      <trkpt lat="50.43571" lon="3.09568">
        <ele>22</ele>
        <time>2012-01-15T09:01:52Z</time>
      </trkpt>
      <trkpt lat="50.43562" lon="3.09583">
        <ele>22</ele>
        <time>2012-01-15T09:01:54Z</time>
      </trkpt>
      <trkpt lat="50.43554" lon="3.09599">
        <ele>22</ele>
        <time>2012-01-15T09:01:56Z</time>
      </trkpt>
      <trkpt lat="50.43545" lon="3.09615">
        <ele>22</ele>
        <time>2012-01-15T09:01:58Z</time>
      </trkpt>
      <trkpt lat="50.43537" lon="3.0963">
        <ele>22</ele>
        <time>2012-01-15T09:02:00Z</time>
      </trkpt>
      <trkpt lat="50.4353" lon="3.09646">
        <ele>22</ele>
        <time>2012-01-15T09:02:02Z</time>
      </trkpt>
      <trkpt lat="50.43523" lon="3.0966">
        <ele>22</ele>
        <time>2012-01-15T09:02:04Z</time>
      </trkpt>
      <trkpt lat="50.4352" lon="3.09674">
        <ele>22</ele>
        <time>2012-01-15T09:02:07Z</time>
      </trkpt>
      <trkpt lat="50.43528" lon="3.09684">
        <ele>22</ele>
        <time>2012-01-15T09:02:11Z</time>
      </trkpt>
      <trkpt lat="50.43537" lon="3.09692">
        <ele>22</ele>
        <time>2012-01-15T09:02:14Z</time>
      </trkpt>
      <trkpt lat="50.43546" lon="3.09702">
        <ele>22</ele>
        <time>2012-01-15T09:02:17Z</time>
      </trkpt>
      <trkpt lat="50.43555" lon="3.09711">
        <ele>22</ele>
        <time>2012-01-15T09:02:20Z</time>
      </trkpt>
      <trkpt lat="50.43564" lon="3.0972">
        <ele>22</ele>
        <time>2012-01-15T09:02:23Z</time>
      </trkpt>
      <trkpt lat="50.43572" lon="3.09729">
        <ele>22</ele>
        <time>2012-01-15T09:02:26Z</time>
      </trkpt>
      <trkpt lat="50.4358" lon="3.09738">
        <ele>22</ele>
        <time>2012-01-15T09:02:29Z</time>
      </trkpt>
      <trkpt lat="50.43587" lon="3.09747">
        <ele>22</ele>
        <time>2012-01-15T09:02:32Z</time>
      </trkpt>
      <trkpt lat="50.43595" lon="3.09759">
        <ele>22</ele>
        <time>2012-01-15T09:02:36Z</time>
      </trkpt>
      <trkpt lat="50.43603" lon="3.09772">
        <ele>22</ele>
        <time>2012-01-15T09:02:39Z</time>
      </trkpt>
      <trkpt lat="50.43611" lon="3.09783">
        <ele>22</ele>
        <time>2012-01-15T09:02:42Z</time>
      </trkpt>
      <trkpt lat="50.43619" lon="3.09797">
        <ele>22</ele>
        <time>2012-01-15T09:02:45Z</time>
      </trkpt>
      <trkpt lat="50.43627" lon="3.09809">
        <ele>22</ele>
        <time>2012-01-15T09:02:48Z</time>
      </trkpt>
      <trkpt lat="50.43635" lon="3.09822">
        <ele>22</ele>
        <time>2012-01-15T09:02:51Z</time>
      </trkpt>
      <trkpt lat="50.43643" lon="3.09834">
        <ele>22</ele>
        <time>2012-01-15T09:02:54Z</time>
      </trkpt>
      <trkpt lat="50.4365" lon="3.09845">
        <ele>22</ele>
        <time>2012-01-15T09:02:57Z</time>
      </trkpt>
      <trkpt lat="50.43658" lon="3.09857">
        <ele>22</ele>
        <time>2012-01-15T09:03:00Z</time>
      </trkpt>
      <trkpt lat="50.43665" lon="3.09869">
        <ele>22</ele>
        <time>2012-01-15T09:03:03Z</time>
      </trkpt>
      <trkpt lat="50.43672" lon="3.09879">
        <ele>22</ele>
        <time>2012-01-15T09:03:06Z</time>
      </trkpt>
      <trkpt lat="50.43679" lon="3.0989">
        <ele>22</ele>
        <time>2012-01-15T09:03:09Z</time>
      </trkpt>
      <trkpt lat="50.43687" lon="3.099">
        <ele>22</ele>
        <time>2012-01-15T09:03:12Z</time>
      </trkpt>
      <trkpt lat="50.43694" lon="3.09911">
        <ele>22</ele>
        <time>2012-01-15T09:03:15Z</time>
      </trkpt>
      <trkpt lat="50.437" lon="3.09923">
        <ele>22</ele>
        <time>2012-01-15T09:03:18Z</time>
      </trkpt>
      <trkpt lat="50.43706" lon="3.09934">
        <ele>22</ele>
        <time>2012-01-15T09:03:21Z</time>
      </trkpt>
      <trkpt lat="50.43713" lon="3.09948">
        <ele>22</ele>
        <time>2012-01-15T09:03:25Z</time>
      </trkpt>
      <trkpt lat="50.43718" lon="3.0996">
        <ele>22</ele>
        <time>2012-01-15T09:03:28Z</time>
      </trkpt>
      <trkpt lat="50.43724" lon="3.09974">
        <ele>22</ele>
        <time>2012-01-15T09:03:31Z</time>
      </trkpt>
      <trkpt lat="50.43729" lon="3.09987">
        <ele>27</ele>
        <time>2012-01-15T09:03:34Z</time>
      </trkpt>
      <trkpt lat="50.43735" lon="3.10001">
        <ele>27</ele>
        <time>2012-01-15T09:03:37Z</time>
      </trkpt>
      <trkpt lat="50.43739" lon="3.10014">
        <ele>27</ele>
        <time>2012-01-15T09:03:40Z</time>
      </trkpt>
      <trkpt lat="50.43746" lon="3.10028">
        <ele>27</ele>
        <time>2012-01-15T09:03:44Z</time>
      </trkpt>
      <trkpt lat="50.43752" lon="3.10039">
        <ele>27</ele>
        <time>2012-01-15T09:03:48Z</time>
      </trkpt>
      <trkpt lat="50.43757" lon="3.10052">
        <ele>33</ele>
        <time>2012-01-15T09:04:20Z</time>
      </trkpt>
      <trkpt lat="50.43763" lon="3.10064">
        <ele>33</ele>
        <time>2012-01-15T09:04:26Z</time>
      </trkpt>
      <trkpt lat="50.43768" lon="3.10076">
        <ele>33</ele>
        <time>2012-01-15T09:04:31Z</time>
      </trkpt>
      <trkpt lat="50.43773" lon="3.1009">
        <ele>33</ele>
        <time>2012-01-15T09:04:38Z</time>
      </trkpt>
      <trkpt lat="50.43778" lon="3.10103">
        <ele>33</ele>
        <time>2012-01-15T09:04:44Z</time>
      </trkpt>
      <trkpt lat="50.4378" lon="3.1012">
        <ele>33</ele>
        <time>2012-01-15T09:04:49Z</time>
      </trkpt>
      <trkpt lat="50.4378" lon="3.10136">
        <ele>33</ele>
        <time>2012-01-15T09:04:53Z</time>
      </trkpt>
      <trkpt lat="50.43778" lon="3.10152">
        <ele>33</ele>
        <time>2012-01-15T09:04:58Z</time>
      </trkpt>
      <trkpt lat="50.43776" lon="3.10169">
        <ele>33</ele>
        <time>2012-01-15T09:05:03Z</time>
      </trkpt>
      <trkpt lat="50.43774" lon="3.10183">
        <ele>33</ele>
        <time>2012-01-15T09:05:08Z</time>
      </trkpt>
      <trkpt lat="50.43772" lon="3.10196">
        <ele>33</ele>
        <time>2012-01-15T09:05:13Z</time>
      </trkpt>
      <trkpt lat="50.43769" lon="3.10211">
        <ele>33</ele>
        <time>2012-01-15T09:05:18Z</time>
      </trkpt>
      <trkpt lat="50.43772" lon="3.10224">
        <ele>33</ele>
        <time>2012-01-15T09:05:24Z</time>
      </trkpt>
      <trkpt lat="50.43782" lon="3.10231">
        <ele>33</ele>
        <time>2012-01-15T09:05:30Z</time>
      </trkpt>
      <trkpt lat="50.43791" lon="3.1024">
        <ele>33</ele>
        <time>2012-01-15T09:05:35Z</time>
      </trkpt>
      <trkpt lat="50.43799" lon="3.10247">
        <ele>33</ele>
        <time>2012-01-15T09:05:40Z</time>
      </trkpt>
      <trkpt lat="50.4381" lon="3.10254">
        <ele>33</ele>
        <time>2012-01-15T09:05:45Z</time>
      </trkpt>
      <trkpt lat="50.43819" lon="3.1026">
        <ele>33</ele>
        <time>2012-01-15T09:05:49Z</time>
      </trkpt>
      <trkpt lat="50.4383" lon="3.10267">
        <ele>33</ele>
        <time>2012-01-15T09:05:54Z</time>
      </trkpt>
      <trkpt lat="50.43838" lon="3.10274">
        <ele>33</ele>
        <time>2012-01-15T09:05:58Z</time>
      </trkpt>
      <trkpt lat="50.43847" lon="3.1028">
        <ele>33</ele>
        <time>2012-01-15T09:06:02Z</time>
      </trkpt>
      <trkpt lat="50.43855" lon="3.10286">
        <ele>33</ele>
        <time>2012-01-15T09:06:06Z</time>
      </trkpt>
      <trkpt lat="50.43865" lon="3.10293">
        <ele>33</ele>
        <time>2012-01-15T09:06:10Z</time>
      </trkpt>
      <trkpt lat="50.43874" lon="3.10297">
        <ele>33</ele>
        <time>2012-01-15T09:06:14Z</time>
      </trkpt>
      <trkpt lat="50.43883" lon="3.10302">
        <ele>33</ele>
        <time>2012-01-15T09:06:18Z</time>
      </trkpt>
      <trkpt lat="50.43891" lon="3.10306">
        <ele>33</ele>
        <time>2012-01-15T09:06:22Z</time>
      </trkpt>
      <trkpt lat="50.439" lon="3.10312">
        <ele>33</ele>
        <time>2012-01-15T09:06:26Z</time>
      </trkpt>
      <trkpt lat="50.43908" lon="3.10318">
        <ele>33</ele>
        <time>2012-01-15T09:06:30Z</time>
      </trkpt>
      <trkpt lat="50.43916" lon="3.10324">
        <ele>33</ele>
        <time>2012-01-15T09:06:34Z</time>
      </trkpt>
      <trkpt lat="50.43925" lon="3.10331">
        <ele>33</ele>
        <time>2012-01-15T09:06:39Z</time>
      </trkpt>
      <trkpt lat="50.43933" lon="3.10341">
        <ele>33</ele>
        <time>2012-01-15T09:06:44Z</time>
      </trkpt>
      <trkpt lat="50.43931" lon="3.10358">
        <ele>33</ele>
        <time>2012-01-15T09:06:49Z</time>
      </trkpt>
      <trkpt lat="50.43928" lon="3.10372">
        <ele>33</ele>
        <time>2012-01-15T09:06:53Z</time>
      </trkpt>
      <trkpt lat="50.43925" lon="3.10388">
        <ele>33</ele>
        <time>2012-01-15T09:06:57Z</time>
      </trkpt>
      <trkpt lat="50.4392" lon="3.10405">
        <ele>33</ele>
        <time>2012-01-15T09:07:01Z</time>
      </trkpt>
      <trkpt lat="50.43917" lon="3.10419">
        <ele>38</ele>
        <time>2012-01-15T09:07:04Z</time>
      </trkpt>
      <trkpt lat="50.43914" lon="3.10434">
        <ele>38</ele>
        <time>2012-01-15T09:07:07Z</time>
      </trkpt>
      <trkpt lat="50.43912" lon="3.10452">
        <ele>38</ele>
        <time>2012-01-15T09:07:11Z</time>
      </trkpt>
      <trkpt lat="50.43912" lon="3.10469">
        <ele>38</ele>
        <time>2012-01-15T09:07:15Z</time>
      </trkpt>
      <trkpt lat="50.4391" lon="3.10483">
        <ele>38</ele>
        <time>2012-01-15T09:07:18Z</time>
      </trkpt>
      <trkpt lat="50.43908" lon="3.10499">
        <ele>38</ele>
        <time>2012-01-15T09:07:21Z</time>
      </trkpt>
      <trkpt lat="50.43906" lon="3.10516">
        <ele>38</ele>
        <time>2012-01-15T09:07:24Z</time>
      </trkpt>
      <trkpt lat="50.43903" lon="3.10533">
        <ele>38</ele>
        <time>2012-01-15T09:07:27Z</time>
      </trkpt>
      <trkpt lat="50.43901" lon="3.10551">
        <ele>38</ele>
        <time>2012-01-15T09:07:30Z</time>
      </trkpt>
      <trkpt lat="50.43898" lon="3.10567">
        <ele>38</ele>
        <time>2012-01-15T09:07:33Z</time>
      </trkpt>
      <trkpt lat="50.43893" lon="3.10584">
        <ele>38</ele>
        <time>2012-01-15T09:07:36Z</time>
      </trkpt>
      <trkpt lat="50.4389" lon="3.10599">
        <ele>38</ele>
        <time>2012-01-15T09:07:39Z</time>
      </trkpt>
      <trkpt lat="50.43888" lon="3.10614">
        <ele>38</ele>
        <time>2012-01-15T09:07:42Z</time>
      </trkpt>
      <trkpt lat="50.43885" lon="3.10631">
        <ele>38</ele>
        <time>2012-01-15T09:07:45Z</time>
      </trkpt>
      <trkpt lat="50.43883" lon="3.10648">
        <ele>38</ele>
        <time>2012-01-15T09:07:48Z</time>
      </trkpt>
      <trkpt lat="50.4388" lon="3.10664">
        <ele>38</ele>
        <time>2012-01-15T09:07:51Z</time>
      </trkpt>
      <trkpt lat="50.43877" lon="3.10681">
        <ele>38</ele>
        <time>2012-01-15T09:07:54Z</time>
      </trkpt>
      <trkpt lat="50.43874" lon="3.10699">
        <ele>38</ele>
        <time>2012-01-15T09:07:57Z</time>
      </trkpt>
      <trkpt lat="50.43871" lon="3.10716">
        <ele>38</ele>
        <time>2012-01-15T09:08:00Z</time>
      </trkpt>
      <trkpt lat="50.43868" lon="3.10733">
        <ele>43</ele>
        <time>2012-01-15T09:08:03Z</time>
      </trkpt>
      <trkpt lat="50.43867" lon="3.10748">
        <ele>43</ele>
        <time>2012-01-15T09:08:06Z</time>
      </trkpt>
      <trkpt lat="50.43865" lon="3.10767">
        <ele>43</ele>
        <time>2012-01-15T09:08:10Z</time>
      </trkpt>
      <trkpt lat="50.43862" lon="3.10781">
        <ele>43</ele>
        <time>2012-01-15T09:08:13Z</time>
      </trkpt>
      <trkpt lat="50.43862" lon="3.10796">
        <ele>43</ele>
        <time>2012-01-15T09:08:16Z</time>
      </trkpt>
      <trkpt lat="50.43866" lon="3.10811">
        <ele>43</ele>
        <time>2012-01-15T09:08:20Z</time>
      </trkpt>
      <trkpt lat="50.43869" lon="3.10824">
        <ele>43</ele>
        <time>2012-01-15T09:08:23Z</time>
      </trkpt>
      <trkpt lat="50.43872" lon="3.1084">
        <ele>43</ele>
        <time>2012-01-15T09:08:26Z</time>
      </trkpt>
      <trkpt lat="50.43875" lon="3.10857">
        <ele>43</ele>
        <time>2012-01-15T09:08:29Z</time>
      </trkpt>
      <trkpt lat="50.43876" lon="3.10873">
        <ele>43</ele>
        <time>2012-01-15T09:08:32Z</time>
      </trkpt>
      <trkpt lat="50.43879" lon="3.10889">
        <ele>43</ele>
        <time>2012-01-15T09:08:35Z</time>
      </trkpt>
      <trkpt lat="50.4388" lon="3.10906">
        <ele>43</ele>
        <time>2012-01-15T09:08:39Z</time>
      </trkpt>
      <trkpt lat="50.43882" lon="3.10923">
        <ele>43</ele>
        <time>2012-01-15T09:08:43Z</time>
      </trkpt>
      <trkpt lat="50.43883" lon="3.10938">
        <ele>43</ele>
        <time>2012-01-15T09:08:46Z</time>
      </trkpt>
      <trkpt lat="50.43884" lon="3.10953">
        <ele>43</ele>
        <time>2012-01-15T09:08:49Z</time>
      </trkpt>
      <trkpt lat="50.43885" lon="3.10971">
        <ele>43</ele>
        <time>2012-01-15T09:08:53Z</time>
      </trkpt>
      <trkpt lat="50.43887" lon="3.10986">
        <ele>43</ele>
        <time>2012-01-15T09:08:57Z</time>
      </trkpt>
      <trkpt lat="50.43888" lon="3.11001">
        <ele>43</ele>
        <time>2012-01-15T09:09:01Z</time>
      </trkpt>
      <trkpt lat="50.4389" lon="3.11019">
        <ele>43</ele>
        <time>2012-01-15T09:09:05Z</time>
      </trkpt>
      <trkpt lat="50.43891" lon="3.11035">
        <ele>43</ele>
        <time>2012-01-15T09:09:09Z</time>
      </trkpt>
      <trkpt lat="50.43889" lon="3.11052">
        <ele>43</ele>
        <time>2012-01-15T09:09:13Z</time>
      </trkpt>
      <trkpt lat="50.43889" lon="3.11068">
        <ele>43</ele>
        <time>2012-01-15T09:09:16Z</time>
      </trkpt>
      <trkpt lat="50.43887" lon="3.11084">
        <ele>43</ele>
        <time>2012-01-15T09:09:19Z</time>
      </trkpt>
      <trkpt lat="50.43884" lon="3.111">
        <ele>43</ele>
        <time>2012-01-15T09:09:22Z</time>
      </trkpt>
      <trkpt lat="50.43884" lon="3.11116">
        <ele>43</ele>
        <time>2012-01-15T09:09:25Z</time>
      </trkpt>
      <trkpt lat="50.43883" lon="3.11132">
        <ele>43</ele>
        <time>2012-01-15T09:09:28Z</time>
      </trkpt>
      <trkpt lat="50.43881" lon="3.11153">
        <ele>43</ele>
        <time>2012-01-15T09:09:31Z</time>
      </trkpt>
      <trkpt lat="50.43878" lon="3.11174">
        <ele>43</ele>
        <time>2012-01-15T09:09:34Z</time>
      </trkpt>
      <trkpt lat="50.43876" lon="3.11188">
        <ele>43</ele>
        <time>2012-01-15T09:09:36Z</time>
      </trkpt>
      <trkpt lat="50.43875" lon="3.11203">
        <ele>43</ele>
        <time>2012-01-15T09:09:38Z</time>
      </trkpt>
      <trkpt lat="50.43872" lon="3.11223">
        <ele>43</ele>
        <time>2012-01-15T09:09:41Z</time>
      </trkpt>
      <trkpt lat="50.43869" lon="3.11238">
        <ele>43</ele>
        <time>2012-01-15T09:09:43Z</time>
      </trkpt>
      <trkpt lat="50.43867" lon="3.11253">
        <ele>43</ele>
        <time>2012-01-15T09:09:45Z</time>
      </trkpt>
      <trkpt lat="50.43865" lon="3.11268">
        <ele>43</ele>
        <time>2012-01-15T09:09:47Z</time>
      </trkpt>
      <trkpt lat="50.43862" lon="3.11282">
        <ele>43</ele>
        <time>2012-01-15T09:09:49Z</time>
      </trkpt>
      <trkpt lat="50.43859" lon="3.11298">
        <ele>43</ele>
        <time>2012-01-15T09:09:51Z</time>
      </trkpt>
      <trkpt lat="50.43856" lon="3.11314">
        <ele>43</ele>
        <time>2012-01-15T09:09:53Z</time>
      </trkpt>
      <trkpt lat="50.43853" lon="3.11329">
        <ele>43</ele>
        <time>2012-01-15T09:09:55Z</time>
      </trkpt>
      <trkpt lat="50.4385" lon="3.11344">
        <ele>43</ele>
        <time>2012-01-15T09:09:57Z</time>
      </trkpt>
      <trkpt lat="50.43847" lon="3.11359">
        <ele>43</ele>
        <time>2012-01-15T09:09:59Z</time>
      </trkpt>
      <trkpt lat="50.43844" lon="3.11375">
        <ele>43</ele>
        <time>2012-01-15T09:10:01Z</time>
      </trkpt>
      <trkpt lat="50.4384" lon="3.1139">
        <ele>43</ele>
        <time>2012-01-15T09:10:03Z</time>
      </trkpt>
      <trkpt lat="50.43836" lon="3.11406">
        <ele>43</ele>
        <time>2012-01-15T09:10:05Z</time>
      </trkpt>
      <trkpt lat="50.43832" lon="3.11421">
        <ele>43</ele>
        <time>2012-01-15T09:10:07Z</time>
      </trkpt>
      <trkpt lat="50.43828" lon="3.11437">
        <ele>43</ele>
        <time>2012-01-15T09:10:09Z</time>
      </trkpt>
      <trkpt lat="50.43824" lon="3.11452">
        <ele>43</ele>
        <time>2012-01-15T09:10:11Z</time>
      </trkpt>
      <trkpt lat="50.4382" lon="3.11468">
        <ele>43</ele>
        <time>2012-01-15T09:10:13Z</time>
      </trkpt>
      <trkpt lat="50.43815" lon="3.11483">
        <ele>43</ele>
        <time>2012-01-15T09:10:15Z</time>
      </trkpt>
      <trkpt lat="50.43811" lon="3.11499">
        <ele>43</ele>
        <time>2012-01-15T09:10:17Z</time>
      </trkpt>
      <trkpt lat="50.43806" lon="3.11514">
        <ele>43</ele>
        <time>2012-01-15T09:10:19Z</time>
      </trkpt>
      <trkpt lat="50.43801" lon="3.1153">
        <ele>43</ele>
        <time>2012-01-15T09:10:21Z</time>
      </trkpt>
      <trkpt lat="50.43795" lon="3.11547">
        <ele>43</ele>
        <time>2012-01-15T09:10:23Z</time>
      </trkpt>
      <trkpt lat="50.43789" lon="3.11563">
        <ele>43</ele>
        <time>2012-01-15T09:10:25Z</time>
      </trkpt>
      <trkpt lat="50.43783" lon="3.1158">
        <ele>43</ele>
        <time>2012-01-15T09:10:27Z</time>
      </trkpt>
      <trkpt lat="50.43776" lon="3.11596">
        <ele>43</ele>
        <time>2012-01-15T09:10:29Z</time>
      </trkpt>
      <trkpt lat="50.43771" lon="3.11613">
        <ele>43</ele>
        <time>2012-01-15T09:10:31Z</time>
      </trkpt>
      <trkpt lat="50.43765" lon="3.1163">
        <ele>43</ele>
        <time>2012-01-15T09:10:33Z</time>
      </trkpt>
      <trkpt lat="50.43759" lon="3.11647">
        <ele>43</ele>
        <time>2012-01-15T09:10:35Z</time>
      </trkpt>
      <trkpt lat="50.43752" lon="3.11665">
        <ele>43</ele>
        <time>2012-01-15T09:10:37Z</time>
      </trkpt>
      <trkpt lat="50.43747" lon="3.11683">
        <ele>43</ele>
        <time>2012-01-15T09:10:39Z</time>
      </trkpt>
      <trkpt lat="50.43742" lon="3.11701">
        <ele>43</ele>
        <time>2012-01-15T09:10:41Z</time>
      </trkpt>
      <trkpt lat="50.43737" lon="3.11718">
        <ele>43</ele>
        <time>2012-01-15T09:10:43Z</time>
      </trkpt>
      <trkpt lat="50.43733" lon="3.11734">
        <ele>43</ele>
        <time>2012-01-15T09:10:45Z</time>
      </trkpt>
      <trkpt lat="50.43731" lon="3.1175">
        <ele>43</ele>
        <time>2012-01-15T09:10:47Z</time>
      </trkpt>
      <trkpt lat="50.43732" lon="3.11767">
        <ele>43</ele>
        <time>2012-01-15T09:10:49Z</time>
      </trkpt>
      <trkpt lat="50.43733" lon="3.11782">
        <ele>43</ele>
        <time>2012-01-15T09:10:51Z</time>
      </trkpt>
      <trkpt lat="50.43732" lon="3.11798">
        <ele>43</ele>
        <time>2012-01-15T09:10:53Z</time>
      </trkpt>
      <trkpt lat="50.43729" lon="3.11815">
        <ele>43</ele>
        <time>2012-01-15T09:10:55Z</time>
      </trkpt>
      <trkpt lat="50.43727" lon="3.11831">
        <ele>43</ele>
        <time>2012-01-15T09:10:57Z</time>
      </trkpt>
      <trkpt lat="50.43724" lon="3.11848">
        <ele>43</ele>
        <time>2012-01-15T09:10:59Z</time>
      </trkpt>
      <trkpt lat="50.4372" lon="3.11866">
        <ele>43</ele>
        <time>2012-01-15T09:11:01Z</time>
      </trkpt>
      <trkpt lat="50.43717" lon="3.11883">
        <ele>43</ele>
        <time>2012-01-15T09:11:03Z</time>
      </trkpt>
      <trkpt lat="50.43713" lon="3.11901">
        <ele>43</ele>
        <time>2012-01-15T09:11:05Z</time>
      </trkpt>
      <trkpt lat="50.43708" lon="3.11918">
        <ele>43</ele>
        <time>2012-01-15T09:11:07Z</time>
      </trkpt>
      <trkpt lat="50.43704" lon="3.11936">
        <ele>43</ele>
        <time>2012-01-15T09:11:09Z</time>
      </trkpt>
      <trkpt lat="50.437" lon="3.11954">
        <ele>43</ele>
        <time>2012-01-15T09:11:11Z</time>
      </trkpt>
      <trkpt lat="50.43696" lon="3.11971">
        <ele>43</ele>
        <time>2012-01-15T09:11:13Z</time>
      </trkpt>
      <trkpt lat="50.43692" lon="3.11989">
        <ele>43</ele>
        <time>2012-01-15T09:11:15Z</time>
      </trkpt>
      <trkpt lat="50.43687" lon="3.12008">
        <ele>43</ele>
        <time>2012-01-15T09:11:17Z</time>
      </trkpt>
      <trkpt lat="50.43683" lon="3.12026">
        <ele>43</ele>
        <time>2012-01-15T09:11:19Z</time>
      </trkpt>
      <trkpt lat="50.43679" lon="3.12043">
        <ele>43</ele>
        <time>2012-01-15T09:11:21Z</time>
      </trkpt>
      <trkpt lat="50.43674" lon="3.12059">
        <ele>43</ele>
        <time>2012-01-15T09:11:23Z</time>
      </trkpt>
      <trkpt lat="50.43669" lon="3.12073">
        <ele>43</ele>
        <time>2012-01-15T09:11:25Z</time>
      </trkpt>
      <trkpt lat="50.43663" lon="3.12087">
        <ele>43</ele>
        <time>2012-01-15T09:11:27Z</time>
      </trkpt>
      <trkpt lat="50.43659" lon="3.12101">
        <ele>43</ele>
        <time>2012-01-15T09:11:29Z</time>
      </trkpt>
      <trkpt lat="50.43655" lon="3.12114">
        <ele>43</ele>
        <time>2012-01-15T09:11:31Z</time>
      </trkpt>
      <trkpt lat="50.4365" lon="3.12128">
        <ele>43</ele>
        <time>2012-01-15T09:11:33Z</time>
      </trkpt>
      <trkpt lat="50.43646" lon="3.1214">
        <ele>43</ele>
        <time>2012-01-15T09:11:35Z</time>
      </trkpt>
      <trkpt lat="50.43641" lon="3.12154">
        <ele>43</ele>
        <time>2012-01-15T09:11:37Z</time>
      </trkpt>
      <trkpt lat="50.43636" lon="3.12167">
        <ele>43</ele>
        <time>2012-01-15T09:11:39Z</time>
      </trkpt>
      <trkpt lat="50.43631" lon="3.12181">
        <ele>43</ele>
        <time>2012-01-15T09:11:41Z</time>
      </trkpt>
      <trkpt lat="50.43627" lon="3.12194">
        <ele>43</ele>
        <time>2012-01-15T09:11:43Z</time>
      </trkpt>
      <trkpt lat="50.43623" lon="3.12208">
        <ele>43</ele>
        <time>2012-01-15T09:11:45Z</time>
      </trkpt>
      <trkpt lat="50.43619" lon="3.1222">
        <ele>43</ele>
        <time>2012-01-15T09:11:47Z</time>
      </trkpt>
      <trkpt lat="50.43614" lon="3.12234">
        <ele>43</ele>
        <time>2012-01-15T09:11:49Z</time>
      </trkpt>
      <trkpt lat="50.43609" lon="3.12246">
        <ele>43</ele>
        <time>2012-01-15T09:11:51Z</time>
      </trkpt>
      <trkpt lat="50.43605" lon="3.1226">
        <ele>43</ele>
        <time>2012-01-15T09:11:53Z</time>
      </trkpt>
      <trkpt lat="50.436" lon="3.12274">
        <ele>43</ele>
        <time>2012-01-15T09:11:55Z</time>
      </trkpt>
      <trkpt lat="50.43594" lon="3.12288">
        <ele>43</ele>
        <time>2012-01-15T09:11:57Z</time>
      </trkpt>
      <trkpt lat="50.43589" lon="3.12301">
        <ele>43</ele>
        <time>2012-01-15T09:11:59Z</time>
      </trkpt>
      <trkpt lat="50.43584" lon="3.12316">
        <ele>43</ele>
        <time>2012-01-15T09:12:01Z</time>
      </trkpt>
      <trkpt lat="50.4358" lon="3.1233">
        <ele>43</ele>
        <time>2012-01-15T09:12:03Z</time>
      </trkpt>
      <trkpt lat="50.43574" lon="3.12344">
        <ele>43</ele>
        <time>2012-01-15T09:12:05Z</time>
      </trkpt>
      <trkpt lat="50.43569" lon="3.1236">
        <ele>43</ele>
        <time>2012-01-15T09:12:07Z</time>
      </trkpt>
      <trkpt lat="50.43564" lon="3.12375">
        <ele>43</ele>
        <time>2012-01-15T09:12:09Z</time>
      </trkpt>
      <trkpt lat="50.43559" lon="3.1239">
        <ele>43</ele>
        <time>2012-01-15T09:12:11Z</time>
      </trkpt>
      <trkpt lat="50.43553" lon="3.12406">
        <ele>43</ele>
        <time>2012-01-15T09:12:13Z</time>
      </trkpt>
      <trkpt lat="50.43548" lon="3.12422">
        <ele>43</ele>
        <time>2012-01-15T09:12:15Z</time>
      </trkpt>
      <trkpt lat="50.43542" lon="3.12439">
        <ele>43</ele>
        <time>2012-01-15T09:12:17Z</time>
      </trkpt>
      <trkpt lat="50.43537" lon="3.12454">
        <ele>43</ele>
        <time>2012-01-15T09:12:19Z</time>
      </trkpt>
      <trkpt lat="50.43531" lon="3.12469">
        <ele>43</ele>
        <time>2012-01-15T09:12:21Z</time>
      </trkpt>
      <trkpt lat="50.43526" lon="3.12484">
        <ele>43</ele>
        <time>2012-01-15T09:12:23Z</time>
      </trkpt>
      <trkpt lat="50.43521" lon="3.12499">
        <ele>43</ele>
        <time>2012-01-15T09:12:25Z</time>
      </trkpt>
      <trkpt lat="50.43516" lon="3.12513">
        <ele>43</ele>
        <time>2012-01-15T09:12:27Z</time>
      </trkpt>
      <trkpt lat="50.43511" lon="3.12528">
        <ele>43</ele>
        <time>2012-01-15T09:12:29Z</time>
      </trkpt>
      <trkpt lat="50.43506" lon="3.12542">
        <ele>43</ele>
        <time>2012-01-15T09:12:31Z</time>
      </trkpt>
      <trkpt lat="50.435" lon="3.12555">
        <ele>43</ele>
        <time>2012-01-15T09:12:33Z</time>
      </trkpt>
      <trkpt lat="50.43494" lon="3.1257">
        <ele>43</ele>
        <time>2012-01-15T09:12:35Z</time>
      </trkpt>
      <trkpt lat="50.43489" lon="3.12584">
        <ele>43</ele>
        <time>2012-01-15T09:12:37Z</time>
      </trkpt>
      <trkpt lat="50.43484" lon="3.12598">
        <ele>43</ele>
        <time>2012-01-15T09:12:39Z</time>
      </trkpt>
      <trkpt lat="50.43479" lon="3.12612">
        <ele>43</ele>
        <time>2012-01-15T09:12:41Z</time>
      </trkpt>
      <trkpt lat="50.43474" lon="3.12625">
        <ele>43</ele>
        <time>2012-01-15T09:12:43Z</time>
      </trkpt>
      <trkpt lat="50.43469" lon="3.1264">
        <ele>43</ele>
        <time>2012-01-15T09:12:45Z</time>
      </trkpt>
      <trkpt lat="50.43465" lon="3.12653">
        <ele>43</ele>
        <time>2012-01-15T09:12:47Z</time>
      </trkpt>
      <trkpt lat="50.43459" lon="3.12673">
        <ele>43</ele>
        <time>2012-01-15T09:12:50Z</time>
      </trkpt>
      <trkpt lat="50.43456" lon="3.12687">
        <ele>43</ele>
        <time>2012-01-15T09:12:52Z</time>
      </trkpt>
      <trkpt lat="50.43452" lon="3.12699">
        <ele>43</ele>
        <time>2012-01-15T09:12:54Z</time>
      </trkpt>
      <trkpt lat="50.43448" lon="3.12713">
        <ele>43</ele>
        <time>2012-01-15T09:12:56Z</time>
      </trkpt>
      <trkpt lat="50.43443" lon="3.12725">
        <ele>43</ele>
        <time>2012-01-15T09:12:58Z</time>
      </trkpt>
      <trkpt lat="50.43437" lon="3.12742">
        <ele>43</ele>
        <time>2012-01-15T09:13:01Z</time>
      </trkpt>
      <trkpt lat="50.43431" lon="3.12757">
        <ele>43</ele>
        <time>2012-01-15T09:13:04Z</time>
      </trkpt>
      <trkpt lat="50.43422" lon="3.12752">
        <ele>43</ele>
        <time>2012-01-15T09:13:07Z</time>
      </trkpt>
      <trkpt lat="50.43413" lon="3.12739">
        <ele>43</ele>
        <time>2012-01-15T09:13:10Z</time>
      </trkpt>
      <trkpt lat="50.43403" lon="3.1273">
        <ele>43</ele>
        <time>2012-01-15T09:13:13Z</time>
      </trkpt>
      <trkpt lat="50.43394" lon="3.12722">
        <ele>43</ele>
        <time>2012-01-15T09:13:16Z</time>
      </trkpt>
      <trkpt lat="50.43384" lon="3.12728">
        <ele>43</ele>
        <time>2012-01-15T09:13:20Z</time>
      </trkpt>
      <trkpt lat="50.43383" lon="3.12747">
        <ele>43</ele>
        <time>2012-01-15T09:13:23Z</time>
      </trkpt>
      <trkpt lat="50.43383" lon="3.12762">
        <ele>43</ele>
        <time>2012-01-15T09:13:25Z</time>
      </trkpt>
      <trkpt lat="50.43382" lon="3.12778">
        <ele>43</ele>
        <time>2012-01-15T09:13:27Z</time>
      </trkpt>
      <trkpt lat="50.43382" lon="3.12793">
        <ele>43</ele>
        <time>2012-01-15T09:13:29Z</time>
      </trkpt>
      <trkpt lat="50.43381" lon="3.1281">
        <ele>43</ele>
        <time>2012-01-15T09:13:31Z</time>
      </trkpt>
      <trkpt lat="50.43381" lon="3.12825">
        <ele>43</ele>
        <time>2012-01-15T09:13:33Z</time>
      </trkpt>
      <trkpt lat="50.4338" lon="3.12842">
        <ele>43</ele>
        <time>2012-01-15T09:13:35Z</time>
      </trkpt>
      <trkpt lat="50.43378" lon="3.1286">
        <ele>43</ele>
        <time>2012-01-15T09:13:37Z</time>
      </trkpt>
      <trkpt lat="50.43377" lon="3.12879">
        <ele>43</ele>
        <time>2012-01-15T09:13:39Z</time>
      </trkpt>
      <trkpt lat="50.43374" lon="3.12897">
        <ele>43</ele>
        <time>2012-01-15T09:13:41Z</time>
      </trkpt>
      <trkpt lat="50.43372" lon="3.12913">
        <ele>43</ele>
        <time>2012-01-15T09:13:43Z</time>
      </trkpt>
      <trkpt lat="50.4337" lon="3.12929">
        <ele>43</ele>
        <time>2012-01-15T09:13:45Z</time>
      </trkpt>
      <trkpt lat="50.43367" lon="3.12945">
        <ele>43</ele>
        <time>2012-01-15T09:13:47Z</time>
      </trkpt>
      <trkpt lat="50.43364" lon="3.12961">
        <ele>43</ele>
        <time>2012-01-15T09:13:49Z</time>
      </trkpt>
      <trkpt lat="50.43361" lon="3.12978">
        <ele>43</ele>
        <time>2012-01-15T09:13:51Z</time>
      </trkpt>
      <trkpt lat="50.43358" lon="3.12995">
        <ele>43</ele>
        <time>2012-01-15T09:13:53Z</time>
      </trkpt>
      <trkpt lat="50.43355" lon="3.13012">
        <ele>43</ele>
        <time>2012-01-15T09:13:55Z</time>
      </trkpt>
      <trkpt lat="50.43353" lon="3.13028">
        <ele>43</ele>
        <time>2012-01-15T09:13:57Z</time>
      </trkpt>
      <trkpt lat="50.4335" lon="3.13044">
        <ele>43</ele>
        <time>2012-01-15T09:13:59Z</time>
      </trkpt>
      <trkpt lat="50.43348" lon="3.1306">
        <ele>43</ele>
        <time>2012-01-15T09:14:01Z</time>
      </trkpt>
      <trkpt lat="50.43345" lon="3.13077">
        <ele>43</ele>
        <time>2012-01-15T09:14:03Z</time>
      </trkpt>
      <trkpt lat="50.43342" lon="3.13093">
        <ele>43</ele>
        <time>2012-01-15T09:14:05Z</time>
      </trkpt>
      <trkpt lat="50.43338" lon="3.13111">
        <ele>43</ele>
        <time>2012-01-15T09:14:07Z</time>
      </trkpt>
      <trkpt lat="50.43335" lon="3.13128">
        <ele>43</ele>
        <time>2012-01-15T09:14:09Z</time>
      </trkpt>
      <trkpt lat="50.43332" lon="3.13144">
        <ele>43</ele>
        <time>2012-01-15T09:14:11Z</time>
      </trkpt>
      <trkpt lat="50.43328" lon="3.13161">
        <ele>43</ele>
        <time>2012-01-15T09:14:13Z</time>
      </trkpt>
      <trkpt lat="50.43325" lon="3.13177">
        <ele>43</ele>
        <time>2012-01-15T09:14:15Z</time>
      </trkpt>
      <trkpt lat="50.43321" lon="3.13193">
        <ele>43</ele>
        <time>2012-01-15T09:14:17Z</time>
      </trkpt>
      <trkpt lat="50.43318" lon="3.13209">
        <ele>43</ele>
        <time>2012-01-15T09:14:19Z</time>
      </trkpt>
      <trkpt lat="50.43314" lon="3.13225">
        <ele>43</ele>
        <time>2012-01-15T09:14:21Z</time>
      </trkpt>
      <trkpt lat="50.43311" lon="3.13239">
        <ele>43</ele>
        <time>2012-01-15T09:14:23Z</time>
      </trkpt>
      <trkpt lat="50.43307" lon="3.13254">
        <ele>43</ele>
        <time>2012-01-15T09:14:25Z</time>
      </trkpt>
      <trkpt lat="50.43305" lon="3.13269">
        <ele>43</ele>
        <time>2012-01-15T09:14:27Z</time>
      </trkpt>
      <trkpt lat="50.43306" lon="3.13283">
        <ele>43</ele>
        <time>2012-01-15T09:14:29Z</time>
      </trkpt>
      <trkpt lat="50.43315" lon="3.13295">
        <ele>43</ele>
        <time>2012-01-15T09:14:32Z</time>
      </trkpt>
      <trkpt lat="50.43329" lon="3.13296">
        <ele>43</ele>
        <time>2012-01-15T09:14:35Z</time>
      </trkpt>
      <trkpt lat="50.43338" lon="3.13295">
        <ele>43</ele>
        <time>2012-01-15T09:14:37Z</time>
      </trkpt>
      <trkpt lat="50.4335" lon="3.13292">
        <ele>43</ele>
        <time>2012-01-15T09:14:40Z</time>
      </trkpt>
      <trkpt lat="50.43359" lon="3.13298">
        <ele>43</ele>
        <time>2012-01-15T09:14:43Z</time>
      </trkpt>
      <trkpt lat="50.43359" lon="3.13316">
        <ele>43</ele>
        <time>2012-01-15T09:14:46Z</time>
      </trkpt>
      <trkpt lat="50.43359" lon="3.13336">
        <ele>43</ele>
        <time>2012-01-15T09:14:49Z</time>
      </trkpt>
      <trkpt lat="50.43359" lon="3.1335">
        <ele>43</ele>
        <time>2012-01-15T09:14:51Z</time>
      </trkpt>
      <trkpt lat="50.43359" lon="3.13366">
        <ele>43</ele>
        <time>2012-01-15T09:14:53Z</time>
      </trkpt>
      <trkpt lat="50.43359" lon="3.13381">
        <ele>43</ele>
        <time>2012-01-15T09:14:55Z</time>
      </trkpt>
      <trkpt lat="50.43359" lon="3.13396">
        <ele>43</ele>
        <time>2012-01-15T09:14:57Z</time>
      </trkpt>
      <trkpt lat="50.43359" lon="3.13411">
        <ele>43</ele>
        <time>2012-01-15T09:14:59Z</time>
      </trkpt>
      <trkpt lat="50.4336" lon="3.13427">
        <ele>43</ele>
        <time>2012-01-15T09:15:01Z</time>
      </trkpt>
      <trkpt lat="50.4336" lon="3.13441">
        <ele>43</ele>
        <time>2012-01-15T09:15:03Z</time>
      </trkpt>
      <trkpt lat="50.4336" lon="3.13457">
        <ele>43</ele>
        <time>2012-01-15T09:15:05Z</time>
      </trkpt>
      <trkpt lat="50.4336" lon="3.13473">
        <ele>43</ele>
        <time>2012-01-15T09:15:07Z</time>
      </trkpt>
      <trkpt lat="50.4336" lon="3.13488">
        <ele>43</ele>
        <time>2012-01-15T09:15:09Z</time>
      </trkpt>
      <trkpt lat="50.4336" lon="3.13503">
        <ele>43</ele>
        <time>2012-01-15T09:15:11Z</time>
      </trkpt>
      <trkpt lat="50.43361" lon="3.13519">
        <ele>43</ele>
        <time>2012-01-15T09:15:13Z</time>
      </trkpt>
      <trkpt lat="50.43362" lon="3.13535">
        <ele>43</ele>
        <time>2012-01-15T09:15:15Z</time>
      </trkpt>
      <trkpt lat="50.43362" lon="3.13552">
        <ele>43</ele>
        <time>2012-01-15T09:15:17Z</time>
      </trkpt>
      <trkpt lat="50.43362" lon="3.13569">
        <ele>43</ele>
        <time>2012-01-15T09:15:19Z</time>
      </trkpt>
      <trkpt lat="50.43362" lon="3.13586">
        <ele>43</ele>
        <time>2012-01-15T09:15:21Z</time>
      </trkpt>
      <trkpt lat="50.43362" lon="3.13603">
        <ele>43</ele>
        <time>2012-01-15T09:15:23Z</time>
      </trkpt>
      <trkpt lat="50.43363" lon="3.1362">
        <ele>43</ele>
        <time>2012-01-15T09:15:25Z</time>
      </trkpt>
      <trkpt lat="50.43363" lon="3.13635">
        <ele>43</ele>
        <time>2012-01-15T09:15:27Z</time>
      </trkpt>
      <trkpt lat="50.43363" lon="3.1365">
        <ele>43</ele>
        <time>2012-01-15T09:15:29Z</time>
      </trkpt>
      <trkpt lat="50.43363" lon="3.13666">
        <ele>43</ele>
        <time>2012-01-15T09:15:31Z</time>
      </trkpt>
      <trkpt lat="50.43363" lon="3.13682">
        <ele>43</ele>
        <time>2012-01-15T09:15:33Z</time>
      </trkpt>
      <trkpt lat="50.43362" lon="3.13697">
        <ele>43</ele>
        <time>2012-01-15T09:15:35Z</time>
      </trkpt>
      <trkpt lat="50.43361" lon="3.13712">
        <ele>43</ele>
        <time>2012-01-15T09:15:37Z</time>
      </trkpt>
      <trkpt lat="50.43359" lon="3.13727">
        <ele>43</ele>
        <time>2012-01-15T09:15:39Z</time>
      </trkpt>
      <trkpt lat="50.43356" lon="3.13742">
        <ele>43</ele>
        <time>2012-01-15T09:15:41Z</time>
      </trkpt>
      <trkpt lat="50.43354" lon="3.13756">
        <ele>43</ele>
        <time>2012-01-15T09:15:43Z</time>
      </trkpt>
      <trkpt lat="50.43351" lon="3.13771">
        <ele>43</ele>
        <time>2012-01-15T09:15:45Z</time>
      </trkpt>
      <trkpt lat="50.43348" lon="3.13784">
        <ele>43</ele>
        <time>2012-01-15T09:15:47Z</time>
      </trkpt>
      <trkpt lat="50.43345" lon="3.13798">
        <ele>43</ele>
        <time>2012-01-15T09:15:49Z</time>
      </trkpt>
      <trkpt lat="50.43342" lon="3.13811">
        <ele>43</ele>
        <time>2012-01-15T09:15:51Z</time>
      </trkpt>
      <trkpt lat="50.43339" lon="3.13825">
        <ele>43</ele>
        <time>2012-01-15T09:15:53Z</time>
      </trkpt>
      <trkpt lat="50.43336" lon="3.13838">
        <ele>43</ele>
        <time>2012-01-15T09:15:55Z</time>
      </trkpt>
      <trkpt lat="50.43333" lon="3.13853">
        <ele>43</ele>
        <time>2012-01-15T09:15:57Z</time>
      </trkpt>
      <trkpt lat="50.43329" lon="3.13867">
        <ele>43</ele>
        <time>2012-01-15T09:15:59Z</time>
      </trkpt>
      <trkpt lat="50.43327" lon="3.13881">
        <ele>43</ele>
        <time>2012-01-15T09:16:01Z</time>
      </trkpt>
      <trkpt lat="50.43324" lon="3.13895">
        <ele>43</ele>
        <time>2012-01-15T09:16:03Z</time>
      </trkpt>
      <trkpt lat="50.43321" lon="3.13908">
        <ele>43</ele>
        <time>2012-01-15T09:16:05Z</time>
      </trkpt>
      <trkpt lat="50.43318" lon="3.13922">
        <ele>43</ele>
        <time>2012-01-15T09:16:07Z</time>
      </trkpt>
      <trkpt lat="50.43315" lon="3.13935">
        <ele>43</ele>
        <time>2012-01-15T09:16:09Z</time>
      </trkpt>
      <trkpt lat="50.43313" lon="3.13949">
        <ele>43</ele>
        <time>2012-01-15T09:16:11Z</time>
      </trkpt>
      <trkpt lat="50.43311" lon="3.13968">
        <ele>43</ele>
        <time>2012-01-15T09:16:14Z</time>
      </trkpt>
      <trkpt lat="50.43309" lon="3.13988">
        <ele>43</ele>
        <time>2012-01-15T09:16:17Z</time>
      </trkpt>
      <trkpt lat="50.43312" lon="3.14008">
        <ele>43</ele>
        <time>2012-01-15T09:16:20Z</time>
      </trkpt>
      <trkpt lat="50.43316" lon="3.14021">
        <ele>43</ele>
        <time>2012-01-15T09:16:22Z</time>
      </trkpt>
      <trkpt lat="50.43324" lon="3.14036">
        <ele>43</ele>
        <time>2012-01-15T09:16:25Z</time>
      </trkpt>
      <trkpt lat="50.43332" lon="3.1405">
        <ele>43</ele>
        <time>2012-01-15T09:16:28Z</time>
      </trkpt>
      <trkpt lat="50.43339" lon="3.14061">
        <ele>43</ele>
        <time>2012-01-15T09:16:31Z</time>
      </trkpt>
      <trkpt lat="50.43346" lon="3.14074">
        <ele>43</ele>
        <time>2012-01-15T09:16:34Z</time>
      </trkpt>
      <trkpt lat="50.43353" lon="3.14089">
        <ele>43</ele>
        <time>2012-01-15T09:16:37Z</time>
      </trkpt>
      <trkpt lat="50.43359" lon="3.14108">
        <ele>43</ele>
        <time>2012-01-15T09:16:40Z</time>
      </trkpt>
      <trkpt lat="50.43363" lon="3.14126">
        <ele>43</ele>
        <time>2012-01-15T09:16:43Z</time>
      </trkpt>
      <trkpt lat="50.43367" lon="3.14139">
        <ele>43</ele>
        <time>2012-01-15T09:16:45Z</time>
      </trkpt>
      <trkpt lat="50.4337" lon="3.14153">
        <ele>43</ele>
        <time>2012-01-15T09:16:47Z</time>
      </trkpt>
      <trkpt lat="50.43376" lon="3.14171">
        <ele>43</ele>
        <time>2012-01-15T09:16:50Z</time>
      </trkpt>
      <trkpt lat="50.4338" lon="3.14184">
        <ele>43</ele>
        <time>2012-01-15T09:16:52Z</time>
      </trkpt>
      <trkpt lat="50.43383" lon="3.14197">
        <ele>43</ele>
        <time>2012-01-15T09:16:54Z</time>
      </trkpt>
      <trkpt lat="50.43387" lon="3.14211">
        <ele>43</ele>
        <time>2012-01-15T09:16:56Z</time>
      </trkpt>
      <trkpt lat="50.4339" lon="3.14225">
        <ele>43</ele>
        <time>2012-01-15T09:16:58Z</time>
      </trkpt>
      <trkpt lat="50.43394" lon="3.1424">
        <ele>43</ele>
        <time>2012-01-15T09:17:00Z</time>
      </trkpt>
      <trkpt lat="50.43397" lon="3.14254">
        <ele>43</ele>
        <time>2012-01-15T09:17:02Z</time>
      </trkpt>
      <trkpt lat="50.43401" lon="3.14269">
        <ele>43</ele>
        <time>2012-01-15T09:17:04Z</time>
      </trkpt>
      <trkpt lat="50.43405" lon="3.14284">
        <ele>43</ele>
        <time>2012-01-15T09:17:06Z</time>
      </trkpt>
      <trkpt lat="50.43409" lon="3.14298">
        <ele>43</ele>
        <time>2012-01-15T09:17:08Z</time>
      </trkpt>
      <trkpt lat="50.43413" lon="3.14312">
        <ele>43</ele>
        <time>2012-01-15T09:17:10Z</time>
      </trkpt>
      <trkpt lat="50.43417" lon="3.14327">
        <ele>43</ele>
        <time>2012-01-15T09:17:12Z</time>
      </trkpt>
      <trkpt lat="50.43421" lon="3.14341">
        <ele>43</ele>
        <time>2012-01-15T09:17:14Z</time>
      </trkpt>
      <trkpt lat="50.43425" lon="3.14357">
        <ele>43</ele>
        <time>2012-01-15T09:17:16Z</time>
      </trkpt>
      <trkpt lat="50.43429" lon="3.14371">
        <ele>43</ele>
        <time>2012-01-15T09:17:18Z</time>
      </trkpt>
      <trkpt lat="50.43434" lon="3.14384">
        <ele>43</ele>
        <time>2012-01-15T09:17:20Z</time>
      </trkpt>
      <trkpt lat="50.43441" lon="3.14395">
        <ele>43</ele>
        <time>2012-01-15T09:17:22Z</time>
      </trkpt>
      <trkpt lat="50.43449" lon="3.14406">
        <ele>43</ele>
        <time>2012-01-15T09:17:24Z</time>
      </trkpt>
      <trkpt lat="50.43458" lon="3.14418">
        <ele>43</ele>
        <time>2012-01-15T09:17:26Z</time>
      </trkpt>
      <trkpt lat="50.43466" lon="3.14428">
        <ele>43</ele>
        <time>2012-01-15T09:17:28Z</time>
      </trkpt>
      <trkpt lat="50.43475" lon="3.1444">
        <ele>38</ele>
        <time>2012-01-15T09:17:30Z</time>
      </trkpt>
      <trkpt lat="50.43483" lon="3.14452">
        <ele>38</ele>
        <time>2012-01-15T09:17:32Z</time>
      </trkpt>
      <trkpt lat="50.43492" lon="3.14463">
        <ele>38</ele>
        <time>2012-01-15T09:17:34Z</time>
      </trkpt>
      <trkpt lat="50.43503" lon="3.14471">
        <ele>38</ele>
        <time>2012-01-15T09:17:36Z</time>
      </trkpt>
      <trkpt lat="50.43514" lon="3.14473">
        <ele>38</ele>
        <time>2012-01-15T09:17:38Z</time>
      </trkpt>
      <trkpt lat="50.43526" lon="3.14472">
        <ele>38</ele>
        <time>2012-01-15T09:17:40Z</time>
      </trkpt>
      <trkpt lat="50.43537" lon="3.1447">
        <ele>38</ele>
        <time>2012-01-15T09:17:42Z</time>
      </trkpt>
      <trkpt lat="50.43549" lon="3.14466">
        <ele>38</ele>
        <time>2012-01-15T09:17:44Z</time>
      </trkpt>
      <trkpt lat="50.4356" lon="3.14463">
        <ele>38</ele>
        <time>2012-01-15T09:17:46Z</time>
      </trkpt>
      <trkpt lat="50.43572" lon="3.1446">
        <ele>38</ele>
        <time>2012-01-15T09:17:48Z</time>
      </trkpt>
      <trkpt lat="50.43584" lon="3.14457">
        <ele>38</ele>
        <time>2012-01-15T09:17:50Z</time>
      </trkpt>
      <trkpt lat="50.43595" lon="3.14454">
        <ele>38</ele>
        <time>2012-01-15T09:17:52Z</time>
      </trkpt>
      <trkpt lat="50.43606" lon="3.14451">
        <ele>38</ele>
        <time>2012-01-15T09:17:54Z</time>
      </trkpt>
      <trkpt lat="50.43617" lon="3.14447">
        <ele>38</ele>
        <time>2012-01-15T09:17:56Z</time>
      </trkpt>
      <trkpt lat="50.43628" lon="3.14445">
        <ele>38</ele>
        <time>2012-01-15T09:17:58Z</time>
      </trkpt>
      <trkpt lat="50.43638" lon="3.14442">
        <ele>38</ele>
        <time>2012-01-15T09:18:00Z</time>
      </trkpt>
      <trkpt lat="50.43648" lon="3.1444">
        <ele>38</ele>
        <time>2012-01-15T09:18:02Z</time>
      </trkpt>
      <trkpt lat="50.43659" lon="3.14442">
        <ele>38</ele>
        <time>2012-01-15T09:18:04Z</time>
      </trkpt>
      <trkpt lat="50.43669" lon="3.14452">
        <ele>38</ele>
        <time>2012-01-15T09:18:07Z</time>
      </trkpt>
      <trkpt lat="50.43671" lon="3.14468">
        <ele>38</ele>
        <time>2012-01-15T09:18:11Z</time>
      </trkpt>
      <trkpt lat="50.43682" lon="3.14472">
        <ele>38</ele>
        <time>2012-01-15T09:18:15Z</time>
      </trkpt>
      <trkpt lat="50.43695" lon="3.1447">
        <ele>38</ele>
        <time>2012-01-15T09:18:18Z</time>
      </trkpt>
      <trkpt lat="50.43704" lon="3.14466">
        <ele>38</ele>
        <time>2012-01-15T09:18:20Z</time>
      </trkpt>
      <trkpt lat="50.43713" lon="3.14463">
        <ele>38</ele>
        <time>2012-01-15T09:18:22Z</time>
      </trkpt>
      <trkpt lat="50.43722" lon="3.14459">
        <ele>38</ele>
        <time>2012-01-15T09:18:24Z</time>
      </trkpt>
      <trkpt lat="50.43733" lon="3.14456">
        <ele>38</ele>
        <time>2012-01-15T09:18:26Z</time>
      </trkpt>
      <trkpt lat="50.43742" lon="3.14453">
        <ele>38</ele>
        <time>2012-01-15T09:18:28Z</time>
      </trkpt>
      <trkpt lat="50.43752" lon="3.1445">
        <ele>38</ele>
        <time>2012-01-15T09:18:30Z</time>
      </trkpt>
      <trkpt lat="50.43762" lon="3.14446">
        <ele>38</ele>
        <time>2012-01-15T09:18:32Z</time>
      </trkpt>
      <trkpt lat="50.43771" lon="3.14443">
        <ele>38</ele>
        <time>2012-01-15T09:18:34Z</time>
      </trkpt>
      <trkpt lat="50.43782" lon="3.14439">
        <ele>38</ele>
        <time>2012-01-15T09:18:36Z</time>
      </trkpt>
      <trkpt lat="50.43792" lon="3.14437">
        <ele>38</ele>
        <time>2012-01-15T09:18:38Z</time>
      </trkpt>
      <trkpt lat="50.43804" lon="3.14434">
        <ele>38</ele>
        <time>2012-01-15T09:18:40Z</time>
      </trkpt>
      <trkpt lat="50.43815" lon="3.14431">
        <ele>38</ele>
        <time>2012-01-15T09:18:42Z</time>
      </trkpt>
      <trkpt lat="50.43826" lon="3.14429">
        <ele>38</ele>
        <time>2012-01-15T09:18:44Z</time>
      </trkpt>
      <trkpt lat="50.43837" lon="3.14429">
        <ele>38</ele>
        <time>2012-01-15T09:18:46Z</time>
      </trkpt>
      <trkpt lat="50.43848" lon="3.14427">
        <ele>38</ele>
        <time>2012-01-15T09:18:48Z</time>
      </trkpt>
      <trkpt lat="50.43858" lon="3.14427">
        <ele>38</ele>
        <time>2012-01-15T09:18:50Z</time>
      </trkpt>
      <trkpt lat="50.43869" lon="3.14425">
        <ele>38</ele>
        <time>2012-01-15T09:18:52Z</time>
      </trkpt>
      <trkpt lat="50.43878" lon="3.14423">
        <ele>38</ele>
        <time>2012-01-15T09:18:54Z</time>
      </trkpt>
      <trkpt lat="50.43887" lon="3.14422">
        <ele>38</ele>
        <time>2012-01-15T09:18:56Z</time>
      </trkpt>
      <trkpt lat="50.43896" lon="3.14427">
        <ele>38</ele>
        <time>2012-01-15T09:18:58Z</time>
      </trkpt>
      <trkpt lat="50.439" lon="3.14445">
        <ele>38</ele>
        <time>2012-01-15T09:19:01Z</time>
      </trkpt>
      <trkpt lat="50.43901" lon="3.14465">
        <ele>33</ele>
        <time>2012-01-15T09:19:04Z</time>
      </trkpt>
      <trkpt lat="50.43901" lon="3.1448">
        <ele>33</ele>
        <time>2012-01-15T09:19:06Z</time>
      </trkpt>
      <trkpt lat="50.43903" lon="3.14494">
        <ele>33</ele>
        <time>2012-01-15T09:19:08Z</time>
      </trkpt>
      <trkpt lat="50.43903" lon="3.14509">
        <ele>33</ele>
        <time>2012-01-15T09:19:10Z</time>
      </trkpt>
      <trkpt lat="50.43903" lon="3.14524">
        <ele>33</ele>
        <time>2012-01-15T09:19:12Z</time>
      </trkpt>
      <trkpt lat="50.43903" lon="3.1454">
        <ele>33</ele>
        <time>2012-01-15T09:19:14Z</time>
      </trkpt>
      <trkpt lat="50.43903" lon="3.14554">
        <ele>33</ele>
        <time>2012-01-15T09:19:16Z</time>
      </trkpt>
      <trkpt lat="50.43904" lon="3.14569">
        <ele>33</ele>
        <time>2012-01-15T09:19:18Z</time>
      </trkpt>
      <trkpt lat="50.43904" lon="3.14584">
        <ele>33</ele>
        <time>2012-01-15T09:19:20Z</time>
      </trkpt>
      <trkpt lat="50.43905" lon="3.14598">
        <ele>33</ele>
        <time>2012-01-15T09:19:22Z</time>
      </trkpt>
      <trkpt lat="50.43907" lon="3.14613">
        <ele>33</ele>
        <time>2012-01-15T09:19:24Z</time>
      </trkpt>
      <trkpt lat="50.43906" lon="3.1463">
        <ele>33</ele>
        <time>2012-01-15T09:19:27Z</time>
      </trkpt>
      <trkpt lat="50.43899" lon="3.14642">
        <ele>33</ele>
        <time>2012-01-15T09:19:31Z</time>
      </trkpt>
      <trkpt lat="50.4389" lon="3.14645">
        <ele>33</ele>
        <time>2012-01-15T09:19:35Z</time>
      </trkpt>
      <trkpt lat="50.4388" lon="3.14647">
        <ele>33</ele>
        <time>2012-01-15T09:19:39Z</time>
      </trkpt>
      <trkpt lat="50.4387" lon="3.14647">
        <ele>33</ele>
        <time>2012-01-15T09:19:42Z</time>
      </trkpt>
      <trkpt lat="50.4386" lon="3.14648">
        <ele>33</ele>
        <time>2012-01-15T09:19:45Z</time>
      </trkpt>
      <trkpt lat="50.43849" lon="3.14648">
        <ele>33</ele>
        <time>2012-01-15T09:19:48Z</time>
      </trkpt>
      <trkpt lat="50.43838" lon="3.14645">
        <ele>33</ele>
        <time>2012-01-15T09:19:51Z</time>
      </trkpt>
      <trkpt lat="50.43829" lon="3.14639">
        <ele>33</ele>
        <time>2012-01-15T09:19:54Z</time>
      </trkpt>
      <trkpt lat="50.43819" lon="3.14634">
        <ele>33</ele>
        <time>2012-01-15T09:19:57Z</time>
      </trkpt>
      <trkpt lat="50.43808" lon="3.14637">
        <ele>33</ele>
        <time>2012-01-15T09:20:00Z</time>
      </trkpt>
      <trkpt lat="50.43798" lon="3.14641">
        <ele>33</ele>
        <time>2012-01-15T09:20:03Z</time>
      </trkpt>
      <trkpt lat="50.43786" lon="3.14648">
        <ele>33</ele>
        <time>2012-01-15T09:20:06Z</time>
      </trkpt>
      <trkpt lat="50.43774" lon="3.14655">
        <ele>33</ele>
        <time>2012-01-15T09:20:09Z</time>
      </trkpt>
      <trkpt lat="50.43763" lon="3.14662">
        <ele>33</ele>
        <time>2012-01-15T09:20:12Z</time>
      </trkpt>
      <trkpt lat="50.43751" lon="3.14665">
        <ele>33</ele>
        <time>2012-01-15T09:20:15Z</time>
      </trkpt>
      <trkpt lat="50.43742" lon="3.14665">
        <ele>33</ele>
        <time>2012-01-15T09:20:18Z</time>
      </trkpt>
      <trkpt lat="50.43733" lon="3.14663">
        <ele>33</ele>
        <time>2012-01-15T09:20:21Z</time>
      </trkpt>
      <trkpt lat="50.43721" lon="3.14663">
        <ele>33</ele>
        <time>2012-01-15T09:20:25Z</time>
      </trkpt>
      <trkpt lat="50.43712" lon="3.14665">
        <ele>33</ele>
        <time>2012-01-15T09:20:28Z</time>
      </trkpt>
      <trkpt lat="50.43702" lon="3.14667">
        <ele>33</ele>
        <time>2012-01-15T09:20:31Z</time>
      </trkpt>
      <trkpt lat="50.43702" lon="3.14685">
        <ele>33</ele>
        <time>2012-01-15T09:20:36Z</time>
      </trkpt>
      <trkpt lat="50.43706" lon="3.14701">
        <ele>33</ele>
        <time>2012-01-15T09:20:39Z</time>
      </trkpt>
      <trkpt lat="50.43708" lon="3.14716">
        <ele>33</ele>
        <time>2012-01-15T09:20:42Z</time>
      </trkpt>
      <trkpt lat="50.43712" lon="3.14733">
        <ele>33</ele>
        <time>2012-01-15T09:20:45Z</time>
      </trkpt>
      <trkpt lat="50.43714" lon="3.14753">
        <ele>33</ele>
        <time>2012-01-15T09:20:48Z</time>
      </trkpt>
      <trkpt lat="50.43717" lon="3.14772">
        <ele>33</ele>
        <time>2012-01-15T09:20:51Z</time>
      </trkpt>
      <trkpt lat="50.4372" lon="3.14785">
        <ele>33</ele>
        <time>2012-01-15T09:20:53Z</time>
      </trkpt>
      <trkpt lat="50.43721" lon="3.14805">
        <ele>33</ele>
        <time>2012-01-15T09:20:56Z</time>
      </trkpt>
      <trkpt lat="50.43722" lon="3.14819">
        <ele>33</ele>
        <time>2012-01-15T09:20:58Z</time>
      </trkpt>
      <trkpt lat="50.43724" lon="3.1484">
        <ele>28</ele>
        <time>2012-01-15T09:21:01Z</time>
      </trkpt>
      <trkpt lat="50.43727" lon="3.14859">
        <ele>28</ele>
        <time>2012-01-15T09:21:04Z</time>
      </trkpt>
      <trkpt lat="50.43728" lon="3.14878">
        <ele>28</ele>
        <time>2012-01-15T09:21:07Z</time>
      </trkpt>
      <trkpt lat="50.43731" lon="3.14891">
        <ele>28</ele>
        <time>2012-01-15T09:21:09Z</time>
      </trkpt>
      <trkpt lat="50.43733" lon="3.14911">
        <ele>28</ele>
        <time>2012-01-15T09:21:12Z</time>
      </trkpt>
      <trkpt lat="50.43736" lon="3.14931">
        <ele>28</ele>
        <time>2012-01-15T09:21:15Z</time>
      </trkpt>
      <trkpt lat="50.43739" lon="3.14951">
        <ele>28</ele>
        <time>2012-01-15T09:21:18Z</time>
      </trkpt>
      <trkpt lat="50.43741" lon="3.14966">
        <ele>28</ele>
        <time>2012-01-15T09:21:20Z</time>
      </trkpt>
      <trkpt lat="50.43743" lon="3.1498">
        <ele>28</ele>
        <time>2012-01-15T09:21:22Z</time>
      </trkpt>
      <trkpt lat="50.43745" lon="3.14994">
        <ele>28</ele>
        <time>2012-01-15T09:21:24Z</time>
      </trkpt>
      <trkpt lat="50.43746" lon="3.15009">
        <ele>28</ele>
        <time>2012-01-15T09:21:26Z</time>
      </trkpt>
      <trkpt lat="50.43748" lon="3.15022">
        <ele>28</ele>
        <time>2012-01-15T09:21:28Z</time>
      </trkpt>
      <trkpt lat="50.4375" lon="3.15043">
        <ele>28</ele>
        <time>2012-01-15T09:21:31Z</time>
      </trkpt>
      <trkpt lat="50.4375" lon="3.15057">
        <ele>28</ele>
        <time>2012-01-15T09:21:33Z</time>
      </trkpt>
      <trkpt lat="50.43752" lon="3.15078">
        <ele>28</ele>
        <time>2012-01-15T09:21:36Z</time>
      </trkpt>
      <trkpt lat="50.43754" lon="3.15092">
        <ele>28</ele>
        <time>2012-01-15T09:21:38Z</time>
      </trkpt>
      <trkpt lat="50.43757" lon="3.15114">
        <ele>28</ele>
        <time>2012-01-15T09:21:41Z</time>
      </trkpt>
      <trkpt lat="50.4376" lon="3.15128">
        <ele>28</ele>
        <time>2012-01-15T09:21:43Z</time>
      </trkpt>
      <trkpt lat="50.43762" lon="3.15143">
        <ele>28</ele>
        <time>2012-01-15T09:21:45Z</time>
      </trkpt>
      <trkpt lat="50.43763" lon="3.15159">
        <ele>28</ele>
        <time>2012-01-15T09:21:47Z</time>
      </trkpt>
      <trkpt lat="50.43764" lon="3.15173">
        <ele>28</ele>
        <time>2012-01-15T09:21:49Z</time>
      </trkpt>
      <trkpt lat="50.43765" lon="3.15188">
        <ele>28</ele>
        <time>2012-01-15T09:21:51Z</time>
      </trkpt>
      <trkpt lat="50.43766" lon="3.15203">
        <ele>28</ele>
        <time>2012-01-15T09:21:53Z</time>
      </trkpt>
      <trkpt lat="50.43768" lon="3.15222">
        <ele>28</ele>
        <time>2012-01-15T09:21:56Z</time>
      </trkpt>
      <trkpt lat="50.43771" lon="3.15236">
        <ele>28</ele>
        <time>2012-01-15T09:21:59Z</time>
      </trkpt>
      <trkpt lat="50.43774" lon="3.1525">
        <ele>33</ele>
        <time>2012-01-15T09:22:05Z</time>
      </trkpt>
      <trkpt lat="50.43774" lon="3.15265">
        <ele>33</ele>
        <time>2012-01-15T09:22:17Z</time>
      </trkpt>
      <trkpt lat="50.43767" lon="3.15273">
        <ele>33</ele>
        <time>2012-01-15T09:22:24Z</time>
      </trkpt>
      <trkpt lat="50.43757" lon="3.15277">
        <ele>33</ele>
        <time>2012-01-15T09:22:29Z</time>
      </trkpt>
      <trkpt lat="50.43747" lon="3.15283">
        <ele>33</ele>
        <time>2012-01-15T09:22:32Z</time>
      </trkpt>
      <trkpt lat="50.43739" lon="3.15288">
        <ele>33</ele>
        <time>2012-01-15T09:22:35Z</time>
      </trkpt>
      <trkpt lat="50.43729" lon="3.15294">
        <ele>33</ele>
        <time>2012-01-15T09:22:38Z</time>
      </trkpt>
      <trkpt lat="50.43718" lon="3.15302">
        <ele>40</ele>
        <time>2012-01-15T09:22:41Z</time>
      </trkpt>
      <trkpt lat="50.43708" lon="3.15308">
        <ele>40</ele>
        <time>2012-01-15T09:22:44Z</time>
      </trkpt>
      <trkpt lat="50.43697" lon="3.15314">
        <ele>40</ele>
        <time>2012-01-15T09:22:47Z</time>
      </trkpt>
      <trkpt lat="50.43685" lon="3.1532">
        <ele>40</ele>
        <time>2012-01-15T09:22:50Z</time>
      </trkpt>
      <trkpt lat="50.43674" lon="3.15326">
        <ele>40</ele>
        <time>2012-01-15T09:22:53Z</time>
      </trkpt>
      <trkpt lat="50.43664" lon="3.15331">
        <ele>40</ele>
        <time>2012-01-15T09:22:56Z</time>
      </trkpt>
      <trkpt lat="50.43655" lon="3.15337">
        <ele>40</ele>
        <time>2012-01-15T09:22:59Z</time>
      </trkpt>
      <trkpt lat="50.43646" lon="3.15341">
        <ele>40</ele>
        <time>2012-01-15T09:23:02Z</time>
      </trkpt>
      <trkpt lat="50.43637" lon="3.15351">
        <ele>40</ele>
        <time>2012-01-15T09:23:05Z</time>
      </trkpt>
      <trkpt lat="50.43626" lon="3.15355">
        <ele>40</ele>
        <time>2012-01-15T09:23:09Z</time>
      </trkpt>
      <trkpt lat="50.43616" lon="3.15359">
        <ele>40</ele>
        <time>2012-01-15T09:23:13Z</time>
      </trkpt>
      <trkpt lat="50.43607" lon="3.15361">
        <ele>40</ele>
        <time>2012-01-15T09:23:18Z</time>
      </trkpt>
      <trkpt lat="50.43597" lon="3.15362">
        <ele>40</ele>
        <time>2012-01-15T09:23:22Z</time>
      </trkpt>
      <trkpt lat="50.43588" lon="3.15357">
        <ele>40</ele>
        <time>2012-01-15T09:23:26Z</time>
      </trkpt>
      <trkpt lat="50.43579" lon="3.15351">
        <ele>40</ele>
        <time>2012-01-15T09:23:29Z</time>
      </trkpt>
      <trkpt lat="50.4357" lon="3.15346">
        <ele>40</ele>
        <time>2012-01-15T09:23:32Z</time>
      </trkpt>
      <trkpt lat="50.4356" lon="3.15343">
        <ele>40</ele>
        <time>2012-01-15T09:23:35Z</time>
      </trkpt>
      <trkpt lat="50.43549" lon="3.15338">
        <ele>40</ele>
        <time>2012-01-15T09:23:39Z</time>
      </trkpt>
      <trkpt lat="50.43541" lon="3.15335">
        <ele>40</ele>
        <time>2012-01-15T09:23:42Z</time>
      </trkpt>
      <trkpt lat="50.4353" lon="3.15328">
        <ele>40</ele>
        <time>2012-01-15T09:23:46Z</time>
      </trkpt>
      <trkpt lat="50.43519" lon="3.15322">
        <ele>40</ele>
        <time>2012-01-15T09:23:50Z</time>
      </trkpt>
      <trkpt lat="50.43509" lon="3.15317">
        <ele>40</ele>
        <time>2012-01-15T09:23:54Z</time>
      </trkpt>
      <trkpt lat="50.435" lon="3.15311">
        <ele>40</ele>
        <time>2012-01-15T09:23:57Z</time>
      </trkpt>
      <trkpt lat="50.43491" lon="3.15306">
        <ele>40</ele>
        <time>2012-01-15T09:24:00Z</time>
      </trkpt>
      <trkpt lat="50.43482" lon="3.15302">
        <ele>40</ele>
        <time>2012-01-15T09:24:03Z</time>
      </trkpt>
      <trkpt lat="50.43473" lon="3.15296">
        <ele>40</ele>
        <time>2012-01-15T09:24:06Z</time>
      </trkpt>
      <trkpt lat="50.43465" lon="3.15292">
        <ele>40</ele>
        <time>2012-01-15T09:24:09Z</time>
      </trkpt>
      <trkpt lat="50.43454" lon="3.15286">
        <ele>40</ele>
        <time>2012-01-15T09:24:13Z</time>
      </trkpt>
      <trkpt lat="50.43445" lon="3.15282">
        <ele>40</ele>
        <time>2012-01-15T09:24:16Z</time>
      </trkpt>
      <trkpt lat="50.43434" lon="3.15275">
        <ele>40</ele>
        <time>2012-01-15T09:24:20Z</time>
      </trkpt>
      <trkpt lat="50.43424" lon="3.15269">
        <ele>40</ele>
        <time>2012-01-15T09:24:24Z</time>
      </trkpt>
      <trkpt lat="50.43415" lon="3.15265">
        <ele>40</ele>
        <time>2012-01-15T09:24:27Z</time>
      </trkpt>
      <trkpt lat="50.43406" lon="3.1526">
        <ele>40</ele>
        <time>2012-01-15T09:24:30Z</time>
      </trkpt>
      <trkpt lat="50.43397" lon="3.15258">
        <ele>40</ele>
        <time>2012-01-15T09:24:33Z</time>
      </trkpt>
      <trkpt lat="50.43385" lon="3.15253">
        <ele>40</ele>
        <time>2012-01-15T09:24:38Z</time>
      </trkpt>
      <trkpt lat="50.43376" lon="3.15248">
        <ele>40</ele>
        <time>2012-01-15T09:24:42Z</time>
      </trkpt>
      <trkpt lat="50.43367" lon="3.15241">
        <ele>40</ele>
        <time>2012-01-15T09:24:46Z</time>
      </trkpt>
      <trkpt lat="50.43356" lon="3.15235">
        <ele>40</ele>
        <time>2012-01-15T09:24:50Z</time>
      </trkpt>
      <trkpt lat="50.43345" lon="3.15229">
        <ele>40</ele>
        <time>2012-01-15T09:24:54Z</time>
      </trkpt>
      <trkpt lat="50.43336" lon="3.15223">
        <ele>40</ele>
        <time>2012-01-15T09:24:57Z</time>
      </trkpt>
      <trkpt lat="50.43327" lon="3.15218">
        <ele>40</ele>
        <time>2012-01-15T09:25:01Z</time>
      </trkpt>
      <trkpt lat="50.43317" lon="3.15211">
        <ele>40</ele>
        <time>2012-01-15T09:25:05Z</time>
      </trkpt>
      <trkpt lat="50.43308" lon="3.15205">
        <ele>40</ele>
        <time>2012-01-15T09:25:08Z</time>
      </trkpt>
      <trkpt lat="50.43298" lon="3.15202">
        <ele>40</ele>
        <time>2012-01-15T09:25:11Z</time>
      </trkpt>
      <trkpt lat="50.43287" lon="3.15201">
        <ele>40</ele>
        <time>2012-01-15T09:25:15Z</time>
      </trkpt>
      <trkpt lat="50.43278" lon="3.15198">
        <ele>40</ele>
        <time>2012-01-15T09:25:19Z</time>
      </trkpt>
      <trkpt lat="50.43269" lon="3.15192">
        <ele>40</ele>
        <time>2012-01-15T09:25:28Z</time>
      </trkpt>
      <trkpt lat="50.43261" lon="3.15185">
        <ele>40</ele>
        <time>2012-01-15T09:25:35Z</time>
      </trkpt>
      <trkpt lat="50.43249" lon="3.15178">
        <ele>40</ele>
        <time>2012-01-15T09:25:39Z</time>
      </trkpt>
      <trkpt lat="50.43237" lon="3.15172">
        <ele>40</ele>
        <time>2012-01-15T09:25:42Z</time>
      </trkpt>
      <trkpt lat="50.43227" lon="3.15168">
        <ele>40</ele>
        <time>2012-01-15T09:25:44Z</time>
      </trkpt>
      <trkpt lat="50.43218" lon="3.15162">
        <ele>40</ele>
        <time>2012-01-15T09:25:46Z</time>
      </trkpt>
      <trkpt lat="50.43208" lon="3.15157">
        <ele>40</ele>
        <time>2012-01-15T09:25:48Z</time>
      </trkpt>
      <trkpt lat="50.43198" lon="3.15151">
        <ele>40</ele>
        <time>2012-01-15T09:25:51Z</time>
      </trkpt>
      <trkpt lat="50.43186" lon="3.15144">
        <ele>40</ele>
        <time>2012-01-15T09:25:55Z</time>
      </trkpt>
      <trkpt lat="50.43175" lon="3.15138">
        <ele>40</ele>
        <time>2012-01-15T09:25:58Z</time>
      </trkpt>
      <trkpt lat="50.43161" lon="3.15133">
        <ele>40</ele>
        <time>2012-01-15T09:26:01Z</time>
      </trkpt>
      <trkpt lat="50.43153" lon="3.15128">
        <ele>40</ele>
        <time>2012-01-15T09:26:03Z</time>
      </trkpt>
      <trkpt lat="50.43144" lon="3.15123">
        <ele>40</ele>
        <time>2012-01-15T09:26:05Z</time>
      </trkpt>
      <trkpt lat="50.43135" lon="3.15117">
        <ele>40</ele>
        <time>2012-01-15T09:26:07Z</time>
      </trkpt>
      <trkpt lat="50.43126" lon="3.15112">
        <ele>40</ele>
        <time>2012-01-15T09:26:09Z</time>
      </trkpt>
      <trkpt lat="50.43117" lon="3.15106">
        <ele>40</ele>
        <time>2012-01-15T09:26:11Z</time>
      </trkpt>
      <trkpt lat="50.43109" lon="3.15102">
        <ele>40</ele>
        <time>2012-01-15T09:26:13Z</time>
      </trkpt>
      <trkpt lat="50.431" lon="3.15097">
        <ele>40</ele>
        <time>2012-01-15T09:26:16Z</time>
      </trkpt>
      <trkpt lat="50.43089" lon="3.15093">
        <ele>40</ele>
        <time>2012-01-15T09:26:19Z</time>
      </trkpt>
      <trkpt lat="50.43078" lon="3.15086">
        <ele>40</ele>
        <time>2012-01-15T09:26:22Z</time>
      </trkpt>
      <trkpt lat="50.43069" lon="3.15073">
        <ele>40</ele>
        <time>2012-01-15T09:26:25Z</time>
      </trkpt>
      <trkpt lat="50.43067" lon="3.15058">
        <ele>40</ele>
        <time>2012-01-15T09:26:28Z</time>
      </trkpt>
      <trkpt lat="50.43068" lon="3.15044">
        <ele>40</ele>
        <time>2012-01-15T09:26:31Z</time>
      </trkpt>
      <trkpt lat="50.43076" lon="3.15032">
        <ele>40</ele>
        <time>2012-01-15T09:26:35Z</time>
      </trkpt>
      <trkpt lat="50.43084" lon="3.15025">
        <ele>40</ele>
        <time>2012-01-15T09:26:38Z</time>
      </trkpt>
      <trkpt lat="50.43093" lon="3.15017">
        <ele>40</ele>
        <time>2012-01-15T09:26:41Z</time>
      </trkpt>
      <trkpt lat="50.43102" lon="3.15006">
        <ele>40</ele>
        <time>2012-01-15T09:26:44Z</time>
      </trkpt>
      <trkpt lat="50.4311" lon="3.14993">
        <ele>40</ele>
        <time>2012-01-15T09:26:47Z</time>
      </trkpt>
      <trkpt lat="50.43118" lon="3.14984">
        <ele>40</ele>
        <time>2012-01-15T09:26:50Z</time>
      </trkpt>
      <trkpt lat="50.43127" lon="3.14975">
        <ele>40</ele>
        <time>2012-01-15T09:26:53Z</time>
      </trkpt>
      <trkpt lat="50.43126" lon="3.14957">
        <ele>40</ele>
        <time>2012-01-15T09:26:57Z</time>
      </trkpt>
      <trkpt lat="50.43123" lon="3.14939">
        <ele>40</ele>
        <time>2012-01-15T09:27:00Z</time>
      </trkpt>
      <trkpt lat="50.4312" lon="3.1492">
        <ele>40</ele>
        <time>2012-01-15T09:27:03Z</time>
      </trkpt>
      <trkpt lat="50.43117" lon="3.14904">
        <ele>40</ele>
        <time>2012-01-15T09:27:06Z</time>
      </trkpt>
      <trkpt lat="50.43113" lon="3.14887">
        <ele>40</ele>
        <time>2012-01-15T09:27:09Z</time>
      </trkpt>
      <trkpt lat="50.4311" lon="3.14869">
        <ele>40</ele>
        <time>2012-01-15T09:27:12Z</time>
      </trkpt>
      <trkpt lat="50.43108" lon="3.14853">
        <ele>40</ele>
        <time>2012-01-15T09:27:17Z</time>
      </trkpt>
      <trkpt lat="50.43103" lon="3.14839">
        <ele>40</ele>
        <time>2012-01-15T09:27:21Z</time>
      </trkpt>
      <trkpt lat="50.43093" lon="3.14835">
        <ele>40</ele>
        <time>2012-01-15T09:27:26Z</time>
      </trkpt>
      <trkpt lat="50.43083" lon="3.14842">
        <ele>40</ele>
        <time>2012-01-15T09:27:30Z</time>
      </trkpt>
      <trkpt lat="50.43074" lon="3.14847">
        <ele>40</ele>
        <time>2012-01-15T09:27:33Z</time>
      </trkpt>
      <trkpt lat="50.43063" lon="3.14848">
        <ele>40</ele>
        <time>2012-01-15T09:27:36Z</time>
      </trkpt>
      <trkpt lat="50.43053" lon="3.14853">
        <ele>40</ele>
        <time>2012-01-15T09:27:39Z</time>
      </trkpt>
      <trkpt lat="50.43043" lon="3.14858">
        <ele>40</ele>
        <time>2012-01-15T09:27:42Z</time>
      </trkpt>
      <trkpt lat="50.43031" lon="3.14863">
        <ele>40</ele>
        <time>2012-01-15T09:27:45Z</time>
      </trkpt>
      <trkpt lat="50.43021" lon="3.14868">
        <ele>40</ele>
        <time>2012-01-15T09:27:48Z</time>
      </trkpt>
      <trkpt lat="50.4301" lon="3.14875">
        <ele>40</ele>
        <time>2012-01-15T09:27:51Z</time>
      </trkpt>
      <trkpt lat="50.43002" lon="3.14882">
        <ele>40</ele>
        <time>2012-01-15T09:27:53Z</time>
      </trkpt>
      <trkpt lat="50.42989" lon="3.1489">
        <ele>40</ele>
        <time>2012-01-15T09:27:56Z</time>
      </trkpt>
      <trkpt lat="50.4298" lon="3.14895">
        <ele>40</ele>
        <time>2012-01-15T09:27:58Z</time>
      </trkpt>
      <trkpt lat="50.42971" lon="3.14898">
        <ele>34</ele>
        <time>2012-01-15T09:28:00Z</time>
      </trkpt>
      <trkpt lat="50.42959" lon="3.14904">
        <ele>34</ele>
        <time>2012-01-15T09:28:03Z</time>
      </trkpt>
      <trkpt lat="50.42948" lon="3.1491">
        <ele>34</ele>
        <time>2012-01-15T09:28:06Z</time>
      </trkpt>
      <trkpt lat="50.42937" lon="3.14917">
        <ele>34</ele>
        <time>2012-01-15T09:28:09Z</time>
      </trkpt>
      <trkpt lat="50.42925" lon="3.14923">
        <ele>34</ele>
        <time>2012-01-15T09:28:12Z</time>
      </trkpt>
      <trkpt lat="50.42916" lon="3.14928">
        <ele>34</ele>
        <time>2012-01-15T09:28:14Z</time>
      </trkpt>
      <trkpt lat="50.42904" lon="3.14935">
        <ele>34</ele>
        <time>2012-01-15T09:28:17Z</time>
      </trkpt>
      <trkpt lat="50.42895" lon="3.1494">
        <ele>34</ele>
        <time>2012-01-15T09:28:19Z</time>
      </trkpt>
      <trkpt lat="50.42884" lon="3.14946">
        <ele>34</ele>
        <time>2012-01-15T09:28:22Z</time>
      </trkpt>
      <trkpt lat="50.42874" lon="3.1495">
        <ele>34</ele>
        <time>2012-01-15T09:28:25Z</time>
      </trkpt>
      <trkpt lat="50.42862" lon="3.14957">
        <ele>34</ele>
        <time>2012-01-15T09:28:28Z</time>
      </trkpt>
      <trkpt lat="50.42851" lon="3.14963">
        <ele>34</ele>
        <time>2012-01-15T09:28:30Z</time>
      </trkpt>
      <trkpt lat="50.42842" lon="3.14968">
        <ele>34</ele>
        <time>2012-01-15T09:28:32Z</time>
      </trkpt>
      <trkpt lat="50.42831" lon="3.14975">
        <ele>34</ele>
        <time>2012-01-15T09:28:34Z</time>
      </trkpt>
      <trkpt lat="50.42822" lon="3.14985">
        <ele>34</ele>
        <time>2012-01-15T09:28:36Z</time>
      </trkpt>
      <trkpt lat="50.42812" lon="3.14997">
        <ele>34</ele>
        <time>2012-01-15T09:28:38Z</time>
      </trkpt>
      <trkpt lat="50.42802" lon="3.15009">
        <ele>34</ele>
        <time>2012-01-15T09:28:40Z</time>
      </trkpt>
      <trkpt lat="50.42791" lon="3.15016">
        <ele>29</ele>
        <time>2012-01-15T09:28:42Z</time>
      </trkpt>
      <trkpt lat="50.42779" lon="3.15013">
        <ele>29</ele>
        <time>2012-01-15T09:28:44Z</time>
      </trkpt>
      <trkpt lat="50.42767" lon="3.15005">
        <ele>29</ele>
        <time>2012-01-15T09:28:46Z</time>
      </trkpt>
      <trkpt lat="50.42757" lon="3.14994">
        <ele>29</ele>
        <time>2012-01-15T09:28:48Z</time>
      </trkpt>
      <trkpt lat="50.42747" lon="3.14981">
        <ele>29</ele>
        <time>2012-01-15T09:28:50Z</time>
      </trkpt>
      <trkpt lat="50.42736" lon="3.14967">
        <ele>29</ele>
        <time>2012-01-15T09:28:52Z</time>
      </trkpt>
      <trkpt lat="50.42726" lon="3.14954">
        <ele>29</ele>
        <time>2012-01-15T09:28:54Z</time>
      </trkpt>
      <trkpt lat="50.42715" lon="3.1494">
        <ele>29</ele>
        <time>2012-01-15T09:28:56Z</time>
      </trkpt>
      <trkpt lat="50.42704" lon="3.1493">
        <ele>29</ele>
        <time>2012-01-15T09:28:58Z</time>
      </trkpt>
      <trkpt lat="50.42694" lon="3.14918">
        <ele>29</ele>
        <time>2012-01-15T09:29:00Z</time>
      </trkpt>
      <trkpt lat="50.42685" lon="3.14907">
        <ele>29</ele>
        <time>2012-01-15T09:29:02Z</time>
      </trkpt>
      <trkpt lat="50.42676" lon="3.14897">
        <ele>29</ele>
        <time>2012-01-15T09:29:04Z</time>
      </trkpt>
      <trkpt lat="50.42669" lon="3.14888">
        <ele>29</ele>
        <time>2012-01-15T09:29:06Z</time>
      </trkpt>
      <trkpt lat="50.4266" lon="3.14878">
        <ele>29</ele>
        <time>2012-01-15T09:29:09Z</time>
      </trkpt>
      <trkpt lat="50.42651" lon="3.14879">
        <ele>29</ele>
        <time>2012-01-15T09:29:13Z</time>
      </trkpt>
      <trkpt lat="50.42648" lon="3.14894">
        <ele>29</ele>
        <time>2012-01-15T09:29:16Z</time>
      </trkpt>
      <trkpt lat="50.4265" lon="3.14913">
        <ele>29</ele>
        <time>2012-01-15T09:29:19Z</time>
      </trkpt>
      <trkpt lat="50.42651" lon="3.14929">
        <ele>29</ele>
        <time>2012-01-15T09:29:21Z</time>
      </trkpt>
      <trkpt lat="50.42652" lon="3.14945">
        <ele>29</ele>
        <time>2012-01-15T09:29:23Z</time>
      </trkpt>
      <trkpt lat="50.42655" lon="3.14962">
        <ele>29</ele>
        <time>2012-01-15T09:29:25Z</time>
      </trkpt>
      <trkpt lat="50.42657" lon="3.1498">
        <ele>29</ele>
        <time>2012-01-15T09:29:27Z</time>
      </trkpt>
      <trkpt lat="50.42659" lon="3.14997">
        <ele>29</ele>
        <time>2012-01-15T09:29:29Z</time>
      </trkpt>
      <trkpt lat="50.42661" lon="3.15015">
        <ele>29</ele>
        <time>2012-01-15T09:29:31Z</time>
      </trkpt>
      <trkpt lat="50.42663" lon="3.15033">
        <ele>29</ele>
        <time>2012-01-15T09:29:33Z</time>
      </trkpt>
      <trkpt lat="50.42664" lon="3.1505">
        <ele>29</ele>
        <time>2012-01-15T09:29:35Z</time>
      </trkpt>
      <trkpt lat="50.42667" lon="3.15069">
        <ele>29</ele>
        <time>2012-01-15T09:29:37Z</time>
      </trkpt>
      <trkpt lat="50.42669" lon="3.15088">
        <ele>29</ele>
        <time>2012-01-15T09:29:39Z</time>
      </trkpt>
      <trkpt lat="50.42671" lon="3.15107">
        <ele>29</ele>
        <time>2012-01-15T09:29:41Z</time>
      </trkpt>
      <trkpt lat="50.42674" lon="3.15125">
        <ele>29</ele>
        <time>2012-01-15T09:29:43Z</time>
      </trkpt>
      <trkpt lat="50.42676" lon="3.15145">
        <ele>29</ele>
        <time>2012-01-15T09:29:45Z</time>
      </trkpt>
      <trkpt lat="50.42679" lon="3.15164">
        <ele>29</ele>
        <time>2012-01-15T09:29:47Z</time>
      </trkpt>
      <trkpt lat="50.42682" lon="3.15183">
        <ele>29</ele>
        <time>2012-01-15T09:29:49Z</time>
      </trkpt>
      <trkpt lat="50.42685" lon="3.15202">
        <ele>29</ele>
        <time>2012-01-15T09:29:51Z</time>
      </trkpt>
      <trkpt lat="50.42688" lon="3.15221">
        <ele>29</ele>
        <time>2012-01-15T09:29:53Z</time>
      </trkpt>
      <trkpt lat="50.42691" lon="3.15239">
        <ele>29</ele>
        <time>2012-01-15T09:29:55Z</time>
      </trkpt>
      <trkpt lat="50.42694" lon="3.15258">
        <ele>29</ele>
        <time>2012-01-15T09:29:57Z</time>
      </trkpt>
      <trkpt lat="50.42697" lon="3.15275">
        <ele>29</ele>
        <time>2012-01-15T09:29:59Z</time>
      </trkpt>
      <trkpt lat="50.42701" lon="3.15293">
        <ele>29</ele>
        <time>2012-01-15T09:30:01Z</time>
      </trkpt>
      <trkpt lat="50.42704" lon="3.15311">
        <ele>29</ele>
        <time>2012-01-15T09:30:03Z</time>
      </trkpt>
      <trkpt lat="50.42707" lon="3.15329">
        <ele>29</ele>
        <time>2012-01-15T09:30:05Z</time>
      </trkpt>
      <trkpt lat="50.4271" lon="3.15348">
        <ele>29</ele>
        <time>2012-01-15T09:30:07Z</time>
      </trkpt>
      <trkpt lat="50.42713" lon="3.15366">
        <ele>29</ele>
        <time>2012-01-15T09:30:09Z</time>
      </trkpt>
      <trkpt lat="50.42715" lon="3.15385">
        <ele>29</ele>
        <time>2012-01-15T09:30:11Z</time>
      </trkpt>
      <trkpt lat="50.42714" lon="3.15404">
        <ele>29</ele>
        <time>2012-01-15T09:30:13Z</time>
      </trkpt>
      <trkpt lat="50.42713" lon="3.15423">
        <ele>29</ele>
        <time>2012-01-15T09:30:15Z</time>
      </trkpt>
      <trkpt lat="50.42712" lon="3.15441">
        <ele>29</ele>
        <time>2012-01-15T09:30:17Z</time>
      </trkpt>
      <trkpt lat="50.4271" lon="3.1546">
        <ele>29</ele>
        <time>2012-01-15T09:30:19Z</time>
      </trkpt>
      <trkpt lat="50.42709" lon="3.15478">
        <ele>29</ele>
        <time>2012-01-15T09:30:21Z</time>
      </trkpt>
      <trkpt lat="50.42708" lon="3.15496">
        <ele>29</ele>
        <time>2012-01-15T09:30:23Z</time>
      </trkpt>
      <trkpt lat="50.42707" lon="3.15513">
        <ele>29</ele>
        <time>2012-01-15T09:30:25Z</time>
      </trkpt>
      <trkpt lat="50.42707" lon="3.15533">
        <ele>29</ele>
        <time>2012-01-15T09:30:28Z</time>
      </trkpt>
      <trkpt lat="50.42706" lon="3.15553">
        <ele>29</ele>
        <time>2012-01-15T09:30:31Z</time>
      </trkpt>
      <trkpt lat="50.42707" lon="3.15567">
        <ele>29</ele>
        <time>2012-01-15T09:30:33Z</time>
      </trkpt>
      <trkpt lat="50.42709" lon="3.15584">
        <ele>29</ele>
        <time>2012-01-15T09:30:36Z</time>
      </trkpt>
      <trkpt lat="50.42705" lon="3.15599">
        <ele>29</ele>
        <time>2012-01-15T09:30:39Z</time>
      </trkpt>
      <trkpt lat="50.42697" lon="3.15607">
        <ele>29</ele>
        <time>2012-01-15T09:30:42Z</time>
      </trkpt>
      <trkpt lat="50.42688" lon="3.15616">
        <ele>29</ele>
        <time>2012-01-15T09:30:45Z</time>
      </trkpt>
      <trkpt lat="50.42678" lon="3.15622">
        <ele>29</ele>
        <time>2012-01-15T09:30:48Z</time>
      </trkpt>
      <trkpt lat="50.42668" lon="3.15629">
        <ele>29</ele>
        <time>2012-01-15T09:30:51Z</time>
      </trkpt>
      <trkpt lat="50.42658" lon="3.15637">
        <ele>29</ele>
        <time>2012-01-15T09:30:54Z</time>
      </trkpt>
      <trkpt lat="50.42648" lon="3.15643">
        <ele>29</ele>
        <time>2012-01-15T09:30:57Z</time>
      </trkpt>
      <trkpt lat="50.42636" lon="3.1565">
        <ele>29</ele>
        <time>2012-01-15T09:31:00Z</time>
      </trkpt>
      <trkpt lat="50.42628" lon="3.15655">
        <ele>24</ele>
        <time>2012-01-15T09:31:02Z</time>
      </trkpt>
      <trkpt lat="50.4262" lon="3.15662">
        <ele>24</ele>
        <time>2012-01-15T09:31:04Z</time>
      </trkpt>
      <trkpt lat="50.42608" lon="3.15671">
        <ele>24</ele>
        <time>2012-01-15T09:31:07Z</time>
      </trkpt>
      <trkpt lat="50.426" lon="3.15677">
        <ele>24</ele>
        <time>2012-01-15T09:31:09Z</time>
      </trkpt>
      <trkpt lat="50.42592" lon="3.15683">
        <ele>24</ele>
        <time>2012-01-15T09:31:11Z</time>
      </trkpt>
      <trkpt lat="50.42583" lon="3.1569">
        <ele>24</ele>
        <time>2012-01-15T09:31:13Z</time>
      </trkpt>
      <trkpt lat="50.42574" lon="3.15696">
        <ele>24</ele>
        <time>2012-01-15T09:31:15Z</time>
      </trkpt>
      <trkpt lat="50.42566" lon="3.15702">
        <ele>24</ele>
        <time>2012-01-15T09:31:17Z</time>
      </trkpt>
      <trkpt lat="50.42557" lon="3.15708">
        <ele>24</ele>
        <time>2012-01-15T09:31:19Z</time>
      </trkpt>
      <trkpt lat="50.42547" lon="3.15716">
        <ele>24</ele>
        <time>2012-01-15T09:31:21Z</time>
      </trkpt>
      <trkpt lat="50.42536" lon="3.15724">
        <ele>24</ele>
        <time>2012-01-15T09:31:23Z</time>
      </trkpt>
      <trkpt lat="50.42525" lon="3.15733">
        <ele>24</ele>
        <time>2012-01-15T09:31:25Z</time>
      </trkpt>
      <trkpt lat="50.42512" lon="3.15742">
        <ele>24</ele>
        <time>2012-01-15T09:31:27Z</time>
      </trkpt>
      <trkpt lat="50.425" lon="3.15751">
        <ele>24</ele>
        <time>2012-01-15T09:31:29Z</time>
      </trkpt>
      <trkpt lat="50.42488" lon="3.15761">
        <ele>24</ele>
        <time>2012-01-15T09:31:31Z</time>
      </trkpt>
      <trkpt lat="50.42476" lon="3.1577">
        <ele>24</ele>
        <time>2012-01-15T09:31:33Z</time>
      </trkpt>
      <trkpt lat="50.42463" lon="3.15779">
        <ele>24</ele>
        <time>2012-01-15T09:31:35Z</time>
      </trkpt>
      <trkpt lat="50.42451" lon="3.15788">
        <ele>24</ele>
        <time>2012-01-15T09:31:37Z</time>
      </trkpt>
      <trkpt lat="50.42438" lon="3.15797">
        <ele>24</ele>
        <time>2012-01-15T09:31:39Z</time>
      </trkpt>
      <trkpt lat="50.42426" lon="3.15806">
        <ele>24</ele>
        <time>2012-01-15T09:31:41Z</time>
      </trkpt>
      <trkpt lat="50.42414" lon="3.15815">
        <ele>24</ele>
        <time>2012-01-15T09:31:43Z</time>
      </trkpt>
      <trkpt lat="50.42402" lon="3.15825">
        <ele>24</ele>
        <time>2012-01-15T09:31:45Z</time>
      </trkpt>
      <trkpt lat="50.4239" lon="3.15834">
        <ele>24</ele>
        <time>2012-01-15T09:31:47Z</time>
      </trkpt>
      <trkpt lat="50.42377" lon="3.15843">
        <ele>24</ele>
        <time>2012-01-15T09:31:49Z</time>
      </trkpt>
      <trkpt lat="50.42365" lon="3.15852">
        <ele>24</ele>
        <time>2012-01-15T09:31:51Z</time>
      </trkpt>
      <trkpt lat="50.42354" lon="3.15861">
        <ele>24</ele>
        <time>2012-01-15T09:31:53Z</time>
      </trkpt>
      <trkpt lat="50.42342" lon="3.1587">
        <ele>24</ele>
        <time>2012-01-15T09:31:55Z</time>
      </trkpt>
      <trkpt lat="50.4233" lon="3.15879">
        <ele>24</ele>
        <time>2012-01-15T09:31:57Z</time>
      </trkpt>
      <trkpt lat="50.42319" lon="3.15888">
        <ele>24</ele>
        <time>2012-01-15T09:31:59Z</time>
      </trkpt>
      <trkpt lat="50.42308" lon="3.15897">
        <ele>24</ele>
        <time>2012-01-15T09:32:01Z</time>
      </trkpt>
      <trkpt lat="50.42298" lon="3.15907">
        <ele>24</ele>
        <time>2012-01-15T09:32:03Z</time>
      </trkpt>
      <trkpt lat="50.42287" lon="3.15915">
        <ele>24</ele>
        <time>2012-01-15T09:32:05Z</time>
      </trkpt>
      <trkpt lat="50.42276" lon="3.15921">
        <ele>24</ele>
        <time>2012-01-15T09:32:07Z</time>
      </trkpt>
      <trkpt lat="50.42266" lon="3.15928">
        <ele>24</ele>
        <time>2012-01-15T09:32:09Z</time>
      </trkpt>
      <trkpt lat="50.42256" lon="3.15936">
        <ele>24</ele>
        <time>2012-01-15T09:32:11Z</time>
      </trkpt>
      <trkpt lat="50.42246" lon="3.15942">
        <ele>24</ele>
        <time>2012-01-15T09:32:13Z</time>
      </trkpt>
      <trkpt lat="50.42236" lon="3.15949">
        <ele>24</ele>
        <time>2012-01-15T09:32:15Z</time>
      </trkpt>
      <trkpt lat="50.42227" lon="3.15956">
        <ele>24</ele>
        <time>2012-01-15T09:32:17Z</time>
      </trkpt>
      <trkpt lat="50.42218" lon="3.15964">
        <ele>24</ele>
        <time>2012-01-15T09:32:19Z</time>
      </trkpt>
      <trkpt lat="50.42209" lon="3.15971">
        <ele>24</ele>
        <time>2012-01-15T09:32:21Z</time>
      </trkpt>
      <trkpt lat="50.422" lon="3.15977">
        <ele>24</ele>
        <time>2012-01-15T09:32:23Z</time>
      </trkpt>
      <trkpt lat="50.42191" lon="3.15983">
        <ele>24</ele>
        <time>2012-01-15T09:32:25Z</time>
      </trkpt>
      <trkpt lat="50.42182" lon="3.15991">
        <ele>24</ele>
        <time>2012-01-15T09:32:27Z</time>
      </trkpt>
      <trkpt lat="50.42173" lon="3.15997">
        <ele>24</ele>
        <time>2012-01-15T09:32:29Z</time>
      </trkpt>
      <trkpt lat="50.42163" lon="3.16004">
        <ele>24</ele>
        <time>2012-01-15T09:32:31Z</time>
      </trkpt>
      <trkpt lat="50.42154" lon="3.16011">
        <ele>24</ele>
        <time>2012-01-15T09:32:33Z</time>
      </trkpt>
      <trkpt lat="50.42145" lon="3.16017">
        <ele>24</ele>
        <time>2012-01-15T09:32:35Z</time>
      </trkpt>
      <trkpt lat="50.42136" lon="3.16024">
        <ele>24</ele>
        <time>2012-01-15T09:32:37Z</time>
      </trkpt>
      <trkpt lat="50.42127" lon="3.16031">
        <ele>24</ele>
        <time>2012-01-15T09:32:39Z</time>
      </trkpt>
      <trkpt lat="50.42118" lon="3.16037">
        <ele>24</ele>
        <time>2012-01-15T09:32:41Z</time>
      </trkpt>
      <trkpt lat="50.42109" lon="3.16044">
        <ele>24</ele>
        <time>2012-01-15T09:32:43Z</time>
      </trkpt>
      <trkpt lat="50.421" lon="3.16051">
        <ele>24</ele>
        <time>2012-01-15T09:32:45Z</time>
      </trkpt>
      <trkpt lat="50.42091" lon="3.16057">
        <ele>24</ele>
        <time>2012-01-15T09:32:47Z</time>
      </trkpt>
      <trkpt lat="50.42082" lon="3.16064">
        <ele>24</ele>
        <time>2012-01-15T09:32:49Z</time>
      </trkpt>
      <trkpt lat="50.42074" lon="3.16071">
        <ele>24</ele>
        <time>2012-01-15T09:32:51Z</time>
      </trkpt>
      <trkpt lat="50.42065" lon="3.16078">
        <ele>24</ele>
        <time>2012-01-15T09:32:53Z</time>
      </trkpt>
      <trkpt lat="50.42057" lon="3.16084">
        <ele>24</ele>
        <time>2012-01-15T09:32:55Z</time>
      </trkpt>
      <trkpt lat="50.42048" lon="3.1609">
        <ele>24</ele>
        <time>2012-01-15T09:32:57Z</time>
      </trkpt>
      <trkpt lat="50.4204" lon="3.16097">
        <ele>24</ele>
        <time>2012-01-15T09:32:59Z</time>
      </trkpt>
      <trkpt lat="50.42032" lon="3.16103">
        <ele>24</ele>
        <time>2012-01-15T09:33:01Z</time>
      </trkpt>
      <trkpt lat="50.42023" lon="3.16108">
        <ele>24</ele>
        <time>2012-01-15T09:33:03Z</time>
      </trkpt>
      <trkpt lat="50.42012" lon="3.16116">
        <ele>24</ele>
        <time>2012-01-15T09:33:06Z</time>
      </trkpt>
      <trkpt lat="50.42" lon="3.16125">
        <ele>24</ele>
        <time>2012-01-15T09:33:09Z</time>
      </trkpt>
      <trkpt lat="50.41992" lon="3.16132">
        <ele>24</ele>
        <time>2012-01-15T09:33:11Z</time>
      </trkpt>
      <trkpt lat="50.4198" lon="3.16141">
        <ele>24</ele>
        <time>2012-01-15T09:33:14Z</time>
      </trkpt>
      <trkpt lat="50.41971" lon="3.16147">
        <ele>24</ele>
        <time>2012-01-15T09:33:16Z</time>
      </trkpt>
      <trkpt lat="50.41963" lon="3.16153">
        <ele>24</ele>
        <time>2012-01-15T09:33:18Z</time>
      </trkpt>
      <trkpt lat="50.41954" lon="3.1616">
        <ele>24</ele>
        <time>2012-01-15T09:33:20Z</time>
      </trkpt>
      <trkpt lat="50.41945" lon="3.16167">
        <ele>24</ele>
        <time>2012-01-15T09:33:22Z</time>
      </trkpt>
      <trkpt lat="50.41936" lon="3.16174">
        <ele>24</ele>
        <time>2012-01-15T09:33:24Z</time>
      </trkpt>
      <trkpt lat="50.41926" lon="3.16181">
        <ele>24</ele>
        <time>2012-01-15T09:33:26Z</time>
      </trkpt>
      <trkpt lat="50.41917" lon="3.16187">
        <ele>24</ele>
        <time>2012-01-15T09:33:28Z</time>
      </trkpt>
      <trkpt lat="50.41907" lon="3.16194">
        <ele>24</ele>
        <time>2012-01-15T09:33:30Z</time>
      </trkpt>
      <trkpt lat="50.41898" lon="3.16202">
        <ele>24</ele>
        <time>2012-01-15T09:33:32Z</time>
      </trkpt>
      <trkpt lat="50.41888" lon="3.16209">
        <ele>24</ele>
        <time>2012-01-15T09:33:34Z</time>
      </trkpt>
      <trkpt lat="50.41878" lon="3.16216">
        <ele>24</ele>
        <time>2012-01-15T09:33:36Z</time>
      </trkpt>
      <trkpt lat="50.41868" lon="3.16224">
        <ele>24</ele>
        <time>2012-01-15T09:33:38Z</time>
      </trkpt>
      <trkpt lat="50.41858" lon="3.16231">
        <ele>24</ele>
        <time>2012-01-15T09:33:40Z</time>
      </trkpt>
      <trkpt lat="50.41848" lon="3.16238">
        <ele>24</ele>
        <time>2012-01-15T09:33:42Z</time>
      </trkpt>
      <trkpt lat="50.41839" lon="3.16246">
        <ele>24</ele>
        <time>2012-01-15T09:33:44Z</time>
      </trkpt>
      <trkpt lat="50.4183" lon="3.16252">
        <ele>24</ele>
        <time>2012-01-15T09:33:46Z</time>
      </trkpt>
      <trkpt lat="50.41821" lon="3.1626">
        <ele>24</ele>
        <time>2012-01-15T09:33:48Z</time>
      </trkpt>
      <trkpt lat="50.41812" lon="3.16267">
        <ele>24</ele>
        <time>2012-01-15T09:33:50Z</time>
      </trkpt>
      <trkpt lat="50.41804" lon="3.16274">
        <ele>24</ele>
        <time>2012-01-15T09:33:52Z</time>
      </trkpt>
      <trkpt lat="50.41794" lon="3.1628">
        <ele>24</ele>
        <time>2012-01-15T09:33:54Z</time>
      </trkpt>
      <trkpt lat="50.41786" lon="3.16285">
        <ele>24</ele>
        <time>2012-01-15T09:33:56Z</time>
      </trkpt>
      <trkpt lat="50.41777" lon="3.16291">
        <ele>24</ele>
        <time>2012-01-15T09:33:58Z</time>
      </trkpt>
      <trkpt lat="50.41769" lon="3.16298">
        <ele>24</ele>
        <time>2012-01-15T09:34:00Z</time>
      </trkpt>
      <trkpt lat="50.41759" lon="3.16309">
        <ele>24</ele>
        <time>2012-01-15T09:34:03Z</time>
      </trkpt>
      <trkpt lat="50.41757" lon="3.16327">
        <ele>24</ele>
        <time>2012-01-15T09:34:06Z</time>
      </trkpt>
      <trkpt lat="50.41758" lon="3.16342">
        <ele>24</ele>
        <time>2012-01-15T09:34:08Z</time>
      </trkpt>
      <trkpt lat="50.4176" lon="3.16356">
        <ele>24</ele>
        <time>2012-01-15T09:34:10Z</time>
      </trkpt>
      <trkpt lat="50.41762" lon="3.16372">
        <ele>24</ele>
        <time>2012-01-15T09:34:12Z</time>
      </trkpt>
      <trkpt lat="50.41764" lon="3.16388">
        <ele>24</ele>
        <time>2012-01-15T09:34:14Z</time>
      </trkpt>
      <trkpt lat="50.41766" lon="3.16404">
        <ele>24</ele>
        <time>2012-01-15T09:34:16Z</time>
      </trkpt>
      <trkpt lat="50.41768" lon="3.16419">
        <ele>24</ele>
        <time>2012-01-15T09:34:18Z</time>
      </trkpt>
      <trkpt lat="50.4177" lon="3.16435">
        <ele>24</ele>
        <time>2012-01-15T09:34:20Z</time>
      </trkpt>
      <trkpt lat="50.41771" lon="3.1645">
        <ele>24</ele>
        <time>2012-01-15T09:34:22Z</time>
      </trkpt>
      <trkpt lat="50.41773" lon="3.16467">
        <ele>24</ele>
        <time>2012-01-15T09:34:24Z</time>
      </trkpt>
      <trkpt lat="50.41774" lon="3.16481">
        <ele>24</ele>
        <time>2012-01-15T09:34:26Z</time>
      </trkpt>
      <trkpt lat="50.41777" lon="3.16502">
        <ele>24</ele>
        <time>2012-01-15T09:34:29Z</time>
      </trkpt>
      <trkpt lat="50.41779" lon="3.16521">
        <ele>24</ele>
        <time>2012-01-15T09:34:32Z</time>
      </trkpt>
      <trkpt lat="50.41781" lon="3.16539">
        <ele>24</ele>
        <time>2012-01-15T09:34:35Z</time>
      </trkpt>
      <trkpt lat="50.41783" lon="3.16555">
        <ele>24</ele>
        <time>2012-01-15T09:34:38Z</time>
      </trkpt>
      <trkpt lat="50.41786" lon="3.16571">
        <ele>24</ele>
        <time>2012-01-15T09:34:41Z</time>
      </trkpt>
      <trkpt lat="50.41793" lon="3.16586">
        <ele>24</ele>
        <time>2012-01-15T09:34:44Z</time>
      </trkpt>
      <trkpt lat="50.41806" lon="3.16593">
        <ele>24</ele>
        <time>2012-01-15T09:34:47Z</time>
      </trkpt>
      <trkpt lat="50.41816" lon="3.16594">
        <ele>24</ele>
        <time>2012-01-15T09:34:49Z</time>
      </trkpt>
      <trkpt lat="50.41827" lon="3.16598">
        <ele>24</ele>
        <time>2012-01-15T09:34:51Z</time>
      </trkpt>
      <trkpt lat="50.41838" lon="3.166">
        <ele>24</ele>
        <time>2012-01-15T09:34:53Z</time>
      </trkpt>
      <trkpt lat="50.41848" lon="3.16604">
        <ele>24</ele>
        <time>2012-01-15T09:34:55Z</time>
      </trkpt>
      <trkpt lat="50.41858" lon="3.16607">
        <ele>24</ele>
        <time>2012-01-15T09:34:57Z</time>
      </trkpt>
      <trkpt lat="50.41867" lon="3.16609">
        <ele>24</ele>
        <time>2012-01-15T09:34:59Z</time>
      </trkpt>
      <trkpt lat="50.41877" lon="3.16613">
        <ele>24</ele>
        <time>2012-01-15T09:35:01Z</time>
      </trkpt>
      <trkpt lat="50.41887" lon="3.16617">
        <ele>24</ele>
        <time>2012-01-15T09:35:03Z</time>
      </trkpt>
      <trkpt lat="50.41897" lon="3.16621">
        <ele>24</ele>
        <time>2012-01-15T09:35:05Z</time>
      </trkpt>
      <trkpt lat="50.41907" lon="3.16626">
        <ele>24</ele>
        <time>2012-01-15T09:35:07Z</time>
      </trkpt>
      <trkpt lat="50.41916" lon="3.16631">
        <ele>24</ele>
        <time>2012-01-15T09:35:09Z</time>
      </trkpt>
      <trkpt lat="50.41925" lon="3.16638">
        <ele>24</ele>
        <time>2012-01-15T09:35:11Z</time>
      </trkpt>
      <trkpt lat="50.41933" lon="3.16649">
        <ele>24</ele>
        <time>2012-01-15T09:35:13Z</time>
      </trkpt>
      <trkpt lat="50.41935" lon="3.16665">
        <ele>24</ele>
        <time>2012-01-15T09:35:15Z</time>
      </trkpt>
      <trkpt lat="50.41933" lon="3.16682">
        <ele>24</ele>
        <time>2012-01-15T09:35:17Z</time>
      </trkpt>
      <trkpt lat="50.41932" lon="3.167">
        <ele>24</ele>
        <time>2012-01-15T09:35:19Z</time>
      </trkpt>
      <trkpt lat="50.41932" lon="3.16718">
        <ele>24</ele>
        <time>2012-01-15T09:35:21Z</time>
      </trkpt>
      <trkpt lat="50.41933" lon="3.16736">
        <ele>24</ele>
        <time>2012-01-15T09:35:23Z</time>
      </trkpt>
      <trkpt lat="50.41934" lon="3.16754">
        <ele>24</ele>
        <time>2012-01-15T09:35:25Z</time>
      </trkpt>
      <trkpt lat="50.41934" lon="3.16773">
        <ele>24</ele>
        <time>2012-01-15T09:35:27Z</time>
      </trkpt>
      <trkpt lat="50.41936" lon="3.16791">
        <ele>24</ele>
        <time>2012-01-15T09:35:29Z</time>
      </trkpt>
      <trkpt lat="50.41936" lon="3.16809">
        <ele>24</ele>
        <time>2012-01-15T09:35:31Z</time>
      </trkpt>
      <trkpt lat="50.41936" lon="3.16827">
        <ele>24</ele>
        <time>2012-01-15T09:35:33Z</time>
      </trkpt>
      <trkpt lat="50.41933" lon="3.16844">
        <ele>24</ele>
        <time>2012-01-15T09:35:35Z</time>
      </trkpt>
      <trkpt lat="50.41926" lon="3.16858">
        <ele>24</ele>
        <time>2012-01-15T09:35:37Z</time>
      </trkpt>
      <trkpt lat="50.41917" lon="3.16871">
        <ele>24</ele>
        <time>2012-01-15T09:35:39Z</time>
      </trkpt>
      <trkpt lat="50.41907" lon="3.16883">
        <ele>24</ele>
        <time>2012-01-15T09:35:41Z</time>
      </trkpt>
      <trkpt lat="50.41898" lon="3.16895">
        <ele>24</ele>
        <time>2012-01-15T09:35:43Z</time>
      </trkpt>
      <trkpt lat="50.41891" lon="3.1691">
        <ele>24</ele>
        <time>2012-01-15T09:35:45Z</time>
      </trkpt>
      <trkpt lat="50.41886" lon="3.16927">
        <ele>24</ele>
        <time>2012-01-15T09:35:47Z</time>
      </trkpt>
      <trkpt lat="50.41882" lon="3.16945">
        <ele>24</ele>
        <time>2012-01-15T09:35:49Z</time>
      </trkpt>
      <trkpt lat="50.4188" lon="3.16963">
        <ele>24</ele>
        <time>2012-01-15T09:35:51Z</time>
      </trkpt>
      <trkpt lat="50.4188" lon="3.16982">
        <ele>24</ele>
        <time>2012-01-15T09:35:53Z</time>
      </trkpt>
      <trkpt lat="50.41882" lon="3.17001">
        <ele>24</ele>
        <time>2012-01-15T09:35:55Z</time>
      </trkpt>
      <trkpt lat="50.41884" lon="3.17019">
        <ele>24</ele>
        <time>2012-01-15T09:35:57Z</time>
      </trkpt>
      <trkpt lat="50.41887" lon="3.17036">
        <ele>24</ele>
        <time>2012-01-15T09:35:59Z</time>
      </trkpt>
      <trkpt lat="50.41889" lon="3.17051">
        <ele>24</ele>
        <time>2012-01-15T09:36:01Z</time>
      </trkpt>
      <trkpt lat="50.41882" lon="3.17068">
        <ele>24</ele>
        <time>2012-01-15T09:36:04Z</time>
      </trkpt>
      <trkpt lat="50.41873" lon="3.17077">
        <ele>24</ele>
        <time>2012-01-15T09:36:08Z</time>
      </trkpt>
      <trkpt lat="50.41879" lon="3.17088">
        <ele>24</ele>
        <time>2012-01-15T09:36:16Z</time>
      </trkpt>
      <trkpt lat="50.41886" lon="3.17098">
        <ele>24</ele>
        <time>2012-01-15T09:36:19Z</time>
      </trkpt>
      <trkpt lat="50.41891" lon="3.17113">
        <ele>24</ele>
        <time>2012-01-15T09:36:22Z</time>
      </trkpt>
      <trkpt lat="50.41897" lon="3.17125">
        <ele>24</ele>
        <time>2012-01-15T09:36:25Z</time>
      </trkpt>
      <trkpt lat="50.41903" lon="3.17139">
        <ele>24</ele>
        <time>2012-01-15T09:36:28Z</time>
      </trkpt>
      <trkpt lat="50.41909" lon="3.17151">
        <ele>24</ele>
        <time>2012-01-15T09:36:31Z</time>
      </trkpt>
      <trkpt lat="50.41917" lon="3.17165">
        <ele>24</ele>
        <time>2012-01-15T09:36:34Z</time>
      </trkpt>
      <trkpt lat="50.41922" lon="3.17175">
        <ele>24</ele>
        <time>2012-01-15T09:36:36Z</time>
      </trkpt>
      <trkpt lat="50.41929" lon="3.17186">
        <ele>24</ele>
        <time>2012-01-15T09:36:38Z</time>
      </trkpt>
      <trkpt lat="50.41936" lon="3.17196">
        <ele>24</ele>
        <time>2012-01-15T09:36:40Z</time>
      </trkpt>
      <trkpt lat="50.41942" lon="3.17208">
        <ele>24</ele>
        <time>2012-01-15T09:36:42Z</time>
      </trkpt>
      <trkpt lat="50.4195" lon="3.17219">
        <ele>24</ele>
        <time>2012-01-15T09:36:44Z</time>
      </trkpt>
      <trkpt lat="50.41957" lon="3.1723">
        <ele>24</ele>
        <time>2012-01-15T09:36:46Z</time>
      </trkpt>
      <trkpt lat="50.41964" lon="3.17242">
        <ele>24</ele>
        <time>2012-01-15T09:36:48Z</time>
      </trkpt>
      <trkpt lat="50.41972" lon="3.17253">
        <ele>24</ele>
        <time>2012-01-15T09:36:50Z</time>
      </trkpt>
      <trkpt lat="50.4198" lon="3.17264">
        <ele>24</ele>
        <time>2012-01-15T09:36:52Z</time>
      </trkpt>
      <trkpt lat="50.41988" lon="3.17277">
        <ele>24</ele>
        <time>2012-01-15T09:36:54Z</time>
      </trkpt>
      <trkpt lat="50.41995" lon="3.17289">
        <ele>24</ele>
        <time>2012-01-15T09:36:56Z</time>
      </trkpt>
      <trkpt lat="50.42003" lon="3.17302">
        <ele>19</ele>
        <time>2012-01-15T09:36:58Z</time>
      </trkpt>
      <trkpt lat="50.42011" lon="3.17315">
        <ele>19</ele>
        <time>2012-01-15T09:37:00Z</time>
      </trkpt>
      <trkpt lat="50.42019" lon="3.17327">
        <ele>19</ele>
        <time>2012-01-15T09:37:02Z</time>
      </trkpt>
      <trkpt lat="50.42027" lon="3.1734">
        <ele>19</ele>
        <time>2012-01-15T09:37:04Z</time>
      </trkpt>
      <trkpt lat="50.42034" lon="3.17353">
        <ele>19</ele>
        <time>2012-01-15T09:37:06Z</time>
      </trkpt>
      <trkpt lat="50.42043" lon="3.17364">
        <ele>19</ele>
        <time>2012-01-15T09:37:08Z</time>
      </trkpt>
      <trkpt lat="50.42051" lon="3.17377">
        <ele>19</ele>
        <time>2012-01-15T09:37:10Z</time>
      </trkpt>
      <trkpt lat="50.42059" lon="3.17389">
        <ele>19</ele>
        <time>2012-01-15T09:37:12Z</time>
      </trkpt>
      <trkpt lat="50.42068" lon="3.17403">
        <ele>19</ele>
        <time>2012-01-15T09:37:14Z</time>
      </trkpt>
      <trkpt lat="50.42076" lon="3.17416">
        <ele>19</ele>
        <time>2012-01-15T09:37:16Z</time>
      </trkpt>
      <trkpt lat="50.42084" lon="3.17429">
        <ele>19</ele>
        <time>2012-01-15T09:37:18Z</time>
      </trkpt>
      <trkpt lat="50.42092" lon="3.17441">
        <ele>19</ele>
        <time>2012-01-15T09:37:20Z</time>
      </trkpt>
      <trkpt lat="50.421" lon="3.17455">
        <ele>19</ele>
        <time>2012-01-15T09:37:22Z</time>
      </trkpt>
      <trkpt lat="50.42108" lon="3.17467">
        <ele>19</ele>
        <time>2012-01-15T09:37:24Z</time>
      </trkpt>
      <trkpt lat="50.42117" lon="3.1748">
        <ele>19</ele>
        <time>2012-01-15T09:37:26Z</time>
      </trkpt>
      <trkpt lat="50.42124" lon="3.17493">
        <ele>19</ele>
        <time>2012-01-15T09:37:28Z</time>
      </trkpt>
      <trkpt lat="50.42132" lon="3.17505">
        <ele>19</ele>
        <time>2012-01-15T09:37:30Z</time>
      </trkpt>
      <trkpt lat="50.4214" lon="3.17518">
        <ele>19</ele>
        <time>2012-01-15T09:37:32Z</time>
      </trkpt>
      <trkpt lat="50.42148" lon="3.1753">
        <ele>19</ele>
        <time>2012-01-15T09:37:34Z</time>
      </trkpt>
      <trkpt lat="50.42156" lon="3.17542">
        <ele>19</ele>
        <time>2012-01-15T09:37:36Z</time>
      </trkpt>
      <trkpt lat="50.42164" lon="3.17555">
        <ele>19</ele>
        <time>2012-01-15T09:37:38Z</time>
      </trkpt>
      <trkpt lat="50.42172" lon="3.17566">
        <ele>19</ele>
        <time>2012-01-15T09:37:40Z</time>
      </trkpt>
      <trkpt lat="50.42179" lon="3.17579">
        <ele>19</ele>
        <time>2012-01-15T09:37:42Z</time>
      </trkpt>
      <trkpt lat="50.42188" lon="3.17591">
        <ele>19</ele>
        <time>2012-01-15T09:37:44Z</time>
      </trkpt>
      <trkpt lat="50.42196" lon="3.17603">
        <ele>19</ele>
        <time>2012-01-15T09:37:46Z</time>
      </trkpt>
      <trkpt lat="50.42204" lon="3.17615">
        <ele>19</ele>
        <time>2012-01-15T09:37:48Z</time>
      </trkpt>
      <trkpt lat="50.42211" lon="3.17627">
        <ele>19</ele>
        <time>2012-01-15T09:37:50Z</time>
      </trkpt>
      <trkpt lat="50.42219" lon="3.17639">
        <ele>19</ele>
        <time>2012-01-15T09:37:52Z</time>
      </trkpt>
      <trkpt lat="50.42227" lon="3.17652">
        <ele>19</ele>
        <time>2012-01-15T09:37:54Z</time>
      </trkpt>
      <trkpt lat="50.42235" lon="3.17663">
        <ele>19</ele>
        <time>2012-01-15T09:37:56Z</time>
      </trkpt>
      <trkpt lat="50.42242" lon="3.17676">
        <ele>19</ele>
        <time>2012-01-15T09:37:58Z</time>
      </trkpt>
      <trkpt lat="50.4225" lon="3.17688">
        <ele>19</ele>
        <time>2012-01-15T09:38:00Z</time>
      </trkpt>
      <trkpt lat="50.42258" lon="3.17701">
        <ele>19</ele>
        <time>2012-01-15T09:38:02Z</time>
      </trkpt>
      <trkpt lat="50.42266" lon="3.17714">
        <ele>19</ele>
        <time>2012-01-15T09:38:04Z</time>
      </trkpt>
      <trkpt lat="50.42274" lon="3.17726">
        <ele>19</ele>
        <time>2012-01-15T09:38:06Z</time>
      </trkpt>
      <trkpt lat="50.42282" lon="3.17739">
        <ele>19</ele>
        <time>2012-01-15T09:38:08Z</time>
      </trkpt>
      <trkpt lat="50.4229" lon="3.1775">
        <ele>19</ele>
        <time>2012-01-15T09:38:10Z</time>
      </trkpt>
      <trkpt lat="50.42298" lon="3.17763">
        <ele>19</ele>
        <time>2012-01-15T09:38:12Z</time>
      </trkpt>
      <trkpt lat="50.42305" lon="3.17776">
        <ele>19</ele>
        <time>2012-01-15T09:38:14Z</time>
      </trkpt>
      <trkpt lat="50.42313" lon="3.17788">
        <ele>19</ele>
        <time>2012-01-15T09:38:16Z</time>
      </trkpt>
      <trkpt lat="50.4232" lon="3.17801">
        <ele>19</ele>
        <time>2012-01-15T09:38:18Z</time>
      </trkpt>
      <trkpt lat="50.42328" lon="3.17812">
        <ele>19</ele>
        <time>2012-01-15T09:38:20Z</time>
      </trkpt>
      <trkpt lat="50.42336" lon="3.17824">
        <ele>19</ele>
        <time>2012-01-15T09:38:22Z</time>
      </trkpt>
      <trkpt lat="50.42344" lon="3.17837">
        <ele>19</ele>
        <time>2012-01-15T09:38:24Z</time>
      </trkpt>
      <trkpt lat="50.42351" lon="3.17849">
        <ele>19</ele>
        <time>2012-01-15T09:38:26Z</time>
      </trkpt>
      <trkpt lat="50.42359" lon="3.17861">
        <ele>19</ele>
        <time>2012-01-15T09:38:28Z</time>
      </trkpt>
      <trkpt lat="50.42367" lon="3.17873">
        <ele>19</ele>
        <time>2012-01-15T09:38:30Z</time>
      </trkpt>
      <trkpt lat="50.42374" lon="3.17885">
        <ele>19</ele>
        <time>2012-01-15T09:38:32Z</time>
      </trkpt>
      <trkpt lat="50.42382" lon="3.17897">
        <ele>19</ele>
        <time>2012-01-15T09:38:34Z</time>
      </trkpt>
      <trkpt lat="50.4239" lon="3.17908">
        <ele>19</ele>
        <time>2012-01-15T09:38:36Z</time>
      </trkpt>
      <trkpt lat="50.42397" lon="3.17921">
        <ele>19</ele>
        <time>2012-01-15T09:38:38Z</time>
      </trkpt>
      <trkpt lat="50.42404" lon="3.17932">
        <ele>19</ele>
        <time>2012-01-15T09:38:40Z</time>
      </trkpt>
      <trkpt lat="50.42411" lon="3.17943">
        <ele>19</ele>
        <time>2012-01-15T09:38:42Z</time>
      </trkpt>
      <trkpt lat="50.4242" lon="3.17956">
        <ele>19</ele>
        <time>2012-01-15T09:38:45Z</time>
      </trkpt>
      <trkpt lat="50.42423" lon="3.1797">
        <ele>19</ele>
        <time>2012-01-15T09:38:49Z</time>
      </trkpt>
      <trkpt lat="50.42432" lon="3.1797">
        <ele>19</ele>
        <time>2012-01-15T09:38:54Z</time>
      </trkpt>
      <trkpt lat="50.42442" lon="3.17962">
        <ele>19</ele>
        <time>2012-01-15T09:38:57Z</time>
      </trkpt>
      <trkpt lat="50.42454" lon="3.17958">
        <ele>19</ele>
        <time>2012-01-15T09:39:00Z</time>
      </trkpt>
      <trkpt lat="50.42466" lon="3.17953">
        <ele>19</ele>
        <time>2012-01-15T09:39:03Z</time>
      </trkpt>
      <trkpt lat="50.42476" lon="3.1795">
        <ele>19</ele>
        <time>2012-01-15T09:39:05Z</time>
      </trkpt>
      <trkpt lat="50.42485" lon="3.17947">
        <ele>19</ele>
        <time>2012-01-15T09:39:07Z</time>
      </trkpt>
      <trkpt lat="50.42494" lon="3.17943">
        <ele>19</ele>
        <time>2012-01-15T09:39:09Z</time>
      </trkpt>
      <trkpt lat="50.42503" lon="3.17939">
        <ele>19</ele>
        <time>2012-01-15T09:39:11Z</time>
      </trkpt>
      <trkpt lat="50.42512" lon="3.17936">
        <ele>19</ele>
        <time>2012-01-15T09:39:13Z</time>
      </trkpt>
      <trkpt lat="50.42521" lon="3.17933">
        <ele>19</ele>
        <time>2012-01-15T09:39:15Z</time>
      </trkpt>
      <trkpt lat="50.42531" lon="3.17929">
        <ele>19</ele>
        <time>2012-01-15T09:39:17Z</time>
      </trkpt>
      <trkpt lat="50.42541" lon="3.17927">
        <ele>19</ele>
        <time>2012-01-15T09:39:19Z</time>
      </trkpt>
      <trkpt lat="50.42551" lon="3.17924">
        <ele>19</ele>
        <time>2012-01-15T09:39:21Z</time>
      </trkpt>
      <trkpt lat="50.42561" lon="3.17921">
        <ele>19</ele>
        <time>2012-01-15T09:39:23Z</time>
      </trkpt>
      <trkpt lat="50.42571" lon="3.17917">
        <ele>19</ele>
        <time>2012-01-15T09:39:25Z</time>
      </trkpt>
      <trkpt lat="50.42581" lon="3.17914">
        <ele>19</ele>
        <time>2012-01-15T09:39:27Z</time>
      </trkpt>
      <trkpt lat="50.4259" lon="3.17911">
        <ele>19</ele>
        <time>2012-01-15T09:39:29Z</time>
      </trkpt>
      <trkpt lat="50.426" lon="3.1791">
        <ele>19</ele>
        <time>2012-01-15T09:39:31Z</time>
      </trkpt>
      <trkpt lat="50.4261" lon="3.17908">
        <ele>19</ele>
        <time>2012-01-15T09:39:33Z</time>
      </trkpt>
      <trkpt lat="50.4262" lon="3.17908">
        <ele>19</ele>
        <time>2012-01-15T09:39:35Z</time>
      </trkpt>
      <trkpt lat="50.42629" lon="3.17909">
        <ele>19</ele>
        <time>2012-01-15T09:39:37Z</time>
      </trkpt>
      <trkpt lat="50.42639" lon="3.17909">
        <ele>19</ele>
        <time>2012-01-15T09:39:39Z</time>
      </trkpt>
      <trkpt lat="50.42648" lon="3.1791">
        <ele>19</ele>
        <time>2012-01-15T09:39:41Z</time>
      </trkpt>
      <trkpt lat="50.42658" lon="3.17911">
        <ele>19</ele>
        <time>2012-01-15T09:39:43Z</time>
      </trkpt>
      <trkpt lat="50.42667" lon="3.17912">
        <ele>19</ele>
        <time>2012-01-15T09:39:45Z</time>
      </trkpt>
      <trkpt lat="50.42676" lon="3.17912">
        <ele>19</ele>
        <time>2012-01-15T09:39:47Z</time>
      </trkpt>
      <trkpt lat="50.42686" lon="3.17912">
        <ele>19</ele>
        <time>2012-01-15T09:39:49Z</time>
      </trkpt>
      <trkpt lat="50.42695" lon="3.17913">
        <ele>24</ele>
        <time>2012-01-15T09:39:51Z</time>
      </trkpt>
      <trkpt lat="50.42704" lon="3.17914">
        <ele>24</ele>
        <time>2012-01-15T09:39:53Z</time>
      </trkpt>
      <trkpt lat="50.42713" lon="3.17915">
        <ele>24</ele>
        <time>2012-01-15T09:39:55Z</time>
      </trkpt>
      <trkpt lat="50.42723" lon="3.17916">
        <ele>24</ele>
        <time>2012-01-15T09:39:57Z</time>
      </trkpt>
      <trkpt lat="50.42732" lon="3.17917">
        <ele>24</ele>
        <time>2012-01-15T09:39:59Z</time>
      </trkpt>
      <trkpt lat="50.42741" lon="3.17919">
        <ele>24</ele>
        <time>2012-01-15T09:40:01Z</time>
      </trkpt>
      <trkpt lat="50.42751" lon="3.1792">
        <ele>24</ele>
        <time>2012-01-15T09:40:03Z</time>
      </trkpt>
      <trkpt lat="50.4276" lon="3.17923">
        <ele>24</ele>
        <time>2012-01-15T09:40:05Z</time>
      </trkpt>
      <trkpt lat="50.4277" lon="3.17925">
        <ele>24</ele>
        <time>2012-01-15T09:40:07Z</time>
      </trkpt>
      <trkpt lat="50.4278" lon="3.17926">
        <ele>24</ele>
        <time>2012-01-15T09:40:09Z</time>
      </trkpt>
      <trkpt lat="50.42789" lon="3.17928">
        <ele>24</ele>
        <time>2012-01-15T09:40:11Z</time>
      </trkpt>
      <trkpt lat="50.42798" lon="3.1793">
        <ele>24</ele>
        <time>2012-01-15T09:40:13Z</time>
      </trkpt>
      <trkpt lat="50.42807" lon="3.17931">
        <ele>24</ele>
        <time>2012-01-15T09:40:15Z</time>
      </trkpt>
      <trkpt lat="50.42819" lon="3.17929">
        <ele>24</ele>
        <time>2012-01-15T09:40:18Z</time>
      </trkpt>
      <trkpt lat="50.4283" lon="3.17926">
        <ele>24</ele>
        <time>2012-01-15T09:40:21Z</time>
      </trkpt>
      <trkpt lat="50.42839" lon="3.17925">
        <ele>24</ele>
        <time>2012-01-15T09:40:24Z</time>
      </trkpt>
      <trkpt lat="50.42845" lon="3.17914">
        <ele>24</ele>
        <time>2012-01-15T09:40:27Z</time>
      </trkpt>
      <trkpt lat="50.4285" lon="3.17899">
        <ele>24</ele>
        <time>2012-01-15T09:40:30Z</time>
      </trkpt>
      <trkpt lat="50.42857" lon="3.17883">
        <ele>24</ele>
        <time>2012-01-15T09:40:33Z</time>
      </trkpt>
      <trkpt lat="50.42866" lon="3.1787">
        <ele>24</ele>
        <time>2012-01-15T09:40:36Z</time>
      </trkpt>
      <trkpt lat="50.42877" lon="3.17864">
        <ele>24</ele>
        <time>2012-01-15T09:40:39Z</time>
      </trkpt>
      <trkpt lat="50.42889" lon="3.17864">
        <ele>24</ele>
        <time>2012-01-15T09:40:42Z</time>
      </trkpt>
      <trkpt lat="50.42899" lon="3.17866">
        <ele>24</ele>
        <time>2012-01-15T09:40:44Z</time>
      </trkpt>
      <trkpt lat="50.42912" lon="3.1787">
        <ele>24</ele>
        <time>2012-01-15T09:40:47Z</time>
      </trkpt>
      <trkpt lat="50.4292" lon="3.17873">
        <ele>24</ele>
        <time>2012-01-15T09:40:49Z</time>
      </trkpt>
      <trkpt lat="50.42932" lon="3.17879">
        <ele>24</ele>
        <time>2012-01-15T09:40:52Z</time>
      </trkpt>
      <trkpt lat="50.42944" lon="3.17884">
        <ele>29</ele>
        <time>2012-01-15T09:40:55Z</time>
      </trkpt>
      <trkpt lat="50.42957" lon="3.17888">
        <ele>29</ele>
        <time>2012-01-15T09:40:58Z</time>
      </trkpt>
      <trkpt lat="50.4297" lon="3.17892">
        <ele>29</ele>
        <time>2012-01-15T09:41:01Z</time>
      </trkpt>
      <trkpt lat="50.42983" lon="3.17893">
        <ele>29</ele>
        <time>2012-01-15T09:41:04Z</time>
      </trkpt>
      <trkpt lat="50.42996" lon="3.17893">
        <ele>29</ele>
        <time>2012-01-15T09:41:07Z</time>
      </trkpt>
      <trkpt lat="50.43009" lon="3.17893">
        <ele>29</ele>
        <time>2012-01-15T09:41:10Z</time>
      </trkpt>
      <trkpt lat="50.43021" lon="3.17893">
        <ele>29</ele>
        <time>2012-01-15T09:41:13Z</time>
      </trkpt>
      <trkpt lat="50.43032" lon="3.17894">
        <ele>29</ele>
        <time>2012-01-15T09:41:16Z</time>
      </trkpt>
      <trkpt lat="50.43041" lon="3.17892">
        <ele>29</ele>
        <time>2012-01-15T09:41:19Z</time>
      </trkpt>
      <trkpt lat="50.43052" lon="3.17888">
        <ele>29</ele>
        <time>2012-01-15T09:41:23Z</time>
      </trkpt>
      <trkpt lat="50.43064" lon="3.17884">
        <ele>29</ele>
        <time>2012-01-15T09:41:27Z</time>
      </trkpt>
      <trkpt lat="50.43074" lon="3.17881">
        <ele>29</ele>
        <time>2012-01-15T09:41:30Z</time>
      </trkpt>
      <trkpt lat="50.43085" lon="3.17877">
        <ele>29</ele>
        <time>2012-01-15T09:41:33Z</time>
      </trkpt>
      <trkpt lat="50.43097" lon="3.17873">
        <ele>29</ele>
        <time>2012-01-15T09:41:36Z</time>
      </trkpt>
      <trkpt lat="50.4311" lon="3.17869">
        <ele>29</ele>
        <time>2012-01-15T09:41:39Z</time>
      </trkpt>
      <trkpt lat="50.43122" lon="3.17865">
        <ele>29</ele>
        <time>2012-01-15T09:41:42Z</time>
      </trkpt>
      <trkpt lat="50.43133" lon="3.17863">
        <ele>29</ele>
        <time>2012-01-15T09:41:45Z</time>
      </trkpt>
      <trkpt lat="50.43144" lon="3.17859">
        <ele>29</ele>
        <time>2012-01-15T09:41:48Z</time>
      </trkpt>
      <trkpt lat="50.43153" lon="3.17855">
        <ele>29</ele>
        <time>2012-01-15T09:41:51Z</time>
      </trkpt>
      <trkpt lat="50.43165" lon="3.1785">
        <ele>29</ele>
        <time>2012-01-15T09:41:54Z</time>
      </trkpt>
      <trkpt lat="50.43177" lon="3.17843">
        <ele>29</ele>
        <time>2012-01-15T09:41:57Z</time>
      </trkpt>
      <trkpt lat="50.43186" lon="3.17841">
        <ele>29</ele>
        <time>2012-01-15T09:41:59Z</time>
      </trkpt>
      <trkpt lat="50.43195" lon="3.17838">
        <ele>29</ele>
        <time>2012-01-15T09:42:01Z</time>
      </trkpt>
      <trkpt lat="50.43208" lon="3.17835">
        <ele>29</ele>
        <time>2012-01-15T09:42:04Z</time>
      </trkpt>
      <trkpt lat="50.4322" lon="3.1783">
        <ele>29</ele>
        <time>2012-01-15T09:42:07Z</time>
      </trkpt>
      <trkpt lat="50.43233" lon="3.17826">
        <ele>29</ele>
        <time>2012-01-15T09:42:10Z</time>
      </trkpt>
      <trkpt lat="50.43241" lon="3.17822">
        <ele>29</ele>
        <time>2012-01-15T09:42:12Z</time>
      </trkpt>
      <trkpt lat="50.43253" lon="3.17819">
        <ele>29</ele>
        <time>2012-01-15T09:42:15Z</time>
      </trkpt>
      <trkpt lat="50.43263" lon="3.17815">
        <ele>29</ele>
        <time>2012-01-15T09:42:18Z</time>
      </trkpt>
      <trkpt lat="50.43274" lon="3.17812">
        <ele>35</ele>
        <time>2012-01-15T09:42:21Z</time>
      </trkpt>
      <trkpt lat="50.43284" lon="3.1781">
        <ele>35</ele>
        <time>2012-01-15T09:42:25Z</time>
      </trkpt>
      <trkpt lat="50.43294" lon="3.17806">
        <ele>35</ele>
        <time>2012-01-15T09:42:30Z</time>
      </trkpt>
      <trkpt lat="50.43304" lon="3.17803">
        <ele>35</ele>
        <time>2012-01-15T09:42:34Z</time>
      </trkpt>
      <trkpt lat="50.43313" lon="3.17801">
        <ele>35</ele>
        <time>2012-01-15T09:42:38Z</time>
      </trkpt>
      <trkpt lat="50.43323" lon="3.17797">
        <ele>35</ele>
        <time>2012-01-15T09:42:42Z</time>
      </trkpt>
      <trkpt lat="50.43332" lon="3.17793">
        <ele>40</ele>
        <time>2012-01-15T09:42:46Z</time>
      </trkpt>
      <trkpt lat="50.43342" lon="3.17789">
        <ele>40</ele>
        <time>2012-01-15T09:42:50Z</time>
      </trkpt>
      <trkpt lat="50.43351" lon="3.17784">
        <ele>40</ele>
        <time>2012-01-15T09:42:53Z</time>
      </trkpt>
      <trkpt lat="50.43362" lon="3.17781">
        <ele>40</ele>
        <time>2012-01-15T09:42:57Z</time>
      </trkpt>
      <trkpt lat="50.43374" lon="3.17777">
        <ele>40</ele>
        <time>2012-01-15T09:43:01Z</time>
      </trkpt>
      <trkpt lat="50.43385" lon="3.17776">
        <ele>40</ele>
        <time>2012-01-15T09:43:04Z</time>
      </trkpt>
      <trkpt lat="50.43395" lon="3.17774">
        <ele>40</ele>
        <time>2012-01-15T09:43:07Z</time>
      </trkpt>
      <trkpt lat="50.43405" lon="3.1777">
        <ele>40</ele>
        <time>2012-01-15T09:43:10Z</time>
      </trkpt>
      <trkpt lat="50.43417" lon="3.17769">
        <ele>40</ele>
        <time>2012-01-15T09:43:13Z</time>
      </trkpt>
      <trkpt lat="50.43426" lon="3.17768">
        <ele>40</ele>
        <time>2012-01-15T09:43:16Z</time>
      </trkpt>
      <trkpt lat="50.43436" lon="3.17765">
        <ele>40</ele>
        <time>2012-01-15T09:43:19Z</time>
      </trkpt>
      <trkpt lat="50.43445" lon="3.17759">
        <ele>40</ele>
        <time>2012-01-15T09:43:22Z</time>
      </trkpt>
      <trkpt lat="50.43455" lon="3.17756">
        <ele>40</ele>
        <time>2012-01-15T09:43:25Z</time>
      </trkpt>
      <trkpt lat="50.43466" lon="3.17754">
        <ele>45</ele>
        <time>2012-01-15T09:43:28Z</time>
      </trkpt>
      <trkpt lat="50.43475" lon="3.17753">
        <ele>45</ele>
        <time>2012-01-15T09:43:31Z</time>
      </trkpt>
      <trkpt lat="50.43484" lon="3.17749">
        <ele>45</ele>
        <time>2012-01-15T09:43:34Z</time>
      </trkpt>
      <trkpt lat="50.43493" lon="3.17746">
        <ele>45</ele>
        <time>2012-01-15T09:43:37Z</time>
      </trkpt>
      <trkpt lat="50.43502" lon="3.17744">
        <ele>45</ele>
        <time>2012-01-15T09:43:40Z</time>
      </trkpt>
      <trkpt lat="50.43512" lon="3.17741">
        <ele>45</ele>
        <time>2012-01-15T09:43:43Z</time>
      </trkpt>
      <trkpt lat="50.43523" lon="3.17736">
        <ele>45</ele>
        <time>2012-01-15T09:43:47Z</time>
      </trkpt>
      <trkpt lat="50.43533" lon="3.17732">
        <ele>45</ele>
        <time>2012-01-15T09:43:50Z</time>
      </trkpt>
      <trkpt lat="50.43542" lon="3.1773">
        <ele>45</ele>
        <time>2012-01-15T09:43:53Z</time>
      </trkpt>
      <trkpt lat="50.43552" lon="3.17728">
        <ele>45</ele>
        <time>2012-01-15T09:43:56Z</time>
      </trkpt>
      <trkpt lat="50.43562" lon="3.17725">
        <ele>45</ele>
        <time>2012-01-15T09:43:59Z</time>
      </trkpt>
      <trkpt lat="50.43572" lon="3.17722">
        <ele>45</ele>
        <time>2012-01-15T09:44:02Z</time>
      </trkpt>
      <trkpt lat="50.43581" lon="3.17718">
        <ele>45</ele>
        <time>2012-01-15T09:44:05Z</time>
      </trkpt>
      <trkpt lat="50.43592" lon="3.17714">
        <ele>45</ele>
        <time>2012-01-15T09:44:08Z</time>
      </trkpt>
      <trkpt lat="50.43602" lon="3.17712">
        <ele>45</ele>
        <time>2012-01-15T09:44:11Z</time>
      </trkpt>
      <trkpt lat="50.43615" lon="3.17708">
        <ele>45</ele>
        <time>2012-01-15T09:44:14Z</time>
      </trkpt>
      <trkpt lat="50.43627" lon="3.17705">
        <ele>45</ele>
        <time>2012-01-15T09:44:17Z</time>
      </trkpt>
      <trkpt lat="50.43639" lon="3.17701">
        <ele>45</ele>
        <time>2012-01-15T09:44:20Z</time>
      </trkpt>
      <trkpt lat="50.43652" lon="3.17698">
        <ele>45</ele>
        <time>2012-01-15T09:44:23Z</time>
      </trkpt>
      <trkpt lat="50.43663" lon="3.17696">
        <ele>45</ele>
        <time>2012-01-15T09:44:26Z</time>
      </trkpt>
      <trkpt lat="50.43675" lon="3.17693">
        <ele>45</ele>
        <time>2012-01-15T09:44:29Z</time>
      </trkpt>
      <trkpt lat="50.43686" lon="3.17689">
        <ele>45</ele>
        <time>2012-01-15T09:44:32Z</time>
      </trkpt>
      <trkpt lat="50.437" lon="3.17686">
        <ele>45</ele>
        <time>2012-01-15T09:44:35Z</time>
      </trkpt>
      <trkpt lat="50.43712" lon="3.17683">
        <ele>45</ele>
        <time>2012-01-15T09:44:38Z</time>
      </trkpt>
      <trkpt lat="50.43724" lon="3.17677">
        <ele>45</ele>
        <time>2012-01-15T09:44:41Z</time>
      </trkpt>
      <trkpt lat="50.43732" lon="3.17673">
        <ele>45</ele>
        <time>2012-01-15T09:44:43Z</time>
      </trkpt>
      <trkpt lat="50.43744" lon="3.17669">
        <ele>45</ele>
        <time>2012-01-15T09:44:46Z</time>
      </trkpt>
      <trkpt lat="50.43753" lon="3.17667">
        <ele>45</ele>
        <time>2012-01-15T09:44:48Z</time>
      </trkpt>
      <trkpt lat="50.43765" lon="3.17663">
        <ele>45</ele>
        <time>2012-01-15T09:44:51Z</time>
      </trkpt>
      <trkpt lat="50.43775" lon="3.17661">
        <ele>45</ele>
        <time>2012-01-15T09:44:53Z</time>
      </trkpt>
      <trkpt lat="50.43783" lon="3.17658">
        <ele>45</ele>
        <time>2012-01-15T09:44:55Z</time>
      </trkpt>
      <trkpt lat="50.43792" lon="3.17655">
        <ele>39</ele>
        <time>2012-01-15T09:44:57Z</time>
      </trkpt>
      <trkpt lat="50.43806" lon="3.17652">
        <ele>39</ele>
        <time>2012-01-15T09:45:00Z</time>
      </trkpt>
      <trkpt lat="50.43815" lon="3.17649">
        <ele>39</ele>
        <time>2012-01-15T09:45:02Z</time>
      </trkpt>
      <trkpt lat="50.43829" lon="3.17645">
        <ele>39</ele>
        <time>2012-01-15T09:45:05Z</time>
      </trkpt>
      <trkpt lat="50.43842" lon="3.17641">
        <ele>39</ele>
        <time>2012-01-15T09:45:08Z</time>
      </trkpt>
      <trkpt lat="50.43854" lon="3.17635">
        <ele>39</ele>
        <time>2012-01-15T09:45:11Z</time>
      </trkpt>
      <trkpt lat="50.43865" lon="3.17632">
        <ele>39</ele>
        <time>2012-01-15T09:45:13Z</time>
      </trkpt>
      <trkpt lat="50.43875" lon="3.17629">
        <ele>39</ele>
        <time>2012-01-15T09:45:15Z</time>
      </trkpt>
      <trkpt lat="50.43885" lon="3.17626">
        <ele>39</ele>
        <time>2012-01-15T09:45:17Z</time>
      </trkpt>
      <trkpt lat="50.43894" lon="3.17623">
        <ele>39</ele>
        <time>2012-01-15T09:45:19Z</time>
      </trkpt>
      <trkpt lat="50.43903" lon="3.1762">
        <ele>39</ele>
        <time>2012-01-15T09:45:21Z</time>
      </trkpt>
      <trkpt lat="50.43913" lon="3.17616">
        <ele>39</ele>
        <time>2012-01-15T09:45:23Z</time>
      </trkpt>
      <trkpt lat="50.43923" lon="3.17615">
        <ele>39</ele>
        <time>2012-01-15T09:45:25Z</time>
      </trkpt>
      <trkpt lat="50.43933" lon="3.17613">
        <ele>39</ele>
        <time>2012-01-15T09:45:27Z</time>
      </trkpt>
      <trkpt lat="50.43944" lon="3.17609">
        <ele>39</ele>
        <time>2012-01-15T09:45:29Z</time>
      </trkpt>
      <trkpt lat="50.43954" lon="3.17606">
        <ele>39</ele>
        <time>2012-01-15T09:45:31Z</time>
      </trkpt>
      <trkpt lat="50.43963" lon="3.17602">
        <ele>39</ele>
        <time>2012-01-15T09:45:33Z</time>
      </trkpt>
      <trkpt lat="50.43973" lon="3.176">
        <ele>39</ele>
        <time>2012-01-15T09:45:35Z</time>
      </trkpt>
      <trkpt lat="50.43983" lon="3.17599">
        <ele>39</ele>
        <time>2012-01-15T09:45:37Z</time>
      </trkpt>
      <trkpt lat="50.43993" lon="3.17595">
        <ele>39</ele>
        <time>2012-01-15T09:45:39Z</time>
      </trkpt>
      <trkpt lat="50.44003" lon="3.17591">
        <ele>39</ele>
        <time>2012-01-15T09:45:41Z</time>
      </trkpt>
      <trkpt lat="50.44013" lon="3.17589">
        <ele>39</ele>
        <time>2012-01-15T09:45:43Z</time>
      </trkpt>
      <trkpt lat="50.44023" lon="3.17586">
        <ele>39</ele>
        <time>2012-01-15T09:45:45Z</time>
      </trkpt>
      <trkpt lat="50.44033" lon="3.17582">
        <ele>39</ele>
        <time>2012-01-15T09:45:47Z</time>
      </trkpt>
      <trkpt lat="50.44042" lon="3.1758">
        <ele>39</ele>
        <time>2012-01-15T09:45:49Z</time>
      </trkpt>
      <trkpt lat="50.44052" lon="3.17576">
        <ele>39</ele>
        <time>2012-01-15T09:45:51Z</time>
      </trkpt>
      <trkpt lat="50.44062" lon="3.17574">
        <ele>39</ele>
        <time>2012-01-15T09:45:53Z</time>
      </trkpt>
      <trkpt lat="50.44071" lon="3.17572">
        <ele>39</ele>
        <time>2012-01-15T09:45:55Z</time>
      </trkpt>
      <trkpt lat="50.44083" lon="3.17569">
        <ele>39</ele>
        <time>2012-01-15T09:45:57Z</time>
      </trkpt>
      <trkpt lat="50.44093" lon="3.17565">
        <ele>39</ele>
        <time>2012-01-15T09:45:59Z</time>
      </trkpt>
      <trkpt lat="50.44102" lon="3.17563">
        <ele>39</ele>
        <time>2012-01-15T09:46:01Z</time>
      </trkpt>
      <trkpt lat="50.44111" lon="3.17558">
        <ele>39</ele>
        <time>2012-01-15T09:46:03Z</time>
      </trkpt>
      <trkpt lat="50.44121" lon="3.17555">
        <ele>39</ele>
        <time>2012-01-15T09:46:05Z</time>
      </trkpt>
      <trkpt lat="50.44132" lon="3.17551">
        <ele>39</ele>
        <time>2012-01-15T09:46:07Z</time>
      </trkpt>
      <trkpt lat="50.44142" lon="3.17548">
        <ele>39</ele>
        <time>2012-01-15T09:46:09Z</time>
      </trkpt>
      <trkpt lat="50.4415" lon="3.1754">
        <ele>39</ele>
        <time>2012-01-15T09:46:11Z</time>
      </trkpt>
      <trkpt lat="50.44158" lon="3.17527">
        <ele>39</ele>
        <time>2012-01-15T09:46:14Z</time>
      </trkpt>
      <trkpt lat="50.44165" lon="3.17511">
        <ele>39</ele>
        <time>2012-01-15T09:46:17Z</time>
      </trkpt>
      <trkpt lat="50.44171" lon="3.17495">
        <ele>39</ele>
        <time>2012-01-15T09:46:20Z</time>
      </trkpt>
      <trkpt lat="50.44175" lon="3.17478">
        <ele>39</ele>
        <time>2012-01-15T09:46:23Z</time>
      </trkpt>
      <trkpt lat="50.4418" lon="3.17463">
        <ele>39</ele>
        <time>2012-01-15T09:46:26Z</time>
      </trkpt>
      <trkpt lat="50.4419" lon="3.17461">
        <ele>39</ele>
        <time>2012-01-15T09:46:30Z</time>
      </trkpt>
      <trkpt lat="50.442" lon="3.17459">
        <ele>39</ele>
        <time>2012-01-15T09:46:34Z</time>
      </trkpt>
      <trkpt lat="50.4421" lon="3.17457">
        <ele>39</ele>
        <time>2012-01-15T09:46:38Z</time>
      </trkpt>
      <trkpt lat="50.44218" lon="3.17451">
        <ele>39</ele>
        <time>2012-01-15T09:46:46Z</time>
      </trkpt>
      <trkpt lat="50.44224" lon="3.17441">
        <ele>34</ele>
        <time>2012-01-15T09:46:56Z</time>
      </trkpt>
      <trkpt lat="50.44233" lon="3.17437">
        <ele>34</ele>
        <time>2012-01-15T09:47:03Z</time>
      </trkpt>
      <trkpt lat="50.44242" lon="3.17433">
        <ele>34</ele>
        <time>2012-01-15T09:47:11Z</time>
      </trkpt>
      <trkpt lat="50.44251" lon="3.1743">
        <ele>34</ele>
        <time>2012-01-15T09:47:20Z</time>
      </trkpt>
      <trkpt lat="50.44259" lon="3.17425">
        <ele>34</ele>
        <time>2012-01-15T09:47:29Z</time>
      </trkpt>
      <trkpt lat="50.44269" lon="3.1742">
        <ele>34</ele>
        <time>2012-01-15T09:47:41Z</time>
      </trkpt>
      <trkpt lat="50.44277" lon="3.17415">
        <ele>34</ele>
        <time>2012-01-15T09:47:49Z</time>
      </trkpt>
      <trkpt lat="50.44286" lon="3.17411">
        <ele>34</ele>
        <time>2012-01-15T09:47:58Z</time>
      </trkpt>
      <trkpt lat="50.44294" lon="3.17406">
        <ele>34</ele>
        <time>2012-01-15T09:48:05Z</time>
      </trkpt>
      <trkpt lat="50.44303" lon="3.17402">
        <ele>34</ele>
        <time>2012-01-15T09:48:12Z</time>
      </trkpt>
      <trkpt lat="50.44312" lon="3.17397">
        <ele>34</ele>
        <time>2012-01-15T09:48:20Z</time>
      </trkpt>
      <trkpt lat="50.44321" lon="3.17393">
        <ele>34</ele>
        <time>2012-01-15T09:48:27Z</time>
      </trkpt>
      <trkpt lat="50.44329" lon="3.17388">
        <ele>34</ele>
        <time>2012-01-15T09:48:34Z</time>
      </trkpt>
      <trkpt lat="50.44339" lon="3.17384">
        <ele>34</ele>
        <time>2012-01-15T09:48:42Z</time>
      </trkpt>
      <trkpt lat="50.44347" lon="3.17378">
        <ele>34</ele>
        <time>2012-01-15T09:48:49Z</time>
      </trkpt>
      <trkpt lat="50.44354" lon="3.17369">
        <ele>34</ele>
        <time>2012-01-15T09:49:00Z</time>
      </trkpt>
      <trkpt lat="50.4435" lon="3.17351">
        <ele>34</ele>
        <time>2012-01-15T09:49:05Z</time>
      </trkpt>
      <trkpt lat="50.44345" lon="3.17337">
        <ele>34</ele>
        <time>2012-01-15T09:49:08Z</time>
      </trkpt>
      <trkpt lat="50.44341" lon="3.17321">
        <ele>34</ele>
        <time>2012-01-15T09:49:11Z</time>
      </trkpt>
      <trkpt lat="50.44336" lon="3.17304">
        <ele>34</ele>
        <time>2012-01-15T09:49:14Z</time>
      </trkpt>
      <trkpt lat="50.44331" lon="3.17286">
        <ele>34</ele>
        <time>2012-01-15T09:49:17Z</time>
      </trkpt>
      <trkpt lat="50.44327" lon="3.17266">
        <ele>34</ele>
        <time>2012-01-15T09:49:20Z</time>
      </trkpt>
      <trkpt lat="50.44322" lon="3.17246">
        <ele>34</ele>
        <time>2012-01-15T09:49:23Z</time>
      </trkpt>
      <trkpt lat="50.44317" lon="3.17227">
        <ele>34</ele>
        <time>2012-01-15T09:49:26Z</time>
      </trkpt>
      <trkpt lat="50.44315" lon="3.17212">
        <ele>34</ele>
        <time>2012-01-15T09:49:28Z</time>
      </trkpt>
      <trkpt lat="50.44312" lon="3.17199">
        <ele>34</ele>
        <time>2012-01-15T09:49:30Z</time>
      </trkpt>
      <trkpt lat="50.44311" lon="3.17183">
        <ele>34</ele>
        <time>2012-01-15T09:49:32Z</time>
      </trkpt>
      <trkpt lat="50.44311" lon="3.17169">
        <ele>34</ele>
        <time>2012-01-15T09:49:34Z</time>
      </trkpt>
      <trkpt lat="50.44312" lon="3.17154">
        <ele>34</ele>
        <time>2012-01-15T09:49:36Z</time>
      </trkpt>
      <trkpt lat="50.44313" lon="3.17139">
        <ele>34</ele>
        <time>2012-01-15T09:49:38Z</time>
      </trkpt>
      <trkpt lat="50.44315" lon="3.17124">
        <ele>34</ele>
        <time>2012-01-15T09:49:40Z</time>
      </trkpt>
      <trkpt lat="50.44318" lon="3.17111">
        <ele>34</ele>
        <time>2012-01-15T09:49:42Z</time>
      </trkpt>
      <trkpt lat="50.44321" lon="3.17096">
        <ele>34</ele>
        <time>2012-01-15T09:49:44Z</time>
      </trkpt>
      <trkpt lat="50.44324" lon="3.17082">
        <ele>34</ele>
        <time>2012-01-15T09:49:46Z</time>
      </trkpt>
      <trkpt lat="50.44327" lon="3.17069">
        <ele>34</ele>
        <time>2012-01-15T09:49:48Z</time>
      </trkpt>
      <trkpt lat="50.4433" lon="3.17054">
        <ele>34</ele>
        <time>2012-01-15T09:49:50Z</time>
      </trkpt>
      <trkpt lat="50.44334" lon="3.1704">
        <ele>34</ele>
        <time>2012-01-15T09:49:52Z</time>
      </trkpt>
      <trkpt lat="50.44339" lon="3.17026">
        <ele>34</ele>
        <time>2012-01-15T09:49:54Z</time>
      </trkpt>
      <trkpt lat="50.44344" lon="3.17014">
        <ele>34</ele>
        <time>2012-01-15T09:49:56Z</time>
      </trkpt>
      <trkpt lat="50.4435" lon="3.17">
        <ele>34</ele>
        <time>2012-01-15T09:49:58Z</time>
      </trkpt>
      <trkpt lat="50.44355" lon="3.16987">
        <ele>34</ele>
        <time>2012-01-15T09:50:00Z</time>
      </trkpt>
      <trkpt lat="50.4436" lon="3.16973">
        <ele>34</ele>
        <time>2012-01-15T09:50:02Z</time>
      </trkpt>
      <trkpt lat="50.44366" lon="3.1696">
        <ele>34</ele>
        <time>2012-01-15T09:50:04Z</time>
      </trkpt>
      <trkpt lat="50.4437" lon="3.16945">
        <ele>34</ele>
        <time>2012-01-15T09:50:06Z</time>
      </trkpt>
      <trkpt lat="50.44375" lon="3.16931">
        <ele>34</ele>
        <time>2012-01-15T09:50:08Z</time>
      </trkpt>
      <trkpt lat="50.44381" lon="3.16917">
        <ele>34</ele>
        <time>2012-01-15T09:50:10Z</time>
      </trkpt>
      <trkpt lat="50.44386" lon="3.16901">
        <ele>34</ele>
        <time>2012-01-15T09:50:12Z</time>
      </trkpt>
      <trkpt lat="50.4439" lon="3.16886">
        <ele>34</ele>
        <time>2012-01-15T09:50:14Z</time>
      </trkpt>
      <trkpt lat="50.44393" lon="3.16871">
        <ele>34</ele>
        <time>2012-01-15T09:50:16Z</time>
      </trkpt>
      <trkpt lat="50.44397" lon="3.16856">
        <ele>34</ele>
        <time>2012-01-15T09:50:18Z</time>
      </trkpt>
      <trkpt lat="50.444" lon="3.1684">
        <ele>34</ele>
        <time>2012-01-15T09:50:20Z</time>
      </trkpt>
      <trkpt lat="50.44405" lon="3.16821">
        <ele>34</ele>
        <time>2012-01-15T09:50:23Z</time>
      </trkpt>
      <trkpt lat="50.44399" lon="3.16805">
        <ele>34</ele>
        <time>2012-01-15T09:50:26Z</time>
      </trkpt>
      <trkpt lat="50.44387" lon="3.168">
        <ele>34</ele>
        <time>2012-01-15T09:50:29Z</time>
      </trkpt>
      <trkpt lat="50.44379" lon="3.16796">
        <ele>34</ele>
        <time>2012-01-15T09:50:31Z</time>
      </trkpt>
      <trkpt lat="50.4437" lon="3.16793">
        <ele>34</ele>
        <time>2012-01-15T09:50:33Z</time>
      </trkpt>
      <trkpt lat="50.44357" lon="3.16786">
        <ele>34</ele>
        <time>2012-01-15T09:50:36Z</time>
      </trkpt>
      <trkpt lat="50.44348" lon="3.16782">
        <ele>34</ele>
        <time>2012-01-15T09:50:38Z</time>
      </trkpt>
      <trkpt lat="50.44339" lon="3.16779">
        <ele>34</ele>
        <time>2012-01-15T09:50:40Z</time>
      </trkpt>
      <trkpt lat="50.44329" lon="3.16776">
        <ele>34</ele>
        <time>2012-01-15T09:50:42Z</time>
      </trkpt>
      <trkpt lat="50.4432" lon="3.16775">
        <ele>34</ele>
        <time>2012-01-15T09:50:44Z</time>
      </trkpt>
      <trkpt lat="50.44311" lon="3.16771">
        <ele>34</ele>
        <time>2012-01-15T09:50:46Z</time>
      </trkpt>
      <trkpt lat="50.44301" lon="3.16768">
        <ele>34</ele>
        <time>2012-01-15T09:50:48Z</time>
      </trkpt>
      <trkpt lat="50.44292" lon="3.16766">
        <ele>34</ele>
        <time>2012-01-15T09:50:50Z</time>
      </trkpt>
      <trkpt lat="50.44282" lon="3.16764">
        <ele>34</ele>
        <time>2012-01-15T09:50:52Z</time>
      </trkpt>
      <trkpt lat="50.44272" lon="3.16764">
        <ele>34</ele>
        <time>2012-01-15T09:50:54Z</time>
      </trkpt>
      <trkpt lat="50.44262" lon="3.16765">
        <ele>34</ele>
        <time>2012-01-15T09:50:56Z</time>
      </trkpt>
      <trkpt lat="50.44253" lon="3.16766">
        <ele>34</ele>
        <time>2012-01-15T09:50:58Z</time>
      </trkpt>
      <trkpt lat="50.44243" lon="3.16768">
        <ele>34</ele>
        <time>2012-01-15T09:51:00Z</time>
      </trkpt>
      <trkpt lat="50.44234" lon="3.16768">
        <ele>34</ele>
        <time>2012-01-15T09:51:02Z</time>
      </trkpt>
      <trkpt lat="50.44224" lon="3.16769">
        <ele>34</ele>
        <time>2012-01-15T09:51:04Z</time>
      </trkpt>
      <trkpt lat="50.44215" lon="3.1677">
        <ele>34</ele>
        <time>2012-01-15T09:51:06Z</time>
      </trkpt>
      <trkpt lat="50.44205" lon="3.16771">
        <ele>34</ele>
        <time>2012-01-15T09:51:08Z</time>
      </trkpt>
      <trkpt lat="50.44195" lon="3.16773">
        <ele>34</ele>
        <time>2012-01-15T09:51:10Z</time>
      </trkpt>
      <trkpt lat="50.44185" lon="3.16774">
        <ele>34</ele>
        <time>2012-01-15T09:51:12Z</time>
      </trkpt>
      <trkpt lat="50.44175" lon="3.16777">
        <ele>34</ele>
        <time>2012-01-15T09:51:14Z</time>
      </trkpt>
      <trkpt lat="50.44165" lon="3.16778">
        <ele>34</ele>
        <time>2012-01-15T09:51:16Z</time>
      </trkpt>
      <trkpt lat="50.44156" lon="3.16779">
        <ele>34</ele>
        <time>2012-01-15T09:51:18Z</time>
      </trkpt>
      <trkpt lat="50.44146" lon="3.1678">
        <ele>34</ele>
        <time>2012-01-15T09:51:20Z</time>
      </trkpt>
      <trkpt lat="50.44136" lon="3.16781">
        <ele>34</ele>
        <time>2012-01-15T09:51:22Z</time>
      </trkpt>
      <trkpt lat="50.44126" lon="3.16782">
        <ele>34</ele>
        <time>2012-01-15T09:51:24Z</time>
      </trkpt>
      <trkpt lat="50.44117" lon="3.16783">
        <ele>34</ele>
        <time>2012-01-15T09:51:26Z</time>
      </trkpt>
      <trkpt lat="50.44107" lon="3.16784">
        <ele>34</ele>
        <time>2012-01-15T09:51:28Z</time>
      </trkpt>
      <trkpt lat="50.44097" lon="3.16784">
        <ele>34</ele>
        <time>2012-01-15T09:51:30Z</time>
      </trkpt>
      <trkpt lat="50.44087" lon="3.16783">
        <ele>34</ele>
        <time>2012-01-15T09:51:32Z</time>
      </trkpt>
      <trkpt lat="50.44077" lon="3.16782">
        <ele>34</ele>
        <time>2012-01-15T09:51:34Z</time>
      </trkpt>
      <trkpt lat="50.44067" lon="3.1678">
        <ele>34</ele>
        <time>2012-01-15T09:51:36Z</time>
      </trkpt>
      <trkpt lat="50.44058" lon="3.16778">
        <ele>34</ele>
        <time>2012-01-15T09:51:38Z</time>
      </trkpt>
      <trkpt lat="50.44049" lon="3.16772">
        <ele>34</ele>
        <time>2012-01-15T09:51:40Z</time>
      </trkpt>
      <trkpt lat="50.44043" lon="3.16759">
        <ele>34</ele>
        <time>2012-01-15T09:51:42Z</time>
      </trkpt>
      <trkpt lat="50.4404" lon="3.16743">
        <ele>34</ele>
        <time>2012-01-15T09:51:44Z</time>
      </trkpt>
      <trkpt lat="50.44039" lon="3.16727">
        <ele>34</ele>
        <time>2012-01-15T09:51:46Z</time>
      </trkpt>
      <trkpt lat="50.44037" lon="3.16711">
        <ele>34</ele>
        <time>2012-01-15T09:51:48Z</time>
      </trkpt>
      <trkpt lat="50.44036" lon="3.16694">
        <ele>34</ele>
        <time>2012-01-15T09:51:50Z</time>
      </trkpt>
      <trkpt lat="50.44034" lon="3.16677">
        <ele>34</ele>
        <time>2012-01-15T09:51:52Z</time>
      </trkpt>
      <trkpt lat="50.44032" lon="3.16659">
        <ele>34</ele>
        <time>2012-01-15T09:51:54Z</time>
      </trkpt>
      <trkpt lat="50.44031" lon="3.16642">
        <ele>34</ele>
        <time>2012-01-15T09:51:56Z</time>
      </trkpt>
      <trkpt lat="50.44029" lon="3.16624">
        <ele>34</ele>
        <time>2012-01-15T09:51:58Z</time>
      </trkpt>
      <trkpt lat="50.44027" lon="3.16606">
        <ele>34</ele>
        <time>2012-01-15T09:52:00Z</time>
      </trkpt>
      <trkpt lat="50.44026" lon="3.16589">
        <ele>34</ele>
        <time>2012-01-15T09:52:02Z</time>
      </trkpt>
      <trkpt lat="50.44025" lon="3.16571">
        <ele>34</ele>
        <time>2012-01-15T09:52:04Z</time>
      </trkpt>
      <trkpt lat="50.44024" lon="3.16554">
        <ele>34</ele>
        <time>2012-01-15T09:52:06Z</time>
      </trkpt>
      <trkpt lat="50.44023" lon="3.16537">
        <ele>34</ele>
        <time>2012-01-15T09:52:08Z</time>
      </trkpt>
      <trkpt lat="50.44022" lon="3.16519">
        <ele>34</ele>
        <time>2012-01-15T09:52:10Z</time>
      </trkpt>
      <trkpt lat="50.44022" lon="3.165">
        <ele>34</ele>
        <time>2012-01-15T09:52:12Z</time>
      </trkpt>
      <trkpt lat="50.44021" lon="3.16481">
        <ele>34</ele>
        <time>2012-01-15T09:52:14Z</time>
      </trkpt>
      <trkpt lat="50.44021" lon="3.16463">
        <ele>34</ele>
        <time>2012-01-15T09:52:16Z</time>
      </trkpt>
      <trkpt lat="50.44021" lon="3.16444">
        <ele>34</ele>
        <time>2012-01-15T09:52:18Z</time>
      </trkpt>
      <trkpt lat="50.44022" lon="3.16425">
        <ele>34</ele>
        <time>2012-01-15T09:52:20Z</time>
      </trkpt>
      <trkpt lat="50.44022" lon="3.16406">
        <ele>34</ele>
        <time>2012-01-15T09:52:22Z</time>
      </trkpt>
      <trkpt lat="50.44023" lon="3.16388">
        <ele>34</ele>
        <time>2012-01-15T09:52:24Z</time>
      </trkpt>
      <trkpt lat="50.44023" lon="3.16369">
        <ele>34</ele>
        <time>2012-01-15T09:52:26Z</time>
      </trkpt>
      <trkpt lat="50.44021" lon="3.16351">
        <ele>34</ele>
        <time>2012-01-15T09:52:28Z</time>
      </trkpt>
      <trkpt lat="50.44021" lon="3.16333">
        <ele>34</ele>
        <time>2012-01-15T09:52:30Z</time>
      </trkpt>
      <trkpt lat="50.44019" lon="3.16315">
        <ele>34</ele>
        <time>2012-01-15T09:52:32Z</time>
      </trkpt>
      <trkpt lat="50.44018" lon="3.16297">
        <ele>34</ele>
        <time>2012-01-15T09:52:34Z</time>
      </trkpt>
      <trkpt lat="50.44016" lon="3.16279">
        <ele>34</ele>
        <time>2012-01-15T09:52:36Z</time>
      </trkpt>
      <trkpt lat="50.44014" lon="3.16261">
        <ele>34</ele>
        <time>2012-01-15T09:52:38Z</time>
      </trkpt>
      <trkpt lat="50.44012" lon="3.16243">
        <ele>34</ele>
        <time>2012-01-15T09:52:40Z</time>
      </trkpt>
      <trkpt lat="50.4401" lon="3.16225">
        <ele>34</ele>
        <time>2012-01-15T09:52:42Z</time>
      </trkpt>
      <trkpt lat="50.44009" lon="3.16207">
        <ele>34</ele>
        <time>2012-01-15T09:52:44Z</time>
      </trkpt>
      <trkpt lat="50.44007" lon="3.16189">
        <ele>34</ele>
        <time>2012-01-15T09:52:46Z</time>
      </trkpt>
      <trkpt lat="50.44005" lon="3.16172">
        <ele>34</ele>
        <time>2012-01-15T09:52:48Z</time>
      </trkpt>
      <trkpt lat="50.44003" lon="3.16155">
        <ele>34</ele>
        <time>2012-01-15T09:52:50Z</time>
      </trkpt>
      <trkpt lat="50.44" lon="3.16138">
        <ele>34</ele>
        <time>2012-01-15T09:52:52Z</time>
      </trkpt>
      <trkpt lat="50.43997" lon="3.16122">
        <ele>34</ele>
        <time>2012-01-15T09:52:54Z</time>
      </trkpt>
      <trkpt lat="50.43994" lon="3.16106">
        <ele>34</ele>
        <time>2012-01-15T09:52:56Z</time>
      </trkpt>
      <trkpt lat="50.43991" lon="3.16088">
        <ele>34</ele>
        <time>2012-01-15T09:52:58Z</time>
      </trkpt>
      <trkpt lat="50.4399" lon="3.1607">
        <ele>34</ele>
        <time>2012-01-15T09:53:00Z</time>
      </trkpt>
      <trkpt lat="50.43989" lon="3.16053">
        <ele>34</ele>
        <time>2012-01-15T09:53:02Z</time>
      </trkpt>
      <trkpt lat="50.43989" lon="3.16035">
        <ele>34</ele>
        <time>2012-01-15T09:53:04Z</time>
      </trkpt>
      <trkpt lat="50.43988" lon="3.16018">
        <ele>34</ele>
        <time>2012-01-15T09:53:06Z</time>
      </trkpt>
      <trkpt lat="50.43986" lon="3.16001">
        <ele>34</ele>
        <time>2012-01-15T09:53:08Z</time>
      </trkpt>
      <trkpt lat="50.43984" lon="3.15984">
        <ele>34</ele>
        <time>2012-01-15T09:53:10Z</time>
      </trkpt>
      <trkpt lat="50.43982" lon="3.15967">
        <ele>34</ele>
        <time>2012-01-15T09:53:12Z</time>
      </trkpt>
      <trkpt lat="50.4398" lon="3.1595">
        <ele>34</ele>
        <time>2012-01-15T09:53:14Z</time>
      </trkpt>
      <trkpt lat="50.43978" lon="3.15934">
        <ele>34</ele>
        <time>2012-01-15T09:53:16Z</time>
      </trkpt>
      <trkpt lat="50.43975" lon="3.15917">
        <ele>34</ele>
        <time>2012-01-15T09:53:18Z</time>
      </trkpt>
      <trkpt lat="50.43973" lon="3.159">
        <ele>34</ele>
        <time>2012-01-15T09:53:20Z</time>
      </trkpt>
      <trkpt lat="50.4397" lon="3.15884">
        <ele>34</ele>
        <time>2012-01-15T09:53:22Z</time>
      </trkpt>
      <trkpt lat="50.43967" lon="3.15867">
        <ele>34</ele>
        <time>2012-01-15T09:53:24Z</time>
      </trkpt>
      <trkpt lat="50.43965" lon="3.1585">
        <ele>34</ele>
        <time>2012-01-15T09:53:26Z</time>
      </trkpt>
      <trkpt lat="50.43962" lon="3.15834">
        <ele>34</ele>
        <time>2012-01-15T09:53:28Z</time>
      </trkpt>
      <trkpt lat="50.4396" lon="3.15819">
        <ele>34</ele>
        <time>2012-01-15T09:53:30Z</time>
      </trkpt>
      <trkpt lat="50.43957" lon="3.15803">
        <ele>34</ele>
        <time>2012-01-15T09:53:32Z</time>
      </trkpt>
      <trkpt lat="50.43954" lon="3.15787">
        <ele>34</ele>
        <time>2012-01-15T09:53:34Z</time>
      </trkpt>
      <trkpt lat="50.43952" lon="3.1577">
        <ele>34</ele>
        <time>2012-01-15T09:53:36Z</time>
      </trkpt>
      <trkpt lat="50.4395" lon="3.15753">
        <ele>34</ele>
        <time>2012-01-15T09:53:38Z</time>
      </trkpt>
      <trkpt lat="50.43947" lon="3.15737">
        <ele>34</ele>
        <time>2012-01-15T09:53:40Z</time>
      </trkpt>
      <trkpt lat="50.43945" lon="3.1572">
        <ele>34</ele>
        <time>2012-01-15T09:53:42Z</time>
      </trkpt>
      <trkpt lat="50.43942" lon="3.15704">
        <ele>34</ele>
        <time>2012-01-15T09:53:44Z</time>
      </trkpt>
      <trkpt lat="50.43938" lon="3.15688">
        <ele>34</ele>
        <time>2012-01-15T09:53:46Z</time>
      </trkpt>
      <trkpt lat="50.43935" lon="3.15672">
        <ele>34</ele>
        <time>2012-01-15T09:53:48Z</time>
      </trkpt>
      <trkpt lat="50.43931" lon="3.15655">
        <ele>34</ele>
        <time>2012-01-15T09:53:50Z</time>
      </trkpt>
      <trkpt lat="50.43927" lon="3.1564">
        <ele>34</ele>
        <time>2012-01-15T09:53:52Z</time>
      </trkpt>
      <trkpt lat="50.43923" lon="3.15624">
        <ele>34</ele>
        <time>2012-01-15T09:53:54Z</time>
      </trkpt>
      <trkpt lat="50.43919" lon="3.15608">
        <ele>34</ele>
        <time>2012-01-15T09:53:56Z</time>
      </trkpt>
      <trkpt lat="50.43915" lon="3.15593">
        <ele>34</ele>
        <time>2012-01-15T09:53:58Z</time>
      </trkpt>
      <trkpt lat="50.4391" lon="3.15576">
        <ele>34</ele>
        <time>2012-01-15T09:54:00Z</time>
      </trkpt>
      <trkpt lat="50.43906" lon="3.15561">
        <ele>34</ele>
        <time>2012-01-15T09:54:02Z</time>
      </trkpt>
      <trkpt lat="50.43901" lon="3.15545">
        <ele>34</ele>
        <time>2012-01-15T09:54:04Z</time>
      </trkpt>
      <trkpt lat="50.43896" lon="3.15528">
        <ele>34</ele>
        <time>2012-01-15T09:54:06Z</time>
      </trkpt>
      <trkpt lat="50.43893" lon="3.15511">
        <ele>34</ele>
        <time>2012-01-15T09:54:08Z</time>
      </trkpt>
      <trkpt lat="50.43892" lon="3.15494">
        <ele>34</ele>
        <time>2012-01-15T09:54:10Z</time>
      </trkpt>
      <trkpt lat="50.43892" lon="3.15475">
        <ele>34</ele>
        <time>2012-01-15T09:54:12Z</time>
      </trkpt>
      <trkpt lat="50.43892" lon="3.15457">
        <ele>34</ele>
        <time>2012-01-15T09:54:14Z</time>
      </trkpt>
      <trkpt lat="50.43893" lon="3.15439">
        <ele>34</ele>
        <time>2012-01-15T09:54:16Z</time>
      </trkpt>
      <trkpt lat="50.43893" lon="3.15421">
        <ele>34</ele>
        <time>2012-01-15T09:54:18Z</time>
      </trkpt>
      <trkpt lat="50.43894" lon="3.15402">
        <ele>34</ele>
        <time>2012-01-15T09:54:20Z</time>
      </trkpt>
      <trkpt lat="50.43895" lon="3.15383">
        <ele>34</ele>
        <time>2012-01-15T09:54:22Z</time>
      </trkpt>
      <trkpt lat="50.43895" lon="3.15364">
        <ele>34</ele>
        <time>2012-01-15T09:54:24Z</time>
      </trkpt>
      <trkpt lat="50.43896" lon="3.15346">
        <ele>34</ele>
        <time>2012-01-15T09:54:26Z</time>
      </trkpt>
      <trkpt lat="50.43896" lon="3.15327">
        <ele>34</ele>
        <time>2012-01-15T09:54:28Z</time>
      </trkpt>
      <trkpt lat="50.43896" lon="3.15308">
        <ele>34</ele>
        <time>2012-01-15T09:54:30Z</time>
      </trkpt>
      <trkpt lat="50.43896" lon="3.1529">
        <ele>34</ele>
        <time>2012-01-15T09:54:32Z</time>
      </trkpt>
      <trkpt lat="50.43896" lon="3.15272">
        <ele>34</ele>
        <time>2012-01-15T09:54:34Z</time>
      </trkpt>
      <trkpt lat="50.43897" lon="3.15255">
        <ele>34</ele>
        <time>2012-01-15T09:54:36Z</time>
      </trkpt>
      <trkpt lat="50.43897" lon="3.1524">
        <ele>34</ele>
        <time>2012-01-15T09:54:38Z</time>
      </trkpt>
      <trkpt lat="50.43893" lon="3.15221">
        <ele>34</ele>
        <time>2012-01-15T09:54:41Z</time>
      </trkpt>
      <trkpt lat="50.43893" lon="3.15205">
        <ele>34</ele>
        <time>2012-01-15T09:54:46Z</time>
      </trkpt>
      <trkpt lat="50.43901" lon="3.15197">
        <ele>34</ele>
        <time>2012-01-15T09:54:49Z</time>
      </trkpt>
      <trkpt lat="50.43908" lon="3.15179">
        <ele>34</ele>
        <time>2012-01-15T09:54:52Z</time>
      </trkpt>
      <trkpt lat="50.43911" lon="3.15165">
        <ele>34</ele>
        <time>2012-01-15T09:54:54Z</time>
      </trkpt>
      <trkpt lat="50.43914" lon="3.15151">
        <ele>34</ele>
        <time>2012-01-15T09:54:56Z</time>
      </trkpt>
      <trkpt lat="50.43918" lon="3.15135">
        <ele>34</ele>
        <time>2012-01-15T09:54:58Z</time>
      </trkpt>
      <trkpt lat="50.43922" lon="3.1512">
        <ele>34</ele>
        <time>2012-01-15T09:55:00Z</time>
      </trkpt>
      <trkpt lat="50.43925" lon="3.15104">
        <ele>34</ele>
        <time>2012-01-15T09:55:02Z</time>
      </trkpt>
      <trkpt lat="50.43928" lon="3.15088">
        <ele>34</ele>
        <time>2012-01-15T09:55:04Z</time>
      </trkpt>
      <trkpt lat="50.4393" lon="3.15072">
        <ele>34</ele>
        <time>2012-01-15T09:55:06Z</time>
      </trkpt>
      <trkpt lat="50.43932" lon="3.15055">
        <ele>34</ele>
        <time>2012-01-15T09:55:08Z</time>
      </trkpt>
      <trkpt lat="50.43935" lon="3.15039">
        <ele>34</ele>
        <time>2012-01-15T09:55:10Z</time>
      </trkpt>
      <trkpt lat="50.43937" lon="3.15022">
        <ele>34</ele>
        <time>2012-01-15T09:55:12Z</time>
      </trkpt>
      <trkpt lat="50.4394" lon="3.15006">
        <ele>34</ele>
        <time>2012-01-15T09:55:14Z</time>
      </trkpt>
      <trkpt lat="50.4394" lon="3.14989">
        <ele>34</ele>
        <time>2012-01-15T09:55:16Z</time>
      </trkpt>
      <trkpt lat="50.43938" lon="3.14973">
        <ele>34</ele>
        <time>2012-01-15T09:55:18Z</time>
      </trkpt>
      <trkpt lat="50.43936" lon="3.14957">
        <ele>34</ele>
        <time>2012-01-15T09:55:20Z</time>
      </trkpt>
      <trkpt lat="50.43936" lon="3.14939">
        <ele>34</ele>
        <time>2012-01-15T09:55:22Z</time>
      </trkpt>
      <trkpt lat="50.43934" lon="3.14922">
        <ele>34</ele>
        <time>2012-01-15T09:55:24Z</time>
      </trkpt>
      <trkpt lat="50.43931" lon="3.14906">
        <ele>34</ele>
        <time>2012-01-15T09:55:26Z</time>
      </trkpt>
      <trkpt lat="50.43928" lon="3.14888">
        <ele>34</ele>
        <time>2012-01-15T09:55:28Z</time>
      </trkpt>
      <trkpt lat="50.43927" lon="3.14871">
        <ele>34</ele>
        <time>2012-01-15T09:55:30Z</time>
      </trkpt>
      <trkpt lat="50.43926" lon="3.14856">
        <ele>34</ele>
        <time>2012-01-15T09:55:32Z</time>
      </trkpt>
      <trkpt lat="50.43926" lon="3.14842">
        <ele>34</ele>
        <time>2012-01-15T09:55:34Z</time>
      </trkpt>
      <trkpt lat="50.43928" lon="3.14827">
        <ele>34</ele>
        <time>2012-01-15T09:55:37Z</time>
      </trkpt>
      <trkpt lat="50.43939" lon="3.14824">
        <ele>34</ele>
        <time>2012-01-15T09:55:40Z</time>
      </trkpt>
      <trkpt lat="50.4395" lon="3.14818">
        <ele>34</ele>
        <time>2012-01-15T09:55:42Z</time>
      </trkpt>
      <trkpt lat="50.43961" lon="3.14812">
        <ele>34</ele>
        <time>2012-01-15T09:55:44Z</time>
      </trkpt>
      <trkpt lat="50.43972" lon="3.14802">
        <ele>34</ele>
        <time>2012-01-15T09:55:46Z</time>
      </trkpt>
      <trkpt lat="50.43983" lon="3.14791">
        <ele>34</ele>
        <time>2012-01-15T09:55:48Z</time>
      </trkpt>
      <trkpt lat="50.43994" lon="3.14781">
        <ele>34</ele>
        <time>2012-01-15T09:55:50Z</time>
      </trkpt>
      <trkpt lat="50.44006" lon="3.14771">
        <ele>34</ele>
        <time>2012-01-15T09:55:52Z</time>
      </trkpt>
      <trkpt lat="50.44017" lon="3.1476">
        <ele>34</ele>
        <time>2012-01-15T09:55:54Z</time>
      </trkpt>
      <trkpt lat="50.44029" lon="3.14748">
        <ele>34</ele>
        <time>2012-01-15T09:55:56Z</time>
      </trkpt>
      <trkpt lat="50.44039" lon="3.14736">
        <ele>34</ele>
        <time>2012-01-15T09:55:58Z</time>
      </trkpt>
      <trkpt lat="50.44051" lon="3.14725">
        <ele>34</ele>
        <time>2012-01-15T09:56:00Z</time>
      </trkpt>
      <trkpt lat="50.44062" lon="3.14717">
        <ele>34</ele>
        <time>2012-01-15T09:56:02Z</time>
      </trkpt>
      <trkpt lat="50.44074" lon="3.14709">
        <ele>34</ele>
        <time>2012-01-15T09:56:04Z</time>
      </trkpt>
      <trkpt lat="50.44085" lon="3.14701">
        <ele>34</ele>
        <time>2012-01-15T09:56:06Z</time>
      </trkpt>
      <trkpt lat="50.44096" lon="3.14693">
        <ele>34</ele>
        <time>2012-01-15T09:56:08Z</time>
      </trkpt>
      <trkpt lat="50.44106" lon="3.14686">
        <ele>34</ele>
        <time>2012-01-15T09:56:10Z</time>
      </trkpt>
      <trkpt lat="50.44115" lon="3.14679">
        <ele>34</ele>
        <time>2012-01-15T09:56:12Z</time>
      </trkpt>
      <trkpt lat="50.44121" lon="3.14667">
        <ele>34</ele>
        <time>2012-01-15T09:56:14Z</time>
      </trkpt>
      <trkpt lat="50.44124" lon="3.14648">
        <ele>34</ele>
        <time>2012-01-15T09:56:17Z</time>
      </trkpt>
      <trkpt lat="50.44124" lon="3.14634">
        <ele>34</ele>
        <time>2012-01-15T09:56:19Z</time>
      </trkpt>
      <trkpt lat="50.44125" lon="3.14619">
        <ele>34</ele>
        <time>2012-01-15T09:56:21Z</time>
      </trkpt>
      <trkpt lat="50.44128" lon="3.14604">
        <ele>34</ele>
        <time>2012-01-15T09:56:23Z</time>
      </trkpt>
      <trkpt lat="50.44141" lon="3.146">
        <ele>34</ele>
        <time>2012-01-15T09:56:26Z</time>
      </trkpt>
      <trkpt lat="50.4415" lon="3.146">
        <ele>34</ele>
        <time>2012-01-15T09:56:28Z</time>
      </trkpt>
      <trkpt lat="50.44161" lon="3.14598">
        <ele>34</ele>
        <time>2012-01-15T09:56:30Z</time>
      </trkpt>
      <trkpt lat="50.44168" lon="3.14589">
        <ele>34</ele>
        <time>2012-01-15T09:56:32Z</time>
      </trkpt>
      <trkpt lat="50.4417" lon="3.14573">
        <ele>34</ele>
        <time>2012-01-15T09:56:34Z</time>
      </trkpt>
      <trkpt lat="50.44171" lon="3.14557">
        <ele>34</ele>
        <time>2012-01-15T09:56:36Z</time>
      </trkpt>
      <trkpt lat="50.44171" lon="3.1454">
        <ele>34</ele>
        <time>2012-01-15T09:56:38Z</time>
      </trkpt>
      <trkpt lat="50.44169" lon="3.14524">
        <ele>34</ele>
        <time>2012-01-15T09:56:40Z</time>
      </trkpt>
      <trkpt lat="50.44157" lon="3.14519">
        <ele>34</ele>
        <time>2012-01-15T09:56:43Z</time>
      </trkpt>
      <trkpt lat="50.44147" lon="3.1452">
        <ele>34</ele>
        <time>2012-01-15T09:56:45Z</time>
      </trkpt>
      <trkpt lat="50.44137" lon="3.14521">
        <ele>34</ele>
        <time>2012-01-15T09:56:47Z</time>
      </trkpt>
      <trkpt lat="50.44124" lon="3.14522">
        <ele>34</ele>
        <time>2012-01-15T09:56:50Z</time>
      </trkpt>
      <trkpt lat="50.44114" lon="3.14522">
        <ele>34</ele>
        <time>2012-01-15T09:56:52Z</time>
      </trkpt>
      <trkpt lat="50.44103" lon="3.14511">
        <ele>34</ele>
        <time>2012-01-15T09:56:55Z</time>
      </trkpt>
      <trkpt lat="50.44102" lon="3.14497">
        <ele>34</ele>
        <time>2012-01-15T09:56:57Z</time>
      </trkpt>
      <trkpt lat="50.44101" lon="3.1448">
        <ele>34</ele>
        <time>2012-01-15T09:56:59Z</time>
      </trkpt>
      <trkpt lat="50.44101" lon="3.14464">
        <ele>34</ele>
        <time>2012-01-15T09:57:01Z</time>
      </trkpt>
      <trkpt lat="50.441" lon="3.14446">
        <ele>34</ele>
        <time>2012-01-15T09:57:03Z</time>
      </trkpt>
      <trkpt lat="50.44099" lon="3.1443">
        <ele>34</ele>
        <time>2012-01-15T09:57:05Z</time>
      </trkpt>
      <trkpt lat="50.44098" lon="3.14415">
        <ele>34</ele>
        <time>2012-01-15T09:57:07Z</time>
      </trkpt>
      <trkpt lat="50.44098" lon="3.14397">
        <ele>34</ele>
        <time>2012-01-15T09:57:10Z</time>
      </trkpt>
      <trkpt lat="50.44102" lon="3.14382">
        <ele>34</ele>
        <time>2012-01-15T09:57:15Z</time>
      </trkpt>
      <trkpt lat="50.44111" lon="3.14376">
        <ele>34</ele>
        <time>2012-01-15T09:57:18Z</time>
      </trkpt>
      <trkpt lat="50.44122" lon="3.14374">
        <ele>34</ele>
        <time>2012-01-15T09:57:20Z</time>
      </trkpt>
      <trkpt lat="50.44133" lon="3.14374">
        <ele>34</ele>
        <time>2012-01-15T09:57:22Z</time>
      </trkpt>
      <trkpt lat="50.44144" lon="3.14372">
        <ele>34</ele>
        <time>2012-01-15T09:57:24Z</time>
      </trkpt>
      <trkpt lat="50.44156" lon="3.1437">
        <ele>34</ele>
        <time>2012-01-15T09:57:26Z</time>
      </trkpt>
      <trkpt lat="50.44167" lon="3.14368">
        <ele>34</ele>
        <time>2012-01-15T09:57:28Z</time>
      </trkpt>
      <trkpt lat="50.44179" lon="3.14365">
        <ele>34</ele>
        <time>2012-01-15T09:57:30Z</time>
      </trkpt>
      <trkpt lat="50.44191" lon="3.14364">
        <ele>34</ele>
        <time>2012-01-15T09:57:32Z</time>
      </trkpt>
      <trkpt lat="50.44204" lon="3.14362">
        <ele>34</ele>
        <time>2012-01-15T09:57:34Z</time>
      </trkpt>
      <trkpt lat="50.44216" lon="3.14361">
        <ele>34</ele>
        <time>2012-01-15T09:57:36Z</time>
      </trkpt>
      <trkpt lat="50.44229" lon="3.14359">
        <ele>34</ele>
        <time>2012-01-15T09:57:38Z</time>
      </trkpt>
      <trkpt lat="50.44242" lon="3.14357">
        <ele>34</ele>
        <time>2012-01-15T09:57:40Z</time>
      </trkpt>
      <trkpt lat="50.44257" lon="3.14356">
        <ele>34</ele>
        <time>2012-01-15T09:57:42Z</time>
      </trkpt>
      <trkpt lat="50.44271" lon="3.14354">
        <ele>34</ele>
        <time>2012-01-15T09:57:44Z</time>
      </trkpt>
      <trkpt lat="50.44285" lon="3.14352">
        <ele>34</ele>
        <time>2012-01-15T09:57:46Z</time>
      </trkpt>
      <trkpt lat="50.44299" lon="3.14349">
        <ele>34</ele>
        <time>2012-01-15T09:57:48Z</time>
      </trkpt>
      <trkpt lat="50.44313" lon="3.14348">
        <ele>34</ele>
        <time>2012-01-15T09:57:50Z</time>
      </trkpt>
      <trkpt lat="50.44328" lon="3.14345">
        <ele>34</ele>
        <time>2012-01-15T09:57:52Z</time>
      </trkpt>
      <trkpt lat="50.44342" lon="3.14343">
        <ele>34</ele>
        <time>2012-01-15T09:57:54Z</time>
      </trkpt>
      <trkpt lat="50.44357" lon="3.14341">
        <ele>34</ele>
        <time>2012-01-15T09:57:56Z</time>
      </trkpt>
      <trkpt lat="50.44371" lon="3.14339">
        <ele>34</ele>
        <time>2012-01-15T09:57:58Z</time>
      </trkpt>
      <trkpt lat="50.44386" lon="3.14337">
        <ele>34</ele>
        <time>2012-01-15T09:58:00Z</time>
      </trkpt>
      <trkpt lat="50.44401" lon="3.14335">
        <ele>34</ele>
        <time>2012-01-15T09:58:02Z</time>
      </trkpt>
      <trkpt lat="50.44414" lon="3.14333">
        <ele>34</ele>
        <time>2012-01-15T09:58:04Z</time>
      </trkpt>
      <trkpt lat="50.44428" lon="3.1433">
        <ele>34</ele>
        <time>2012-01-15T09:58:06Z</time>
      </trkpt>
      <trkpt lat="50.44441" lon="3.14329">
        <ele>34</ele>
        <time>2012-01-15T09:58:08Z</time>
      </trkpt>
      <trkpt lat="50.44454" lon="3.14326">
        <ele>34</ele>
        <time>2012-01-15T09:58:10Z</time>
      </trkpt>
      <trkpt lat="50.44466" lon="3.14323">
        <ele>34</ele>
        <time>2012-01-15T09:58:12Z</time>
      </trkpt>
      <trkpt lat="50.44478" lon="3.14321">
        <ele>34</ele>
        <time>2012-01-15T09:58:14Z</time>
      </trkpt>
      <trkpt lat="50.44489" lon="3.14317">
        <ele>34</ele>
        <time>2012-01-15T09:58:16Z</time>
      </trkpt>
      <trkpt lat="50.44497" lon="3.14307">
        <ele>34</ele>
        <time>2012-01-15T09:58:18Z</time>
      </trkpt>
      <trkpt lat="50.44498" lon="3.14291">
        <ele>34</ele>
        <time>2012-01-15T09:58:20Z</time>
      </trkpt>
      <trkpt lat="50.44496" lon="3.14273">
        <ele>34</ele>
        <time>2012-01-15T09:58:22Z</time>
      </trkpt>
      <trkpt lat="50.44493" lon="3.14253">
        <ele>34</ele>
        <time>2012-01-15T09:58:24Z</time>
      </trkpt>
      <trkpt lat="50.4449" lon="3.14233">
        <ele>34</ele>
        <time>2012-01-15T09:58:26Z</time>
      </trkpt>
      <trkpt lat="50.44487" lon="3.14214">
        <ele>34</ele>
        <time>2012-01-15T09:58:28Z</time>
      </trkpt>
      <trkpt lat="50.44485" lon="3.14195">
        <ele>34</ele>
        <time>2012-01-15T09:58:30Z</time>
      </trkpt>
      <trkpt lat="50.44482" lon="3.14175">
        <ele>34</ele>
        <time>2012-01-15T09:58:32Z</time>
      </trkpt>
      <trkpt lat="50.4448" lon="3.14155">
        <ele>34</ele>
        <time>2012-01-15T09:58:34Z</time>
      </trkpt>
      <trkpt lat="50.44477" lon="3.14135">
        <ele>34</ele>
        <time>2012-01-15T09:58:36Z</time>
      </trkpt>
      <trkpt lat="50.44475" lon="3.14115">
        <ele>34</ele>
        <time>2012-01-15T09:58:38Z</time>
      </trkpt>
      <trkpt lat="50.44473" lon="3.14094">
        <ele>34</ele>
        <time>2012-01-15T09:58:40Z</time>
      </trkpt>
      <trkpt lat="50.44472" lon="3.14074">
        <ele>34</ele>
        <time>2012-01-15T09:58:42Z</time>
      </trkpt>
      <trkpt lat="50.4447" lon="3.14053">
        <ele>34</ele>
        <time>2012-01-15T09:58:44Z</time>
      </trkpt>
      <trkpt lat="50.44468" lon="3.14033">
        <ele>34</ele>
        <time>2012-01-15T09:58:46Z</time>
      </trkpt>
      <trkpt lat="50.44467" lon="3.14012">
        <ele>34</ele>
        <time>2012-01-15T09:58:48Z</time>
      </trkpt>
      <trkpt lat="50.44465" lon="3.13993">
        <ele>34</ele>
        <time>2012-01-15T09:58:50Z</time>
      </trkpt>
      <trkpt lat="50.44463" lon="3.13973">
        <ele>34</ele>
        <time>2012-01-15T09:58:52Z</time>
      </trkpt>
      <trkpt lat="50.44462" lon="3.13952">
        <ele>34</ele>
        <time>2012-01-15T09:58:54Z</time>
      </trkpt>
      <trkpt lat="50.4446" lon="3.13932">
        <ele>34</ele>
        <time>2012-01-15T09:58:56Z</time>
      </trkpt>
      <trkpt lat="50.44459" lon="3.13914">
        <ele>34</ele>
        <time>2012-01-15T09:58:58Z</time>
      </trkpt>
      <trkpt lat="50.44457" lon="3.13895">
        <ele>34</ele>
        <time>2012-01-15T09:59:00Z</time>
      </trkpt>
      <trkpt lat="50.44456" lon="3.13878">
        <ele>34</ele>
        <time>2012-01-15T09:59:02Z</time>
      </trkpt>
      <trkpt lat="50.44457" lon="3.13863">
        <ele>34</ele>
        <time>2012-01-15T09:59:04Z</time>
      </trkpt>
      <trkpt lat="50.4447" lon="3.13858">
        <ele>34</ele>
        <time>2012-01-15T09:59:07Z</time>
      </trkpt>
      <trkpt lat="50.4448" lon="3.13862">
        <ele>34</ele>
        <time>2012-01-15T09:59:09Z</time>
      </trkpt>
      <trkpt lat="50.44491" lon="3.13864">
        <ele>34</ele>
        <time>2012-01-15T09:59:11Z</time>
      </trkpt>
      <trkpt lat="50.44503" lon="3.13868">
        <ele>34</ele>
        <time>2012-01-15T09:59:13Z</time>
      </trkpt>
      <trkpt lat="50.44516" lon="3.13871">
        <ele>34</ele>
        <time>2012-01-15T09:59:15Z</time>
      </trkpt>
      <trkpt lat="50.44529" lon="3.13874">
        <ele>34</ele>
        <time>2012-01-15T09:59:17Z</time>
      </trkpt>
      <trkpt lat="50.44541" lon="3.13877">
        <ele>34</ele>
        <time>2012-01-15T09:59:19Z</time>
      </trkpt>
      <trkpt lat="50.44554" lon="3.1388">
        <ele>34</ele>
        <time>2012-01-15T09:59:21Z</time>
      </trkpt>
      <trkpt lat="50.44567" lon="3.13884">
        <ele>34</ele>
        <time>2012-01-15T09:59:23Z</time>
      </trkpt>
      <trkpt lat="50.4458" lon="3.13887">
        <ele>34</ele>
        <time>2012-01-15T09:59:25Z</time>
      </trkpt>
      <trkpt lat="50.44593" lon="3.1389">
        <ele>34</ele>
        <time>2012-01-15T09:59:27Z</time>
      </trkpt>
      <trkpt lat="50.44605" lon="3.13894">
        <ele>34</ele>
        <time>2012-01-15T09:59:29Z</time>
      </trkpt>
      <trkpt lat="50.44618" lon="3.13897">
        <ele>34</ele>
        <time>2012-01-15T09:59:31Z</time>
      </trkpt>
      <trkpt lat="50.44631" lon="3.13901">
        <ele>34</ele>
        <time>2012-01-15T09:59:33Z</time>
      </trkpt>
      <trkpt lat="50.44643" lon="3.13905">
        <ele>34</ele>
        <time>2012-01-15T09:59:35Z</time>
      </trkpt>
      <trkpt lat="50.44655" lon="3.13907">
        <ele>34</ele>
        <time>2012-01-15T09:59:37Z</time>
      </trkpt>
      <trkpt lat="50.44667" lon="3.1391">
        <ele>34</ele>
        <time>2012-01-15T09:59:39Z</time>
      </trkpt>
      <trkpt lat="50.44679" lon="3.13913">
        <ele>34</ele>
        <time>2012-01-15T09:59:41Z</time>
      </trkpt>
      <trkpt lat="50.44691" lon="3.13915">
        <ele>34</ele>
        <time>2012-01-15T09:59:43Z</time>
      </trkpt>
      <trkpt lat="50.44703" lon="3.13917">
        <ele>34</ele>
        <time>2012-01-15T09:59:45Z</time>
      </trkpt>
      <trkpt lat="50.44715" lon="3.13919">
        <ele>34</ele>
        <time>2012-01-15T09:59:47Z</time>
      </trkpt>
      <trkpt lat="50.44728" lon="3.13921">
        <ele>34</ele>
        <time>2012-01-15T09:59:49Z</time>
      </trkpt>
      <trkpt lat="50.4474" lon="3.13923">
        <ele>34</ele>
        <time>2012-01-15T09:59:51Z</time>
      </trkpt>
      <trkpt lat="50.44752" lon="3.13924">
        <ele>34</ele>
        <time>2012-01-15T09:59:53Z</time>
      </trkpt>
      <trkpt lat="50.44763" lon="3.13926">
        <ele>34</ele>
        <time>2012-01-15T09:59:55Z</time>
      </trkpt>
      <trkpt lat="50.44775" lon="3.13928">
        <ele>34</ele>
        <time>2012-01-15T09:59:57Z</time>
      </trkpt>
      <trkpt lat="50.44787" lon="3.1393">
        <ele>34</ele>
        <time>2012-01-15T09:59:59Z</time>
      </trkpt>
      <trkpt lat="50.44799" lon="3.13932">
        <ele>34</ele>
        <time>2012-01-15T10:00:01Z</time>
      </trkpt>
      <trkpt lat="50.4481" lon="3.13934">
        <ele>34</ele>
        <time>2012-01-15T10:00:03Z</time>
      </trkpt>
      <trkpt lat="50.44822" lon="3.13937">
        <ele>34</ele>
        <time>2012-01-15T10:00:05Z</time>
      </trkpt>
      <trkpt lat="50.44833" lon="3.13939">
        <ele>34</ele>
        <time>2012-01-15T10:00:07Z</time>
      </trkpt>
      <trkpt lat="50.44844" lon="3.13941">
        <ele>34</ele>
        <time>2012-01-15T10:00:09Z</time>
      </trkpt>
      <trkpt lat="50.44855" lon="3.13942">
        <ele>34</ele>
        <time>2012-01-15T10:00:11Z</time>
      </trkpt>
      <trkpt lat="50.44866" lon="3.13945">
        <ele>34</ele>
        <time>2012-01-15T10:00:13Z</time>
      </trkpt>
      <trkpt lat="50.44876" lon="3.13947">
        <ele>34</ele>
        <time>2012-01-15T10:00:15Z</time>
      </trkpt>
      <trkpt lat="50.44885" lon="3.13948">
        <ele>34</ele>
        <time>2012-01-15T10:00:17Z</time>
      </trkpt>
      <trkpt lat="50.44896" lon="3.13949">
        <ele>34</ele>
        <time>2012-01-15T10:00:19Z</time>
      </trkpt>
      <trkpt lat="50.44906" lon="3.13951">
        <ele>34</ele>
        <time>2012-01-15T10:00:21Z</time>
      </trkpt>
      <trkpt lat="50.44916" lon="3.13953">
        <ele>34</ele>
        <time>2012-01-15T10:00:23Z</time>
      </trkpt>
      <trkpt lat="50.44925" lon="3.13955">
        <ele>34</ele>
        <time>2012-01-15T10:00:25Z</time>
      </trkpt>
      <trkpt lat="50.44937" lon="3.13958">
        <ele>34</ele>
        <time>2012-01-15T10:00:28Z</time>
      </trkpt>
      <trkpt lat="50.44946" lon="3.13949">
        <ele>34</ele>
        <time>2012-01-15T10:00:32Z</time>
      </trkpt>
      <trkpt lat="50.4495" lon="3.13933">
        <ele>34</ele>
        <time>2012-01-15T10:00:36Z</time>
      </trkpt>
      <trkpt lat="50.44954" lon="3.13919">
        <ele>34</ele>
        <time>2012-01-15T10:00:39Z</time>
      </trkpt>
      <trkpt lat="50.44958" lon="3.13903">
        <ele>34</ele>
        <time>2012-01-15T10:00:42Z</time>
      </trkpt>
      <trkpt lat="50.44963" lon="3.13888">
        <ele>34</ele>
        <time>2012-01-15T10:00:45Z</time>
      </trkpt>
      <trkpt lat="50.44968" lon="3.13872">
        <ele>34</ele>
        <time>2012-01-15T10:00:48Z</time>
      </trkpt>
      <trkpt lat="50.44972" lon="3.13857">
        <ele>34</ele>
        <time>2012-01-15T10:00:51Z</time>
      </trkpt>
      <trkpt lat="50.44978" lon="3.13843">
        <ele>34</ele>
        <time>2012-01-15T10:00:54Z</time>
      </trkpt>
      <trkpt lat="50.44982" lon="3.13828">
        <ele>34</ele>
        <time>2012-01-15T10:00:57Z</time>
      </trkpt>
      <trkpt lat="50.44987" lon="3.13814">
        <ele>34</ele>
        <time>2012-01-15T10:01:00Z</time>
      </trkpt>
      <trkpt lat="50.44991" lon="3.138">
        <ele>34</ele>
        <time>2012-01-15T10:01:03Z</time>
      </trkpt>
      <trkpt lat="50.44996" lon="3.13786">
        <ele>34</ele>
        <time>2012-01-15T10:01:06Z</time>
      </trkpt>
      <trkpt lat="50.45" lon="3.13773">
        <ele>34</ele>
        <time>2012-01-15T10:01:09Z</time>
      </trkpt>
      <trkpt lat="50.45005" lon="3.13759">
        <ele>34</ele>
        <time>2012-01-15T10:01:13Z</time>
      </trkpt>
      <trkpt lat="50.45009" lon="3.13744">
        <ele>34</ele>
        <time>2012-01-15T10:01:17Z</time>
      </trkpt>
      <trkpt lat="50.45013" lon="3.13731">
        <ele>34</ele>
        <time>2012-01-15T10:01:20Z</time>
      </trkpt>
      <trkpt lat="50.45017" lon="3.13719">
        <ele>34</ele>
        <time>2012-01-15T10:01:23Z</time>
      </trkpt>
      <trkpt lat="50.45022" lon="3.13704">
        <ele>34</ele>
        <time>2012-01-15T10:01:27Z</time>
      </trkpt>
      <trkpt lat="50.45027" lon="3.13688">
        <ele>34</ele>
        <time>2012-01-15T10:01:31Z</time>
      </trkpt>
      <trkpt lat="50.45032" lon="3.13676">
        <ele>34</ele>
        <time>2012-01-15T10:01:34Z</time>
      </trkpt>
      <trkpt lat="50.45036" lon="3.13661">
        <ele>34</ele>
        <time>2012-01-15T10:01:38Z</time>
      </trkpt>
      <trkpt lat="50.4504" lon="3.13647">
        <ele>34</ele>
        <time>2012-01-15T10:01:42Z</time>
      </trkpt>
      <trkpt lat="50.45045" lon="3.13632">
        <ele>34</ele>
        <time>2012-01-15T10:01:46Z</time>
      </trkpt>
      <trkpt lat="50.45049" lon="3.13619">
        <ele>34</ele>
        <time>2012-01-15T10:01:50Z</time>
      </trkpt>
      <trkpt lat="50.45054" lon="3.13605">
        <ele>34</ele>
        <time>2012-01-15T10:01:54Z</time>
      </trkpt>
      <trkpt lat="50.45058" lon="3.13592">
        <ele>34</ele>
        <time>2012-01-15T10:01:58Z</time>
      </trkpt>
      <trkpt lat="50.45063" lon="3.13579">
        <ele>34</ele>
        <time>2012-01-15T10:02:05Z</time>
      </trkpt>
      <trkpt lat="50.45071" lon="3.1357">
        <ele>34</ele>
        <time>2012-01-15T10:02:14Z</time>
      </trkpt>
      <trkpt lat="50.45082" lon="3.13574">
        <ele>34</ele>
        <time>2012-01-15T10:02:18Z</time>
      </trkpt>
      <trkpt lat="50.45092" lon="3.13577">
        <ele>34</ele>
        <time>2012-01-15T10:02:21Z</time>
      </trkpt>
      <trkpt lat="50.45104" lon="3.13581">
        <ele>34</ele>
        <time>2012-01-15T10:02:24Z</time>
      </trkpt>
      <trkpt lat="50.45117" lon="3.13586">
        <ele>34</ele>
        <time>2012-01-15T10:02:27Z</time>
      </trkpt>
      <trkpt lat="50.4513" lon="3.1359">
        <ele>34</ele>
        <time>2012-01-15T10:02:30Z</time>
      </trkpt>
      <trkpt lat="50.45142" lon="3.13594">
        <ele>34</ele>
        <time>2012-01-15T10:02:33Z</time>
      </trkpt>
      <trkpt lat="50.45155" lon="3.13598">
        <ele>34</ele>
        <time>2012-01-15T10:02:36Z</time>
      </trkpt>
      <trkpt lat="50.45167" lon="3.13602">
        <ele>34</ele>
        <time>2012-01-15T10:02:39Z</time>
      </trkpt>
      <trkpt lat="50.4518" lon="3.13606">
        <ele>34</ele>
        <time>2012-01-15T10:02:42Z</time>
      </trkpt>
      <trkpt lat="50.45189" lon="3.13608">
        <ele>34</ele>
        <time>2012-01-15T10:02:44Z</time>
      </trkpt>
      <trkpt lat="50.45198" lon="3.1361">
        <ele>34</ele>
        <time>2012-01-15T10:02:46Z</time>
      </trkpt>
      <trkpt lat="50.45208" lon="3.13613">
        <ele>34</ele>
        <time>2012-01-15T10:02:48Z</time>
      </trkpt>
      <trkpt lat="50.45217" lon="3.13616">
        <ele>34</ele>
        <time>2012-01-15T10:02:50Z</time>
      </trkpt>
      <trkpt lat="50.45227" lon="3.13619">
        <ele>34</ele>
        <time>2012-01-15T10:02:52Z</time>
      </trkpt>
      <trkpt lat="50.45236" lon="3.13622">
        <ele>34</ele>
        <time>2012-01-15T10:02:54Z</time>
      </trkpt>
      <trkpt lat="50.45245" lon="3.13624">
        <ele>34</ele>
        <time>2012-01-15T10:02:56Z</time>
      </trkpt>
      <trkpt lat="50.45255" lon="3.13626">
        <ele>34</ele>
        <time>2012-01-15T10:02:58Z</time>
      </trkpt>
      <trkpt lat="50.45264" lon="3.13629">
        <ele>34</ele>
        <time>2012-01-15T10:03:00Z</time>
      </trkpt>
      <trkpt lat="50.45277" lon="3.13632">
        <ele>39</ele>
        <time>2012-01-15T10:03:03Z</time>
      </trkpt>
      <trkpt lat="50.45286" lon="3.13635">
        <ele>39</ele>
        <time>2012-01-15T10:03:05Z</time>
      </trkpt>
      <trkpt lat="50.45295" lon="3.13637">
        <ele>39</ele>
        <time>2012-01-15T10:03:07Z</time>
      </trkpt>
      <trkpt lat="50.45305" lon="3.13639">
        <ele>39</ele>
        <time>2012-01-15T10:03:09Z</time>
      </trkpt>
      <trkpt lat="50.45314" lon="3.13641">
        <ele>39</ele>
        <time>2012-01-15T10:03:11Z</time>
      </trkpt>
      <trkpt lat="50.45323" lon="3.13643">
        <ele>39</ele>
        <time>2012-01-15T10:03:13Z</time>
      </trkpt>
      <trkpt lat="50.45332" lon="3.13645">
        <ele>39</ele>
        <time>2012-01-15T10:03:15Z</time>
      </trkpt>
      <trkpt lat="50.45341" lon="3.13647">
        <ele>39</ele>
        <time>2012-01-15T10:03:17Z</time>
      </trkpt>
      <trkpt lat="50.4535" lon="3.13649">
        <ele>39</ele>
        <time>2012-01-15T10:03:19Z</time>
      </trkpt>
      <trkpt lat="50.45361" lon="3.1365">
        <ele>39</ele>
        <time>2012-01-15T10:03:21Z</time>
      </trkpt>
      <trkpt lat="50.45372" lon="3.13653">
        <ele>39</ele>
        <time>2012-01-15T10:03:23Z</time>
      </trkpt>
      <trkpt lat="50.45382" lon="3.13657">
        <ele>39</ele>
        <time>2012-01-15T10:03:25Z</time>
      </trkpt>
      <trkpt lat="50.45392" lon="3.13659">
        <ele>39</ele>
        <time>2012-01-15T10:03:27Z</time>
      </trkpt>
      <trkpt lat="50.45402" lon="3.13661">
        <ele>39</ele>
        <time>2012-01-15T10:03:29Z</time>
      </trkpt>
      <trkpt lat="50.45412" lon="3.13664">
        <ele>39</ele>
        <time>2012-01-15T10:03:31Z</time>
      </trkpt>
      <trkpt lat="50.45422" lon="3.13667">
        <ele>39</ele>
        <time>2012-01-15T10:03:33Z</time>
      </trkpt>
      <trkpt lat="50.45432" lon="3.13669">
        <ele>39</ele>
        <time>2012-01-15T10:03:35Z</time>
      </trkpt>
      <trkpt lat="50.45443" lon="3.13672">
        <ele>39</ele>
        <time>2012-01-15T10:03:37Z</time>
      </trkpt>
      <trkpt lat="50.45453" lon="3.13674">
        <ele>39</ele>
        <time>2012-01-15T10:03:39Z</time>
      </trkpt>
      <trkpt lat="50.45462" lon="3.13676">
        <ele>39</ele>
        <time>2012-01-15T10:03:41Z</time>
      </trkpt>
      <trkpt lat="50.45473" lon="3.13677">
        <ele>39</ele>
        <time>2012-01-15T10:03:43Z</time>
      </trkpt>
      <trkpt lat="50.45482" lon="3.13679">
        <ele>39</ele>
        <time>2012-01-15T10:03:45Z</time>
      </trkpt>
      <trkpt lat="50.45493" lon="3.1368">
        <ele>39</ele>
        <time>2012-01-15T10:03:47Z</time>
      </trkpt>
      <trkpt lat="50.45503" lon="3.13681">
        <ele>39</ele>
        <time>2012-01-15T10:03:49Z</time>
      </trkpt>
      <trkpt lat="50.45513" lon="3.13682">
        <ele>39</ele>
        <time>2012-01-15T10:03:51Z</time>
      </trkpt>
      <trkpt lat="50.45523" lon="3.13682">
        <ele>39</ele>
        <time>2012-01-15T10:03:53Z</time>
      </trkpt>
      <trkpt lat="50.45534" lon="3.13683">
        <ele>39</ele>
        <time>2012-01-15T10:03:55Z</time>
      </trkpt>
      <trkpt lat="50.45544" lon="3.13683">
        <ele>39</ele>
        <time>2012-01-15T10:03:57Z</time>
      </trkpt>
      <trkpt lat="50.45555" lon="3.13683">
        <ele>39</ele>
        <time>2012-01-15T10:03:59Z</time>
      </trkpt>
      <trkpt lat="50.45565" lon="3.13683">
        <ele>39</ele>
        <time>2012-01-15T10:04:01Z</time>
      </trkpt>
      <trkpt lat="50.45576" lon="3.13684">
        <ele>39</ele>
        <time>2012-01-15T10:04:03Z</time>
      </trkpt>
      <trkpt lat="50.45586" lon="3.13683">
        <ele>39</ele>
        <time>2012-01-15T10:04:05Z</time>
      </trkpt>
      <trkpt lat="50.45596" lon="3.13682">
        <ele>39</ele>
        <time>2012-01-15T10:04:07Z</time>
      </trkpt>
      <trkpt lat="50.45606" lon="3.13682">
        <ele>39</ele>
        <time>2012-01-15T10:04:09Z</time>
      </trkpt>
      <trkpt lat="50.45616" lon="3.13681">
        <ele>39</ele>
        <time>2012-01-15T10:04:11Z</time>
      </trkpt>
      <trkpt lat="50.45625" lon="3.13681">
        <ele>39</ele>
        <time>2012-01-15T10:04:13Z</time>
      </trkpt>
      <trkpt lat="50.45635" lon="3.13681">
        <ele>39</ele>
        <time>2012-01-15T10:04:15Z</time>
      </trkpt>
      <trkpt lat="50.45645" lon="3.13681">
        <ele>39</ele>
        <time>2012-01-15T10:04:17Z</time>
      </trkpt>
      <trkpt lat="50.45655" lon="3.13681">
        <ele>39</ele>
        <time>2012-01-15T10:04:19Z</time>
      </trkpt>
      <trkpt lat="50.45666" lon="3.13681">
        <ele>39</ele>
        <time>2012-01-15T10:04:21Z</time>
      </trkpt>
      <trkpt lat="50.45677" lon="3.13681">
        <ele>39</ele>
        <time>2012-01-15T10:04:23Z</time>
      </trkpt>
      <trkpt lat="50.45688" lon="3.13682">
        <ele>39</ele>
        <time>2012-01-15T10:04:25Z</time>
      </trkpt>
      <trkpt lat="50.45699" lon="3.13682">
        <ele>39</ele>
        <time>2012-01-15T10:04:27Z</time>
      </trkpt>
      <trkpt lat="50.45709" lon="3.13682">
        <ele>39</ele>
        <time>2012-01-15T10:04:29Z</time>
      </trkpt>
      <trkpt lat="50.4572" lon="3.13681">
        <ele>39</ele>
        <time>2012-01-15T10:04:31Z</time>
      </trkpt>
      <trkpt lat="50.4573" lon="3.13681">
        <ele>39</ele>
        <time>2012-01-15T10:04:33Z</time>
      </trkpt>
      <trkpt lat="50.45739" lon="3.13681">
        <ele>39</ele>
        <time>2012-01-15T10:04:35Z</time>
      </trkpt>
      <trkpt lat="50.45748" lon="3.13681">
        <ele>39</ele>
        <time>2012-01-15T10:04:37Z</time>
      </trkpt>
      <trkpt lat="50.45761" lon="3.13681">
        <ele>39</ele>
        <time>2012-01-15T10:04:40Z</time>
      </trkpt>
      <trkpt lat="50.45772" lon="3.13681">
        <ele>39</ele>
        <time>2012-01-15T10:04:43Z</time>
      </trkpt>
      <trkpt lat="50.4578" lon="3.13687">
        <ele>39</ele>
        <time>2012-01-15T10:05:00Z</time>
      </trkpt>
    </trkseg>
  </trk>
</gpx>